<?xml version='1.0' encoding='UTF-8'?><gpx version="1.1" creator="JPX - https://github.com/jenetics/jpx" xmlns="http://www.topografix.com/GPX/1/1"><trk><trkseg><trkpt lat="43.05524691321005" lon="11.709383648750846"><ele>446.0</ele><time>2026-05-01T08:10:08.999Z</time></trkpt><trkpt lat="43.05532007226808" lon="11.709382419386955"><ele>446.0</ele><time>2026-05-01T08:10:09.999Z</time></trkpt><trkpt lat="43.0553981973161" lon="11.709374675789286"><ele>446.0</ele><time>2026-05-01T08:10:10.999Z</time></trkpt><trkpt lat="43.05549573097437" lon="11.70931952837277"><ele>446.0</ele><time>2026-05-01T08:10:12.999Z</time></trkpt><trkpt lat="43.05552683074586" lon="11.709175198907186"><ele>446.0</ele><time>2026-05-01T08:10:14.999Z</time></trkpt><trkpt lat="43.055529510807496" lon="11.709045219461625"><ele>446.0</ele><time>2026-05-01T08:10:16.999Z</time></trkpt><trkpt lat="43.05551667426954" lon="11.70892802643499"><ele>446.0</ele><time>2026-05-01T08:10:18.999Z</time></trkpt><trkpt lat="43.05550475013228" lon="11.708808147137255"><ele>446.0</ele><time>2026-05-01T08:10:20.999Z</time></trkpt><trkpt lat="43.05552791965693" lon="11.708688516951527"><ele>446.0</ele><time>2026-05-01T08:10:22.999Z</time></trkpt><trkpt lat="43.05561489116363" lon="11.708566519923657"><ele>446.0</ele><time>2026-05-01T08:10:24.999Z</time></trkpt><trkpt lat="43.05572539259538" lon="11.70849313797002"><ele>444.4</ele><time>2026-05-01T08:10:26.999Z</time></trkpt><trkpt lat="43.05580465582992" lon="11.708434794224068"><ele>442.8</ele><time>2026-05-01T08:10:27.999Z</time></trkpt><trkpt lat="43.05589399374488" lon="11.708373922167"><ele>441.19999999999993</ele><time>2026-05-01T08:10:28.999Z</time></trkpt><trkpt lat="43.05598920271085" lon="11.708313203860364"><ele>439.59999999999997</ele><time>2026-05-01T08:10:29.999Z</time></trkpt><trkpt lat="43.056083510992586" lon="11.708247099161678"><ele>438.0</ele><time>2026-05-01T08:10:30.999Z</time></trkpt><trkpt lat="43.05617114857583" lon="11.708205944873434"><ele>438.0</ele><time>2026-05-01T08:10:31.999Z</time></trkpt><trkpt lat="43.0562524850319" lon="11.7081653458378"><ele>438.0</ele><time>2026-05-01T08:10:32.999Z</time></trkpt><trkpt lat="43.05633019393247" lon="11.708123375055655"><ele>438.0</ele><time>2026-05-01T08:10:33.999Z</time></trkpt><trkpt lat="43.056404492409875" lon="11.70809613457285"><ele>438.0</ele><time>2026-05-01T08:10:34.999Z</time></trkpt><trkpt lat="43.05646559426144" lon="11.708051028970377"><ele>438.0</ele><time>2026-05-01T08:10:35.999Z</time></trkpt><trkpt lat="43.05651384650117" lon="11.707988514995801"><ele>438.0</ele><time>2026-05-01T08:10:36.999Z</time></trkpt><trkpt lat="43.05650456614754" lon="11.707800605782772"><ele>435.2</ele><time>2026-05-01T08:10:38.999Z</time></trkpt><trkpt lat="43.056458779886036" lon="11.70770096492653"><ele>432.4</ele><time>2026-05-01T08:10:39.999Z</time></trkpt><trkpt lat="43.05640829678761" lon="11.707596707746378"><ele>429.59999999999997</ele><time>2026-05-01T08:10:40.999Z</time></trkpt><trkpt lat="43.05641174644248" lon="11.707429708766238"><ele>426.79999999999995</ele><time>2026-05-01T08:10:41.999Z</time></trkpt><trkpt lat="43.05635816438632" lon="11.707289957912293"><ele>424.0</ele><time>2026-05-01T08:10:42.999Z</time></trkpt><trkpt lat="43.0564140823423" lon="11.707182198200169"><ele>424.00000000000006</ele><time>2026-05-01T08:10:43.999Z</time></trkpt><trkpt lat="43.05641581646825" lon="11.70705309906832"><ele>424.0</ele><time>2026-05-01T08:10:44.999Z</time></trkpt><trkpt lat="43.056398794582236" lon="11.706945529086546"><ele>424.0</ele><time>2026-05-01T08:10:45.999Z</time></trkpt><trkpt lat="43.0563808617422" lon="11.706822400551554"><ele>424.0</ele><time>2026-05-01T08:10:46.999Z</time></trkpt><trkpt lat="43.056379902750635" lon="11.706706841921966"><ele>424.00000000000006</ele><time>2026-05-01T08:10:47.999Z</time></trkpt><trkpt lat="43.05637582423885" lon="11.706609419263666"><ele>424.0</ele><time>2026-05-01T08:10:48.999Z</time></trkpt><trkpt lat="43.05637339406866" lon="11.706519081085757"><ele>422.2</ele><time>2026-05-01T08:10:49.999Z</time></trkpt><trkpt lat="43.0563408812214" lon="11.70636177819352"><ele>420.4</ele><time>2026-05-01T08:10:51.999Z</time></trkpt><trkpt lat="43.05629089443836" lon="11.706300391250037"><ele>418.6</ele><time>2026-05-01T08:10:52.999Z</time></trkpt><trkpt lat="43.05622043874891" lon="11.706262475292222"><ele>416.8</ele><time>2026-05-01T08:10:53.999Z</time></trkpt><trkpt lat="43.05614530076535" lon="11.706304560653905"><ele>415.0</ele><time>2026-05-01T08:10:54.999Z</time></trkpt><trkpt lat="43.056039333438775" lon="11.706319175107229"><ele>415.00000000000006</ele><time>2026-05-01T08:10:56.999Z</time></trkpt><trkpt lat="43.0559743406991" lon="11.706330620443746"><ele>415.0</ele><time>2026-05-01T08:10:57.999Z</time></trkpt><trkpt lat="43.05589621877177" lon="11.706357565706934"><ele>415.0</ele><time>2026-05-01T08:10:58.999Z</time></trkpt><trkpt lat="43.055817856068316" lon="11.706378408296457"><ele>415.0</ele><time>2026-05-01T08:10:59.999Z</time></trkpt><trkpt lat="43.055740532140184" lon="11.706399841198772"><ele>415.00000000000006</ele><time>2026-05-01T08:11:00.999Z</time></trkpt><trkpt lat="43.05564663720433" lon="11.706426227032443"><ele>415.0</ele><time>2026-05-01T08:11:01.999Z</time></trkpt><trkpt lat="43.055546894001814" lon="11.706457433855777"><ele>415.0</ele><time>2026-05-01T08:11:02.999Z</time></trkpt><trkpt lat="43.05544345824713" lon="11.70650675286514"><ele>415.0</ele><time>2026-05-01T08:11:03.998Z</time></trkpt><trkpt lat="43.055350024775265" lon="11.706566139853823"><ele>415.0</ele><time>2026-05-01T08:11:04.998Z</time></trkpt><trkpt lat="43.05525771626094" lon="11.706629946753765"><ele>415.0</ele><time>2026-05-01T08:11:05.998Z</time></trkpt><trkpt lat="43.055170388462884" lon="11.70669640928352"><ele>415.0</ele><time>2026-05-01T08:11:06.998Z</time></trkpt><trkpt lat="43.055080118022765" lon="11.706770220759692"><ele>415.0</ele><time>2026-05-01T08:11:07.998Z</time></trkpt><trkpt lat="43.0549879691791" lon="11.706841682775968"><ele>415.0</ele><time>2026-05-01T08:11:08.998Z</time></trkpt><trkpt lat="43.0548867239067" lon="11.70687456845829"><ele>415.0</ele><time>2026-05-01T08:11:09.998Z</time></trkpt><trkpt lat="43.054795452665225" lon="11.706929236883155"><ele>415.0</ele><time>2026-05-01T08:11:10.998Z</time></trkpt><trkpt lat="43.05469714315038" lon="11.706962603612203"><ele>415.0</ele><time>2026-05-01T08:11:11.998Z</time></trkpt><trkpt lat="43.05459265000957" lon="11.706990789314935"><ele>415.2</ele><time>2026-05-01T08:11:12.998Z</time></trkpt><trkpt lat="43.05448431534659" lon="11.707013701557814"><ele>415.4</ele><time>2026-05-01T08:11:13.998Z</time></trkpt><trkpt lat="43.0543788574097" lon="11.707027825119201"><ele>415.6</ele><time>2026-05-01T08:11:14.998Z</time></trkpt><trkpt lat="43.05426805039525" lon="11.70703954828416"><ele>415.8</ele><time>2026-05-01T08:11:15.998Z</time></trkpt><trkpt lat="43.05414779868683" lon="11.70707063306048"><ele>416.0</ele><time>2026-05-01T08:11:16.998Z</time></trkpt><trkpt lat="43.054026942817615" lon="11.707070001077897"><ele>415.0</ele><time>2026-05-01T08:11:17.998Z</time></trkpt><trkpt lat="43.053909785099364" lon="11.707086304029529"><ele>414.0</ele><time>2026-05-01T08:11:18.998Z</time></trkpt><trkpt lat="43.053789785694455" lon="11.70710300240883"><ele>413.0</ele><time>2026-05-01T08:11:19.998Z</time></trkpt><trkpt lat="43.0536708117532" lon="11.707118833429183"><ele>412.0</ele><time>2026-05-01T08:11:20.998Z</time></trkpt><trkpt lat="43.05355280391356" lon="11.707131384387372"><ele>412.0</ele><time>2026-05-01T08:11:21.998Z</time></trkpt><trkpt lat="43.0534373806643" lon="11.707154792622273"><ele>412.0</ele><time>2026-05-01T08:11:22.998Z</time></trkpt><trkpt lat="43.05332228684633" lon="11.707167127690857"><ele>412.0</ele><time>2026-05-01T08:11:23.998Z</time></trkpt><trkpt lat="43.05320976165592" lon="11.70721197259387"><ele>412.0</ele><time>2026-05-01T08:11:24.998Z</time></trkpt><trkpt lat="43.05309714763592" lon="11.70722881252783"><ele>411.00000000000006</ele><time>2026-05-01T08:11:25.998Z</time></trkpt><trkpt lat="43.05299141351706" lon="11.707246448217616"><ele>410.0</ele><time>2026-05-01T08:11:26.998Z</time></trkpt><trkpt lat="43.052892479809586" lon="11.707261747444594"><ele>409.0</ele><time>2026-05-01T08:11:28Z</time></trkpt><trkpt lat="43.05280402577114" lon="11.707249197532116"><ele>408.0</ele><time>2026-05-01T08:11:29Z</time></trkpt><trkpt lat="43.052723139497054" lon="11.707269702997396"><ele>407.00000000000006</ele><time>2026-05-01T08:11:30Z</time></trkpt><trkpt lat="43.05265698440414" lon="11.707259639110248"><ele>406.0</ele><time>2026-05-01T08:11:31Z</time></trkpt><trkpt lat="43.05254364221756" lon="11.707290535325525"><ele>406.0</ele><time>2026-05-01T08:11:33Z</time></trkpt><trkpt lat="43.05246207634169" lon="11.70729674114425"><ele>406.0</ele><time>2026-05-01T08:11:34Z</time></trkpt><trkpt lat="43.05233354948218" lon="11.706846616297177"><ele>406.0</ele><time>2026-05-01T08:11:35Z</time></trkpt><trkpt lat="43.052253948337224" lon="11.70674614102092"><ele>403.6</ele><time>2026-05-01T08:11:36Z</time></trkpt><trkpt lat="43.052182777139805" lon="11.706660965286709"><ele>401.20000000000005</ele><time>2026-05-01T08:11:37Z</time></trkpt><trkpt lat="43.05211640841487" lon="11.706588542745083"><ele>398.79999999999995</ele><time>2026-05-01T08:11:38Z</time></trkpt><trkpt lat="43.05203937600788" lon="11.706533690252327"><ele>396.4</ele><time>2026-05-01T08:11:39Z</time></trkpt><trkpt lat="43.0519342355361" lon="11.706503019562012"><ele>394.0</ele><time>2026-05-01T08:11:40Z</time></trkpt><trkpt lat="43.05183090065288" lon="11.706468634740267"><ele>394.0</ele><time>2026-05-01T08:11:41Z</time></trkpt><trkpt lat="43.051750197514465" lon="11.706400191657664"><ele>394.0</ele><time>2026-05-01T08:11:42Z</time></trkpt><trkpt lat="43.051669548282526" lon="11.706307868930198"><ele>394.0</ele><time>2026-05-01T08:11:43Z</time></trkpt><trkpt lat="43.05159834043948" lon="11.706222940224917"><ele>394.0</ele><time>2026-05-01T08:11:44Z</time></trkpt><trkpt lat="43.0515276784551" lon="11.706148890388139"><ele>394.0</ele><time>2026-05-01T08:11:45Z</time></trkpt><trkpt lat="43.05145138564278" lon="11.70607265353343"><ele>390.2</ele><time>2026-05-01T08:11:46Z</time></trkpt><trkpt lat="43.05136921110881" lon="11.70599791039161"><ele>386.4</ele><time>2026-05-01T08:11:47Z</time></trkpt><trkpt lat="43.05128207345682" lon="11.70592283498213"><ele>382.6</ele><time>2026-05-01T08:11:48Z</time></trkpt><trkpt lat="43.05119900088527" lon="11.705843454646859"><ele>378.8</ele><time>2026-05-01T08:11:49Z</time></trkpt><trkpt lat="43.05110697125052" lon="11.705749000769348"><ele>375.0</ele><time>2026-05-01T08:11:50Z</time></trkpt><trkpt lat="43.051002542630265" lon="11.705642494693071"><ele>375.0</ele><time>2026-05-01T08:11:51Z</time></trkpt><trkpt lat="43.050892912608695" lon="11.705531805919831"><ele>375.0</ele><time>2026-05-01T08:11:52Z</time></trkpt><trkpt lat="43.05079074610696" lon="11.705425873824296"><ele>375.0</ele><time>2026-05-01T08:11:53Z</time></trkpt><trkpt lat="43.05069420750133" lon="11.70532767589865"><ele>375.0</ele><time>2026-05-01T08:11:54Z</time></trkpt><trkpt lat="43.050597157482414" lon="11.705230085990298"><ele>372.75</ele><time>2026-05-01T08:11:55Z</time></trkpt><trkpt lat="43.05050427118903" lon="11.705138155780102"><ele>370.5</ele><time>2026-05-01T08:11:56Z</time></trkpt><trkpt lat="43.05041321710304" lon="11.705046267905596"><ele>368.25</ele><time>2026-05-01T08:11:57Z</time></trkpt><trkpt lat="43.05032360119058" lon="11.704952122425892"><ele>366.0</ele><time>2026-05-01T08:11:58Z</time></trkpt><trkpt lat="43.05023333185146" lon="11.704861334249346"><ele>366.0</ele><time>2026-05-01T08:11:59Z</time></trkpt><trkpt lat="43.05014301653228" lon="11.704768060802719"><ele>366.0</ele><time>2026-05-01T08:12:00Z</time></trkpt><trkpt lat="43.05004412857829" lon="11.704661307943692"><ele>366.0</ele><time>2026-05-01T08:12:01Z</time></trkpt><trkpt lat="43.049925451876945" lon="11.704532640458192"><ele>366.0</ele><time>2026-05-01T08:12:02Z</time></trkpt><trkpt lat="43.049791851478616" lon="11.704400526830488"><ele>365.6666666666667</ele><time>2026-05-01T08:12:03Z</time></trkpt><trkpt lat="43.04965904622708" lon="11.704268742588136"><ele>365.33333333333337</ele><time>2026-05-01T08:12:04Z</time></trkpt><trkpt lat="43.049526396325405" lon="11.704136197151977"><ele>365.0</ele><time>2026-05-01T08:12:05Z</time></trkpt><trkpt lat="43.04938976317548" lon="11.704017095194951"><ele>365.0</ele><time>2026-05-01T08:12:06Z</time></trkpt><trkpt lat="43.049273590668676" lon="11.703897290597107"><ele>365.0</ele><time>2026-05-01T08:12:07Z</time></trkpt><trkpt lat="43.049187898278525" lon="11.703749942420732"><ele>365.0</ele><time>2026-05-01T08:12:08Z</time></trkpt><trkpt lat="43.04909158939663" lon="11.70355922824266"><ele>364.0</ele><time>2026-05-01T08:12:09Z</time></trkpt><trkpt lat="43.04899209864518" lon="11.703386820675302"><ele>363.0</ele><time>2026-05-01T08:12:09.999Z</time></trkpt><trkpt lat="43.04891055629652" lon="11.703240146463582"><ele>362.0</ele><time>2026-05-01T08:12:10.999Z</time></trkpt><trkpt lat="43.04884321381187" lon="11.70310170663368"><ele>361.0</ele><time>2026-05-01T08:12:11.999Z</time></trkpt><trkpt lat="43.04879774892173" lon="11.702955878858706"><ele>361.0</ele><time>2026-05-01T08:12:12.999Z</time></trkpt><trkpt lat="43.04879024901736" lon="11.702819791477788"><ele>361.0</ele><time>2026-05-01T08:12:13.999Z</time></trkpt><trkpt lat="43.048819619709334" lon="11.702694391962893"><ele>361.0</ele><time>2026-05-01T08:12:14.999Z</time></trkpt><trkpt lat="43.04887863362431" lon="11.702567717201836"><ele>361.0</ele><time>2026-05-01T08:12:15.999Z</time></trkpt><trkpt lat="43.04894049354003" lon="11.702445863389288"><ele>361.0</ele><time>2026-05-01T08:12:16.999Z</time></trkpt><trkpt lat="43.04898191856441" lon="11.702315849876564"><ele>362.0</ele><time>2026-05-01T08:12:17.999Z</time></trkpt><trkpt lat="43.048985215994755" lon="11.702189356999577"><ele>363.0</ele><time>2026-05-01T08:12:18.999Z</time></trkpt><trkpt lat="43.04894583470664" lon="11.70205348579492"><ele>364.0</ele><time>2026-05-01T08:12:19.999Z</time></trkpt><trkpt lat="43.04889173500123" lon="11.701922975996661"><ele>365.0</ele><time>2026-05-01T08:12:20.999Z</time></trkpt><trkpt lat="43.04883694589346" lon="11.701807743240591"><ele>366.0</ele><time>2026-05-01T08:12:21.999Z</time></trkpt><trkpt lat="43.048786657533505" lon="11.70169022003312"><ele>366.20000000000005</ele><time>2026-05-01T08:12:22.999Z</time></trkpt><trkpt lat="43.048715825277434" lon="11.701567227998794"><ele>366.40000000000003</ele><time>2026-05-01T08:12:23.999Z</time></trkpt><trkpt lat="43.04862797157355" lon="11.701475006526877"><ele>366.6</ele><time>2026-05-01T08:12:24.999Z</time></trkpt><trkpt lat="43.04854446672037" lon="11.701408718760554"><ele>366.8</ele><time>2026-05-01T08:12:25.999Z</time></trkpt><trkpt lat="43.04846397034141" lon="11.701365307143552"><ele>367.0</ele><time>2026-05-01T08:12:26.999Z</time></trkpt><trkpt lat="43.04838151410413" lon="11.701358580093137"><ele>364.20000000000005</ele><time>2026-05-01T08:12:27.999Z</time></trkpt><trkpt lat="43.04828146156924" lon="11.701389292113008"><ele>361.4</ele><time>2026-05-01T08:12:28.999Z</time></trkpt><trkpt lat="43.04817587516931" lon="11.701433276734656"><ele>358.6</ele><time>2026-05-01T08:12:29.999Z</time></trkpt><trkpt lat="43.048088329649794" lon="11.701473756603322"><ele>355.79999999999995</ele><time>2026-05-01T08:12:30.999Z</time></trkpt><trkpt lat="43.04802528940951" lon="11.701511895941005"><ele>353.0</ele><time>2026-05-01T08:12:31.999Z</time></trkpt><trkpt lat="43.04791256121381" lon="11.70159471736055"><ele>353.0</ele><time>2026-05-01T08:12:33.999Z</time></trkpt><trkpt lat="43.04784341858087" lon="11.701579698140574"><ele>353.0</ele><time>2026-05-01T08:12:34.999Z</time></trkpt><trkpt lat="43.047764496272016" lon="11.701526244957194"><ele>353.0</ele><time>2026-05-01T08:12:35.999Z</time></trkpt><trkpt lat="43.047694782523514" lon="11.701420093040248"><ele>353.0</ele><time>2026-05-01T08:12:36.999Z</time></trkpt><trkpt lat="43.04761471967721" lon="11.701320673169349"><ele>353.0</ele><time>2026-05-01T08:12:37.999Z</time></trkpt><trkpt lat="43.04752682596814" lon="11.701196906021542"><ele>349.75</ele><time>2026-05-01T08:12:38.999Z</time></trkpt><trkpt lat="43.04742686233978" lon="11.701053708425636"><ele>346.5</ele><time>2026-05-01T08:12:39.999Z</time></trkpt><trkpt lat="43.047328328821195" lon="11.70091078455708"><ele>343.25</ele><time>2026-05-01T08:12:40.999Z</time></trkpt><trkpt lat="43.0472341619529" lon="11.700769078000201"><ele>340.0</ele><time>2026-05-01T08:12:41.999Z</time></trkpt><trkpt lat="43.04715397868388" lon="11.700616433774258"><ele>340.0</ele><time>2026-05-01T08:12:42.999Z</time></trkpt><trkpt lat="43.04707367276234" lon="11.700457973779042"><ele>340.0</ele><time>2026-05-01T08:12:43.999Z</time></trkpt><trkpt lat="43.04699109273841" lon="11.700304048140355"><ele>340.0</ele><time>2026-05-01T08:12:44.999Z</time></trkpt><trkpt lat="43.04690329778809" lon="11.700151304956467"><ele>340.0</ele><time>2026-05-01T08:12:45.999Z</time></trkpt><trkpt lat="43.0468068532374" lon="11.700024740824736"><ele>338.75</ele><time>2026-05-01T08:12:46.999Z</time></trkpt><trkpt lat="43.046743070709155" lon="11.699877301044017"><ele>337.5</ele><time>2026-05-01T08:12:47.999Z</time></trkpt><trkpt lat="43.04668594931116" lon="11.69972303131692"><ele>336.25</ele><time>2026-05-01T08:12:48.999Z</time></trkpt><trkpt lat="43.046642050104445" lon="11.699551431711356"><ele>335.0</ele><time>2026-05-01T08:12:49.999Z</time></trkpt><trkpt lat="43.04659529126358" lon="11.699375525168966"><ele>331.25</ele><time>2026-05-01T08:12:50.999Z</time></trkpt><trkpt lat="43.046529614310366" lon="11.69920685254987"><ele>327.5</ele><time>2026-05-01T08:12:51.999Z</time></trkpt><trkpt lat="43.046443129240735" lon="11.699060161391955"><ele>323.75</ele><time>2026-05-01T08:12:52.999Z</time></trkpt><trkpt lat="43.04633893914111" lon="11.698940262356254"><ele>320.0</ele><time>2026-05-01T08:12:53.999Z</time></trkpt><trkpt lat="43.046245518967694" lon="11.698824629379107"><ele>320.0</ele><time>2026-05-01T08:12:54.999Z</time></trkpt><trkpt lat="43.04616156565976" lon="11.698712181350734"><ele>320.0</ele><time>2026-05-01T08:12:55.999Z</time></trkpt><trkpt lat="43.04607960516337" lon="11.698599108822057"><ele>320.0</ele><time>2026-05-01T08:12:56.999Z</time></trkpt><trkpt lat="43.04599568505157" lon="11.698471257958289"><ele>320.0</ele><time>2026-05-01T08:12:57.999Z</time></trkpt><trkpt lat="43.04588891411768" lon="11.698343975765175"><ele>318.33333333333337</ele><time>2026-05-01T08:12:58.999Z</time></trkpt><trkpt lat="43.045773446751646" lon="11.69822918183083"><ele>316.6666666666667</ele><time>2026-05-01T08:12:59.999Z</time></trkpt><trkpt lat="43.04561649247656" lon="11.698131789344934"><ele>315.0</ele><time>2026-05-01T08:13:00.999Z</time></trkpt><trkpt lat="43.04545347070869" lon="11.698057009966659"><ele>315.0</ele><time>2026-05-01T08:13:01.999Z</time></trkpt><trkpt lat="43.04528843648225" lon="11.697988841351917"><ele>315.0</ele><time>2026-05-01T08:13:02.999Z</time></trkpt><trkpt lat="43.04513233831002" lon="11.697933919800455"><ele>315.0</ele><time>2026-05-01T08:13:03.999Z</time></trkpt><trkpt lat="43.04497057597175" lon="11.697906374152977"><ele>316.4</ele><time>2026-05-01T08:13:04.999Z</time></trkpt><trkpt lat="43.04482375630668" lon="11.697926747310035"><ele>317.8</ele><time>2026-05-01T08:13:05.999Z</time></trkpt><trkpt lat="43.04471129283028" lon="11.697910861643614"><ele>319.20000000000005</ele><time>2026-05-01T08:13:06.999Z</time></trkpt><trkpt lat="43.044632636565225" lon="11.697911670070274"><ele>320.6</ele><time>2026-05-01T08:13:07.999Z</time></trkpt><trkpt lat="43.04456233332757" lon="11.697912392646018"><ele>322.0</ele><time>2026-05-01T08:13:09.999Z</time></trkpt><trkpt lat="43.044516744796624" lon="11.698052919297558"><ele>322.0</ele><time>2026-05-01T08:13:12.998Z</time></trkpt><trkpt lat="43.04451250130885" lon="11.698242997461767"><ele>322.0</ele><time>2026-05-01T08:13:29.998Z</time></trkpt><trkpt lat="43.04449953681146" lon="11.69839792348598"><ele>322.0</ele><time>2026-05-01T08:13:30.998Z</time></trkpt><trkpt lat="43.04447672746718" lon="11.698570951871474"><ele>322.0</ele><time>2026-05-01T08:13:31.998Z</time></trkpt><trkpt lat="43.04445312528081" lon="11.698742461049774"><ele>322.20000000000005</ele><time>2026-05-01T08:13:32.998Z</time></trkpt><trkpt lat="43.04442942708015" lon="11.69890368881089"><ele>322.4</ele><time>2026-05-01T08:13:34Z</time></trkpt><trkpt lat="43.04441027128319" lon="11.699045890804072"><ele>322.6</ele><time>2026-05-01T08:13:35Z</time></trkpt><trkpt lat="43.04439776573623" lon="11.69917281746689"><ele>322.79999999999995</ele><time>2026-05-01T08:13:36Z</time></trkpt><trkpt lat="43.0443851149483" lon="11.699291565825183"><ele>323.0</ele><time>2026-05-01T08:13:37Z</time></trkpt><trkpt lat="43.044370609632956" lon="11.699409399938173"><ele>323.1666666666667</ele><time>2026-05-01T08:13:38Z</time></trkpt><trkpt lat="43.044356412467856" lon="11.699523003077537"><ele>323.33333333333337</ele><time>2026-05-01T08:13:39Z</time></trkpt><trkpt lat="43.0443489966067" lon="11.699624858093811"><ele>323.5</ele><time>2026-05-01T08:13:40Z</time></trkpt><trkpt lat="43.04434364526639" lon="11.699736918693752"><ele>323.6666666666667</ele><time>2026-05-01T08:13:41Z</time></trkpt><trkpt lat="43.04434751047071" lon="11.699856831599542"><ele>323.8333333333333</ele><time>2026-05-01T08:13:42Z</time></trkpt><trkpt lat="43.04435885964508" lon="11.699975770529898"><ele>324.0</ele><time>2026-05-01T08:13:43Z</time></trkpt><trkpt lat="43.04437646071056" lon="11.700093816716024"><ele>324.0</ele><time>2026-05-01T08:13:44Z</time></trkpt><trkpt lat="43.04439831314522" lon="11.700212382053095"><ele>324.0</ele><time>2026-05-01T08:13:45Z</time></trkpt><trkpt lat="43.04442369745304" lon="11.700317620174932"><ele>324.0</ele><time>2026-05-01T08:13:46Z</time></trkpt><trkpt lat="43.04444426950236" lon="11.70043394113648"><ele>324.0</ele><time>2026-05-01T08:13:47Z</time></trkpt><trkpt lat="43.04446443116742" lon="11.700545933991487"><ele>324.0</ele><time>2026-05-01T08:13:48Z</time></trkpt><trkpt lat="43.04448173239544" lon="11.700651152972988"><ele>324.0</ele><time>2026-05-01T08:13:49Z</time></trkpt><trkpt lat="43.04450019342645" lon="11.700757010458897"><ele>324.79999999999995</ele><time>2026-05-01T08:13:50Z</time></trkpt><trkpt lat="43.04452006465692" lon="11.700859361384772"><ele>325.59999999999997</ele><time>2026-05-01T08:13:51Z</time></trkpt><trkpt lat="43.044534435686266" lon="11.700956871330458"><ele>326.4</ele><time>2026-05-01T08:13:52Z</time></trkpt><trkpt lat="43.04454337642999" lon="11.701049330700247"><ele>327.2</ele><time>2026-05-01T08:13:53Z</time></trkpt><trkpt lat="43.0445199851588" lon="11.701199848692374"><ele>328.0</ele><time>2026-05-01T08:13:55Z</time></trkpt><trkpt lat="43.044444814904026" lon="11.701336127291437"><ele>328.2</ele><time>2026-05-01T08:13:57Z</time></trkpt><trkpt lat="43.04439000127395" lon="11.701386009636277"><ele>328.4</ele><time>2026-05-01T08:13:58Z</time></trkpt><trkpt lat="43.04431302646242" lon="11.701382290029525"><ele>328.59999999999997</ele><time>2026-05-01T08:13:59Z</time></trkpt><trkpt lat="43.044219898440765" lon="11.70139286848198"><ele>328.79999999999995</ele><time>2026-05-01T08:14:00Z</time></trkpt><trkpt lat="43.04410795339246" lon="11.701401448033007"><ele>329.0</ele><time>2026-05-01T08:14:01Z</time></trkpt><trkpt lat="43.04398491042315" lon="11.70141904677307"><ele>328.0</ele><time>2026-05-01T08:14:02Z</time></trkpt><trkpt lat="43.043875583950935" lon="11.701430857393177"><ele>327.0</ele><time>2026-05-01T08:14:03Z</time></trkpt><trkpt lat="43.04378451034138" lon="11.701429237040555"><ele>326.0</ele><time>2026-05-01T08:14:04Z</time></trkpt><trkpt lat="43.043701152464934" lon="11.701430590181387"><ele>325.0</ele><time>2026-05-01T08:14:05Z</time></trkpt><trkpt lat="43.0436116998577" lon="11.701455350080163"><ele>324.0</ele><time>2026-05-01T08:14:06Z</time></trkpt><trkpt lat="43.043516567027524" lon="11.701505235702234"><ele>324.0</ele><time>2026-05-01T08:14:07Z</time></trkpt><trkpt lat="43.04344472441057" lon="11.701589327968653"><ele>324.0</ele><time>2026-05-01T08:14:08Z</time></trkpt><trkpt lat="43.04338634511149" lon="11.701701406392043"><ele>324.0</ele><time>2026-05-01T08:14:09Z</time></trkpt><trkpt lat="43.043331050265195" lon="11.70182855075176"><ele>324.0</ele><time>2026-05-01T08:14:10Z</time></trkpt><trkpt lat="43.04327507388927" lon="11.701929559174625"><ele>324.0</ele><time>2026-05-01T08:14:11Z</time></trkpt><trkpt lat="43.043189261586626" lon="11.70198209270038"><ele>322.59999999999997</ele><time>2026-05-01T08:14:12Z</time></trkpt><trkpt lat="43.04310804743752" lon="11.702022129613901"><ele>321.2</ele><time>2026-05-01T08:14:13Z</time></trkpt><trkpt lat="43.04302845780843" lon="11.702037611939062"><ele>319.79999999999995</ele><time>2026-05-01T08:14:14Z</time></trkpt><trkpt lat="43.04292987364547" lon="11.702050604016504"><ele>318.4</ele><time>2026-05-01T08:14:15Z</time></trkpt><trkpt lat="43.042795553653434" lon="11.702089447257626"><ele>317.0</ele><time>2026-05-01T08:14:15.999Z</time></trkpt><trkpt lat="43.0426732702988" lon="11.702119313263458"><ele>317.0</ele><time>2026-05-01T08:14:16.999Z</time></trkpt><trkpt lat="43.04256500624161" lon="11.702165847255294"><ele>317.0</ele><time>2026-05-01T08:14:17.999Z</time></trkpt><trkpt lat="43.04246555274331" lon="11.702227078984565"><ele>317.0</ele><time>2026-05-01T08:14:18.999Z</time></trkpt><trkpt lat="43.04237468360456" lon="11.702306950341445"><ele>317.0</ele><time>2026-05-01T08:14:19.999Z</time></trkpt><trkpt lat="43.04228856127674" lon="11.702390138429216"><ele>317.0</ele><time>2026-05-01T08:14:20.999Z</time></trkpt><trkpt lat="43.04219322350569" lon="11.702477035470517"><ele>317.0</ele><time>2026-05-01T08:14:21.999Z</time></trkpt><trkpt lat="43.042087488760416" lon="11.702566196381728"><ele>317.0</ele><time>2026-05-01T08:14:22.999Z</time></trkpt><trkpt lat="43.04197425543936" lon="11.702667764048147"><ele>317.0</ele><time>2026-05-01T08:14:23.999Z</time></trkpt><trkpt lat="43.04185550512179" lon="11.702767059013235"><ele>317.0</ele><time>2026-05-01T08:14:24.999Z</time></trkpt><trkpt lat="43.04174245318784" lon="11.702864765051668"><ele>315.25</ele><time>2026-05-01T08:14:25.999Z</time></trkpt><trkpt lat="43.04163065125099" lon="11.702956608455441"><ele>313.5</ele><time>2026-05-01T08:14:26.999Z</time></trkpt><trkpt lat="43.04152135059333" lon="11.703035902086134"><ele>311.75</ele><time>2026-05-01T08:14:27.999Z</time></trkpt><trkpt lat="43.04141516074041" lon="11.703102811225762"><ele>310.0</ele><time>2026-05-01T08:14:28.999Z</time></trkpt><trkpt lat="43.0413245682161" lon="11.703180959349883"><ele>310.0</ele><time>2026-05-01T08:14:29.999Z</time></trkpt><trkpt lat="43.04125195065929" lon="11.70319342138014"><ele>310.0</ele><time>2026-05-01T08:14:30.999Z</time></trkpt><trkpt lat="43.04115297524691" lon="11.703203956374816"><ele>310.0</ele><time>2026-05-01T08:14:32.999Z</time></trkpt><trkpt lat="43.04103579889157" lon="11.7031676887443"><ele>310.0</ele><time>2026-05-01T08:14:34.999Z</time></trkpt><trkpt lat="43.0409671411576" lon="11.703169335314973"><ele>310.0</ele><time>2026-05-01T08:14:35.999Z</time></trkpt><trkpt lat="43.040898225807254" lon="11.703150361913341"><ele>310.0</ele><time>2026-05-01T08:14:36.999Z</time></trkpt><trkpt lat="43.04082017731723" lon="11.703134550439861"><ele>309.75</ele><time>2026-05-01T08:14:37.999Z</time></trkpt><trkpt lat="43.040710279528035" lon="11.703115052224966"><ele>309.5</ele><time>2026-05-01T08:14:38.999Z</time></trkpt><trkpt lat="43.04057711751714" lon="11.70307352723439"><ele>309.25</ele><time>2026-05-01T08:14:39.999Z</time></trkpt><trkpt lat="43.04042429640791" lon="11.70303561409601"><ele>309.0</ele><time>2026-05-01T08:14:40.999Z</time></trkpt><trkpt lat="43.040267621914666" lon="11.702991647386657"><ele>309.0</ele><time>2026-05-01T08:14:41.999Z</time></trkpt><trkpt lat="43.04009061655973" lon="11.702947724076559"><ele>309.0</ele><time>2026-05-01T08:14:42.999Z</time></trkpt><trkpt lat="43.03988979917678" lon="11.702897645976869"><ele>309.0</ele><time>2026-05-01T08:14:43.999Z</time></trkpt><trkpt lat="43.039662279460096" lon="11.702840582709669"><ele>308.0</ele><time>2026-05-01T08:14:44.999Z</time></trkpt><trkpt lat="43.039437387133354" lon="11.70278295755138"><ele>307.0</ele><time>2026-05-01T08:14:45.999Z</time></trkpt><trkpt lat="43.03922810520727" lon="11.702734187828037"><ele>306.0</ele><time>2026-05-01T08:14:46.999Z</time></trkpt><trkpt lat="43.03903037723843" lon="11.702678760325645"><ele>305.0</ele><time>2026-05-01T08:14:47.999Z</time></trkpt><trkpt lat="43.03884532884252" lon="11.702632942358335"><ele>304.0</ele><time>2026-05-01T08:14:48.999Z</time></trkpt><trkpt lat="43.03865596904036" lon="11.702562053742843"><ele>303.0</ele><time>2026-05-01T08:14:49.999Z</time></trkpt><trkpt lat="43.03846160213004" lon="11.702514425887747"><ele>303.6666666666667</ele><time>2026-05-01T08:14:50.999Z</time></trkpt><trkpt lat="43.03827538846276" lon="11.702488938957794"><ele>304.33333333333337</ele><time>2026-05-01T08:14:51.999Z</time></trkpt><trkpt lat="43.03809675126483" lon="11.702442614567763"><ele>305.0</ele><time>2026-05-01T08:14:52.999Z</time></trkpt><trkpt lat="43.03794257833181" lon="11.702405704862553"><ele>305.0</ele><time>2026-05-01T08:14:53.999Z</time></trkpt><trkpt lat="43.03781649443097" lon="11.702370879634405"><ele>305.0</ele><time>2026-05-01T08:14:54.999Z</time></trkpt><trkpt lat="43.03771266391077" lon="11.702349568211424"><ele>305.0</ele><time>2026-05-01T08:14:55.999Z</time></trkpt><trkpt lat="43.0376263908897" lon="11.702354583414452"><ele>305.0</ele><time>2026-05-01T08:14:56.999Z</time></trkpt><trkpt lat="43.03756036285826" lon="11.702404451945071"><ele>305.0</ele><time>2026-05-01T08:14:57.999Z</time></trkpt><trkpt lat="43.03751690992267" lon="11.702489209643174"><ele>305.0</ele><time>2026-05-01T08:14:58.999Z</time></trkpt><trkpt lat="43.03750662291123" lon="11.702591417349634"><ele>305.0</ele><time>2026-05-01T08:14:59.999Z</time></trkpt><trkpt lat="43.037516356066" lon="11.702698853842021"><ele>305.0</ele><time>2026-05-01T08:15:00.999Z</time></trkpt><trkpt lat="43.03755596049132" lon="11.702807120244744"><ele>305.0</ele><time>2026-05-01T08:15:01.999Z</time></trkpt><trkpt lat="43.037622216706836" lon="11.702909721796676"><ele>305.0</ele><time>2026-05-01T08:15:02.999Z</time></trkpt><trkpt lat="43.037696791946736" lon="11.703038283367764"><ele>306.0</ele><time>2026-05-01T08:15:03.999Z</time></trkpt><trkpt lat="43.03779705093927" lon="11.703199977736656"><ele>307.0</ele><time>2026-05-01T08:15:04.999Z</time></trkpt><trkpt lat="43.03789089424281" lon="11.703391197716188"><ele>308.0</ele><time>2026-05-01T08:15:05.999Z</time></trkpt><trkpt lat="43.03796563033496" lon="11.703535826701856"><ele>308.4</ele><time>2026-05-01T08:15:06.999Z</time></trkpt><trkpt lat="43.03802961746261" lon="11.703653578130622"><ele>308.8</ele><time>2026-05-01T08:15:07.999Z</time></trkpt><trkpt lat="43.0380773025242" lon="11.703768293944629"><ele>309.2</ele><time>2026-05-01T08:15:08.999Z</time></trkpt><trkpt lat="43.03811258668075" lon="11.703899320570494"><ele>309.6</ele><time>2026-05-01T08:15:09.999Z</time></trkpt><trkpt lat="43.03813400965652" lon="11.704031579220619"><ele>310.0</ele><time>2026-05-01T08:15:10.999Z</time></trkpt><trkpt lat="43.03813236121042" lon="11.704208582994836"><ele>309.0</ele><time>2026-05-01T08:15:11.999Z</time></trkpt><trkpt lat="43.03811343000087" lon="11.704439516005122"><ele>308.0</ele><time>2026-05-01T08:15:12.999Z</time></trkpt><trkpt lat="43.03809356133741" lon="11.704650491668165"><ele>307.0</ele><time>2026-05-01T08:15:13.999Z</time></trkpt><trkpt lat="43.03808425626883" lon="11.704827562880823"><ele>307.0</ele><time>2026-05-01T08:15:14.999Z</time></trkpt><trkpt lat="43.03808332401298" lon="11.704989519178515"><ele>307.0</ele><time>2026-05-01T08:15:15.999Z</time></trkpt><trkpt lat="43.0380957570977" lon="11.705143490646835"><ele>307.0</ele><time>2026-05-01T08:15:16.999Z</time></trkpt><trkpt lat="43.03812025613149" lon="11.705308761297376"><ele>307.0</ele><time>2026-05-01T08:15:17.998Z</time></trkpt><trkpt lat="43.038180758746066" lon="11.705496130955025"><ele>307.66666666666663</ele><time>2026-05-01T08:15:18.998Z</time></trkpt><trkpt lat="43.03826538001243" lon="11.705708446134464"><ele>308.3333333333333</ele><time>2026-05-01T08:15:19.998Z</time></trkpt><trkpt lat="43.03834629393449" lon="11.705934784433637"><ele>309.0</ele><time>2026-05-01T08:15:20.998Z</time></trkpt><trkpt lat="43.038406879462116" lon="11.706130777740766"><ele>309.6666666666667</ele><time>2026-05-01T08:15:21.998Z</time></trkpt><trkpt lat="43.03846709086558" lon="11.70631863699589"><ele>310.33333333333337</ele><time>2026-05-01T08:15:22.998Z</time></trkpt><trkpt lat="43.03852552050072" lon="11.70650083872218"><ele>311.0</ele><time>2026-05-01T08:15:23.998Z</time></trkpt><trkpt lat="43.03859048530056" lon="11.70669447276985"><ele>311.0</ele><time>2026-05-01T08:15:24.998Z</time></trkpt><trkpt lat="43.03865354933382" lon="11.706866171744478"><ele>311.0</ele><time>2026-05-01T08:15:25.998Z</time></trkpt><trkpt lat="43.038674983737074" lon="11.707021710071082"><ele>311.0</ele><time>2026-05-01T08:15:26.998Z</time></trkpt><trkpt lat="43.03868726445887" lon="11.707145230967598"><ele>311.0</ele><time>2026-05-01T08:15:27.998Z</time></trkpt><trkpt lat="43.03868952145919" lon="11.707259097666297"><ele>311.0</ele><time>2026-05-01T08:15:28.998Z</time></trkpt><trkpt lat="43.03863343526039" lon="11.707364509259087"><ele>311.5</ele><time>2026-05-01T08:15:29.998Z</time></trkpt><trkpt lat="43.038536096834505" lon="11.707420680017744"><ele>312.0</ele><time>2026-05-01T08:15:30.998Z</time></trkpt><trkpt lat="43.03843090594564" lon="11.70748363497679"><ele>312.5</ele><time>2026-05-01T08:15:31.998Z</time></trkpt><trkpt lat="43.03831541783064" lon="11.70751508538981"><ele>313.0</ele><time>2026-05-01T08:15:32.998Z</time></trkpt><trkpt lat="43.03819090236829" lon="11.707515722845354"><ele>315.0</ele><time>2026-05-01T08:15:33.998Z</time></trkpt><trkpt lat="43.03806097078897" lon="11.707485359441284"><ele>317.0</ele><time>2026-05-01T08:15:34.998Z</time></trkpt><trkpt lat="43.03790091708514" lon="11.707449088499843"><ele>319.0</ele><time>2026-05-01T08:15:35.998Z</time></trkpt><trkpt lat="43.03772589518275" lon="11.707387753784342"><ele>319.0</ele><time>2026-05-01T08:15:36.998Z</time></trkpt><trkpt lat="43.037589375521456" lon="11.70728750408202"><ele>319.0</ele><time>2026-05-01T08:15:37.998Z</time></trkpt><trkpt lat="43.03747058829143" lon="11.707182177772124"><ele>319.0</ele><time>2026-05-01T08:15:38.998Z</time></trkpt><trkpt lat="43.03734894347379" lon="11.707068223770381"><ele>319.0</ele><time>2026-05-01T08:15:40Z</time></trkpt><trkpt lat="43.037228632416706" lon="11.70686646485767"><ele>319.0</ele><time>2026-05-01T08:15:41Z</time></trkpt><trkpt lat="43.03712420799039" lon="11.706681871408792"><ele>319.0</ele><time>2026-05-01T08:15:42Z</time></trkpt><trkpt lat="43.037015700650386" lon="11.706560587003972"><ele>319.0</ele><time>2026-05-01T08:15:43Z</time></trkpt><trkpt lat="43.036902935817636" lon="11.706466137838841"><ele>319.0</ele><time>2026-05-01T08:15:44Z</time></trkpt><trkpt lat="43.03676354452332" lon="11.706389647105016"><ele>320.0</ele><time>2026-05-01T08:15:45Z</time></trkpt><trkpt lat="43.03659589677655" lon="11.706311488895636"><ele>321.0</ele><time>2026-05-01T08:15:46Z</time></trkpt><trkpt lat="43.03640453835471" lon="11.706219275027987"><ele>322.0</ele><time>2026-05-01T08:15:47Z</time></trkpt><trkpt lat="43.03622298873381" lon="11.706118247324632"><ele>320.3333333333333</ele><time>2026-05-01T08:15:48Z</time></trkpt><trkpt lat="43.03605551840643" lon="11.706005644421145"><ele>318.6666666666667</ele><time>2026-05-01T08:15:49Z</time></trkpt><trkpt lat="43.03589269662384" lon="11.7059285109027"><ele>317.0</ele><time>2026-05-01T08:15:50Z</time></trkpt><trkpt lat="43.035733612557195" lon="11.705845941657817"><ele>316.6</ele><time>2026-05-01T08:15:51Z</time></trkpt><trkpt lat="43.03560775109049" lon="11.705765823229479"><ele>316.2</ele><time>2026-05-01T08:15:52Z</time></trkpt><trkpt lat="43.035514025626334" lon="11.705699524995424"><ele>315.8</ele><time>2026-05-01T08:15:53Z</time></trkpt><trkpt lat="43.035427749962075" lon="11.705667611060528"><ele>315.4</ele><time>2026-05-01T08:15:54Z</time></trkpt><trkpt lat="43.03536172899654" lon="11.705670657738978"><ele>315.0</ele><time>2026-05-01T08:15:55Z</time></trkpt><trkpt lat="43.03529483093964" lon="11.705728596637297"><ele>315.0</ele><time>2026-05-01T08:15:57Z</time></trkpt><trkpt lat="43.03525954737961" lon="11.705819340291331"><ele>315.0</ele><time>2026-05-01T08:15:59Z</time></trkpt><trkpt lat="43.0352397129829" lon="11.705929847060245"><ele>315.0</ele><time>2026-05-01T08:16:00Z</time></trkpt><trkpt lat="43.035220916735426" lon="11.706101823657969"><ele>315.0</ele><time>2026-05-01T08:16:01Z</time></trkpt><trkpt lat="43.03519991164418" lon="11.706338981960418"><ele>315.0</ele><time>2026-05-01T08:16:02Z</time></trkpt><trkpt lat="43.03517823580277" lon="11.70658298617243"><ele>315.0</ele><time>2026-05-01T08:16:03Z</time></trkpt><trkpt lat="43.035161881584905" lon="11.706767879610892"><ele>315.0</ele><time>2026-05-01T08:16:04Z</time></trkpt><trkpt lat="43.035146434330315" lon="11.706920734759603"><ele>315.0</ele><time>2026-05-01T08:16:05Z</time></trkpt><trkpt lat="43.03512025070321" lon="11.707033074550175"><ele>314.8333333333333</ele><time>2026-05-01T08:16:06Z</time></trkpt><trkpt lat="43.035065628001675" lon="11.707120677814173"><ele>314.6666666666667</ele><time>2026-05-01T08:16:07Z</time></trkpt><trkpt lat="43.034987047723014" lon="11.707165087095131"><ele>314.5</ele><time>2026-05-01T08:16:08Z</time></trkpt><trkpt lat="43.034914956708015" lon="11.707207267158392"><ele>314.33333333333337</ele><time>2026-05-01T08:16:09Z</time></trkpt><trkpt lat="43.0348629448962" lon="11.707268506637698"><ele>314.1666666666667</ele><time>2026-05-01T08:16:10Z</time></trkpt><trkpt lat="43.03483726073042" lon="11.707357964169244"><ele>314.0</ele><time>2026-05-01T08:16:11Z</time></trkpt><trkpt lat="43.03482551839583" lon="11.707467172652"><ele>313.4</ele><time>2026-05-01T08:16:12Z</time></trkpt><trkpt lat="43.034843567505334" lon="11.707579099132714"><ele>312.79999999999995</ele><time>2026-05-01T08:16:13Z</time></trkpt><trkpt lat="43.03488864331592" lon="11.707680093173886"><ele>312.20000000000005</ele><time>2026-05-01T08:16:14Z</time></trkpt><trkpt lat="43.03496144537329" lon="11.707764096478835"><ele>311.6</ele><time>2026-05-01T08:16:15Z</time></trkpt><trkpt lat="43.03506979261844" lon="11.707837629019942"><ele>311.0</ele><time>2026-05-01T08:16:16Z</time></trkpt><trkpt lat="43.03519098946122" lon="11.707901805187712"><ele>311.0</ele><time>2026-05-01T08:16:17Z</time></trkpt><trkpt lat="43.035282312707615" lon="11.707969229756737"><ele>311.0</ele><time>2026-05-01T08:16:18Z</time></trkpt><trkpt lat="43.03533326236997" lon="11.708053421351435"><ele>311.0</ele><time>2026-05-01T08:16:19Z</time></trkpt><trkpt lat="43.03534491698281" lon="11.708158785789431"><ele>311.0</ele><time>2026-05-01T08:16:20Z</time></trkpt><trkpt lat="43.03532673498358" lon="11.708256362976366"><ele>311.0</ele><time>2026-05-01T08:16:21Z</time></trkpt><trkpt lat="43.03527497296658" lon="11.70832710225531"><ele>311.0</ele><time>2026-05-01T08:16:22Z</time></trkpt><trkpt lat="43.03519741618507" lon="11.708361637495445"><ele>311.0</ele><time>2026-05-01T08:16:23Z</time></trkpt><trkpt lat="43.035095639432484" lon="11.7083215026141"><ele>311.0</ele><time>2026-05-01T08:16:24Z</time></trkpt><trkpt lat="43.03497398530627" lon="11.70828692195793"><ele>311.0</ele><time>2026-05-01T08:16:24.999Z</time></trkpt><trkpt lat="43.03483545795432" lon="11.708280075101857"><ele>311.0</ele><time>2026-05-01T08:16:25.999Z</time></trkpt><trkpt lat="43.034708056834425" lon="11.708287137404392"><ele>311.0</ele><time>2026-05-01T08:16:26.999Z</time></trkpt><trkpt lat="43.03459526124353" lon="11.708331876261804"><ele>311.0</ele><time>2026-05-01T08:16:27.999Z</time></trkpt><trkpt lat="43.03448319221058" lon="11.708384092846385"><ele>311.0</ele><time>2026-05-01T08:16:28.999Z</time></trkpt><trkpt lat="43.03438413653124" lon="11.70845577534572"><ele>311.0</ele><time>2026-05-01T08:16:29.999Z</time></trkpt><trkpt lat="43.03430567148146" lon="11.708527109109344"><ele>311.0</ele><time>2026-05-01T08:16:30.999Z</time></trkpt><trkpt lat="43.03424182585104" lon="11.708615942608043"><ele>311.0</ele><time>2026-05-01T08:16:31.999Z</time></trkpt><trkpt lat="43.0341823566919" lon="11.708737060062726"><ele>311.0</ele><time>2026-05-01T08:16:32.999Z</time></trkpt><trkpt lat="43.03412906659347" lon="11.708886815488313"><ele>311.0</ele><time>2026-05-01T08:16:33.999Z</time></trkpt><trkpt lat="43.034096843703615" lon="11.709045529250561"><ele>311.0</ele><time>2026-05-01T08:16:34.999Z</time></trkpt><trkpt lat="43.03409029029491" lon="11.709208957376061"><ele>310.0</ele><time>2026-05-01T08:16:35.999Z</time></trkpt><trkpt lat="43.03410856658288" lon="11.709380504936481"><ele>309.0</ele><time>2026-05-01T08:16:36.999Z</time></trkpt><trkpt lat="43.03415285405317" lon="11.70957708742884"><ele>308.0</ele><time>2026-05-01T08:16:37.999Z</time></trkpt><trkpt lat="43.034196408574616" lon="11.709777442101782"><ele>307.0</ele><time>2026-05-01T08:16:38.999Z</time></trkpt><trkpt lat="43.034233701954626" lon="11.709949013470775"><ele>309.0</ele><time>2026-05-01T08:16:39.999Z</time></trkpt><trkpt lat="43.034221948170675" lon="11.710110414761768"><ele>311.0</ele><time>2026-05-01T08:16:40.999Z</time></trkpt><trkpt lat="43.034214289817726" lon="11.710295475858226"><ele>313.0</ele><time>2026-05-01T08:16:41.999Z</time></trkpt><trkpt lat="43.03422028616786" lon="11.7105050407701"><ele>315.0</ele><time>2026-05-01T08:16:42.999Z</time></trkpt><trkpt lat="43.034206489253435" lon="11.710698331227015"><ele>315.0</ele><time>2026-05-01T08:16:43.999Z</time></trkpt><trkpt lat="43.03419087993419" lon="11.710893739163557"><ele>315.0</ele><time>2026-05-01T08:16:44.999Z</time></trkpt><trkpt lat="43.03417439249607" lon="11.711093213557309"><ele>315.0</ele><time>2026-05-01T08:16:45.999Z</time></trkpt><trkpt lat="43.03416605555341" lon="11.711274296582577"><ele>315.0</ele><time>2026-05-01T08:16:46.999Z</time></trkpt><trkpt lat="43.03415048186165" lon="11.711442993233755"><ele>315.0</ele><time>2026-05-01T08:16:47.999Z</time></trkpt><trkpt lat="43.03413381821824" lon="11.711587072887404"><ele>315.0</ele><time>2026-05-01T08:16:48.999Z</time></trkpt><trkpt lat="43.034139381834315" lon="11.711729336545751"><ele>315.0</ele><time>2026-05-01T08:16:49.999Z</time></trkpt><trkpt lat="43.03415605383941" lon="11.711876174162798"><ele>315.0</ele><time>2026-05-01T08:16:50.999Z</time></trkpt><trkpt lat="43.034185242637584" lon="11.712031614997331"><ele>315.0</ele><time>2026-05-01T08:16:51.999Z</time></trkpt><trkpt lat="43.03422975899827" lon="11.712190238794975"><ele>315.25</ele><time>2026-05-01T08:16:52.999Z</time></trkpt><trkpt lat="43.034301899678425" lon="11.712326090549473"><ele>315.5</ele><time>2026-05-01T08:16:53.999Z</time></trkpt><trkpt lat="43.034375905828554" lon="11.712485060876794"><ele>315.75</ele><time>2026-05-01T08:16:54.999Z</time></trkpt><trkpt lat="43.03445264922495" lon="11.712666657180792"><ele>316.0</ele><time>2026-05-01T08:16:55.999Z</time></trkpt><trkpt lat="43.034525334255164" lon="11.71284456050713"><ele>317.25</ele><time>2026-05-01T08:16:56.999Z</time></trkpt><trkpt lat="43.03459292823808" lon="11.713023788811011"><ele>318.5</ele><time>2026-05-01T08:16:57.999Z</time></trkpt><trkpt lat="43.034648862574635" lon="11.713193164822696"><ele>319.75</ele><time>2026-05-01T08:16:58.999Z</time></trkpt><trkpt lat="43.03469453982594" lon="11.713372191523092"><ele>321.0</ele><time>2026-05-01T08:16:59.999Z</time></trkpt><trkpt lat="43.034733240558644" lon="11.713580430851088"><ele>324.0</ele><time>2026-05-01T08:17:00.999Z</time></trkpt><trkpt lat="43.03477500907444" lon="11.71380093852709"><ele>327.0</ele><time>2026-05-01T08:17:01.999Z</time></trkpt><trkpt lat="43.03482823348398" lon="11.714039752703636"><ele>330.0</ele><time>2026-05-01T08:17:02.999Z</time></trkpt><trkpt lat="43.03485318259167" lon="11.714267576307371"><ele>331.25</ele><time>2026-05-01T08:17:03.999Z</time></trkpt><trkpt lat="43.03487911499173" lon="11.714451758050881"><ele>332.5</ele><time>2026-05-01T08:17:04.999Z</time></trkpt><trkpt lat="43.034912924562434" lon="11.714598091798463"><ele>333.75</ele><time>2026-05-01T08:17:05.999Z</time></trkpt><trkpt lat="43.03497535926809" lon="11.714731098399428"><ele>335.0</ele><time>2026-05-01T08:17:06.999Z</time></trkpt><trkpt lat="43.0350501935816" lon="11.714833955050224"><ele>333.8</ele><time>2026-05-01T08:17:07.999Z</time></trkpt><trkpt lat="43.03512856213926" lon="11.714942576361008"><ele>332.6</ele><time>2026-05-01T08:17:08.999Z</time></trkpt><trkpt lat="43.03518080066109" lon="11.715050619514086"><ele>331.4</ele><time>2026-05-01T08:17:09.999Z</time></trkpt><trkpt lat="43.03520417912799" lon="11.71516347330657"><ele>330.2</ele><time>2026-05-01T08:17:10.999Z</time></trkpt><trkpt lat="43.03520721408788" lon="11.715286329832427"><ele>329.0</ele><time>2026-05-01T08:17:11.999Z</time></trkpt><trkpt lat="43.03518584879397" lon="11.71541435647475"><ele>329.0</ele><time>2026-05-01T08:17:12.999Z</time></trkpt><trkpt lat="43.03513642048054" lon="11.71556888696293"><ele>329.0</ele><time>2026-05-01T08:17:13.999Z</time></trkpt><trkpt lat="43.03508184088343" lon="11.715754822611999"><ele>329.0</ele><time>2026-05-01T08:17:14.999Z</time></trkpt><trkpt lat="43.03504492148209" lon="11.715895733453685"><ele>329.0</ele><time>2026-05-01T08:17:15.999Z</time></trkpt><trkpt lat="43.03499724246006" lon="11.715995670009768"><ele>330.33333333333337</ele><time>2026-05-01T08:17:16.999Z</time></trkpt><trkpt lat="43.03496070615833" lon="11.716068908130456"><ele>331.6666666666667</ele><time>2026-05-01T08:17:17.999Z</time></trkpt><trkpt lat="43.03485660980765" lon="11.716162710435286"><ele>333.0</ele><time>2026-05-01T08:17:19.999Z</time></trkpt><trkpt lat="43.03478513372923" lon="11.71613873470026"><ele>334.3333333333333</ele><time>2026-05-01T08:17:20.999Z</time></trkpt><trkpt lat="43.03472271729938" lon="11.716113610483639"><ele>335.66666666666663</ele><time>2026-05-01T08:17:21.999Z</time></trkpt><trkpt lat="43.03466881518967" lon="11.716063797753321"><ele>337.0</ele><time>2026-05-01T08:17:22.999Z</time></trkpt><trkpt lat="43.03464793527154" lon="11.71597736567072"><ele>337.0</ele><time>2026-05-01T08:17:23.999Z</time></trkpt><trkpt lat="43.03460538976025" lon="11.715899891550478"><ele>337.0</ele><time>2026-05-01T08:17:24.999Z</time></trkpt><trkpt lat="43.034563531922615" lon="11.71581625322376"><ele>337.0</ele><time>2026-05-01T08:17:25.999Z</time></trkpt><trkpt lat="43.03450759454751" lon="11.715704880400951"><ele>337.0</ele><time>2026-05-01T08:17:26.999Z</time></trkpt><trkpt lat="43.034449893366876" lon="11.71559388602496"><ele>337.0</ele><time>2026-05-01T08:17:27.998Z</time></trkpt><trkpt lat="43.03439657064485" lon="11.71551465161889"><ele>337.0</ele><time>2026-05-01T08:17:28.998Z</time></trkpt><trkpt lat="43.03432780785381" lon="11.715452483581023"><ele>337.0</ele><time>2026-05-01T08:17:29.998Z</time></trkpt><trkpt lat="43.034254432225154" lon="11.715367735109728"><ele>337.0</ele><time>2026-05-01T08:17:30.998Z</time></trkpt><trkpt lat="43.0341637101783" lon="11.715273906366656"><ele>337.0</ele><time>2026-05-01T08:17:31.998Z</time></trkpt><trkpt lat="43.034064105906594" lon="11.715185658218326"><ele>337.0</ele><time>2026-05-01T08:17:32.998Z</time></trkpt><trkpt lat="43.03394834424574" lon="11.715056078734275"><ele>337.6</ele><time>2026-05-01T08:17:33.998Z</time></trkpt><trkpt lat="43.033835212282696" lon="11.714961630821396"><ele>338.20000000000005</ele><time>2026-05-01T08:17:34.998Z</time></trkpt><trkpt lat="43.033733545903225" lon="11.714880703853327"><ele>338.8</ele><time>2026-05-01T08:17:35.998Z</time></trkpt><trkpt lat="43.03365036194746" lon="11.714807800492007"><ele>339.4</ele><time>2026-05-01T08:17:36.998Z</time></trkpt><trkpt lat="43.03357238842827" lon="11.71475065701069"><ele>340.0</ele><time>2026-05-01T08:17:37.998Z</time></trkpt><trkpt lat="43.0334955000337" lon="11.71469252995265"><ele>340.0</ele><time>2026-05-01T08:17:38.998Z</time></trkpt><trkpt lat="43.03340735268808" lon="11.71469118451652"><ele>340.0</ele><time>2026-05-01T08:17:39.998Z</time></trkpt><trkpt lat="43.03331818197549" lon="11.71474719826894"><ele>340.0</ele><time>2026-05-01T08:17:40.998Z</time></trkpt><trkpt lat="43.03322735536322" lon="11.71481761488567"><ele>340.0</ele><time>2026-05-01T08:17:41.998Z</time></trkpt><trkpt lat="43.03312160058225" lon="11.71491073017747"><ele>340.0</ele><time>2026-05-01T08:17:42.998Z</time></trkpt><trkpt lat="43.0330116974966" lon="11.715048543144663"><ele>339.75</ele><time>2026-05-01T08:17:43.998Z</time></trkpt><trkpt lat="43.032910260937356" lon="11.715223594541255"><ele>339.5</ele><time>2026-05-01T08:17:44.998Z</time></trkpt><trkpt lat="43.03280408697649" lon="11.715379041522565"><ele>339.25</ele><time>2026-05-01T08:17:46Z</time></trkpt><trkpt lat="43.032711349609905" lon="11.715502232713234"><ele>339.0</ele><time>2026-05-01T08:17:47Z</time></trkpt><trkpt lat="43.03264316561616" lon="11.715629669622773"><ele>340.25</ele><time>2026-05-01T08:17:48Z</time></trkpt><trkpt lat="43.032585251259384" lon="11.715756735837735"><ele>341.5</ele><time>2026-05-01T08:17:49Z</time></trkpt><trkpt lat="43.032514577770705" lon="11.715902536326631"><ele>342.75</ele><time>2026-05-01T08:17:50Z</time></trkpt><trkpt lat="43.032439852722646" lon="11.716050800236529"><ele>344.0</ele><time>2026-05-01T08:17:51Z</time></trkpt><trkpt lat="43.03235754743283" lon="11.716209028748755"><ele>345.0</ele><time>2026-05-01T08:17:52Z</time></trkpt><trkpt lat="43.032263331169474" lon="11.716358922967515"><ele>346.0</ele><time>2026-05-01T08:17:53Z</time></trkpt><trkpt lat="43.032178632625715" lon="11.716525115027055"><ele>347.0</ele><time>2026-05-01T08:17:54Z</time></trkpt><trkpt lat="43.03210935292089" lon="11.71668495600698"><ele>348.0</ele><time>2026-05-01T08:17:55Z</time></trkpt><trkpt lat="43.03204971446986" lon="11.716830029144038"><ele>348.5</ele><time>2026-05-01T08:17:56Z</time></trkpt><trkpt lat="43.03200683440302" lon="11.716952513682553"><ele>349.0</ele><time>2026-05-01T08:17:57Z</time></trkpt><trkpt lat="43.031979688368295" lon="11.717055896510363"><ele>349.5</ele><time>2026-05-01T08:17:58Z</time></trkpt><trkpt lat="43.031952686431104" lon="11.717157569848554"><ele>350.0</ele><time>2026-05-01T08:17:59Z</time></trkpt><trkpt lat="43.03193237094405" lon="11.71726814784814"><ele>350.5</ele><time>2026-05-01T08:18:00Z</time></trkpt><trkpt lat="43.031919851509194" lon="11.717381102770709"><ele>351.0</ele><time>2026-05-01T08:18:01Z</time></trkpt><trkpt lat="43.03191322262625" lon="11.717496070604593"><ele>351.0</ele><time>2026-05-01T08:18:02Z</time></trkpt><trkpt lat="43.031907674108254" lon="11.717608041633655"><ele>351.0</ele><time>2026-05-01T08:18:03Z</time></trkpt><trkpt lat="43.03190439448139" lon="11.717718366347443"><ele>351.0</ele><time>2026-05-01T08:18:04Z</time></trkpt><trkpt lat="43.03189676273581" lon="11.717836849269016"><ele>351.0</ele><time>2026-05-01T08:18:05Z</time></trkpt><trkpt lat="43.03188557197002" lon="11.717976762643113"><ele>351.0</ele><time>2026-05-01T08:18:06Z</time></trkpt><trkpt lat="43.031876213955826" lon="11.718144175564449"><ele>351.5</ele><time>2026-05-01T08:18:07Z</time></trkpt><trkpt lat="43.03186630146253" lon="11.718336554290252"><ele>352.0</ele><time>2026-05-01T08:18:08Z</time></trkpt><trkpt lat="43.03185355736362" lon="11.718536827668517"><ele>352.5</ele><time>2026-05-01T08:18:09Z</time></trkpt><trkpt lat="43.0318392509101" lon="11.718683944418936"><ele>353.0</ele><time>2026-05-01T08:18:10Z</time></trkpt><trkpt lat="43.0318249719504" lon="11.718800509853606"><ele>353.0</ele><time>2026-05-01T08:18:11Z</time></trkpt><trkpt lat="43.03181949888905" lon="11.718894621016501"><ele>353.0</ele><time>2026-05-01T08:18:12Z</time></trkpt><trkpt lat="43.03181701680845" lon="11.719024084399331"><ele>353.0</ele><time>2026-05-01T08:18:14Z</time></trkpt><trkpt lat="43.03191338219061" lon="11.71862344180202"><ele>353.0</ele><time>2026-05-01T08:18:21Z</time></trkpt><trkpt lat="43.03185845818597" lon="11.718562544876283"><ele>353.0</ele><time>2026-05-01T08:18:23Z</time></trkpt><trkpt lat="43.03173757372575" lon="11.718501109015632"><ele>353.0</ele><time>2026-05-01T08:18:26Z</time></trkpt><trkpt lat="43.031647470315654" lon="11.718451312317443"><ele>353.0</ele><time>2026-05-01T08:18:27Z</time></trkpt><trkpt lat="43.03155708540138" lon="11.71838274726263"><ele>353.0</ele><time>2026-05-01T08:18:28Z</time></trkpt><trkpt lat="43.031463652909196" lon="11.718291925979567"><ele>352.6666666666667</ele><time>2026-05-01T08:18:29Z</time></trkpt><trkpt lat="43.031339038658565" lon="11.71818005612675"><ele>352.3333333333333</ele><time>2026-05-01T08:18:30Z</time></trkpt><trkpt lat="43.031203714358185" lon="11.717982505864166"><ele>352.0</ele><time>2026-05-01T08:18:31Z</time></trkpt><trkpt lat="43.03105856445444" lon="11.71778229353114"><ele>351.66666666666663</ele><time>2026-05-01T08:18:31.999Z</time></trkpt><trkpt lat="43.03093824888207" lon="11.717613498178306"><ele>351.3333333333333</ele><time>2026-05-01T08:18:32.999Z</time></trkpt><trkpt lat="43.03082172662816" lon="11.717491815995961"><ele>351.0</ele><time>2026-05-01T08:18:33.999Z</time></trkpt><trkpt lat="43.03071218885365" lon="11.717344050277955"><ele>351.0</ele><time>2026-05-01T08:18:34.999Z</time></trkpt><trkpt lat="43.0306291248223" lon="11.717209321399995"><ele>351.0</ele><time>2026-05-01T08:18:35.999Z</time></trkpt><trkpt lat="43.030551525245095" lon="11.71705311661755"><ele>351.0</ele><time>2026-05-01T08:18:36.999Z</time></trkpt><trkpt lat="43.03046064909698" lon="11.716905315135465"><ele>351.0</ele><time>2026-05-01T08:18:37.999Z</time></trkpt><trkpt lat="43.03035326334973" lon="11.716790609724693"><ele>350.0</ele><time>2026-05-01T08:18:38.999Z</time></trkpt><trkpt lat="43.0302479428178" lon="11.716702983717584"><ele>349.0</ele><time>2026-05-01T08:18:39.999Z</time></trkpt><trkpt lat="43.03015491772371" lon="11.716618935484481"><ele>348.0</ele><time>2026-05-01T08:18:40.999Z</time></trkpt><trkpt lat="43.03005218389813" lon="11.716490611842584"><ele>347.0</ele><time>2026-05-01T08:18:41.999Z</time></trkpt><trkpt lat="43.029941880981895" lon="11.716329058086364"><ele>347.0</ele><time>2026-05-01T08:18:42.999Z</time></trkpt><trkpt lat="43.029852122691466" lon="11.71616039375537"><ele>347.0</ele><time>2026-05-01T08:18:43.999Z</time></trkpt><trkpt lat="43.029760042516145" lon="11.715973935138152"><ele>347.0</ele><time>2026-05-01T08:18:44.999Z</time></trkpt><trkpt lat="43.02967670851958" lon="11.715812128489725"><ele>349.0</ele><time>2026-05-01T08:18:45.999Z</time></trkpt><trkpt lat="43.02958743582405" lon="11.715663217157031"><ele>351.0</ele><time>2026-05-01T08:18:46.999Z</time></trkpt><trkpt lat="43.02949476118676" lon="11.715499484974613"><ele>353.0</ele><time>2026-05-01T08:18:47.999Z</time></trkpt><trkpt lat="43.029401728288704" lon="11.71533362889184"><ele>355.0</ele><time>2026-05-01T08:18:48.999Z</time></trkpt><trkpt lat="43.02930851466841" lon="11.715191167012204"><ele>356.25</ele><time>2026-05-01T08:18:49.999Z</time></trkpt><trkpt lat="43.02923661599584" lon="11.715046438754502"><ele>357.5</ele><time>2026-05-01T08:18:50.999Z</time></trkpt><trkpt lat="43.029198450731165" lon="11.71488251012311"><ele>358.75</ele><time>2026-05-01T08:18:51.999Z</time></trkpt><trkpt lat="43.02919473043185" lon="11.714714766169013"><ele>360.0</ele><time>2026-05-01T08:18:52.999Z</time></trkpt><trkpt lat="43.029190403039344" lon="11.71451928630842"><ele>359.5</ele><time>2026-05-01T08:18:53.999Z</time></trkpt><trkpt lat="43.029176126713864" lon="11.71432971409993"><ele>359.0</ele><time>2026-05-01T08:18:54.999Z</time></trkpt><trkpt lat="43.029162407208325" lon="11.714171746176028"><ele>358.5</ele><time>2026-05-01T08:18:55.999Z</time></trkpt><trkpt lat="43.02914944625402" lon="11.714027487726659"><ele>358.0</ele><time>2026-05-01T08:18:56.999Z</time></trkpt><trkpt lat="43.029124395457046" lon="11.71388064650656"><ele>358.0</ele><time>2026-05-01T08:18:57.999Z</time></trkpt><trkpt lat="43.02908123549223" lon="11.713738003068624"><ele>358.0</ele><time>2026-05-01T08:18:58.999Z</time></trkpt><trkpt lat="43.0290230599768" lon="11.713624513272364"><ele>358.0</ele><time>2026-05-01T08:18:59.999Z</time></trkpt><trkpt lat="43.02895912470393" lon="11.713521860759855"><ele>358.0</ele><time>2026-05-01T08:19:00.999Z</time></trkpt><trkpt lat="43.028904262373" lon="11.713439975381872"><ele>358.0</ele><time>2026-05-01T08:19:01.999Z</time></trkpt><trkpt lat="43.02886606549895" lon="11.713369268790974"><ele>358.5</ele><time>2026-05-01T08:19:02.999Z</time></trkpt><trkpt lat="43.028824011654955" lon="11.713268129617724"><ele>359.0</ele><time>2026-05-01T08:19:04.999Z</time></trkpt><trkpt lat="43.0287637728126" lon="11.713240116214589"><ele>359.5</ele><time>2026-05-01T08:19:10.999Z</time></trkpt><trkpt lat="43.0287343245491" lon="11.713321105400262"><ele>360.0</ele><time>2026-05-01T08:19:13.999Z</time></trkpt><trkpt lat="43.02880807713286" lon="11.713231002011957"><ele>360.5</ele><time>2026-05-01T08:19:33.998Z</time></trkpt><trkpt lat="43.02885530618277" lon="11.71314970664626"><ele>361.0</ele><time>2026-05-01T08:19:34.998Z</time></trkpt><trkpt lat="43.028898934375256" lon="11.713023414464663"><ele>361.0</ele><time>2026-05-01T08:19:35.998Z</time></trkpt><trkpt lat="43.028944218256775" lon="11.71286192218434"><ele>361.0</ele><time>2026-05-01T08:19:36.998Z</time></trkpt><trkpt lat="43.028998529334864" lon="11.71267998082825"><ele>361.0</ele><time>2026-05-01T08:19:37.998Z</time></trkpt><trkpt lat="43.02907382398263" lon="11.712451995068305"><ele>359.5</ele><time>2026-05-01T08:19:38.998Z</time></trkpt><trkpt lat="43.02917298491962" lon="11.712155087707023"><ele>358.0</ele><time>2026-05-01T08:19:39.998Z</time></trkpt><trkpt lat="43.02927817344706" lon="11.711844324159086"><ele>356.66666666666663</ele><time>2026-05-01T08:19:40.998Z</time></trkpt><trkpt lat="43.029362093814576" lon="11.711576800431542"><ele>355.3333333333333</ele><time>2026-05-01T08:19:41.998Z</time></trkpt><trkpt lat="43.02944301947994" lon="11.711320870605428"><ele>354.0</ele><time>2026-05-01T08:19:42.998Z</time></trkpt><trkpt lat="43.02952206349668" lon="11.711076967599928"><ele>353.6666666666667</ele><time>2026-05-01T08:19:43.998Z</time></trkpt><trkpt lat="43.02960888553836" lon="11.710829747154648"><ele>353.33333333333337</ele><time>2026-05-01T08:19:44.998Z</time></trkpt><trkpt lat="43.029695273678456" lon="11.710589211928982"><ele>353.0</ele><time>2026-05-01T08:19:45.998Z</time></trkpt><trkpt lat="43.029781964879" lon="11.710342858009483"><ele>352.33333333333337</ele><time>2026-05-01T08:19:46.998Z</time></trkpt><trkpt lat="43.02986632879025" lon="11.71010206726203"><ele>351.6666666666667</ele><time>2026-05-01T08:19:47.998Z</time></trkpt><trkpt lat="43.029950521526494" lon="11.709877370386568"><ele>351.0</ele><time>2026-05-01T08:19:48.998Z</time></trkpt><trkpt lat="43.030028806773586" lon="11.70966843280001"><ele>351.0</ele><time>2026-05-01T08:19:49.998Z</time></trkpt><trkpt lat="43.03010058161645" lon="11.709479872772976"><ele>351.0</ele><time>2026-05-01T08:19:50.998Z</time></trkpt><trkpt lat="43.030173087457804" lon="11.709291692662005"><ele>351.0</ele><time>2026-05-01T08:19:52Z</time></trkpt><trkpt lat="43.030242637461164" lon="11.709095922788856"><ele>351.0</ele><time>2026-05-01T08:19:53Z</time></trkpt><trkpt lat="43.03031107294801" lon="11.708870501900057"><ele>351.0</ele><time>2026-05-01T08:19:54Z</time></trkpt><trkpt lat="43.03037510078149" lon="11.70861038130141"><ele>351.0</ele><time>2026-05-01T08:19:55Z</time></trkpt><trkpt lat="43.030433422725345" lon="11.708345902411684"><ele>350.0</ele><time>2026-05-01T08:19:56Z</time></trkpt><trkpt lat="43.030494930349114" lon="11.708099841341209"><ele>349.0</ele><time>2026-05-01T08:19:57Z</time></trkpt><trkpt lat="43.03055989951573" lon="11.707854921114741"><ele>348.0</ele><time>2026-05-01T08:19:58Z</time></trkpt><trkpt lat="43.03062486726612" lon="11.707598821858138"><ele>346.6666666666667</ele><time>2026-05-01T08:19:59Z</time></trkpt><trkpt lat="43.03068634294577" lon="11.707358622457807"><ele>345.33333333333337</ele><time>2026-05-01T08:20:00Z</time></trkpt><trkpt lat="43.03074529736006" lon="11.7071283088103"><ele>344.0</ele><time>2026-05-01T08:20:01Z</time></trkpt><trkpt lat="43.0307985532488" lon="11.706906128906748"><ele>343.6666666666667</ele><time>2026-05-01T08:20:02Z</time></trkpt><trkpt lat="43.03085498881355" lon="11.706686200635819"><ele>343.3333333333333</ele><time>2026-05-01T08:20:03Z</time></trkpt><trkpt lat="43.03090897920719" lon="11.706486707319737"><ele>343.0</ele><time>2026-05-01T08:20:04Z</time></trkpt><trkpt lat="43.030955887057445" lon="11.706305681948882"><ele>343.0</ele><time>2026-05-01T08:20:05Z</time></trkpt><trkpt lat="43.030993083630506" lon="11.706132333622435"><ele>343.0</ele><time>2026-05-01T08:20:06Z</time></trkpt><trkpt lat="43.03101131671771" lon="11.705965800060948"><ele>343.0</ele><time>2026-05-01T08:20:07Z</time></trkpt><trkpt lat="43.03100095900187" lon="11.705797590532429"><ele>343.0</ele><time>2026-05-01T08:20:08Z</time></trkpt><trkpt lat="43.03096068937588" lon="11.705620187872167"><ele>342.3333333333333</ele><time>2026-05-01T08:20:09Z</time></trkpt><trkpt lat="43.0308955166909" lon="11.705394975557294"><ele>341.6666666666667</ele><time>2026-05-01T08:20:10Z</time></trkpt><trkpt lat="43.03083334995999" lon="11.705142095243604"><ele>341.0</ele><time>2026-05-01T08:20:11Z</time></trkpt><trkpt lat="43.03079576794411" lon="11.704889857286496"><ele>339.33333333333337</ele><time>2026-05-01T08:20:12Z</time></trkpt><trkpt lat="43.030739248756554" lon="11.704623617796758"><ele>337.6666666666667</ele><time>2026-05-01T08:20:13Z</time></trkpt><trkpt lat="43.030684152749934" lon="11.704364082185288"><ele>336.0</ele><time>2026-05-01T08:20:14Z</time></trkpt><trkpt lat="43.03063446589959" lon="11.704130026604822"><ele>336.0</ele><time>2026-05-01T08:20:15Z</time></trkpt><trkpt lat="43.03058573611718" lon="11.70390047963596"><ele>336.0</ele><time>2026-05-01T08:20:16Z</time></trkpt><trkpt lat="43.030536907148125" lon="11.703670465787093"><ele>336.0</ele><time>2026-05-01T08:20:17Z</time></trkpt><trkpt lat="43.03048529585395" lon="11.70342652529823"><ele>335.3333333333333</ele><time>2026-05-01T08:20:18Z</time></trkpt><trkpt lat="43.03043557306293" lon="11.703190738462757"><ele>334.66666666666663</ele><time>2026-05-01T08:20:19Z</time></trkpt><trkpt lat="43.03038527238328" lon="11.702952212206874"><ele>334.0</ele><time>2026-05-01T08:20:20Z</time></trkpt><trkpt lat="43.03033196886798" lon="11.702699445278979"><ele>333.0</ele><time>2026-05-01T08:20:21Z</time></trkpt><trkpt lat="43.03027570673568" lon="11.702432649140317"><ele>332.0</ele><time>2026-05-01T08:20:22Z</time></trkpt><trkpt lat="43.03022148412875" lon="11.702175524572962"><ele>331.0</ele><time>2026-05-01T08:20:23Z</time></trkpt><trkpt lat="43.03016893018249" lon="11.701926312614113"><ele>330.3333333333333</ele><time>2026-05-01T08:20:24Z</time></trkpt><trkpt lat="43.03011758942407" lon="11.701682853824925"><ele>329.6666666666667</ele><time>2026-05-01T08:20:25Z</time></trkpt><trkpt lat="43.03007012516456" lon="11.701457776995678"><ele>329.0</ele><time>2026-05-01T08:20:26Z</time></trkpt><trkpt lat="43.030026015789225" lon="11.70124860959705"><ele>329.4</ele><time>2026-05-01T08:20:27Z</time></trkpt><trkpt lat="43.02998831930914" lon="11.701064162193907"><ele>329.79999999999995</ele><time>2026-05-01T08:20:28Z</time></trkpt><trkpt lat="43.02995681770759" lon="11.700907614197"><ele>330.20000000000005</ele><time>2026-05-01T08:20:29Z</time></trkpt><trkpt lat="43.0299316100578" lon="11.70078234430085"><ele>330.6</ele><time>2026-05-01T08:20:30Z</time></trkpt><trkpt lat="43.029907308857986" lon="11.700674669168825"><ele>331.0</ele><time>2026-05-01T08:20:31Z</time></trkpt><trkpt lat="43.02988519967301" lon="11.700585526128538"><ele>331.0</ele><time>2026-05-01T08:20:32Z</time></trkpt><trkpt lat="43.02984903260748" lon="11.700512256137836"><ele>331.0</ele><time>2026-05-01T08:20:33Z</time></trkpt><trkpt lat="43.02979307715652" lon="11.700468259793398"><ele>331.0</ele><time>2026-05-01T08:20:34Z</time></trkpt><trkpt lat="43.029705430024165" lon="11.700485917639952"><ele>331.0</ele><time>2026-05-01T08:20:35Z</time></trkpt><trkpt lat="43.02961462943403" lon="11.700547679465755"><ele>331.0</ele><time>2026-05-01T08:20:36Z</time></trkpt><trkpt lat="43.0294974616971" lon="11.700597658688077"><ele>331.0</ele><time>2026-05-01T08:20:37Z</time></trkpt><trkpt lat="43.029388465472245" lon="11.700638798285425"><ele>331.0</ele><time>2026-05-01T08:20:38Z</time></trkpt><trkpt lat="43.02928672805199" lon="11.700674737949585"><ele>331.0</ele><time>2026-05-01T08:20:38.999Z</time></trkpt><trkpt lat="43.0292064676396" lon="11.700703090668455"><ele>331.0</ele><time>2026-05-01T08:20:39.999Z</time></trkpt><trkpt lat="43.02913761830073" lon="11.70074973727553"><ele>331.0</ele><time>2026-05-01T08:20:40.999Z</time></trkpt><trkpt lat="43.029071686776156" lon="11.700767493868867"><ele>331.0</ele><time>2026-05-01T08:20:41.999Z</time></trkpt><trkpt lat="43.029017002859106" lon="11.700934649951618"><ele>330.8</ele><time>2026-05-01T08:20:43.999Z</time></trkpt><trkpt lat="43.029070312873664" lon="11.701096667069022"><ele>330.6</ele><time>2026-05-01T08:20:44.999Z</time></trkpt><trkpt lat="43.02913644698386" lon="11.70124485202578"><ele>330.4</ele><time>2026-05-01T08:20:45.999Z</time></trkpt><trkpt lat="43.029147481204106" lon="11.701372882416743"><ele>330.2</ele><time>2026-05-01T08:20:46.999Z</time></trkpt><trkpt lat="43.02913379159921" lon="11.701491944501775"><ele>330.0</ele><time>2026-05-01T08:20:48.999Z</time></trkpt><trkpt lat="43.02906411951222" lon="11.701508116940413"><ele>329.0</ele><time>2026-05-01T08:20:49.999Z</time></trkpt><trkpt lat="43.028958733149175" lon="11.701477012650587"><ele>328.0</ele><time>2026-05-01T08:20:50.999Z</time></trkpt><trkpt lat="43.02881784955504" lon="11.701495441900345"><ele>327.0</ele><time>2026-05-01T08:20:51.999Z</time></trkpt><trkpt lat="43.0286451724875" lon="11.701547104469384"><ele>326.0</ele><time>2026-05-01T08:20:52.999Z</time></trkpt><trkpt lat="43.028516360911325" lon="11.701577800250831"><ele>326.0</ele><time>2026-05-01T08:20:53.999Z</time></trkpt><trkpt lat="43.0284341372896" lon="11.701596033535251"><ele>326.0</ele><time>2026-05-01T08:20:54.999Z</time></trkpt><trkpt lat="43.02836831909234" lon="11.701585872177484"><ele>326.0</ele><time>2026-05-01T08:20:55.999Z</time></trkpt><trkpt lat="43.0282904737686" lon="11.701536138493372"><ele>326.0</ele><time>2026-05-01T08:20:56.999Z</time></trkpt><trkpt lat="43.02818537272236" lon="11.701466468866073"><ele>326.0</ele><time>2026-05-01T08:20:57.999Z</time></trkpt><trkpt lat="43.028061574206916" lon="11.701399614909086"><ele>322.25</ele><time>2026-05-01T08:20:58.999Z</time></trkpt><trkpt lat="43.02794129855972" lon="11.701345629072417"><ele>318.5</ele><time>2026-05-01T08:20:59.999Z</time></trkpt><trkpt lat="43.02782807411987" lon="11.701290235081144"><ele>314.75</ele><time>2026-05-01T08:21:00.999Z</time></trkpt><trkpt lat="43.027702520327146" lon="11.701232474236722"><ele>311.0</ele><time>2026-05-01T08:21:01.999Z</time></trkpt><trkpt lat="43.02754906173239" lon="11.701161983946365"><ele>308.33333333333337</ele><time>2026-05-01T08:21:02.999Z</time></trkpt><trkpt lat="43.02740036157823" lon="11.701093506092043"><ele>305.6666666666667</ele><time>2026-05-01T08:21:03.999Z</time></trkpt><trkpt lat="43.02724161506436" lon="11.701018891817144"><ele>303.0</ele><time>2026-05-01T08:21:04.999Z</time></trkpt><trkpt lat="43.02709089806034" lon="11.700947312203539"><ele>303.0</ele><time>2026-05-01T08:21:05.999Z</time></trkpt><trkpt lat="43.026942525832" lon="11.700877642987471"><ele>303.0</ele><time>2026-05-01T08:21:06.999Z</time></trkpt><trkpt lat="43.026781809238976" lon="11.700803017189706"><ele>303.0</ele><time>2026-05-01T08:21:07.999Z</time></trkpt><trkpt lat="43.0266416415191" lon="11.700735929255215"><ele>301.25</ele><time>2026-05-01T08:21:08.999Z</time></trkpt><trkpt lat="43.02650366474865" lon="11.700666644167386"><ele>299.5</ele><time>2026-05-01T08:21:09.999Z</time></trkpt><trkpt lat="43.02637545526996" lon="11.700610725931563"><ele>297.75</ele><time>2026-05-01T08:21:10.999Z</time></trkpt><trkpt lat="43.02625070431105" lon="11.700537129951023"><ele>296.0</ele><time>2026-05-01T08:21:11.999Z</time></trkpt><trkpt lat="43.026142831130215" lon="11.700497074175154"><ele>296.0</ele><time>2026-05-01T08:21:12.999Z</time></trkpt><trkpt lat="43.026057233726384" lon="11.700461347374867"><ele>296.0</ele><time>2026-05-01T08:21:13.999Z</time></trkpt><trkpt lat="43.025981891689504" lon="11.700405097566977"><ele>296.0</ele><time>2026-05-01T08:21:15.999Z</time></trkpt><trkpt lat="43.02596791747418" lon="11.70028068142107"><ele>296.0</ele><time>2026-05-01T08:21:17.999Z</time></trkpt><trkpt lat="43.02608155837913" lon="11.700090151885785"><ele>296.0</ele><time>2026-05-01T08:21:18.999Z</time></trkpt><trkpt lat="43.026113881503065" lon="11.699967355125823"><ele>295.8</ele><time>2026-05-01T08:21:19.999Z</time></trkpt><trkpt lat="43.0261152420973" lon="11.69987278422896"><ele>295.6</ele><time>2026-05-01T08:21:20.999Z</time></trkpt><trkpt lat="43.02601507239533" lon="11.699741895239843"><ele>295.4</ele><time>2026-05-01T08:21:22.999Z</time></trkpt><trkpt lat="43.025924638920685" lon="11.699706670283966"><ele>295.2</ele><time>2026-05-01T08:21:23.999Z</time></trkpt><trkpt lat="43.0257966555909" lon="11.69965484519834"><ele>295.0</ele><time>2026-05-01T08:21:24.999Z</time></trkpt><trkpt lat="43.025617553149246" lon="11.699553059983694"><ele>294.0</ele><time>2026-05-01T08:21:25.999Z</time></trkpt><trkpt lat="43.02542204571586" lon="11.699460380082455"><ele>293.0</ele><time>2026-05-01T08:21:26.999Z</time></trkpt><trkpt lat="43.02524375866814" lon="11.69937430573304"><ele>292.0</ele><time>2026-05-01T08:21:27.999Z</time></trkpt><trkpt lat="43.02508767507702" lon="11.699298253961144"><ele>291.0</ele><time>2026-05-01T08:21:28.999Z</time></trkpt><trkpt lat="43.024950443101915" lon="11.699231053686258"><ele>290.0</ele><time>2026-05-01T08:21:29.999Z</time></trkpt><trkpt lat="43.0248202193642" lon="11.699167286871353"><ele>289.0</ele><time>2026-05-01T08:21:30.999Z</time></trkpt><trkpt lat="43.02470042332627" lon="11.699108624647481"><ele>288.0</ele><time>2026-05-01T08:21:31.999Z</time></trkpt><trkpt lat="43.0245893582433" lon="11.699076651228282"><ele>288.0</ele><time>2026-05-01T08:21:32.999Z</time></trkpt><trkpt lat="43.024499181748" lon="11.699027657132342"><ele>288.0</ele><time>2026-05-01T08:21:33.999Z</time></trkpt><trkpt lat="43.024419044669024" lon="11.698987510094108"><ele>288.0</ele><time>2026-05-01T08:21:34.999Z</time></trkpt><trkpt lat="43.02435213679923" lon="11.698956088147193"><ele>288.0</ele><time>2026-05-01T08:21:35.999Z</time></trkpt><trkpt lat="43.024278108489" lon="11.698905003504873"><ele>288.0</ele><time>2026-05-01T08:21:37.999Z</time></trkpt><trkpt lat="43.024206444994384" lon="11.699058468079206"><ele>288.0</ele><time>2026-05-01T08:21:40.998Z</time></trkpt><trkpt lat="43.02420268687978" lon="11.699229127862916"><ele>288.0</ele><time>2026-05-01T08:21:41.998Z</time></trkpt><trkpt lat="43.02420089429624" lon="11.699482675908403"><ele>288.0</ele><time>2026-05-01T08:21:42.998Z</time></trkpt><trkpt lat="43.02418113056528" lon="11.699799079236735"><ele>287.5</ele><time>2026-05-01T08:21:43.998Z</time></trkpt><trkpt lat="43.024176967394965" lon="11.700132982666629"><ele>287.0</ele><time>2026-05-01T08:21:44.998Z</time></trkpt><trkpt lat="43.0241721458219" lon="11.700514005137197"><ele>287.0</ele><time>2026-05-01T08:21:45.998Z</time></trkpt><trkpt lat="43.02416745307228" lon="11.700863822494462"><ele>287.0</ele><time>2026-05-01T08:21:46.998Z</time></trkpt><trkpt lat="43.02417727093064" lon="11.701211146585148"><ele>287.5</ele><time>2026-05-01T08:21:47.998Z</time></trkpt><trkpt lat="43.02417173026552" lon="11.701567418979346"><ele>288.0</ele><time>2026-05-01T08:21:48.998Z</time></trkpt><trkpt lat="43.02416647374206" lon="11.701897998510997"><ele>288.0</ele><time>2026-05-01T08:21:49.998Z</time></trkpt><trkpt lat="43.02415663453968" lon="11.70222062889123"><ele>288.0</ele><time>2026-05-01T08:21:50.998Z</time></trkpt><trkpt lat="43.024118226762866" lon="11.702541869855612"><ele>285.5</ele><time>2026-05-01T08:21:51.998Z</time></trkpt><trkpt lat="43.0240814260097" lon="11.702876205749561"><ele>283.0</ele><time>2026-05-01T08:21:52.998Z</time></trkpt><trkpt lat="43.0240414247535" lon="11.703200952666167"><ele>283.0</ele><time>2026-05-01T08:21:53.998Z</time></trkpt><trkpt lat="43.02400004818619" lon="11.703526789378977"><ele>283.0</ele><time>2026-05-01T08:21:54.998Z</time></trkpt><trkpt lat="43.023958571696284" lon="11.703847977830405"><ele>282.5</ele><time>2026-05-01T08:21:55.998Z</time></trkpt><trkpt lat="43.02391733320931" lon="11.704166676248011"><ele>282.0</ele><time>2026-05-01T08:21:56.998Z</time></trkpt><trkpt lat="43.02387670824439" lon="11.70449069446805"><ele>283.0</ele><time>2026-05-01T08:21:58Z</time></trkpt><trkpt lat="43.02383564864154" lon="11.704814464223372"><ele>284.0</ele><time>2026-05-01T08:21:59Z</time></trkpt><trkpt lat="43.02379296271427" lon="11.705149421528066"><ele>285.5</ele><time>2026-05-01T08:22:00Z</time></trkpt><trkpt lat="43.0237481998694" lon="11.705505633817783"><ele>287.0</ele><time>2026-05-01T08:22:01Z</time></trkpt><trkpt lat="43.02370462900133" lon="11.705852262471165"><ele>287.5</ele><time>2026-05-01T08:22:02Z</time></trkpt><trkpt lat="43.02366171619359" lon="11.706185874371998"><ele>288.0</ele><time>2026-05-01T08:22:03Z</time></trkpt><trkpt lat="43.02362820622098" lon="11.706520409512482"><ele>288.0</ele><time>2026-05-01T08:22:04Z</time></trkpt><trkpt lat="43.023593967050694" lon="11.706834771529763"><ele>288.0</ele><time>2026-05-01T08:22:05Z</time></trkpt><trkpt lat="43.02357259736289" lon="11.707137171343035"><ele>288.0</ele><time>2026-05-01T08:22:06Z</time></trkpt><trkpt lat="43.0235689141687" lon="11.707446614334046"><ele>288.0</ele><time>2026-05-01T08:22:07Z</time></trkpt><trkpt lat="43.02356650766524" lon="11.707749382938388"><ele>288.0</ele><time>2026-05-01T08:22:08Z</time></trkpt><trkpt lat="43.02357640902244" lon="11.708065774826126"><ele>288.0</ele><time>2026-05-01T08:22:09Z</time></trkpt><trkpt lat="43.023617692222544" lon="11.70837801949776"><ele>288.0</ele><time>2026-05-01T08:22:10Z</time></trkpt><trkpt lat="43.02366321505521" lon="11.70870467857055"><ele>288.0</ele><time>2026-05-01T08:22:11Z</time></trkpt><trkpt lat="43.023745586449564" lon="11.709036889700792"><ele>288.0</ele><time>2026-05-01T08:22:12Z</time></trkpt><trkpt lat="43.02380339672378" lon="11.709343335644517"><ele>288.0</ele><time>2026-05-01T08:22:13Z</time></trkpt><trkpt lat="43.023853090104296" lon="11.709639242232402"><ele>288.0</ele><time>2026-05-01T08:22:14Z</time></trkpt><trkpt lat="43.02388836380266" lon="11.709936468572705"><ele>288.0</ele><time>2026-05-01T08:22:15Z</time></trkpt><trkpt lat="43.02391103082396" lon="11.710242345000728"><ele>288.5</ele><time>2026-05-01T08:22:16Z</time></trkpt><trkpt lat="43.02394856363909" lon="11.710570277992195"><ele>289.0</ele><time>2026-05-01T08:22:17Z</time></trkpt><trkpt lat="43.02396675764949" lon="11.710900700308137"><ele>288.5</ele><time>2026-05-01T08:22:18Z</time></trkpt><trkpt lat="43.023970209746246" lon="11.711221082715308"><ele>288.0</ele><time>2026-05-01T08:22:19Z</time></trkpt><trkpt lat="43.02398720788636" lon="11.711516223315277"><ele>288.0</ele><time>2026-05-01T08:22:20Z</time></trkpt><trkpt lat="43.02400520050687" lon="11.711822438704692"><ele>288.0</ele><time>2026-05-01T08:22:21Z</time></trkpt><trkpt lat="43.02402189608296" lon="11.712154481987168"><ele>288.6666666666667</ele><time>2026-05-01T08:22:22Z</time></trkpt><trkpt lat="43.02403059080262" lon="11.712478086055226"><ele>289.33333333333337</ele><time>2026-05-01T08:22:23Z</time></trkpt><trkpt lat="43.02402513926508" lon="11.712759424029827"><ele>290.0</ele><time>2026-05-01T08:22:24Z</time></trkpt><trkpt lat="43.02401408302153" lon="11.713022910197598"><ele>290.33333333333337</ele><time>2026-05-01T08:22:25Z</time></trkpt><trkpt lat="43.02400146884563" lon="11.713274979545412"><ele>290.6666666666667</ele><time>2026-05-01T08:22:26Z</time></trkpt><trkpt lat="43.0240040831611" lon="11.713515642373238"><ele>291.0</ele><time>2026-05-01T08:22:27Z</time></trkpt><trkpt lat="43.02399214791609" lon="11.713730232610374"><ele>291.3333333333333</ele><time>2026-05-01T08:22:28Z</time></trkpt><trkpt lat="43.02398247105141" lon="11.71392460617453"><ele>291.66666666666663</ele><time>2026-05-01T08:22:29Z</time></trkpt><trkpt lat="43.02395378452588" lon="11.71413891861135"><ele>292.0</ele><time>2026-05-01T08:22:30Z</time></trkpt><trkpt lat="43.02393866296692" lon="11.714408049834566"><ele>292.0</ele><time>2026-05-01T08:22:31Z</time></trkpt><trkpt lat="43.02392410016267" lon="11.71469190107775"><ele>292.0</ele><time>2026-05-01T08:22:32Z</time></trkpt><trkpt lat="43.02391103608142" lon="11.714923881621885"><ele>292.0</ele><time>2026-05-01T08:22:33Z</time></trkpt><trkpt lat="43.02389967320816" lon="11.715124007253738"><ele>292.2</ele><time>2026-05-01T08:22:34Z</time></trkpt><trkpt lat="43.02388976761233" lon="11.715298465997666"><ele>292.4</ele><time>2026-05-01T08:22:35Z</time></trkpt><trkpt lat="43.023881688892324" lon="11.715449310407344"><ele>292.6</ele><time>2026-05-01T08:22:36Z</time></trkpt><trkpt lat="43.02389043840778" lon="11.715586371179093"><ele>292.8</ele><time>2026-05-01T08:22:37Z</time></trkpt><trkpt lat="43.023882943777394" lon="11.715705277568594"><ele>293.0</ele><time>2026-05-01T08:22:38Z</time></trkpt><trkpt lat="43.02386231305596" lon="11.715804373931238"><ele>293.0</ele><time>2026-05-01T08:22:39Z</time></trkpt><trkpt lat="43.02383268281922" lon="11.715902581622927"><ele>293.0</ele><time>2026-05-01T08:22:41Z</time></trkpt><trkpt lat="43.023705428581074" lon="11.71585702214129"><ele>293.0</ele><time>2026-05-01T08:22:43Z</time></trkpt><trkpt lat="43.02358284886435" lon="11.715837446808218"><ele>293.0</ele><time>2026-05-01T08:22:43.999Z</time></trkpt><trkpt lat="43.023450567373274" lon="11.715808705799903"><ele>293.0</ele><time>2026-05-01T08:22:44.999Z</time></trkpt><trkpt lat="43.02333944342103" lon="11.715780640269433"><ele>293.0</ele><time>2026-05-01T08:22:45.999Z</time></trkpt><trkpt lat="43.02323072841915" lon="11.715751815341783"><ele>293.0</ele><time>2026-05-01T08:22:46.999Z</time></trkpt><trkpt lat="43.02313036477332" lon="11.71574366105835"><ele>293.0</ele><time>2026-05-01T08:22:47.999Z</time></trkpt><trkpt lat="43.02302535590462" lon="11.715711397965858"><ele>293.0</ele><time>2026-05-01T08:22:48.999Z</time></trkpt><trkpt lat="43.022917767132526" lon="11.715674193788018"><ele>292.83333333333337</ele><time>2026-05-01T08:22:49.999Z</time></trkpt><trkpt lat="43.02282392363545" lon="11.715642644442372"><ele>292.6666666666667</ele><time>2026-05-01T08:22:50.999Z</time></trkpt><trkpt lat="43.02273517668357" lon="11.715616811002475"><ele>292.5</ele><time>2026-05-01T08:22:51.999Z</time></trkpt><trkpt lat="43.0226675753308" lon="11.715575877193999"><ele>292.3333333333333</ele><time>2026-05-01T08:22:52.999Z</time></trkpt><trkpt lat="43.02258057139572" lon="11.715573109931407"><ele>292.16666666666663</ele><time>2026-05-01T08:22:53.999Z</time></trkpt><trkpt lat="43.022486941823715" lon="11.71554118857151"><ele>292.0</ele><time>2026-05-01T08:22:54.999Z</time></trkpt><trkpt lat="43.02238606666114" lon="11.715492218816038"><ele>291.6</ele><time>2026-05-01T08:22:55.999Z</time></trkpt><trkpt lat="43.02227252176172" lon="11.715481452336277"><ele>291.2</ele><time>2026-05-01T08:22:56.999Z</time></trkpt><trkpt lat="43.02217323519694" lon="11.715443095121074"><ele>290.8</ele><time>2026-05-01T08:22:57.999Z</time></trkpt><trkpt lat="43.02207493570966" lon="11.715414573993213"><ele>290.4</ele><time>2026-05-01T08:22:58.999Z</time></trkpt><trkpt lat="43.02198542610112" lon="11.715368186760902"><ele>290.0</ele><time>2026-05-01T08:22:59.999Z</time></trkpt><trkpt lat="43.02189967069238" lon="11.715368905468845"><ele>290.0</ele><time>2026-05-01T08:23:00.999Z</time></trkpt><trkpt lat="43.021793638650976" lon="11.715341891347283"><ele>290.0</ele><time>2026-05-01T08:23:01.999Z</time></trkpt><trkpt lat="43.021708870490436" lon="11.715320518575682"><ele>290.0</ele><time>2026-05-01T08:23:02.999Z</time></trkpt><trkpt lat="43.02160982191793" lon="11.715281146341038"><ele>290.0</ele><time>2026-05-01T08:23:03.999Z</time></trkpt><trkpt lat="43.02151203692963" lon="11.715248644069709"><ele>290.0</ele><time>2026-05-01T08:23:04.999Z</time></trkpt><trkpt lat="43.02140758245091" lon="11.715222471830378"><ele>289.6</ele><time>2026-05-01T08:23:05.999Z</time></trkpt><trkpt lat="43.02130424639247" lon="11.715199124123025"><ele>289.2</ele><time>2026-05-01T08:23:06.999Z</time></trkpt><trkpt lat="43.02119994669934" lon="11.715172988256157"><ele>288.8</ele><time>2026-05-01T08:23:07.999Z</time></trkpt><trkpt lat="43.02109599873459" lon="11.715137123016964"><ele>288.4</ele><time>2026-05-01T08:23:08.999Z</time></trkpt><trkpt lat="43.02099312735325" lon="11.715105915151172"><ele>288.0</ele><time>2026-05-01T08:23:09.999Z</time></trkpt><trkpt lat="43.020890001410514" lon="11.715072521797618"><ele>287.8</ele><time>2026-05-01T08:23:10.999Z</time></trkpt><trkpt lat="43.020788792091956" lon="11.71503901959837"><ele>287.6</ele><time>2026-05-01T08:23:11.999Z</time></trkpt><trkpt lat="43.02069307999193" lon="11.715011620965358"><ele>287.4</ele><time>2026-05-01T08:23:12.999Z</time></trkpt><trkpt lat="43.0205868667858" lon="11.714987796484087"><ele>287.2</ele><time>2026-05-01T08:23:13.999Z</time></trkpt><trkpt lat="43.02047070983322" lon="11.714951930828045"><ele>287.0</ele><time>2026-05-01T08:23:14.999Z</time></trkpt><trkpt lat="43.02034492439691" lon="11.714921935764698"><ele>287.0</ele><time>2026-05-01T08:23:15.999Z</time></trkpt><trkpt lat="43.020218190610954" lon="11.714885826056017"><ele>287.0</ele><time>2026-05-01T08:23:16.999Z</time></trkpt><trkpt lat="43.02011861359807" lon="11.714849421203343"><ele>287.0</ele><time>2026-05-01T08:23:17.999Z</time></trkpt><trkpt lat="43.02002760926674" lon="11.714827077535567"><ele>287.0</ele><time>2026-05-01T08:23:18.999Z</time></trkpt><trkpt lat="43.019936116112284" lon="11.714799477784016"><ele>287.0</ele><time>2026-05-01T08:23:19.999Z</time></trkpt><trkpt lat="43.01982955695317" lon="11.714775641480554"><ele>286.8</ele><time>2026-05-01T08:23:20.999Z</time></trkpt><trkpt lat="43.019706782662105" lon="11.714744878863348"><ele>286.6</ele><time>2026-05-01T08:23:21.999Z</time></trkpt><trkpt lat="43.01959515802278" lon="11.714708355847057"><ele>286.40000000000003</ele><time>2026-05-01T08:23:22.999Z</time></trkpt><trkpt lat="43.019500947942056" lon="11.714675988959184"><ele>286.2</ele><time>2026-05-01T08:23:23.999Z</time></trkpt><trkpt lat="43.01939348104251" lon="11.714651361510846"><ele>286.0</ele><time>2026-05-01T08:23:24.999Z</time></trkpt><trkpt lat="43.01928484635226" lon="11.714622214287699"><ele>286.0</ele><time>2026-05-01T08:23:25.999Z</time></trkpt><trkpt lat="43.01917499657723" lon="11.714580425116035"><ele>286.0</ele><time>2026-05-01T08:23:26.999Z</time></trkpt><trkpt lat="43.01906437400233" lon="11.714546933565295"><ele>286.0</ele><time>2026-05-01T08:23:27.999Z</time></trkpt><trkpt lat="43.01897462070483" lon="11.714517106521791"><ele>286.0</ele><time>2026-05-01T08:23:28.999Z</time></trkpt><trkpt lat="43.018904666328574" lon="11.714496111513965"><ele>286.0</ele><time>2026-05-01T08:23:29.999Z</time></trkpt><trkpt lat="43.01881099789984" lon="11.714473188261133"><ele>285.8333333333333</ele><time>2026-05-01T08:23:30.999Z</time></trkpt><trkpt lat="43.01870858014162" lon="11.714442400896532"><ele>285.66666666666663</ele><time>2026-05-01T08:23:31.999Z</time></trkpt><trkpt lat="43.018618416477835" lon="11.714415021329527"><ele>285.5</ele><time>2026-05-01T08:23:32.999Z</time></trkpt><trkpt lat="43.018530739361125" lon="11.714388917511352"><ele>285.3333333333333</ele><time>2026-05-01T08:23:33.999Z</time></trkpt><trkpt lat="43.01845274603827" lon="11.714363448182507"><ele>285.1666666666667</ele><time>2026-05-01T08:23:34.999Z</time></trkpt><trkpt lat="43.01837292321851" lon="11.714343860539769"><ele>285.0</ele><time>2026-05-01T08:23:35.999Z</time></trkpt><trkpt lat="43.018296569612005" lon="11.714324157339602"><ele>284.6666666666667</ele><time>2026-05-01T08:23:36.999Z</time></trkpt><trkpt lat="43.01821627532696" lon="11.714290844447264"><ele>284.3333333333333</ele><time>2026-05-01T08:23:37.999Z</time></trkpt><trkpt lat="43.01815220671835" lon="11.714254875208775"><ele>284.0</ele><time>2026-05-01T08:23:38.999Z</time></trkpt><trkpt lat="43.01809667225161" lon="11.71421136996117"><ele>283.66666666666663</ele><time>2026-05-01T08:23:39.999Z</time></trkpt><trkpt lat="43.01799445713825" lon="11.714153113888418"><ele>283.3333333333333</ele><time>2026-05-01T08:23:41.999Z</time></trkpt><trkpt lat="43.017927632801026" lon="11.714171555352152"><ele>283.0</ele><time>2026-05-01T08:23:43.999Z</time></trkpt><trkpt lat="43.017900648779744" lon="11.714266506428858"><ele>283.0</ele><time>2026-05-01T08:23:45.998Z</time></trkpt><trkpt lat="43.01789403271088" lon="11.71435561321055"><ele>283.0</ele><time>2026-05-01T08:23:46.998Z</time></trkpt><trkpt lat="43.01788283385322" lon="11.71447981528445"><ele>283.0</ele><time>2026-05-01T08:23:47.998Z</time></trkpt><trkpt lat="43.01784913156015" lon="11.714585734142181"><ele>283.0</ele><time>2026-05-01T08:23:48.998Z</time></trkpt><trkpt lat="43.01778215302706" lon="11.714677753654053"><ele>283.0</ele><time>2026-05-01T08:23:49.998Z</time></trkpt><trkpt lat="43.01770334300156" lon="11.714764596578677"><ele>283.0</ele><time>2026-05-01T08:23:50.998Z</time></trkpt><trkpt lat="43.01764999196891" lon="11.714867944701762"><ele>283.16666666666663</ele><time>2026-05-01T08:23:51.998Z</time></trkpt><trkpt lat="43.017618289589024" lon="11.714980216072384"><ele>283.3333333333333</ele><time>2026-05-01T08:23:52.998Z</time></trkpt><trkpt lat="43.01759784314866" lon="11.715102909841297"><ele>283.5</ele><time>2026-05-01T08:23:53.998Z</time></trkpt><trkpt lat="43.01758386602547" lon="11.715209952697768"><ele>283.6666666666667</ele><time>2026-05-01T08:23:54.998Z</time></trkpt><trkpt lat="43.01756818541264" lon="11.71530865573152"><ele>283.83333333333337</ele><time>2026-05-01T08:23:55.998Z</time></trkpt><trkpt lat="43.01754328494988" lon="11.715425309601832"><ele>284.0</ele><time>2026-05-01T08:23:56.998Z</time></trkpt><trkpt lat="43.017505692343086" lon="11.715533875076575"><ele>284.0</ele><time>2026-05-01T08:23:57.998Z</time></trkpt><trkpt lat="43.017455600277216" lon="11.715668802321343"><ele>284.0</ele><time>2026-05-01T08:23:58.998Z</time></trkpt><trkpt lat="43.01741156562145" lon="11.715839365127158"><ele>284.0</ele><time>2026-05-01T08:23:59.998Z</time></trkpt><trkpt lat="43.017376725353465" lon="11.716021736601864"><ele>284.0</ele><time>2026-05-01T08:24:00.998Z</time></trkpt><trkpt lat="43.01734769343776" lon="11.716238807136705"><ele>284.25</ele><time>2026-05-01T08:24:01.998Z</time></trkpt><trkpt lat="43.01731887485942" lon="11.71642421109243"><ele>284.5</ele><time>2026-05-01T08:24:02.998Z</time></trkpt><trkpt lat="43.01728805431326" lon="11.716602141040436"><ele>284.75</ele><time>2026-05-01T08:24:04Z</time></trkpt><trkpt lat="43.01725785536841" lon="11.716775902962361"><ele>285.0</ele><time>2026-05-01T08:24:05Z</time></trkpt><trkpt lat="43.01723207199966" lon="11.716924373513116"><ele>285.0</ele><time>2026-05-01T08:24:06Z</time></trkpt><trkpt lat="43.017227751082615" lon="11.717065195826473"><ele>285.0</ele><time>2026-05-01T08:24:07Z</time></trkpt><trkpt lat="43.01723890100639" lon="11.717200881649006"><ele>285.0</ele><time>2026-05-01T08:24:08Z</time></trkpt><trkpt lat="43.017231101343036" lon="11.71734623133742"><ele>285.0</ele><time>2026-05-01T08:24:09Z</time></trkpt><trkpt lat="43.01715294309351" lon="11.71747035581049"><ele>285.0</ele><time>2026-05-01T08:24:10Z</time></trkpt><trkpt lat="43.017114995233065" lon="11.717641046605515"><ele>285.5</ele><time>2026-05-01T08:24:11Z</time></trkpt><trkpt lat="43.01708903221384" lon="11.717815726759952"><ele>286.0</ele><time>2026-05-01T08:24:12Z</time></trkpt><trkpt lat="43.017052653732335" lon="11.717976837966187"><ele>286.5</ele><time>2026-05-01T08:24:13Z</time></trkpt><trkpt lat="43.01704049916888" lon="11.718139861406465"><ele>287.0</ele><time>2026-05-01T08:24:14Z</time></trkpt><trkpt lat="43.01699240100183" lon="11.718288762856893"><ele>287.0</ele><time>2026-05-01T08:24:15Z</time></trkpt><trkpt lat="43.01695055677738" lon="11.71843619782647"><ele>287.0</ele><time>2026-05-01T08:24:16Z</time></trkpt><trkpt lat="43.016904295927844" lon="11.718577094120338"><ele>287.0</ele><time>2026-05-01T08:24:17Z</time></trkpt><trkpt lat="43.016870423179306" lon="11.718733305163747"><ele>287.0</ele><time>2026-05-01T08:24:18Z</time></trkpt><trkpt lat="43.016820062028884" lon="11.718888373199453"><ele>286.4</ele><time>2026-05-01T08:24:19Z</time></trkpt><trkpt lat="43.01677130220873" lon="11.719035083578342"><ele>285.79999999999995</ele><time>2026-05-01T08:24:20Z</time></trkpt><trkpt lat="43.016750566065625" lon="11.71919354595121"><ele>285.2</ele><time>2026-05-01T08:24:21Z</time></trkpt><trkpt lat="43.01674046010094" lon="11.719344662331665"><ele>284.59999999999997</ele><time>2026-05-01T08:24:22Z</time></trkpt><trkpt lat="43.01670620857932" lon="11.7194450393451"><ele>284.0</ele><time>2026-05-01T08:24:23Z</time></trkpt><trkpt lat="43.016654977125526" lon="11.719547372734965"><ele>284.0</ele><time>2026-05-01T08:24:26Z</time></trkpt><trkpt lat="43.01670143824723" lon="11.719440416304009"><ele>284.0</ele><time>2026-05-01T08:24:59.999Z</time></trkpt><trkpt lat="43.01672825840007" lon="11.719359719714939"><ele>284.0</ele><time>2026-05-01T08:25:01.999Z</time></trkpt><trkpt lat="43.01672131331146" lon="11.719493487378303"><ele>284.0</ele><time>2026-05-01T08:25:04.999Z</time></trkpt><trkpt lat="43.017031056261054" lon="11.719714657761292"><ele>283.59999999999997</ele><time>2026-05-01T08:25:06.999Z</time></trkpt><trkpt lat="43.0171185660224" lon="11.719828005383958"><ele>283.2</ele><time>2026-05-01T08:25:07.999Z</time></trkpt><trkpt lat="43.017198268955255" lon="11.719927291463659"><ele>282.79999999999995</ele><time>2026-05-01T08:25:08.999Z</time></trkpt><trkpt lat="43.01726441959743" lon="11.720031536623047"><ele>282.4</ele><time>2026-05-01T08:25:09.999Z</time></trkpt><trkpt lat="43.01730977323938" lon="11.720127629678007"><ele>282.0</ele><time>2026-05-01T08:25:10.999Z</time></trkpt><trkpt lat="43.0173544324674" lon="11.720201370662092"><ele>282.5</ele><time>2026-05-01T08:25:11.999Z</time></trkpt><trkpt lat="43.01740566743936" lon="11.720256758363014"><ele>283.0</ele><time>2026-05-01T08:25:12.999Z</time></trkpt><trkpt lat="43.01747458472484" lon="11.72029889154253"><ele>283.5</ele><time>2026-05-01T08:25:13.999Z</time></trkpt><trkpt lat="43.0175499663551" lon="11.720315831321198"><ele>284.0</ele><time>2026-05-01T08:25:14.999Z</time></trkpt><trkpt lat="43.0176327780134" lon="11.720341523820839"><ele>284.5</ele><time>2026-05-01T08:25:15.999Z</time></trkpt><trkpt lat="43.01771118397322" lon="11.720378809701332"><ele>285.0</ele><time>2026-05-01T08:25:16.999Z</time></trkpt><trkpt lat="43.01777548057028" lon="11.720426603529093"><ele>285.1666666666667</ele><time>2026-05-01T08:25:17.999Z</time></trkpt><trkpt lat="43.017841438011615" lon="11.720535478405845"><ele>285.3333333333333</ele><time>2026-05-01T08:25:19.999Z</time></trkpt><trkpt lat="43.01777546130921" lon="11.720648672935843"><ele>285.5</ele><time>2026-05-01T08:25:21.999Z</time></trkpt><trkpt lat="43.017721329473815" lon="11.72070897213942"><ele>285.66666666666663</ele><time>2026-05-01T08:25:22.999Z</time></trkpt><trkpt lat="43.01769737189723" lon="11.720798102103481"><ele>285.8333333333333</ele><time>2026-05-01T08:25:23.999Z</time></trkpt><trkpt lat="43.017696756763826" lon="11.720884677883328"><ele>286.0</ele><time>2026-05-01T08:25:24.999Z</time></trkpt><trkpt lat="43.017675211494556" lon="11.720988385486013"><ele>286.2</ele><time>2026-05-01T08:25:26.999Z</time></trkpt><trkpt lat="43.01765943396449" lon="11.721110263838456"><ele>286.40000000000003</ele><time>2026-05-01T08:25:28.999Z</time></trkpt><trkpt lat="43.01768317325052" lon="11.721195189690441"><ele>286.6</ele><time>2026-05-01T08:25:29.999Z</time></trkpt><trkpt lat="43.01771172878421" lon="11.721315613112958"><ele>286.8</ele><time>2026-05-01T08:25:30.999Z</time></trkpt><trkpt lat="43.017736569062315" lon="11.721473424051965"><ele>287.0</ele><time>2026-05-01T08:25:31.999Z</time></trkpt><trkpt lat="43.017767309719495" lon="11.721676278764042"><ele>287.0</ele><time>2026-05-01T08:25:32.999Z</time></trkpt><trkpt lat="43.01779115193964" lon="11.721855069414357"><ele>287.0</ele><time>2026-05-01T08:25:33.999Z</time></trkpt><trkpt lat="43.01780243114003" lon="11.722014182579464"><ele>287.0</ele><time>2026-05-01T08:25:34.999Z</time></trkpt><trkpt lat="43.017814394463954" lon="11.722178608971111"><ele>287.0</ele><time>2026-05-01T08:25:35.999Z</time></trkpt><trkpt lat="43.0178347566169" lon="11.722321517874208"><ele>287.33333333333337</ele><time>2026-05-01T08:25:36.999Z</time></trkpt><trkpt lat="43.01785869760866" lon="11.722451439650502"><ele>287.6666666666667</ele><time>2026-05-01T08:25:37.999Z</time></trkpt><trkpt lat="43.017881563614345" lon="11.722550814176758"><ele>288.0</ele><time>2026-05-01T08:25:38.999Z</time></trkpt><trkpt lat="43.017913447384274" lon="11.722625557961244"><ele>288.3333333333333</ele><time>2026-05-01T08:25:39.999Z</time></trkpt><trkpt lat="43.01797017431684" lon="11.722687037598437"><ele>288.66666666666663</ele><time>2026-05-01T08:25:40.999Z</time></trkpt><trkpt lat="43.018052392454585" lon="11.722726616870034"><ele>289.0</ele><time>2026-05-01T08:25:41.999Z</time></trkpt><trkpt lat="43.018165089620034" lon="11.72275522866837"><ele>289.0</ele><time>2026-05-01T08:25:42.999Z</time></trkpt><trkpt lat="43.01829165313157" lon="11.722760338409577"><ele>289.0</ele><time>2026-05-01T08:25:43.999Z</time></trkpt><trkpt lat="43.01840084427474" lon="11.722764363306833"><ele>289.0</ele><time>2026-05-01T08:25:44.999Z</time></trkpt><trkpt lat="43.01849045003795" lon="11.722794355910285"><ele>289.0</ele><time>2026-05-01T08:25:45.999Z</time></trkpt><trkpt lat="43.018585198251806" lon="11.722854580124645"><ele>289.0</ele><time>2026-05-01T08:25:46.999Z</time></trkpt><trkpt lat="43.01868185176347" lon="11.722936296889893"><ele>288.75</ele><time>2026-05-01T08:25:47.999Z</time></trkpt><trkpt lat="43.01878950126107" lon="11.72304716872911"><ele>288.5</ele><time>2026-05-01T08:25:48.998Z</time></trkpt><trkpt lat="43.01888567373083" lon="11.7231542509929"><ele>288.25</ele><time>2026-05-01T08:25:49.998Z</time></trkpt><trkpt lat="43.01900048062106" lon="11.723248229532173"><ele>288.0</ele><time>2026-05-01T08:25:50.998Z</time></trkpt><trkpt lat="43.01911726084021" lon="11.723324072997439"><ele>287.75</ele><time>2026-05-01T08:25:51.998Z</time></trkpt><trkpt lat="43.019234488709444" lon="11.723385241835034"><ele>287.5</ele><time>2026-05-01T08:25:52.998Z</time></trkpt><trkpt lat="43.019356968181064" lon="11.723453408434969"><ele>287.25</ele><time>2026-05-01T08:25:53.998Z</time></trkpt><trkpt lat="43.019479298862294" lon="11.72351770563595"><ele>287.0</ele><time>2026-05-01T08:25:54.998Z</time></trkpt><trkpt lat="43.019615268228456" lon="11.72355820852485"><ele>287.2</ele><time>2026-05-01T08:25:55.998Z</time></trkpt><trkpt lat="43.01972751606791" lon="11.72362479613697"><ele>287.4</ele><time>2026-05-01T08:25:56.998Z</time></trkpt><trkpt lat="43.01983294236765" lon="11.723645140194972"><ele>287.6</ele><time>2026-05-01T08:25:57.998Z</time></trkpt><trkpt lat="43.01991872718213" lon="11.72368518535597"><ele>287.8</ele><time>2026-05-01T08:25:58.998Z</time></trkpt><trkpt lat="43.02002092583622" lon="11.723726012755053"><ele>288.0</ele><time>2026-05-01T08:25:59.998Z</time></trkpt><trkpt lat="43.02012741658337" lon="11.72375802545824"><ele>288.0</ele><time>2026-05-01T08:26:00.998Z</time></trkpt><trkpt lat="43.0202376117308" lon="11.723788713467066"><ele>288.0</ele><time>2026-05-01T08:26:01.998Z</time></trkpt><trkpt lat="43.02034144354213" lon="11.723821904407904"><ele>288.0</ele><time>2026-05-01T08:26:02.998Z</time></trkpt><trkpt lat="43.02042127680103" lon="11.723886008047801"><ele>288.0</ele><time>2026-05-01T08:26:03.998Z</time></trkpt><trkpt lat="43.020491518233456" lon="11.723931479772101"><ele>288.0</ele><time>2026-05-01T08:26:04.998Z</time></trkpt><trkpt lat="43.020543565377515" lon="11.723998813751473"><ele>288.0</ele><time>2026-05-01T08:26:05.998Z</time></trkpt><trkpt lat="43.0205822586377" lon="11.724090724897941"><ele>288.0</ele><time>2026-05-01T08:26:06.998Z</time></trkpt><trkpt lat="43.02060088743999" lon="11.724212077439898"><ele>288.0</ele><time>2026-05-01T08:26:07.998Z</time></trkpt><trkpt lat="43.02065776870276" lon="11.724379990310545"><ele>288.0</ele><time>2026-05-01T08:26:08.998Z</time></trkpt><trkpt lat="43.020716831963675" lon="11.72451014170044"><ele>288.0</ele><time>2026-05-01T08:26:10Z</time></trkpt><trkpt lat="43.02074959259346" lon="11.724617421923114"><ele>288.4</ele><time>2026-05-01T08:26:11Z</time></trkpt><trkpt lat="43.020778281180796" lon="11.724714066184575"><ele>288.8</ele><time>2026-05-01T08:26:12Z</time></trkpt><trkpt lat="43.0207842577061" lon="11.724847960869427"><ele>289.2</ele><time>2026-05-01T08:26:14Z</time></trkpt><trkpt lat="43.02081929509606" lon="11.725005856514487"><ele>289.6</ele><time>2026-05-01T08:26:18Z</time></trkpt><trkpt lat="43.020837228520634" lon="11.725119616170955"><ele>290.0</ele><time>2026-05-01T08:26:19Z</time></trkpt><trkpt lat="43.02085589197091" lon="11.72522405456702"><ele>290.2</ele><time>2026-05-01T08:26:20Z</time></trkpt><trkpt lat="43.020877602125545" lon="11.725349150261943"><ele>290.4</ele><time>2026-05-01T08:26:21Z</time></trkpt><trkpt lat="43.02090256825276" lon="11.725476497296091"><ele>290.6</ele><time>2026-05-01T08:26:22Z</time></trkpt><trkpt lat="43.0209082524735" lon="11.725596732006712"><ele>290.8</ele><time>2026-05-01T08:26:23Z</time></trkpt><trkpt lat="43.0209436671167" lon="11.725697607129739"><ele>291.0</ele><time>2026-05-01T08:26:24Z</time></trkpt><trkpt lat="43.02095256405253" lon="11.725836551148921"><ele>291.0</ele><time>2026-05-01T08:26:25Z</time></trkpt><trkpt lat="43.020989597668176" lon="11.725973218143112"><ele>291.0</ele><time>2026-05-01T08:26:26Z</time></trkpt><trkpt lat="43.02100264326777" lon="11.726105916541826"><ele>291.0</ele><time>2026-05-01T08:26:27Z</time></trkpt><trkpt lat="43.02102558144131" lon="11.726234997886865"><ele>291.0</ele><time>2026-05-01T08:26:28Z</time></trkpt><trkpt lat="43.02106083911093" lon="11.726375288925745"><ele>291.0</ele><time>2026-05-01T08:26:29Z</time></trkpt><trkpt lat="43.02108910530098" lon="11.726510065161795"><ele>291.0</ele><time>2026-05-01T08:26:30Z</time></trkpt><trkpt lat="43.02111577177473" lon="11.726658858270389"><ele>291.0</ele><time>2026-05-01T08:26:31Z</time></trkpt><trkpt lat="43.02114929068563" lon="11.726810021377903"><ele>291.0</ele><time>2026-05-01T08:26:32Z</time></trkpt><trkpt lat="43.02118833920352" lon="11.726980213478573"><ele>291.0</ele><time>2026-05-01T08:26:33Z</time></trkpt><trkpt lat="43.02123484101017" lon="11.72712825978558"><ele>291.0</ele><time>2026-05-01T08:26:34Z</time></trkpt><trkpt lat="43.02126738603917" lon="11.727267610725285"><ele>291.0</ele><time>2026-05-01T08:26:35Z</time></trkpt><trkpt lat="43.02130228529134" lon="11.727403636520302"><ele>291.0</ele><time>2026-05-01T08:26:36Z</time></trkpt><trkpt lat="43.021337501086066" lon="11.727525525661084"><ele>291.0</ele><time>2026-05-01T08:26:37Z</time></trkpt><trkpt lat="43.02137288868399" lon="11.727630177237721"><ele>291.0</ele><time>2026-05-01T08:26:38Z</time></trkpt><trkpt lat="43.02139231892688" lon="11.727758879735442"><ele>290.8</ele><time>2026-05-01T08:26:39Z</time></trkpt><trkpt lat="43.021384428042424" lon="11.727923129628032"><ele>290.6</ele><time>2026-05-01T08:26:40Z</time></trkpt><trkpt lat="43.02135738884406" lon="11.728061732781368"><ele>290.4</ele><time>2026-05-01T08:26:41Z</time></trkpt><trkpt lat="43.021326178950126" lon="11.728156750011951"><ele>290.2</ele><time>2026-05-01T08:26:42Z</time></trkpt><trkpt lat="43.02129540079722" lon="11.7282345600584"><ele>290.0</ele><time>2026-05-01T08:26:43Z</time></trkpt><trkpt lat="43.021266741640595" lon="11.728417941626851"><ele>289.83333333333337</ele><time>2026-05-01T08:26:45Z</time></trkpt><trkpt lat="43.0212458966532" lon="11.728567708432967"><ele>289.6666666666667</ele><time>2026-05-01T08:26:46Z</time></trkpt><trkpt lat="43.0212251886675" lon="11.72870199470807"><ele>289.5</ele><time>2026-05-01T08:26:47Z</time></trkpt><trkpt lat="43.02120614300952" lon="11.728816799594272"><ele>289.3333333333333</ele><time>2026-05-01T08:26:48Z</time></trkpt><trkpt lat="43.021186293601176" lon="11.728923794965704"><ele>289.16666666666663</ele><time>2026-05-01T08:26:50Z</time></trkpt><trkpt lat="43.02115832493447" lon="11.729008208816968"><ele>289.0</ele><time>2026-05-01T08:26:53Z</time></trkpt><trkpt lat="43.021136000894224" lon="11.729093013120922"><ele>289.0</ele><time>2026-05-01T08:27:02.999Z</time></trkpt><trkpt lat="43.02111302288045" lon="11.729175604109491"><ele>289.0</ele><time>2026-05-01T08:27:18.999Z</time></trkpt><trkpt lat="43.0210940801325" lon="11.729259078154012"><ele>289.0</ele><time>2026-05-01T08:27:41.999Z</time></trkpt><trkpt lat="43.02108741759409" lon="11.729355010184351"><ele>289.0</ele><time>2026-05-01T08:27:51.999Z</time></trkpt><trkpt lat="43.02108271823434" lon="11.729467251201395"><ele>289.0</ele><time>2026-05-01T08:27:53.998Z</time></trkpt><trkpt lat="43.02105703636902" lon="11.729585506928919"><ele>289.0</ele><time>2026-05-01T08:27:55.998Z</time></trkpt><trkpt lat="43.02103873925525" lon="11.729729745224782"><ele>289.5</ele><time>2026-05-01T08:27:57.998Z</time></trkpt><trkpt lat="43.02101464234875" lon="11.72989672642638"><ele>290.0</ele><time>2026-05-01T08:27:59.998Z</time></trkpt><trkpt lat="43.020980275188194" lon="11.73006265033119"><ele>290.5</ele><time>2026-05-01T08:28:01.998Z</time></trkpt><trkpt lat="43.02094436248869" lon="11.7302131843585"><ele>291.0</ele><time>2026-05-01T08:28:03.998Z</time></trkpt><trkpt lat="43.020921256580706" lon="11.730329276196391"><ele>291.1666666666667</ele><time>2026-05-01T08:28:05.998Z</time></trkpt><trkpt lat="43.02090409241631" lon="11.730427390807135"><ele>291.3333333333333</ele><time>2026-05-01T08:28:08.998Z</time></trkpt><trkpt lat="43.02087961504373" lon="11.730531067477848"><ele>291.5</ele><time>2026-05-01T08:29:36.999Z</time></trkpt><trkpt lat="43.02082669945945" lon="11.730617753576432"><ele>291.66666666666663</ele><time>2026-05-01T08:30:11.998Z</time></trkpt><trkpt lat="43.02077682593259" lon="11.730689716146511"><ele>291.8333333333333</ele><time>2026-05-01T08:30:12.998Z</time></trkpt><trkpt lat="43.020689973696506" lon="11.730711203182858"><ele>292.0</ele><time>2026-05-01T08:30:14.998Z</time></trkpt><trkpt lat="43.020774617820855" lon="11.730805611224659"><ele>292.66666666666663</ele><time>2026-05-01T08:30:19.998Z</time></trkpt><trkpt lat="43.02082968468986" lon="11.73086658087426"><ele>293.3333333333333</ele><time>2026-05-01T08:30:20.998Z</time></trkpt><trkpt lat="43.02088964338671" lon="11.730912228488709"><ele>294.0</ele><time>2026-05-01T08:30:22Z</time></trkpt><trkpt lat="43.02092536064217" lon="11.730985231143004"><ele>294.6666666666667</ele><time>2026-05-01T08:30:23Z</time></trkpt><trkpt lat="43.0209827725181" lon="11.731065139695637"><ele>295.33333333333337</ele><time>2026-05-01T08:30:25Z</time></trkpt><trkpt lat="43.02104392320038" lon="11.73115427974748"><ele>296.0</ele><time>2026-05-01T08:30:27Z</time></trkpt><trkpt lat="43.02111595539219" lon="11.731231118531745"><ele>296.5</ele><time>2026-05-01T08:30:29Z</time></trkpt><trkpt lat="43.02119008034596" lon="11.731349817063546"><ele>297.0</ele><time>2026-05-01T08:30:31Z</time></trkpt><trkpt lat="43.021234484581456" lon="11.731416417364649"><ele>297.5</ele><time>2026-05-01T08:30:32Z</time></trkpt><trkpt lat="43.02127249508247" lon="11.731507699697314"><ele>298.0</ele><time>2026-05-01T08:30:33Z</time></trkpt><trkpt lat="43.021332570118" lon="11.731571176224639"><ele>298.5</ele><time>2026-05-01T08:30:34Z</time></trkpt><trkpt lat="43.02140054988341" lon="11.731692704703075"><ele>299.0</ele><time>2026-05-01T08:30:36Z</time></trkpt><trkpt lat="43.02150818425973" lon="11.731774256873015"><ele>299.0</ele><time>2026-05-01T08:30:38Z</time></trkpt><trkpt lat="43.0216244070612" lon="11.731795147439103"><ele>299.0</ele><time>2026-05-01T08:30:40Z</time></trkpt><trkpt lat="43.021726959144054" lon="11.73180161616725"><ele>299.0</ele><time>2026-05-01T08:30:42Z</time></trkpt><trkpt lat="43.021787501106246" lon="11.731839994690871"><ele>299.0</ele><time>2026-05-01T08:30:46Z</time></trkpt><trkpt lat="43.02175212074628" lon="11.731944218797025"><ele>299.0</ele><time>2026-05-01T08:30:48Z</time></trkpt><trkpt lat="43.02168729093184" lon="11.732080057548036"><ele>301.0</ele><time>2026-05-01T08:30:49Z</time></trkpt><trkpt lat="43.02160645301532" lon="11.732220340965247"><ele>303.0</ele><time>2026-05-01T08:30:50Z</time></trkpt><trkpt lat="43.02149580492406" lon="11.732290983430067"><ele>305.0</ele><time>2026-05-01T08:30:51Z</time></trkpt><trkpt lat="43.0213744490615" lon="11.732313466416906"><ele>307.0</ele><time>2026-05-01T08:30:52Z</time></trkpt><trkpt lat="43.02123626077214" lon="11.732301727623435"><ele>307.0</ele><time>2026-05-01T08:30:53Z</time></trkpt><trkpt lat="43.02109844407542" lon="11.732291652618928"><ele>307.0</ele><time>2026-05-01T08:30:54Z</time></trkpt><trkpt lat="43.02097207599845" lon="11.73232058743584"><ele>307.0</ele><time>2026-05-01T08:30:55Z</time></trkpt><trkpt lat="43.020840125033885" lon="11.732385620217995"><ele>307.0</ele><time>2026-05-01T08:30:56Z</time></trkpt><trkpt lat="43.02071033522272" lon="11.732481589454027"><ele>305.66666666666663</ele><time>2026-05-01T08:30:57Z</time></trkpt><trkpt lat="43.02057766308846" lon="11.732606709551648"><ele>304.3333333333333</ele><time>2026-05-01T08:30:58Z</time></trkpt><trkpt lat="43.02043840020473" lon="11.73275735091908"><ele>303.0</ele><time>2026-05-01T08:30:59Z</time></trkpt><trkpt lat="43.02015653859529" lon="11.733045791028601"><ele>303.5</ele><time>2026-05-01T08:31:01Z</time></trkpt><trkpt lat="43.02004105319123" lon="11.733183272477198"><ele>304.0</ele><time>2026-05-01T08:31:02Z</time></trkpt><trkpt lat="43.0199408433272" lon="11.733322556050645"><ele>304.5</ele><time>2026-05-01T08:31:03Z</time></trkpt><trkpt lat="43.019856331676976" lon="11.733466275589276"><ele>305.0</ele><time>2026-05-01T08:31:04Z</time></trkpt><trkpt lat="43.01979081089408" lon="11.733632065061533"><ele>305.0</ele><time>2026-05-01T08:31:05Z</time></trkpt><trkpt lat="43.019700823367856" lon="11.733800124605233"><ele>305.0</ele><time>2026-05-01T08:31:05.999Z</time></trkpt><trkpt lat="43.01962244127901" lon="11.734035033028869"><ele>305.0</ele><time>2026-05-01T08:31:06.999Z</time></trkpt><trkpt lat="43.01955708537652" lon="11.734292197794957"><ele>307.0</ele><time>2026-05-01T08:31:07.999Z</time></trkpt><trkpt lat="43.01947656921507" lon="11.734497582828185"><ele>309.0</ele><time>2026-05-01T08:31:08.999Z</time></trkpt><trkpt lat="43.01941990014246" lon="11.734678903360226"><ele>311.0</ele><time>2026-05-01T08:31:09.999Z</time></trkpt><trkpt lat="43.01936811026136" lon="11.73484953637837"><ele>311.0</ele><time>2026-05-01T08:31:10.999Z</time></trkpt><trkpt lat="43.01932110807609" lon="11.735004395277137"><ele>311.0</ele><time>2026-05-01T08:31:11.999Z</time></trkpt><trkpt lat="43.01927036958235" lon="11.73514284276346"><ele>311.0</ele><time>2026-05-01T08:31:12.999Z</time></trkpt><trkpt lat="43.0192085322445" lon="11.735269018286225"><ele>311.0</ele><time>2026-05-01T08:31:13.999Z</time></trkpt><trkpt lat="43.01912489977621" lon="11.7353747647201"><ele>309.75</ele><time>2026-05-01T08:31:14.999Z</time></trkpt><trkpt lat="43.01901397963542" lon="11.735464464206954"><ele>308.5</ele><time>2026-05-01T08:31:15.999Z</time></trkpt><trkpt lat="43.018896599054585" lon="11.735520122574899"><ele>307.25</ele><time>2026-05-01T08:31:16.999Z</time></trkpt><trkpt lat="43.01877297069873" lon="11.735581726506803"><ele>306.0</ele><time>2026-05-01T08:31:17.999Z</time></trkpt><trkpt lat="43.01865208358499" lon="11.735665728058464"><ele>306.0</ele><time>2026-05-01T08:31:18.999Z</time></trkpt><trkpt lat="43.01851575055452" lon="11.73573742717122"><ele>306.0</ele><time>2026-05-01T08:31:19.999Z</time></trkpt><trkpt lat="43.01838860967017" lon="11.735868507044769"><ele>306.0</ele><time>2026-05-01T08:31:20.999Z</time></trkpt><trkpt lat="43.01825853789787" lon="11.736002646321765"><ele>304.6666666666667</ele><time>2026-05-01T08:31:21.999Z</time></trkpt><trkpt lat="43.01814155338322" lon="11.736153332638635"><ele>303.33333333333337</ele><time>2026-05-01T08:31:22.999Z</time></trkpt><trkpt lat="43.01803827997768" lon="11.736316313209349"><ele>302.0</ele><time>2026-05-01T08:31:23.999Z</time></trkpt><trkpt lat="43.01793535238476" lon="11.7364889722994"><ele>302.0</ele><time>2026-05-01T08:31:24.999Z</time></trkpt><trkpt lat="43.01783955710475" lon="11.736670338839373"><ele>302.0</ele><time>2026-05-01T08:31:25.999Z</time></trkpt><trkpt lat="43.017750475017344" lon="11.736860987850408"><ele>302.0</ele><time>2026-05-01T08:31:26.999Z</time></trkpt><trkpt lat="43.0176784141817" lon="11.737059471334161"><ele>302.33333333333337</ele><time>2026-05-01T08:31:27.999Z</time></trkpt><trkpt lat="43.01760071907093" lon="11.737232711608788"><ele>302.6666666666667</ele><time>2026-05-01T08:31:28.999Z</time></trkpt><trkpt lat="43.01753429009637" lon="11.737422755487053"><ele>303.0</ele><time>2026-05-01T08:31:29.999Z</time></trkpt><trkpt lat="43.01746244215733" lon="11.737627268084939"><ele>302.0</ele><time>2026-05-01T08:31:30.999Z</time></trkpt><trkpt lat="43.017390143854925" lon="11.737831672081281"><ele>301.0</ele><time>2026-05-01T08:31:31.999Z</time></trkpt><trkpt lat="43.01731801163507" lon="11.738035538908388"><ele>300.0</ele><time>2026-05-01T08:31:32.999Z</time></trkpt><trkpt lat="43.01724086592032" lon="11.738253012293995"><ele>300.0</ele><time>2026-05-01T08:31:33.999Z</time></trkpt><trkpt lat="43.01716325339322" lon="11.738469852565604"><ele>300.0</ele><time>2026-05-01T08:31:34.999Z</time></trkpt><trkpt lat="43.01708396389895" lon="11.73869137802794"><ele>300.0</ele><time>2026-05-01T08:31:35.999Z</time></trkpt><trkpt lat="43.01700384199539" lon="11.738915229188118"><ele>300.3333333333333</ele><time>2026-05-01T08:31:36.999Z</time></trkpt><trkpt lat="43.01691705284051" lon="11.73913700343182"><ele>300.66666666666663</ele><time>2026-05-01T08:31:37.999Z</time></trkpt><trkpt lat="43.01681802829603" lon="11.739340943674065"><ele>301.0</ele><time>2026-05-01T08:31:38.999Z</time></trkpt><trkpt lat="43.0167043486504" lon="11.739534738797351"><ele>300.66666666666663</ele><time>2026-05-01T08:31:39.999Z</time></trkpt><trkpt lat="43.01657503063493" lon="11.739713516402906"><ele>300.3333333333333</ele><time>2026-05-01T08:31:40.999Z</time></trkpt><trkpt lat="43.016448239650565" lon="11.739898159902458"><ele>300.0</ele><time>2026-05-01T08:31:41.999Z</time></trkpt><trkpt lat="43.016294925294986" lon="11.74005605953319"><ele>300.0</ele><time>2026-05-01T08:31:42.999Z</time></trkpt><trkpt lat="43.01613271948046" lon="11.740190750862764"><ele>300.0</ele><time>2026-05-01T08:31:43.999Z</time></trkpt><trkpt lat="43.01596590043319" lon="11.740311556431319"><ele>300.0</ele><time>2026-05-01T08:31:44.999Z</time></trkpt><trkpt lat="43.015800443107366" lon="11.740429274939292"><ele>299.6666666666667</ele><time>2026-05-01T08:31:45.999Z</time></trkpt><trkpt lat="43.015633794860115" lon="11.74054748244203"><ele>299.33333333333337</ele><time>2026-05-01T08:31:46.999Z</time></trkpt><trkpt lat="43.01546863085981" lon="11.740660476859365"><ele>299.0</ele><time>2026-05-01T08:31:47.999Z</time></trkpt><trkpt lat="43.01530782676655" lon="11.740769497346738"><ele>299.0</ele><time>2026-05-01T08:31:48.999Z</time></trkpt><trkpt lat="43.01514663531881" lon="11.740886478631603"><ele>299.0</ele><time>2026-05-01T08:31:49.999Z</time></trkpt><trkpt lat="43.014980002952846" lon="11.741008005474228"><ele>299.0</ele><time>2026-05-01T08:31:50.999Z</time></trkpt><trkpt lat="43.01481217126543" lon="11.741121762937441"><ele>299.33333333333337</ele><time>2026-05-01T08:31:51.999Z</time></trkpt><trkpt lat="43.01464192941634" lon="11.741242821380196"><ele>299.6666666666667</ele><time>2026-05-01T08:31:52.999Z</time></trkpt><trkpt lat="43.01446962333447" lon="11.74136645082514"><ele>300.0</ele><time>2026-05-01T08:31:53.999Z</time></trkpt><trkpt lat="43.014301953820954" lon="11.741490281252496"><ele>299.3333333333333</ele><time>2026-05-01T08:31:54.999Z</time></trkpt><trkpt lat="43.01412897274307" lon="11.741615023322607"><ele>298.66666666666663</ele><time>2026-05-01T08:31:55.999Z</time></trkpt><trkpt lat="43.01395757634898" lon="11.741741696488711"><ele>298.0</ele><time>2026-05-01T08:31:56.999Z</time></trkpt><trkpt lat="43.013782949553715" lon="11.741866831576264"><ele>298.66666666666663</ele><time>2026-05-01T08:31:57.999Z</time></trkpt><trkpt lat="43.013615363136275" lon="11.74199013660477"><ele>299.3333333333333</ele><time>2026-05-01T08:31:58.999Z</time></trkpt><trkpt lat="43.01343837853277" lon="11.742114170857228"><ele>300.0</ele><time>2026-05-01T08:31:59.999Z</time></trkpt><trkpt lat="43.01327598183422" lon="11.74223673446949"><ele>300.3333333333333</ele><time>2026-05-01T08:32:00.999Z</time></trkpt><trkpt lat="43.01311262057344" lon="11.742352212935776"><ele>300.66666666666663</ele><time>2026-05-01T08:32:01.999Z</time></trkpt><trkpt lat="43.01296145429969" lon="11.742454907869051"><ele>301.0</ele><time>2026-05-01T08:32:02.999Z</time></trkpt><trkpt lat="43.012807278083685" lon="11.742565007053337"><ele>301.0</ele><time>2026-05-01T08:32:03.999Z</time></trkpt><trkpt lat="43.01264078348076" lon="11.742691292526809"><ele>301.0</ele><time>2026-05-01T08:32:04.999Z</time></trkpt><trkpt lat="43.012469270256815" lon="11.742817499002411"><ele>301.0</ele><time>2026-05-01T08:32:05.998Z</time></trkpt><trkpt lat="43.01229700839959" lon="11.742938378507395"><ele>301.0</ele><time>2026-05-01T08:32:06.998Z</time></trkpt><trkpt lat="43.01212635502256" lon="11.74305878106009"><ele>301.0</ele><time>2026-05-01T08:32:07.998Z</time></trkpt><trkpt lat="43.01195812602772" lon="11.74318000770266"><ele>301.0</ele><time>2026-05-01T08:32:08.998Z</time></trkpt><trkpt lat="43.01178800534077" lon="11.74329816123635"><ele>300.66666666666663</ele><time>2026-05-01T08:32:09.998Z</time></trkpt><trkpt lat="43.01161690040892" lon="11.74341160613505"><ele>300.3333333333333</ele><time>2026-05-01T08:32:10.998Z</time></trkpt><trkpt lat="43.0114424410871" lon="11.74351328721685"><ele>300.0</ele><time>2026-05-01T08:32:11.998Z</time></trkpt><trkpt lat="43.01126252056248" lon="11.743589821955844"><ele>300.6666666666667</ele><time>2026-05-01T08:32:12.998Z</time></trkpt><trkpt lat="43.01107252131456" lon="11.743651346527157"><ele>301.33333333333337</ele><time>2026-05-01T08:32:13.998Z</time></trkpt><trkpt lat="43.01087071012495" lon="11.7437004118597"><ele>302.0</ele><time>2026-05-01T08:32:14.998Z</time></trkpt><trkpt lat="43.01066687200404" lon="11.74372798935092"><ele>303.6666666666667</ele><time>2026-05-01T08:32:15.998Z</time></trkpt><trkpt lat="43.010464491257515" lon="11.743732531117631"><ele>305.3333333333333</ele><time>2026-05-01T08:32:16.998Z</time></trkpt><trkpt lat="43.01026808921327" lon="11.743728990605483"><ele>307.0</ele><time>2026-05-01T08:32:17.998Z</time></trkpt><trkpt lat="43.01006213140956" lon="11.74372800319003"><ele>307.3333333333333</ele><time>2026-05-01T08:32:18.998Z</time></trkpt><trkpt lat="43.00985008412506" lon="11.743727368197732"><ele>307.6666666666667</ele><time>2026-05-01T08:32:19.998Z</time></trkpt><trkpt lat="43.00963531480334" lon="11.743721136751244"><ele>308.0</ele><time>2026-05-01T08:32:20.998Z</time></trkpt><trkpt lat="43.00943050032393" lon="11.743717012498653"><ele>308.0</ele><time>2026-05-01T08:32:21.998Z</time></trkpt><trkpt lat="43.00923049725348" lon="11.74371223902466"><ele>308.0</ele><time>2026-05-01T08:32:22.998Z</time></trkpt><trkpt lat="43.00903043938698" lon="11.743709522271514"><ele>308.0</ele><time>2026-05-01T08:32:23.998Z</time></trkpt><trkpt lat="43.00883165184832" lon="11.743704660217869"><ele>307.6666666666667</ele><time>2026-05-01T08:32:24.998Z</time></trkpt><trkpt lat="43.00863317846853" lon="11.743699195878875"><ele>307.3333333333333</ele><time>2026-05-01T08:32:25.998Z</time></trkpt><trkpt lat="43.008444943089664" lon="11.743693193805035"><ele>307.0</ele><time>2026-05-01T08:32:26.998Z</time></trkpt><trkpt lat="43.00825254274873" lon="11.743689050443045"><ele>307.0</ele><time>2026-05-01T08:32:28Z</time></trkpt><trkpt lat="43.00806726337906" lon="11.743681431807708"><ele>307.0</ele><time>2026-05-01T08:32:29Z</time></trkpt><trkpt lat="43.00788409868168" lon="11.743673479319362"><ele>307.0</ele><time>2026-05-01T08:32:30Z</time></trkpt><trkpt lat="43.00769368970427" lon="11.74367035389849"><ele>307.0</ele><time>2026-05-01T08:32:31Z</time></trkpt><trkpt lat="43.00749496701159" lon="11.743674025732071"><ele>307.0</ele><time>2026-05-01T08:32:32Z</time></trkpt><trkpt lat="43.00730219693538" lon="11.743694331795776"><ele>307.0</ele><time>2026-05-01T08:32:33Z</time></trkpt><trkpt lat="43.00711700508518" lon="11.743743544822179"><ele>306.66666666666663</ele><time>2026-05-01T08:32:34Z</time></trkpt><trkpt lat="43.00689495098128" lon="11.743843204292366"><ele>306.3333333333333</ele><time>2026-05-01T08:32:35Z</time></trkpt><trkpt lat="43.0067082248474" lon="11.743956480752546"><ele>306.0</ele><time>2026-05-01T08:32:36Z</time></trkpt><trkpt lat="43.00651973861321" lon="11.744086050623965"><ele>305.6666666666667</ele><time>2026-05-01T08:32:37Z</time></trkpt><trkpt lat="43.00633537639238" lon="11.744213258390433"><ele>305.33333333333337</ele><time>2026-05-01T08:32:38Z</time></trkpt><trkpt lat="43.00614272671812" lon="11.744336207921155"><ele>305.0</ele><time>2026-05-01T08:32:39Z</time></trkpt><trkpt lat="43.00594469747258" lon="11.744462138914107"><ele>304.6666666666667</ele><time>2026-05-01T08:32:40Z</time></trkpt><trkpt lat="43.00574389184053" lon="11.744589993203707"><ele>304.3333333333333</ele><time>2026-05-01T08:32:41Z</time></trkpt><trkpt lat="43.00554389774582" lon="11.744714067846195"><ele>304.0</ele><time>2026-05-01T08:32:42Z</time></trkpt><trkpt lat="43.005343854363595" lon="11.74484158507065"><ele>304.0</ele><time>2026-05-01T08:32:43Z</time></trkpt><trkpt lat="43.00514803400651" lon="11.74496959957469"><ele>304.0</ele><time>2026-05-01T08:32:44Z</time></trkpt><trkpt lat="43.00494971666837" lon="11.745094269356658"><ele>304.0</ele><time>2026-05-01T08:32:45Z</time></trkpt><trkpt lat="43.00474778007048" lon="11.74521875846213"><ele>305.3333333333333</ele><time>2026-05-01T08:32:46Z</time></trkpt><trkpt lat="43.00454878691058" lon="11.745340748366692"><ele>306.6666666666667</ele><time>2026-05-01T08:32:47Z</time></trkpt><trkpt lat="43.00434984548635" lon="11.745466939726276"><ele>308.0</ele><time>2026-05-01T08:32:48Z</time></trkpt><trkpt lat="43.00414018108607" lon="11.745604750007777"><ele>309.0</ele><time>2026-05-01T08:32:49Z</time></trkpt><trkpt lat="43.00392137801414" lon="11.745724820405606"><ele>310.0</ele><time>2026-05-01T08:32:50Z</time></trkpt><trkpt lat="43.003714581510884" lon="11.745853271527594"><ele>310.0</ele><time>2026-05-01T08:32:51Z</time></trkpt><trkpt lat="43.00352101453729" lon="11.745996380490723"><ele>310.0</ele><time>2026-05-01T08:32:52Z</time></trkpt><trkpt lat="43.00332113812343" lon="11.746100555674492"><ele>310.0</ele><time>2026-05-01T08:32:53Z</time></trkpt><trkpt lat="43.00313240043424" lon="11.746219555441215"><ele>309.66666666666663</ele><time>2026-05-01T08:32:54Z</time></trkpt><trkpt lat="43.00293674381282" lon="11.74634351806789"><ele>309.3333333333333</ele><time>2026-05-01T08:32:55Z</time></trkpt><trkpt lat="43.002746907466324" lon="11.746479962530866"><ele>309.0</ele><time>2026-05-01T08:32:56Z</time></trkpt><trkpt lat="43.002553674127796" lon="11.746596655740452"><ele>308.6666666666667</ele><time>2026-05-01T08:32:57Z</time></trkpt><trkpt lat="43.00236176483438" lon="11.746723058354718"><ele>308.33333333333337</ele><time>2026-05-01T08:32:58Z</time></trkpt><trkpt lat="43.00216541292958" lon="11.74685080178517"><ele>308.0</ele><time>2026-05-01T08:32:59Z</time></trkpt><trkpt lat="43.001956803482706" lon="11.746985785661881"><ele>310.5</ele><time>2026-05-01T08:33:00Z</time></trkpt><trkpt lat="43.00173878231248" lon="11.747102931672595"><ele>313.0</ele><time>2026-05-01T08:33:01Z</time></trkpt><trkpt lat="43.00153389867681" lon="11.74723294934986"><ele>313.0</ele><time>2026-05-01T08:33:02Z</time></trkpt><trkpt lat="43.00134435374045" lon="11.747380758223704"><ele>313.0</ele><time>2026-05-01T08:33:03Z</time></trkpt><trkpt lat="43.001144058694976" lon="11.747511969359282"><ele>313.0</ele><time>2026-05-01T08:33:04Z</time></trkpt><trkpt lat="43.000949404825725" lon="11.747651172486629"><ele>314.0</ele><time>2026-05-01T08:33:05Z</time></trkpt><trkpt lat="43.000751544197456" lon="11.747796923671538"><ele>315.0</ele><time>2026-05-01T08:33:06Z</time></trkpt><trkpt lat="43.000547582684774" lon="11.747952724634551"><ele>315.0</ele><time>2026-05-01T08:33:07Z</time></trkpt><trkpt lat="43.00033164162729" lon="11.748095405986248"><ele>315.0</ele><time>2026-05-01T08:33:08Z</time></trkpt><trkpt lat="43.00013022699178" lon="11.74825484009466"><ele>315.0</ele><time>2026-05-01T08:33:09Z</time></trkpt><trkpt lat="42.99994181536916" lon="11.74842801579552"><ele>315.0</ele><time>2026-05-01T08:33:10Z</time></trkpt><trkpt lat="42.99974412875752" lon="11.748575661932326"><ele>315.0</ele><time>2026-05-01T08:33:11Z</time></trkpt><trkpt lat="42.99954721436971" lon="11.748726355211089"><ele>315.0</ele><time>2026-05-01T08:33:11.999Z</time></trkpt><trkpt lat="42.99934062011072" lon="11.74888942178077"><ele>315.0</ele><time>2026-05-01T08:33:12.999Z</time></trkpt><trkpt lat="42.99913119589022" lon="11.749052339446083"><ele>315.0</ele><time>2026-05-01T08:33:13.999Z</time></trkpt><trkpt lat="42.99893375257237" lon="11.749208030022938"><ele>315.0</ele><time>2026-05-01T08:33:14.999Z</time></trkpt><trkpt lat="42.998748413882154" lon="11.749353520988095"><ele>315.0</ele><time>2026-05-01T08:33:15.999Z</time></trkpt><trkpt lat="42.998564101734814" lon="11.749498946987636"><ele>315.0</ele><time>2026-05-01T08:33:16.999Z</time></trkpt><trkpt lat="42.998390300489945" lon="11.749638959236146"><ele>315.6666666666667</ele><time>2026-05-01T08:33:17.999Z</time></trkpt><trkpt lat="42.99821890342668" lon="11.749789092722317"><ele>316.33333333333337</ele><time>2026-05-01T08:33:18.999Z</time></trkpt><trkpt lat="42.998042993055726" lon="11.749937271663013"><ele>317.0</ele><time>2026-05-01T08:33:19.999Z</time></trkpt><trkpt lat="42.997852482668925" lon="11.750081077532485"><ele>316.6666666666667</ele><time>2026-05-01T08:33:20.999Z</time></trkpt><trkpt lat="42.99766696934442" lon="11.750250648850265"><ele>316.3333333333333</ele><time>2026-05-01T08:33:21.999Z</time></trkpt><trkpt lat="42.99749825322497" lon="11.750406024922523"><ele>316.0</ele><time>2026-05-01T08:33:22.999Z</time></trkpt><trkpt lat="42.99732591867266" lon="11.75056475380278"><ele>317.5</ele><time>2026-05-01T08:33:23.999Z</time></trkpt><trkpt lat="42.99714026187314" lon="11.750737523018424"><ele>319.0</ele><time>2026-05-01T08:33:24.999Z</time></trkpt><trkpt lat="42.99695830291059" lon="11.750948197278419"><ele>319.66666666666663</ele><time>2026-05-01T08:33:25.999Z</time></trkpt><trkpt lat="42.99677103166601" lon="11.751120544862038"><ele>320.3333333333333</ele><time>2026-05-01T08:33:26.999Z</time></trkpt><trkpt lat="42.99658675167172" lon="11.751293712665623"><ele>321.0</ele><time>2026-05-01T08:33:27.999Z</time></trkpt><trkpt lat="42.99640364421847" lon="11.751460061741966"><ele>321.0</ele><time>2026-05-01T08:33:28.999Z</time></trkpt><trkpt lat="42.99622250392634" lon="11.75162417499329"><ele>321.0</ele><time>2026-05-01T08:33:29.999Z</time></trkpt><trkpt lat="42.99604529423495" lon="11.7517896469164"><ele>321.0</ele><time>2026-05-01T08:33:30.999Z</time></trkpt><trkpt lat="42.99586730657823" lon="11.7519552187792"><ele>321.0</ele><time>2026-05-01T08:33:31.999Z</time></trkpt><trkpt lat="42.995677663964244" lon="11.752128702066052"><ele>321.0</ele><time>2026-05-01T08:33:32.999Z</time></trkpt><trkpt lat="42.99548645604806" lon="11.752304263781795"><ele>321.0</ele><time>2026-05-01T08:33:33.999Z</time></trkpt><trkpt lat="42.99529965041873" lon="11.752470847619659"><ele>321.0</ele><time>2026-05-01T08:33:34.999Z</time></trkpt><trkpt lat="42.99511253689925" lon="11.75262811884479"><ele>321.0</ele><time>2026-05-01T08:33:35.999Z</time></trkpt><trkpt lat="42.99491933373407" lon="11.75276665199211"><ele>319.6666666666667</ele><time>2026-05-01T08:33:36.999Z</time></trkpt><trkpt lat="42.99472154213189" lon="11.752898279895785"><ele>318.33333333333337</ele><time>2026-05-01T08:33:37.999Z</time></trkpt><trkpt lat="42.99452945381339" lon="11.753029867938736"><ele>317.0</ele><time>2026-05-01T08:33:38.999Z</time></trkpt><trkpt lat="42.994335110006865" lon="11.753164314056642"><ele>317.33333333333337</ele><time>2026-05-01T08:33:39.999Z</time></trkpt><trkpt lat="42.99414706958218" lon="11.753291946283657"><ele>317.6666666666667</ele><time>2026-05-01T08:33:40.999Z</time></trkpt><trkpt lat="42.99398120838967" lon="11.753407403078453"><ele>318.0</ele><time>2026-05-01T08:33:41.999Z</time></trkpt><trkpt lat="42.99382489105074" lon="11.753519420746297"><ele>319.0</ele><time>2026-05-01T08:33:42.999Z</time></trkpt><trkpt lat="42.993666500121435" lon="11.753664240045234"><ele>320.0</ele><time>2026-05-01T08:33:43.999Z</time></trkpt><trkpt lat="42.99350708431439" lon="11.75385115519592"><ele>321.0</ele><time>2026-05-01T08:33:44.999Z</time></trkpt><trkpt lat="42.99333417953102" lon="11.754074426686795"><ele>321.0</ele><time>2026-05-01T08:33:45.999Z</time></trkpt><trkpt lat="42.99316362469522" lon="11.754311674026946"><ele>321.0</ele><time>2026-05-01T08:33:46.999Z</time></trkpt><trkpt lat="42.99301104195438" lon="11.754534124771643"><ele>323.0</ele><time>2026-05-01T08:33:47.999Z</time></trkpt><trkpt lat="42.99287589930039" lon="11.754735120699616"><ele>325.0</ele><time>2026-05-01T08:33:48.999Z</time></trkpt><trkpt lat="42.992743478682236" lon="11.754922876808983"><ele>327.0</ele><time>2026-05-01T08:33:49.999Z</time></trkpt><trkpt lat="42.99262354967449" lon="11.755115978166291"><ele>325.6666666666667</ele><time>2026-05-01T08:33:50.999Z</time></trkpt><trkpt lat="42.99252675060221" lon="11.75532642808179"><ele>324.33333333333337</ele><time>2026-05-01T08:33:51.999Z</time></trkpt><trkpt lat="42.99245440139896" lon="11.755560282869613"><ele>323.0</ele><time>2026-05-01T08:33:52.999Z</time></trkpt><trkpt lat="42.99241121983954" lon="11.755811501607885"><ele>324.33333333333337</ele><time>2026-05-01T08:33:53.999Z</time></trkpt><trkpt lat="42.99239094409067" lon="11.7560883027819"><ele>325.6666666666667</ele><time>2026-05-01T08:33:54.999Z</time></trkpt><trkpt lat="42.992394084079194" lon="11.75638960727892"><ele>327.0</ele><time>2026-05-01T08:33:55.999Z</time></trkpt><trkpt lat="42.992423407608584" lon="11.756702618996991"><ele>328.6666666666667</ele><time>2026-05-01T08:33:56.999Z</time></trkpt><trkpt lat="42.99246714897501" lon="11.757010854541077"><ele>330.33333333333337</ele><time>2026-05-01T08:33:57.999Z</time></trkpt><trkpt lat="42.9925066075491" lon="11.757280978335816"><ele>332.0</ele><time>2026-05-01T08:33:58.999Z</time></trkpt><trkpt lat="42.992560240516816" lon="11.757501629984295"><ele>332.6666666666667</ele><time>2026-05-01T08:33:59.999Z</time></trkpt><trkpt lat="42.99263793223066" lon="11.75770061897163"><ele>333.3333333333333</ele><time>2026-05-01T08:34:00.999Z</time></trkpt><trkpt lat="42.99274733421175" lon="11.75788992272014"><ele>334.0</ele><time>2026-05-01T08:34:01.999Z</time></trkpt><trkpt lat="42.99285402797725" lon="11.758088129653888"><ele>334.0</ele><time>2026-05-01T08:34:02.999Z</time></trkpt><trkpt lat="42.99291607977151" lon="11.75830438335772"><ele>334.0</ele><time>2026-05-01T08:34:03.999Z</time></trkpt><trkpt lat="42.99294281524132" lon="11.758547672924644"><ele>334.0</ele><time>2026-05-01T08:34:04.999Z</time></trkpt><trkpt lat="42.9929436918873" lon="11.758812307999367"><ele>334.66666666666663</ele><time>2026-05-01T08:34:05.999Z</time></trkpt><trkpt lat="42.992926525488585" lon="11.759091278193731"><ele>335.3333333333333</ele><time>2026-05-01T08:34:06.999Z</time></trkpt><trkpt lat="42.99289493003698" lon="11.759384047328414"><ele>336.0</ele><time>2026-05-01T08:34:07.999Z</time></trkpt><trkpt lat="42.99285587584554" lon="11.759669016716733"><ele>338.0</ele><time>2026-05-01T08:34:08.999Z</time></trkpt><trkpt lat="42.99280003020985" lon="11.759939420577899"><ele>340.0</ele><time>2026-05-01T08:34:09.999Z</time></trkpt><trkpt lat="42.99274207403889" lon="11.760209114472437"><ele>342.0</ele><time>2026-05-01T08:34:10.999Z</time></trkpt><trkpt lat="42.992684566068405" lon="11.760472776441032"><ele>344.3333333333333</ele><time>2026-05-01T08:34:11.998Z</time></trkpt><trkpt lat="42.9926307488499" lon="11.760720351585519"><ele>346.66666666666663</ele><time>2026-05-01T08:34:12.998Z</time></trkpt><trkpt lat="42.9925714855574" lon="11.760951345721056"><ele>349.0</ele><time>2026-05-01T08:34:13.998Z</time></trkpt><trkpt lat="42.99251028627708" lon="11.761152007610633"><ele>349.0</ele><time>2026-05-01T08:34:14.998Z</time></trkpt><trkpt lat="42.99244495561673" lon="11.761338718303898"><ele>349.0</ele><time>2026-05-01T08:34:15.998Z</time></trkpt><trkpt lat="42.99237117156415" lon="11.761533228906387"><ele>349.0</ele><time>2026-05-01T08:34:16.998Z</time></trkpt><trkpt lat="42.9922974828187" lon="11.761709982154901"><ele>349.0</ele><time>2026-05-01T08:34:17.998Z</time></trkpt><trkpt lat="42.9922324377477" lon="11.761860735438416"><ele>349.0</ele><time>2026-05-01T08:34:18.998Z</time></trkpt><trkpt lat="42.992168347449" lon="11.761994861665414"><ele>349.0</ele><time>2026-05-01T08:34:19.998Z</time></trkpt><trkpt lat="42.992104070138375" lon="11.762100500937155"><ele>349.0</ele><time>2026-05-01T08:34:20.998Z</time></trkpt><trkpt lat="42.992037122197694" lon="11.76217765694025"><ele>349.0</ele><time>2026-05-01T08:34:21.998Z</time></trkpt><trkpt lat="42.99197922111576" lon="11.762230834045836"><ele>349.0</ele><time>2026-05-01T08:34:22.998Z</time></trkpt><trkpt lat="42.991882474711055" lon="11.762308485012335"><ele>349.0</ele><time>2026-05-01T08:34:24.998Z</time></trkpt><trkpt lat="42.99184071908082" lon="11.762385329656075"><ele>349.0</ele><time>2026-05-01T08:34:25.998Z</time></trkpt><trkpt lat="42.99182076950476" lon="11.762480466253962"><ele>349.0</ele><time>2026-05-01T08:34:26.998Z</time></trkpt><trkpt lat="42.991819468919374" lon="11.762594131614893"><ele>349.0</ele><time>2026-05-01T08:34:27.998Z</time></trkpt><trkpt lat="42.99184681692223" lon="11.762725810558043"><ele>349.0</ele><time>2026-05-01T08:34:28.998Z</time></trkpt><trkpt lat="42.991893481735026" lon="11.762885576966156"><ele>349.66666666666663</ele><time>2026-05-01T08:34:29.998Z</time></trkpt><trkpt lat="42.99192197536128" lon="11.76308217473785"><ele>350.3333333333333</ele><time>2026-05-01T08:34:30.998Z</time></trkpt><trkpt lat="42.99199198653521" lon="11.763271337919441"><ele>351.0</ele><time>2026-05-01T08:34:31.998Z</time></trkpt><trkpt lat="42.99203548345309" lon="11.763485611363564"><ele>351.6666666666667</ele><time>2026-05-01T08:34:32.998Z</time></trkpt><trkpt lat="42.992093891820325" lon="11.763693209563204"><ele>352.33333333333337</ele><time>2026-05-01T08:34:34Z</time></trkpt><trkpt lat="42.992147803598165" lon="11.763884825750626"><ele>353.0</ele><time>2026-05-01T08:34:35Z</time></trkpt><trkpt lat="42.992201702006746" lon="11.764076394389749"><ele>353.0</ele><time>2026-05-01T08:34:36Z</time></trkpt><trkpt lat="42.99225307251715" lon="11.764260841884028"><ele>353.0</ele><time>2026-05-01T08:34:37Z</time></trkpt><trkpt lat="42.99231356666412" lon="11.764434934531446"><ele>353.0</ele><time>2026-05-01T08:34:38Z</time></trkpt><trkpt lat="42.992361776670556" lon="11.764608711695201"><ele>353.0</ele><time>2026-05-01T08:34:39Z</time></trkpt><trkpt lat="42.99239466380122" lon="11.764773981706991"><ele>354.2</ele><time>2026-05-01T08:34:40Z</time></trkpt><trkpt lat="42.99243530927416" lon="11.7649072943859"><ele>355.4</ele><time>2026-05-01T08:34:41Z</time></trkpt><trkpt lat="42.992470126885905" lon="11.765021492199391"><ele>356.59999999999997</ele><time>2026-05-01T08:34:42Z</time></trkpt><trkpt lat="42.99248693206552" lon="11.765111041133073"><ele>357.79999999999995</ele><time>2026-05-01T08:34:43Z</time></trkpt><trkpt lat="42.99247106692496" lon="11.765265132557712"><ele>359.0</ele><time>2026-05-01T08:34:45Z</time></trkpt><trkpt lat="42.99238240323118" lon="11.76532503220368"><ele>359.83333333333337</ele><time>2026-05-01T08:34:47Z</time></trkpt><trkpt lat="42.99228856844305" lon="11.765369164042125"><ele>360.6666666666667</ele><time>2026-05-01T08:34:48Z</time></trkpt><trkpt lat="42.992193340104514" lon="11.76543549750772"><ele>361.5</ele><time>2026-05-01T08:34:49Z</time></trkpt><trkpt lat="42.992115278778805" lon="11.765477920916148"><ele>362.3333333333333</ele><time>2026-05-01T08:34:50Z</time></trkpt><trkpt lat="42.9920425313549" lon="11.765504908219148"><ele>363.16666666666663</ele><time>2026-05-01T08:34:51Z</time></trkpt><trkpt lat="42.991972128023676" lon="11.76550276098128"><ele>364.0</ele><time>2026-05-01T08:34:52Z</time></trkpt><trkpt lat="42.991894189109686" lon="11.765491511952323"><ele>364.0</ele><time>2026-05-01T08:34:53Z</time></trkpt><trkpt lat="42.99179819889111" lon="11.765480729329948"><ele>364.0</ele><time>2026-05-01T08:34:54Z</time></trkpt><trkpt lat="42.99170943173595" lon="11.765470758080436"><ele>364.0</ele><time>2026-05-01T08:34:55Z</time></trkpt><trkpt lat="42.991617085616475" lon="11.765467663394762"><ele>364.0</ele><time>2026-05-01T08:34:56Z</time></trkpt><trkpt lat="42.99153489235559" lon="11.765462270133316"><ele>364.0</ele><time>2026-05-01T08:34:57Z</time></trkpt><trkpt lat="42.991456933677654" lon="11.765455489362813"><ele>364.0</ele><time>2026-05-01T08:34:58Z</time></trkpt><trkpt lat="42.9913649940502" lon="11.765467490150842"><ele>362.5</ele><time>2026-05-01T08:34:59Z</time></trkpt><trkpt lat="42.99126546049765" lon="11.765506727424354"><ele>361.0</ele><time>2026-05-01T08:35:00Z</time></trkpt><trkpt lat="42.99115659705116" lon="11.765580439751139"><ele>359.5</ele><time>2026-05-01T08:35:01Z</time></trkpt><trkpt lat="42.99104232984177" lon="11.765678935752309"><ele>358.0</ele><time>2026-05-01T08:35:02Z</time></trkpt><trkpt lat="42.990937887345844" lon="11.765765292931645"><ele>358.0</ele><time>2026-05-01T08:35:03Z</time></trkpt><trkpt lat="42.99084757433017" lon="11.765845577638915"><ele>358.0</ele><time>2026-05-01T08:35:04Z</time></trkpt><trkpt lat="42.99076386763583" lon="11.76593190227192"><ele>358.0</ele><time>2026-05-01T08:35:05Z</time></trkpt><trkpt lat="42.99069185120581" lon="11.766028805363648"><ele>358.0</ele><time>2026-05-01T08:35:06Z</time></trkpt><trkpt lat="42.9906268402711" lon="11.766141522833035"><ele>358.0</ele><time>2026-05-01T08:35:07Z</time></trkpt><trkpt lat="42.99057106968912" lon="11.766272486284585"><ele>356.5</ele><time>2026-05-01T08:35:08Z</time></trkpt><trkpt lat="42.99051422597476" lon="11.766425202561551"><ele>355.0</ele><time>2026-05-01T08:35:09Z</time></trkpt><trkpt lat="42.990441535287204" lon="11.766564049359879"><ele>353.5</ele><time>2026-05-01T08:35:10Z</time></trkpt><trkpt lat="42.9903887777321" lon="11.766699436189855"><ele>352.0</ele><time>2026-05-01T08:35:11Z</time></trkpt><trkpt lat="42.990339702659405" lon="11.766822451731143"><ele>352.0</ele><time>2026-05-01T08:35:12Z</time></trkpt><trkpt lat="42.99028074403527" lon="11.766937058850722"><ele>352.0</ele><time>2026-05-01T08:35:13Z</time></trkpt><trkpt lat="42.99021382876236" lon="11.76704171405736"><ele>352.0</ele><time>2026-05-01T08:35:14Z</time></trkpt><trkpt lat="42.99012737708102" lon="11.76712378384675"><ele>352.0</ele><time>2026-05-01T08:35:15Z</time></trkpt><trkpt lat="42.99001444215517" lon="11.76718136543279"><ele>352.0</ele><time>2026-05-01T08:35:16Z</time></trkpt><trkpt lat="42.98986664427716" lon="11.767263214069827"><ele>349.75</ele><time>2026-05-01T08:35:17Z</time></trkpt><trkpt lat="42.989721416599195" lon="11.767367162098653"><ele>347.5</ele><time>2026-05-01T08:35:17.999Z</time></trkpt><trkpt lat="42.98958503222347" lon="11.767414315921181"><ele>345.25</ele><time>2026-05-01T08:35:18.999Z</time></trkpt><trkpt lat="42.98946574994336" lon="11.767473793722102"><ele>343.0</ele><time>2026-05-01T08:35:19.999Z</time></trkpt><trkpt lat="42.98934913843386" lon="11.767532385032286"><ele>343.0</ele><time>2026-05-01T08:35:20.999Z</time></trkpt><trkpt lat="42.98924439928357" lon="11.767613833847104"><ele>343.0</ele><time>2026-05-01T08:35:21.999Z</time></trkpt><trkpt lat="42.9891391403666" lon="11.76768345500958"><ele>343.0</ele><time>2026-05-01T08:35:22.999Z</time></trkpt><trkpt lat="42.989049546388586" lon="11.767782199602943"><ele>343.0</ele><time>2026-05-01T08:35:23.999Z</time></trkpt><trkpt lat="42.98897085093101" lon="11.767916050706582"><ele>345.25</ele><time>2026-05-01T08:35:24.999Z</time></trkpt><trkpt lat="42.98890729333939" lon="11.768081575734898"><ele>347.5</ele><time>2026-05-01T08:35:25.999Z</time></trkpt><trkpt lat="42.988833329168926" lon="11.768234186503138"><ele>349.75</ele><time>2026-05-01T08:35:26.999Z</time></trkpt><trkpt lat="42.988782073995154" lon="11.768369114904331"><ele>352.0</ele><time>2026-05-01T08:35:27.999Z</time></trkpt><trkpt lat="42.98873965457551" lon="11.768491832071849"><ele>352.3333333333333</ele><time>2026-05-01T08:35:28.999Z</time></trkpt><trkpt lat="42.988710753783515" lon="11.768601554454854"><ele>352.66666666666663</ele><time>2026-05-01T08:35:29.999Z</time></trkpt><trkpt lat="42.988691239013875" lon="11.768692530176496"><ele>353.0</ele><time>2026-05-01T08:35:30.999Z</time></trkpt><trkpt lat="42.98868684783486" lon="11.768783742984079"><ele>353.3333333333333</ele><time>2026-05-01T08:35:31.999Z</time></trkpt><trkpt lat="42.98868233410059" lon="11.768889281426986"><ele>353.6666666666667</ele><time>2026-05-01T08:35:32.999Z</time></trkpt><trkpt lat="42.98873105416186" lon="11.769000985580258"><ele>354.0</ele><time>2026-05-01T08:35:33.999Z</time></trkpt><trkpt lat="42.988777394201826" lon="11.7691297037011"><ele>354.0</ele><time>2026-05-01T08:35:34.999Z</time></trkpt><trkpt lat="42.98883783240866" lon="11.769269495131814"><ele>354.0</ele><time>2026-05-01T08:35:35.999Z</time></trkpt><trkpt lat="42.988893987961625" lon="11.769424111827835"><ele>354.0</ele><time>2026-05-01T08:35:36.999Z</time></trkpt><trkpt lat="42.98895058556788" lon="11.769588151197427"><ele>354.0</ele><time>2026-05-01T08:35:37.999Z</time></trkpt><trkpt lat="42.988985085722625" lon="11.769758088274997"><ele>354.5</ele><time>2026-05-01T08:35:38.999Z</time></trkpt><trkpt lat="42.98900568738266" lon="11.769922283898145"><ele>355.0</ele><time>2026-05-01T08:35:39.999Z</time></trkpt><trkpt lat="42.98904491734004" lon="11.770088200020622"><ele>355.5</ele><time>2026-05-01T08:35:40.999Z</time></trkpt><trkpt lat="42.98906998357852" lon="11.770246041751484"><ele>356.0</ele><time>2026-05-01T08:35:41.999Z</time></trkpt><trkpt lat="42.9891229935753" lon="11.770404816696255"><ele>356.6</ele><time>2026-05-01T08:35:42.999Z</time></trkpt><trkpt lat="42.98919572451094" lon="11.7705500057342"><ele>357.20000000000005</ele><time>2026-05-01T08:35:43.999Z</time></trkpt><trkpt lat="42.98926080850921" lon="11.770675202942076"><ele>357.79999999999995</ele><time>2026-05-01T08:35:44.999Z</time></trkpt><trkpt lat="42.98928986454345" lon="11.770808130570895"><ele>358.4</ele><time>2026-05-01T08:35:45.999Z</time></trkpt><trkpt lat="42.98931808369667" lon="11.77094025300049"><ele>359.0</ele><time>2026-05-01T08:35:46.999Z</time></trkpt><trkpt lat="42.98931928703162" lon="11.771103114361587"><ele>359.0</ele><time>2026-05-01T08:35:47.999Z</time></trkpt><trkpt lat="42.98932345942866" lon="11.771281466582387"><ele>359.0</ele><time>2026-05-01T08:35:48.999Z</time></trkpt><trkpt lat="42.989322756654985" lon="11.7714432203243"><ele>359.0</ele><time>2026-05-01T08:35:49.999Z</time></trkpt><trkpt lat="42.989316112189904" lon="11.771595102261932"><ele>359.0</ele><time>2026-05-01T08:35:50.999Z</time></trkpt><trkpt lat="42.98930704935253" lon="11.7717340639615"><ele>360.4</ele><time>2026-05-01T08:35:51.999Z</time></trkpt><trkpt lat="42.9892834305152" lon="11.771861753322119"><ele>361.79999999999995</ele><time>2026-05-01T08:35:52.999Z</time></trkpt><trkpt lat="42.989239224531495" lon="11.771975715065201"><ele>363.20000000000005</ele><time>2026-05-01T08:35:53.999Z</time></trkpt><trkpt lat="42.98917651793677" lon="11.772069205924028"><ele>364.6</ele><time>2026-05-01T08:35:54.999Z</time></trkpt><trkpt lat="42.98908489642223" lon="11.772137779772157"><ele>366.0</ele><time>2026-05-01T08:35:55.999Z</time></trkpt><trkpt lat="42.98897223992688" lon="11.772198643328634"><ele>366.0</ele><time>2026-05-01T08:35:56.999Z</time></trkpt><trkpt lat="42.98882799526155" lon="11.772242673118617"><ele>366.0</ele><time>2026-05-01T08:35:57.999Z</time></trkpt><trkpt lat="42.98867346447424" lon="11.772272127959303"><ele>366.0</ele><time>2026-05-01T08:35:58.999Z</time></trkpt><trkpt lat="42.988532322520186" lon="11.772292800392547"><ele>366.0</ele><time>2026-05-01T08:35:59.999Z</time></trkpt><trkpt lat="42.98840856312943" lon="11.772306487327082"><ele>365.20000000000005</ele><time>2026-05-01T08:36:00.999Z</time></trkpt><trkpt lat="42.98829529527656" lon="11.772305065881627"><ele>364.40000000000003</ele><time>2026-05-01T08:36:01.999Z</time></trkpt><trkpt lat="42.988193521420506" lon="11.772309843936542"><ele>363.6</ele><time>2026-05-01T08:36:02.999Z</time></trkpt><trkpt lat="42.98810778106259" lon="11.77227643637304"><ele>362.8</ele><time>2026-05-01T08:36:03.999Z</time></trkpt><trkpt lat="42.98804349107716" lon="11.772280810774673"><ele>362.0</ele><time>2026-05-01T08:36:04.999Z</time></trkpt><trkpt lat="42.98795858159" lon="11.772372838363756"><ele>362.0</ele><time>2026-05-01T08:36:06.999Z</time></trkpt><trkpt lat="42.9879677709629" lon="11.772488271277442"><ele>362.0</ele><time>2026-05-01T08:36:07.999Z</time></trkpt><trkpt lat="42.98796087390661" lon="11.772611319668776"><ele>362.0</ele><time>2026-05-01T08:36:08.999Z</time></trkpt><trkpt lat="42.98796091958232" lon="11.77275191564975"><ele>362.0</ele><time>2026-05-01T08:36:09.999Z</time></trkpt><trkpt lat="42.9879616387673" lon="11.772906562946918"><ele>362.0</ele><time>2026-05-01T08:36:10.999Z</time></trkpt><trkpt lat="42.98798637747612" lon="11.773062227789854"><ele>363.40000000000003</ele><time>2026-05-01T08:36:11.999Z</time></trkpt><trkpt lat="42.98798530044494" lon="11.773195162878732"><ele>364.8</ele><time>2026-05-01T08:36:12.999Z</time></trkpt><trkpt lat="42.98803225134314" lon="11.773320419754494"><ele>366.2</ele><time>2026-05-01T08:36:13.999Z</time></trkpt><trkpt lat="42.9880537395489" lon="11.773456220413474"><ele>367.6</ele><time>2026-05-01T08:36:14.999Z</time></trkpt><trkpt lat="42.98809144815722" lon="11.773579362658396"><ele>369.0</ele><time>2026-05-01T08:36:15.999Z</time></trkpt><trkpt lat="42.9881321458627" lon="11.773696114783819"><ele>370.4</ele><time>2026-05-01T08:36:16.999Z</time></trkpt><trkpt lat="42.98818718119795" lon="11.773802743505025"><ele>371.79999999999995</ele><time>2026-05-01T08:36:17.999Z</time></trkpt><trkpt lat="42.98823484862884" lon="11.773918506991413"><ele>373.20000000000005</ele><time>2026-05-01T08:36:18.998Z</time></trkpt><trkpt lat="42.98828951561283" lon="11.774028133971353"><ele>374.6</ele><time>2026-05-01T08:36:19.998Z</time></trkpt><trkpt lat="42.98834354152406" lon="11.774138139863107"><ele>376.0</ele><time>2026-05-01T08:36:20.998Z</time></trkpt><trkpt lat="42.98839877844173" lon="11.774237050064889"><ele>378.0</ele><time>2026-05-01T08:36:21.998Z</time></trkpt><trkpt lat="42.98846025444691" lon="11.774304774888549"><ele>380.0</ele><time>2026-05-01T08:36:22.998Z</time></trkpt><trkpt lat="42.98853169933788" lon="11.77434162973575"><ele>382.0</ele><time>2026-05-01T08:36:23.998Z</time></trkpt><trkpt lat="42.98860642468966" lon="11.774344713746455"><ele>384.0</ele><time>2026-05-01T08:36:24.998Z</time></trkpt><trkpt lat="42.988689362409936" lon="11.774337582265833"><ele>386.00000000000006</ele><time>2026-05-01T08:36:25.998Z</time></trkpt><trkpt lat="42.98878130642013" lon="11.77437071469435"><ele>388.0</ele><time>2026-05-01T08:36:26.998Z</time></trkpt><trkpt lat="42.98888208524859" lon="11.774391258570928"><ele>388.33333333333337</ele><time>2026-05-01T08:36:27.998Z</time></trkpt><trkpt lat="42.98896098418758" lon="11.774391117460528"><ele>388.6666666666667</ele><time>2026-05-01T08:36:28.998Z</time></trkpt><trkpt lat="42.989024187139556" lon="11.774413087877532"><ele>389.0</ele><time>2026-05-01T08:36:29.998Z</time></trkpt><trkpt lat="42.98908829470195" lon="11.774454079107011"><ele>389.33333333333337</ele><time>2026-05-01T08:36:30.998Z</time></trkpt><trkpt lat="42.98915034351928" lon="11.774523893741897"><ele>389.6666666666667</ele><time>2026-05-01T08:36:31.998Z</time></trkpt><trkpt lat="42.989181749110564" lon="11.774643817960342"><ele>390.0</ele><time>2026-05-01T08:36:32.998Z</time></trkpt><trkpt lat="42.98921331355501" lon="11.774784796798045"><ele>392.25</ele><time>2026-05-01T08:36:33.998Z</time></trkpt><trkpt lat="42.98927851801472" lon="11.774928356116794"><ele>394.5</ele><time>2026-05-01T08:36:34.998Z</time></trkpt><trkpt lat="42.98932891894715" lon="11.775063869014069"><ele>396.75</ele><time>2026-05-01T08:36:35.998Z</time></trkpt><trkpt lat="42.98939382192105" lon="11.775178479440193"><ele>399.0</ele><time>2026-05-01T08:36:36.998Z</time></trkpt><trkpt lat="42.98947678623874" lon="11.775281657384474"><ele>399.0</ele><time>2026-05-01T08:36:37.998Z</time></trkpt><trkpt lat="42.989550837847794" lon="11.77538280160565"><ele>399.0</ele><time>2026-05-01T08:36:38.998Z</time></trkpt><trkpt lat="42.989586554578715" lon="11.775514541002796"><ele>399.0</ele><time>2026-05-01T08:36:40Z</time></trkpt><trkpt lat="42.98964777070061" lon="11.775605880238546"><ele>399.0</ele><time>2026-05-01T08:36:41Z</time></trkpt><trkpt lat="42.989685388552125" lon="11.77570558911604"><ele>399.0</ele><time>2026-05-01T08:36:42Z</time></trkpt><trkpt lat="42.98974781460278" lon="11.775781998407973"><ele>399.0</ele><time>2026-05-01T08:36:43Z</time></trkpt><trkpt lat="42.98982871932639" lon="11.775859963952612"><ele>399.0</ele><time>2026-05-01T08:36:44Z</time></trkpt><trkpt lat="42.98991114293899" lon="11.775920136532953"><ele>399.0</ele><time>2026-05-01T08:36:45Z</time></trkpt><trkpt lat="42.99000721214764" lon="11.775985034022147"><ele>399.0</ele><time>2026-05-01T08:36:46Z</time></trkpt><trkpt lat="42.99011025368972" lon="11.776025419465935"><ele>399.0</ele><time>2026-05-01T08:36:47Z</time></trkpt><trkpt lat="42.99020518773883" lon="11.77603299198214"><ele>398.6</ele><time>2026-05-01T08:36:48Z</time></trkpt><trkpt lat="42.99028711858711" lon="11.776046197810217"><ele>398.2</ele><time>2026-05-01T08:36:49Z</time></trkpt><trkpt lat="42.990334294578595" lon="11.776138366334685"><ele>397.8</ele><time>2026-05-01T08:36:50Z</time></trkpt><trkpt lat="42.990357853707636" lon="11.776264017923584"><ele>397.40000000000003</ele><time>2026-05-01T08:36:51Z</time></trkpt><trkpt lat="42.99040309652885" lon="11.776426537024332"><ele>397.0</ele><time>2026-05-01T08:36:52Z</time></trkpt><trkpt lat="42.99045288608586" lon="11.776596001777135"><ele>397.0</ele><time>2026-05-01T08:36:53Z</time></trkpt><trkpt lat="42.99052088764299" lon="11.776761186219348"><ele>397.0</ele><time>2026-05-01T08:36:54Z</time></trkpt><trkpt lat="42.990574661678366" lon="11.776932575504132"><ele>397.0</ele><time>2026-05-01T08:36:55Z</time></trkpt><trkpt lat="42.990623085217656" lon="11.777118056062191"><ele>397.0</ele><time>2026-05-01T08:36:56Z</time></trkpt><trkpt lat="42.990679983461746" lon="11.777292626041394"><ele>397.5</ele><time>2026-05-01T08:36:57Z</time></trkpt><trkpt lat="42.99073369084555" lon="11.777480317592211"><ele>398.0</ele><time>2026-05-01T08:36:58Z</time></trkpt><trkpt lat="42.990785311043396" lon="11.777669320475962"><ele>398.5</ele><time>2026-05-01T08:36:59Z</time></trkpt><trkpt lat="42.9908315693562" lon="11.777868246445607"><ele>399.0</ele><time>2026-05-01T08:37:00Z</time></trkpt><trkpt lat="42.99086709038399" lon="11.778062877635675"><ele>399.0</ele><time>2026-05-01T08:37:01Z</time></trkpt><trkpt lat="42.99089858888288" lon="11.778256647754633"><ele>399.0</ele><time>2026-05-01T08:37:02Z</time></trkpt><trkpt lat="42.99090346236243" lon="11.778461795992946"><ele>399.0</ele><time>2026-05-01T08:37:03Z</time></trkpt><trkpt lat="42.990909595933175" lon="11.778649372803615"><ele>399.0</ele><time>2026-05-01T08:37:04Z</time></trkpt><trkpt lat="42.99090833230931" lon="11.778846765327085"><ele>402.0</ele><time>2026-05-01T08:37:05Z</time></trkpt><trkpt lat="42.99090392833422" lon="11.7790486018728"><ele>405.0</ele><time>2026-05-01T08:37:06Z</time></trkpt><trkpt lat="42.99089929318291" lon="11.779250465435496"><ele>408.0</ele><time>2026-05-01T08:37:07Z</time></trkpt><trkpt lat="42.99089774831752" lon="11.779437569280116"><ele>411.0</ele><time>2026-05-01T08:37:08Z</time></trkpt><trkpt lat="42.99090127836347" lon="11.779615065424586"><ele>413.25</ele><time>2026-05-01T08:37:09Z</time></trkpt><trkpt lat="42.990907217234025" lon="11.779787829360888"><ele>415.5</ele><time>2026-05-01T08:37:10Z</time></trkpt><trkpt lat="42.99092604646386" lon="11.779935074036226"><ele>417.75</ele><time>2026-05-01T08:37:11Z</time></trkpt><trkpt lat="42.990927493276224" lon="11.780081127365287"><ele>420.0</ele><time>2026-05-01T08:37:12Z</time></trkpt><trkpt lat="42.990938365762716" lon="11.780239129539025"><ele>423.0</ele><time>2026-05-01T08:37:13Z</time></trkpt><trkpt lat="42.990959509587995" lon="11.780411650435235"><ele>426.0</ele><time>2026-05-01T08:37:14Z</time></trkpt><trkpt lat="42.99098065159689" lon="11.780589782231997"><ele>429.0</ele><time>2026-05-01T08:37:15Z</time></trkpt><trkpt lat="42.99100185648214" lon="11.78076340851926"><ele>432.0</ele><time>2026-05-01T08:37:16Z</time></trkpt><trkpt lat="42.99103958597383" lon="11.780894186406073"><ele>432.0</ele><time>2026-05-01T08:37:17Z</time></trkpt><trkpt lat="42.99106077916265" lon="11.781001467494361"><ele>432.0</ele><time>2026-05-01T08:37:18Z</time></trkpt><trkpt lat="42.99107667184289" lon="11.781089209438504"><ele>432.0</ele><time>2026-05-01T08:37:19Z</time></trkpt><trkpt lat="42.99117260898557" lon="11.781195473619315"><ele>432.0</ele><time>2026-05-01T08:37:21Z</time></trkpt><trkpt lat="42.991244221439814" lon="11.78121624016114"><ele>432.0</ele><time>2026-05-01T08:37:22Z</time></trkpt><trkpt lat="42.991326833601185" lon="11.781216959606702"><ele>432.0</ele><time>2026-05-01T08:37:23Z</time></trkpt><trkpt lat="42.99141404814727" lon="11.781219947812533"><ele>433.8</ele><time>2026-05-01T08:37:24Z</time></trkpt><trkpt lat="42.99148556830758" lon="11.78126749488568"><ele>435.6</ele><time>2026-05-01T08:37:24.999Z</time></trkpt><trkpt lat="42.99153206395831" lon="11.781355918321813"><ele>437.40000000000003</ele><time>2026-05-01T08:37:25.999Z</time></trkpt><trkpt lat="42.99152808030899" lon="11.781484986934977"><ele>439.20000000000005</ele><time>2026-05-01T08:37:26.999Z</time></trkpt><trkpt lat="42.99155173711997" lon="11.781627330630467"><ele>441.0</ele><time>2026-05-01T08:37:27.999Z</time></trkpt><trkpt lat="42.99159649748486" lon="11.781766398510308"><ele>441.20000000000005</ele><time>2026-05-01T08:37:28.999Z</time></trkpt><trkpt lat="42.99163358860877" lon="11.781900343534913"><ele>441.40000000000003</ele><time>2026-05-01T08:37:29.999Z</time></trkpt><trkpt lat="42.99168565782456" lon="11.782005536508702"><ele>441.6</ele><time>2026-05-01T08:37:30.999Z</time></trkpt><trkpt lat="42.99175796928064" lon="11.782107535541302"><ele>441.8</ele><time>2026-05-01T08:37:31.999Z</time></trkpt><trkpt lat="42.99183031426073" lon="11.782203467638665"><ele>442.0</ele><time>2026-05-01T08:37:32.999Z</time></trkpt><trkpt lat="42.99189505770943" lon="11.78228988624438"><ele>443.28571428571433</ele><time>2026-05-01T08:37:33.999Z</time></trkpt><trkpt lat="42.99195310404126" lon="11.782367622704951"><ele>444.57142857142856</ele><time>2026-05-01T08:37:34.999Z</time></trkpt><trkpt lat="42.99199210922352" lon="11.782455426424912"><ele>445.8571428571429</ele><time>2026-05-01T08:37:35.999Z</time></trkpt><trkpt lat="42.992037466502815" lon="11.782527874505615"><ele>447.14285714285717</ele><time>2026-05-01T08:37:36.999Z</time></trkpt><trkpt lat="42.99207413940246" lon="11.782601791116157"><ele>448.42857142857144</ele><time>2026-05-01T08:37:37.999Z</time></trkpt><trkpt lat="42.99210876338089" lon="11.782674342361846"><ele>449.7142857142857</ele><time>2026-05-01T08:37:38.999Z</time></trkpt><trkpt lat="42.992156470429855" lon="11.782773356619192"><ele>451.0</ele><time>2026-05-01T08:37:40.999Z</time></trkpt><trkpt lat="42.99220668355968" lon="11.782853490996194"><ele>452.0</ele><time>2026-05-01T08:37:42.999Z</time></trkpt><trkpt lat="42.99223666949995" lon="11.7829901891886"><ele>453.0</ele><time>2026-05-01T08:37:44.999Z</time></trkpt><trkpt lat="42.99228259482676" lon="11.783090827456594"><ele>454.0</ele><time>2026-05-01T08:37:45.999Z</time></trkpt><trkpt lat="42.992345326162045" lon="11.783191076212898"><ele>455.0</ele><time>2026-05-01T08:37:46.999Z</time></trkpt><trkpt lat="42.99241474601448" lon="11.783297373764963"><ele>456.0</ele><time>2026-05-01T08:37:47.999Z</time></trkpt><trkpt lat="42.99248491410139" lon="11.783412791987384"><ele>457.0</ele><time>2026-05-01T08:37:48.999Z</time></trkpt><trkpt lat="42.99255214119643" lon="11.783529397344422"><ele>458.0</ele><time>2026-05-01T08:37:49.999Z</time></trkpt><trkpt lat="42.99262661950601" lon="11.783660823856362"><ele>459.0</ele><time>2026-05-01T08:37:50.999Z</time></trkpt><trkpt lat="42.99270834035829" lon="11.783794729330584"><ele>460.0</ele><time>2026-05-01T08:37:51.999Z</time></trkpt><trkpt lat="42.992789988757195" lon="11.783932178782337"><ele>460.0</ele><time>2026-05-01T08:37:52.999Z</time></trkpt><trkpt lat="42.99287637237499" lon="11.784067425945272"><ele>460.0</ele><time>2026-05-01T08:37:53.999Z</time></trkpt><trkpt lat="42.992959763324016" lon="11.78420103104389"><ele>460.0</ele><time>2026-05-01T08:37:54.999Z</time></trkpt><trkpt lat="42.99304599866424" lon="11.78433199319724"><ele>460.0</ele><time>2026-05-01T08:37:55.999Z</time></trkpt><trkpt lat="42.993133119582396" lon="11.78446539794016"><ele>461.5</ele><time>2026-05-01T08:37:56.999Z</time></trkpt><trkpt lat="42.99322286781912" lon="11.784591402545141"><ele>463.0</ele><time>2026-05-01T08:37:57.999Z</time></trkpt><trkpt lat="42.99331710809422" lon="11.784707520230473"><ele>464.5</ele><time>2026-05-01T08:37:58.999Z</time></trkpt><trkpt lat="42.993411542635705" lon="11.784823044122726"><ele>466.0</ele><time>2026-05-01T08:37:59.999Z</time></trkpt><trkpt lat="42.99349845563254" lon="11.784927916068236"><ele>467.0</ele><time>2026-05-01T08:38:00.999Z</time></trkpt><trkpt lat="42.99355517138029" lon="11.785030913103666"><ele>468.0</ele><time>2026-05-01T08:38:01.999Z</time></trkpt><trkpt lat="42.99361081416056" lon="11.785114974231588"><ele>469.0</ele><time>2026-05-01T08:38:02.999Z</time></trkpt><trkpt lat="42.99366789268432" lon="11.78521194884843"><ele>470.0</ele><time>2026-05-01T08:38:03.999Z</time></trkpt><trkpt lat="42.99372862438626" lon="11.78532777088046"><ele>471.0</ele><time>2026-05-01T08:38:04.999Z</time></trkpt><trkpt lat="42.9937898693799" lon="11.785447087357383"><ele>471.6</ele><time>2026-05-01T08:38:05.999Z</time></trkpt><trkpt lat="42.99383044409138" lon="11.78556709653134"><ele>472.20000000000005</ele><time>2026-05-01T08:38:06.999Z</time></trkpt><trkpt lat="42.993889245563565" lon="11.785690963163134"><ele>472.79999999999995</ele><time>2026-05-01T08:38:07.999Z</time></trkpt><trkpt lat="42.99395857175762" lon="11.785813295480922"><ele>473.4</ele><time>2026-05-01T08:38:08.999Z</time></trkpt><trkpt lat="42.994019028213955" lon="11.785958172208076"><ele>474.0</ele><time>2026-05-01T08:38:09.999Z</time></trkpt><trkpt lat="42.994111382426006" lon="11.786088167610984"><ele>476.0</ele><time>2026-05-01T08:38:10.999Z</time></trkpt><trkpt lat="42.99419353296729" lon="11.786230308376913"><ele>478.0</ele><time>2026-05-01T08:38:11.999Z</time></trkpt><trkpt lat="42.994289909269796" lon="11.78635818415854"><ele>480.0</ele><time>2026-05-01T08:38:12.999Z</time></trkpt><trkpt lat="42.994384423296566" lon="11.786472634532535"><ele>482.0</ele><time>2026-05-01T08:38:13.999Z</time></trkpt><trkpt lat="42.99446001783559" lon="11.786574067340643"><ele>482.0</ele><time>2026-05-01T08:38:14.999Z</time></trkpt><trkpt lat="42.99453460661091" lon="11.786664596188546"><ele>482.0</ele><time>2026-05-01T08:38:15.999Z</time></trkpt><trkpt lat="42.99463864167915" lon="11.786762547669653"><ele>482.0</ele><time>2026-05-01T08:38:16.999Z</time></trkpt><trkpt lat="42.99473742831908" lon="11.786847281213817"><ele>482.0</ele><time>2026-05-01T08:38:17.999Z</time></trkpt><trkpt lat="42.99483894808254" lon="11.786902280112756"><ele>480.75</ele><time>2026-05-01T08:38:18.999Z</time></trkpt><trkpt lat="42.994961307091444" lon="11.786947471455646"><ele>479.5</ele><time>2026-05-01T08:38:19.999Z</time></trkpt><trkpt lat="42.99509638890375" lon="11.786974583960166"><ele>478.25</ele><time>2026-05-01T08:38:20.999Z</time></trkpt><trkpt lat="42.99522027799504" lon="11.7869930400604"><ele>477.0</ele><time>2026-05-01T08:38:21.999Z</time></trkpt><trkpt lat="42.99531095510153" lon="11.787012482948613"><ele>477.0</ele><time>2026-05-01T08:38:22.999Z</time></trkpt><trkpt lat="42.995376363941716" lon="11.78705378725512"><ele>477.00000000000006</ele><time>2026-05-01T08:38:23.999Z</time></trkpt><trkpt lat="42.99544007679727" lon="11.787121285691043"><ele>477.00000000000006</ele><time>2026-05-01T08:38:24.998Z</time></trkpt><trkpt lat="42.995514485372475" lon="11.787222639539008"><ele>477.0</ele><time>2026-05-01T08:38:25.998Z</time></trkpt><trkpt lat="42.995587188673255" lon="11.787356783671457"><ele>477.0</ele><time>2026-05-01T08:38:26.998Z</time></trkpt><trkpt lat="42.99565806166277" lon="11.787502948639563"><ele>477.0</ele><time>2026-05-01T08:38:27.998Z</time></trkpt><trkpt lat="42.99573698963817" lon="11.787642492043595"><ele>477.0</ele><time>2026-05-01T08:38:28.998Z</time></trkpt><trkpt lat="42.995836236983784" lon="11.787780878640806"><ele>477.0</ele><time>2026-05-01T08:38:29.998Z</time></trkpt><trkpt lat="42.99594701970193" lon="11.787905368759253"><ele>477.0</ele><time>2026-05-01T08:38:30.998Z</time></trkpt><trkpt lat="42.996055285933" lon="11.788014395799825"><ele>474.75</ele><time>2026-05-01T08:38:31.998Z</time></trkpt><trkpt lat="42.996156648037505" lon="11.78810239873183"><ele>472.5</ele><time>2026-05-01T08:38:32.998Z</time></trkpt><trkpt lat="42.99626191618437" lon="11.788172734651244"><ele>470.25</ele><time>2026-05-01T08:38:33.998Z</time></trkpt><trkpt lat="42.99636600944229" lon="11.78823820489877"><ele>468.0</ele><time>2026-05-01T08:38:34.998Z</time></trkpt><trkpt lat="42.99646556259073" lon="11.788306658551964"><ele>468.0</ele><time>2026-05-01T08:38:35.998Z</time></trkpt><trkpt lat="42.996548553746045" lon="11.78841915890956"><ele>468.0</ele><time>2026-05-01T08:38:36.998Z</time></trkpt><trkpt lat="42.99664767710952" lon="11.788560280545802"><ele>468.0</ele><time>2026-05-01T08:38:37.998Z</time></trkpt><trkpt lat="42.9967589192295" lon="11.788732334271748"><ele>468.0</ele><time>2026-05-01T08:38:38.998Z</time></trkpt><trkpt lat="42.996886978118376" lon="11.788917887835758"><ele>468.33333333333337</ele><time>2026-05-01T08:38:39.998Z</time></trkpt><trkpt lat="42.99700458991053" lon="11.789114402712652"><ele>468.6666666666667</ele><time>2026-05-01T08:38:40.998Z</time></trkpt><trkpt lat="42.997125399073546" lon="11.789304587949806"><ele>469.0</ele><time>2026-05-01T08:38:41.998Z</time></trkpt><trkpt lat="42.99723906899727" lon="11.789468806911271"><ele>469.5</ele><time>2026-05-01T08:38:42.998Z</time></trkpt><trkpt lat="42.997345070788064" lon="11.789611205553438"><ele>470.0</ele><time>2026-05-01T08:38:43.998Z</time></trkpt><trkpt lat="42.99743059169768" lon="11.789768448247477"><ele>470.5</ele><time>2026-05-01T08:38:44.998Z</time></trkpt><trkpt lat="42.99753120600129" lon="11.789902147002701"><ele>471.0</ele><time>2026-05-01T08:38:46Z</time></trkpt><trkpt lat="42.99759567870218" lon="11.790053896058827"><ele>472.4</ele><time>2026-05-01T08:38:47Z</time></trkpt><trkpt lat="42.99765040629671" lon="11.790193859706214"><ele>473.8</ele><time>2026-05-01T08:38:48Z</time></trkpt><trkpt lat="42.99770611127787" lon="11.790307893803869"><ele>475.19999999999993</ele><time>2026-05-01T08:38:49Z</time></trkpt><trkpt lat="42.99777167475813" lon="11.790401562143233"><ele>476.59999999999997</ele><time>2026-05-01T08:38:50Z</time></trkpt><trkpt lat="42.99785451283046" lon="11.790484147882054"><ele>478.0</ele><time>2026-05-01T08:38:51Z</time></trkpt><trkpt lat="42.99795783793551" lon="11.790566291370215"><ele>478.0</ele><time>2026-05-01T08:38:52Z</time></trkpt><trkpt lat="42.99807346951478" lon="11.790667447782598"><ele>478.0</ele><time>2026-05-01T08:38:53Z</time></trkpt><trkpt lat="42.99820007129484" lon="11.79078356698359"><ele>478.0</ele><time>2026-05-01T08:38:54Z</time></trkpt><trkpt lat="42.998313035375745" lon="11.790893368570535"><ele>478.0</ele><time>2026-05-01T08:38:55Z</time></trkpt><trkpt lat="42.99840985805222" lon="11.790989386236218"><ele>477.0</ele><time>2026-05-01T08:38:56Z</time></trkpt><trkpt lat="42.998489865946055" lon="11.791073138025407"><ele>475.99999999999994</ele><time>2026-05-01T08:38:57Z</time></trkpt><trkpt lat="42.99855957234628" lon="11.791167235549505"><ele>474.99999999999994</ele><time>2026-05-01T08:38:58Z</time></trkpt><trkpt lat="42.99861387499763" lon="11.791283051462402"><ele>474.0</ele><time>2026-05-01T08:38:59Z</time></trkpt><trkpt lat="42.9986418575128" lon="11.7914217145046"><ele>473.0</ele><time>2026-05-01T08:39:00Z</time></trkpt><trkpt lat="42.99863687613146" lon="11.791577794519235"><ele>473.0</ele><time>2026-05-01T08:39:01Z</time></trkpt><trkpt lat="42.998613309069455" lon="11.791749213311657"><ele>473.0</ele><time>2026-05-01T08:39:02Z</time></trkpt><trkpt lat="42.99857795771699" lon="11.791938777116417"><ele>473.0</ele><time>2026-05-01T08:39:03Z</time></trkpt><trkpt lat="42.99854157372334" lon="11.792115087046577"><ele>473.0</ele><time>2026-05-01T08:39:04Z</time></trkpt><trkpt lat="42.99852293621007" lon="11.792263466622462"><ele>474.79999999999995</ele><time>2026-05-01T08:39:05Z</time></trkpt><trkpt lat="42.99852942388975" lon="11.79239917491458"><ele>476.59999999999997</ele><time>2026-05-01T08:39:06Z</time></trkpt><trkpt lat="42.99853302866577" lon="11.792526638143345"><ele>478.40000000000003</ele><time>2026-05-01T08:39:07Z</time></trkpt><trkpt lat="42.99858958286198" lon="11.792646045079549"><ele>480.20000000000005</ele><time>2026-05-01T08:39:08Z</time></trkpt><trkpt lat="42.99865025533142" lon="11.79276098083633"><ele>482.0</ele><time>2026-05-01T08:39:09Z</time></trkpt><trkpt lat="42.998730286208165" lon="11.792849294595934"><ele>483.75</ele><time>2026-05-01T08:39:10Z</time></trkpt><trkpt lat="42.99882899688446" lon="11.792934855578705"><ele>485.5</ele><time>2026-05-01T08:39:11Z</time></trkpt><trkpt lat="42.99895149675376" lon="11.793042464401408"><ele>487.25</ele><time>2026-05-01T08:39:12Z</time></trkpt><trkpt lat="42.99907222110128" lon="11.7931592660616"><ele>489.0</ele><time>2026-05-01T08:39:13Z</time></trkpt><trkpt lat="42.99917969395071" lon="11.793270681491299"><ele>489.5</ele><time>2026-05-01T08:39:14Z</time></trkpt><trkpt lat="42.99927345911164" lon="11.79339141839367"><ele>490.0</ele><time>2026-05-01T08:39:15Z</time></trkpt><trkpt lat="42.999340166518785" lon="11.793544195401793"><ele>490.5</ele><time>2026-05-01T08:39:16Z</time></trkpt><trkpt lat="42.99940336233848" lon="11.793743462003148"><ele>491.0</ele><time>2026-05-01T08:39:17Z</time></trkpt><trkpt lat="42.99946852927481" lon="11.793947283864771"><ele>493.66666666666663</ele><time>2026-05-01T08:39:18Z</time></trkpt><trkpt lat="42.999533709266764" lon="11.794149746881438"><ele>496.33333333333337</ele><time>2026-05-01T08:39:19Z</time></trkpt><trkpt lat="42.99960268309324" lon="11.79435320516544"><ele>499.0</ele><time>2026-05-01T08:39:20Z</time></trkpt><trkpt lat="42.99967261191574" lon="11.79454413943675"><ele>501.75</ele><time>2026-05-01T08:39:21Z</time></trkpt><trkpt lat="42.99973910323332" lon="11.794730225367214"><ele>504.5</ele><time>2026-05-01T08:39:22Z</time></trkpt><trkpt lat="42.999797059486085" lon="11.794902029756823"><ele>507.25</ele><time>2026-05-01T08:39:23Z</time></trkpt><trkpt lat="42.999850990768465" lon="11.795057521220304"><ele>510.0</ele><time>2026-05-01T08:39:24Z</time></trkpt><trkpt lat="42.999902885714526" lon="11.795190126830752"><ele>511.8</ele><time>2026-05-01T08:39:25Z</time></trkpt><trkpt lat="42.999944171237225" lon="11.795288632567893"><ele>513.6</ele><time>2026-05-01T08:39:26Z</time></trkpt><trkpt lat="42.99996846966982" lon="11.795406728832825"><ele>515.4</ele><time>2026-05-01T08:39:28Z</time></trkpt><trkpt lat="42.999913725780395" lon="11.795575041011883"><ele>517.2</ele><time>2026-05-01T08:39:29.999Z</time></trkpt><trkpt lat="42.99989660674302" lon="11.795706888614328"><ele>519.0</ele><time>2026-05-01T08:39:30.999Z</time></trkpt><trkpt lat="42.99989454694592" lon="11.795853772936502"><ele>522.25</ele><time>2026-05-01T08:39:31.999Z</time></trkpt><trkpt lat="42.99986263269701" lon="11.796022095680597"><ele>525.5</ele><time>2026-05-01T08:39:32.999Z</time></trkpt><trkpt lat="42.99980450884448" lon="11.796174860655402"><ele>528.75</ele><time>2026-05-01T08:39:33.999Z</time></trkpt><trkpt lat="42.99968904202765" lon="11.796289839783833"><ele>532.0</ele><time>2026-05-01T08:39:34.999Z</time></trkpt><trkpt lat="42.99962195858864" lon="11.796455519312342"><ele>532.0</ele><time>2026-05-01T08:39:35.999Z</time></trkpt><trkpt lat="42.999554289099926" lon="11.796612524682791"><ele>532.0</ele><time>2026-05-01T08:39:36.999Z</time></trkpt><trkpt lat="42.999499879420114" lon="11.796819672150372"><ele>532.0</ele><time>2026-05-01T08:39:37.999Z</time></trkpt><trkpt lat="42.99945443867157" lon="11.797030798496992"><ele>534.25</ele><time>2026-05-01T08:39:38.999Z</time></trkpt><trkpt lat="42.99941783788627" lon="11.797196116589262"><ele>536.5</ele><time>2026-05-01T08:39:39.999Z</time></trkpt><trkpt lat="42.999337564726964" lon="11.797293830492569"><ele>538.75</ele><time>2026-05-01T08:39:40.999Z</time></trkpt><trkpt lat="42.99925551802899" lon="11.797386902301321"><ele>541.0</ele><time>2026-05-01T08:39:41.999Z</time></trkpt><trkpt lat="42.99916305839876" lon="11.79752435931489"><ele>541.0</ele><time>2026-05-01T08:39:42.999Z</time></trkpt><trkpt lat="42.99908540049568" lon="11.797629967217249"><ele>541.0</ele><time>2026-05-01T08:39:43.999Z</time></trkpt><trkpt lat="42.99904504633496" lon="11.797710888462085"><ele>541.0</ele><time>2026-05-01T08:39:44.999Z</time></trkpt><trkpt lat="42.998999883126025" lon="11.797844815900907"><ele>541.0</ele><time>2026-05-01T08:39:46.999Z</time></trkpt><trkpt lat="42.99896240026437" lon="11.797974787917099"><ele>541.0</ele><time>2026-05-01T08:39:48.999Z</time></trkpt><trkpt lat="42.99891591999449" lon="11.798099142583643"><ele>544.0</ele><time>2026-05-01T08:39:50.999Z</time></trkpt><trkpt lat="42.9989098542831" lon="11.798263786681067"><ele>547.0</ele><time>2026-05-01T08:39:52.999Z</time></trkpt><trkpt lat="42.99889003930228" lon="11.798360305844499"><ele>550.0</ele><time>2026-05-01T08:39:53.999Z</time></trkpt><trkpt lat="42.99888388229668" lon="11.798459879690048"><ele>553.0</ele><time>2026-05-01T08:39:54.999Z</time></trkpt><trkpt lat="42.99888059298663" lon="11.798583104532632"><ele>556.0</ele><time>2026-05-01T08:39:55.999Z</time></trkpt><trkpt lat="42.99887867380674" lon="11.798719002751204"><ele>559.8</ele><time>2026-05-01T08:39:56.999Z</time></trkpt><trkpt lat="42.9988667810801" lon="11.798870503104812"><ele>563.6</ele><time>2026-05-01T08:39:57.999Z</time></trkpt><trkpt lat="42.99882503380494" lon="11.798986664931835"><ele>567.4</ele><time>2026-05-01T08:39:58.999Z</time></trkpt><trkpt lat="42.99875268343626" lon="11.799081229757762"><ele>571.2</ele><time>2026-05-01T08:39:59.999Z</time></trkpt><trkpt lat="42.998664745014565" lon="11.799203165790734"><ele>575.0</ele><time>2026-05-01T08:40:00.999Z</time></trkpt><trkpt lat="42.99857300190529" lon="11.799375282106746"><ele>581.0</ele><time>2026-05-01T08:40:01.999Z</time></trkpt><trkpt lat="42.998488474173705" lon="11.799520817580968"><ele>587.0</ele><time>2026-05-01T08:40:02.999Z</time></trkpt><trkpt lat="42.99844134101127" lon="11.79965932099585"><ele>593.0</ele><time>2026-05-01T08:40:03.999Z</time></trkpt><trkpt lat="42.998428262322015" lon="11.799804972407873"><ele>599.0</ele><time>2026-05-01T08:40:04.999Z</time></trkpt><trkpt lat="42.998423975057385" lon="11.799989063680037"><ele>598.0</ele><time>2026-05-01T08:40:05.999Z</time></trkpt><trkpt lat="42.9983734724702" lon="11.800173293515831"><ele>597.0</ele><time>2026-05-01T08:40:06.999Z</time></trkpt><trkpt lat="42.99832371082606" lon="11.80035544639411"><ele>596.0</ele><time>2026-05-01T08:40:07.999Z</time></trkpt><trkpt lat="42.998289816382226" lon="11.80053915126014"><ele>595.0</ele><time>2026-05-01T08:40:08.999Z</time></trkpt><trkpt lat="42.99825521416099" lon="11.800689237226257"><ele>595.0</ele><time>2026-05-01T08:40:09.999Z</time></trkpt><trkpt lat="42.998245689498006" lon="11.800822056881765"><ele>595.0</ele><time>2026-05-01T08:40:10.999Z</time></trkpt><trkpt lat="42.99820295201009" lon="11.800925621005389"><ele>595.0</ele><time>2026-05-01T08:40:11.999Z</time></trkpt><trkpt lat="42.99817711114109" lon="11.801016712583392"><ele>595.0</ele><time>2026-05-01T08:40:12.999Z</time></trkpt><trkpt lat="42.99808795676117" lon="11.801128534798295"><ele>595.0</ele><time>2026-05-01T08:40:14.999Z</time></trkpt><trkpt lat="42.998016356394444" lon="11.80110930675768"><ele>595.0</ele><time>2026-05-01T08:40:15.999Z</time></trkpt><trkpt lat="42.99794549764722" lon="11.801021517584385"><ele>595.0</ele><time>2026-05-01T08:40:16.999Z</time></trkpt><trkpt lat="42.99785334989815" lon="11.800934466177095"><ele>595.0</ele><time>2026-05-01T08:40:17.999Z</time></trkpt><trkpt lat="42.99773910962386" lon="11.80080373149716"><ele>595.0</ele><time>2026-05-01T08:40:18.999Z</time></trkpt><trkpt lat="42.99760451810217" lon="11.800666035705454"><ele>593.5</ele><time>2026-05-01T08:40:19.999Z</time></trkpt><trkpt lat="42.997497097946514" lon="11.800553076507972"><ele>592.0</ele><time>2026-05-01T08:40:20.999Z</time></trkpt><trkpt lat="42.997407418200744" lon="11.800468191299256"><ele>590.5</ele><time>2026-05-01T08:40:21.999Z</time></trkpt><trkpt lat="42.99731831963858" lon="11.800406470889042"><ele>589.0</ele><time>2026-05-01T08:40:22.999Z</time></trkpt><trkpt lat="42.99720756394268" lon="11.800389604560717"><ele>589.0</ele><time>2026-05-01T08:40:23.999Z</time></trkpt><trkpt lat="42.99709866543108" lon="11.80040158041876"><ele>589.0</ele><time>2026-05-01T08:40:24.999Z</time></trkpt><trkpt lat="42.996973980724995" lon="11.800446122201596"><ele>589.0</ele><time>2026-05-01T08:40:25.999Z</time></trkpt><trkpt lat="42.996831233193454" lon="11.800508969964696"><ele>589.0</ele><time>2026-05-01T08:40:26.999Z</time></trkpt><trkpt lat="42.99669757771762" lon="11.800578700763978"><ele>589.0</ele><time>2026-05-01T08:40:27.999Z</time></trkpt><trkpt lat="42.99657729168442" lon="11.800650900947161"><ele>589.0</ele><time>2026-05-01T08:40:28.998Z</time></trkpt><trkpt lat="42.99645522490017" lon="11.80071094431821"><ele>589.0</ele><time>2026-05-01T08:40:29.998Z</time></trkpt><trkpt lat="42.99632367501534" lon="11.800771804235525"><ele>589.0</ele><time>2026-05-01T08:40:30.998Z</time></trkpt><trkpt lat="42.99620668483018" lon="11.800837813919667"><ele>589.0</ele><time>2026-05-01T08:40:31.998Z</time></trkpt><trkpt lat="42.99609451937397" lon="11.800923970583897"><ele>589.0</ele><time>2026-05-01T08:40:32.998Z</time></trkpt><trkpt lat="42.99597062291037" lon="11.801000197720384"><ele>589.0</ele><time>2026-05-01T08:40:33.998Z</time></trkpt><trkpt lat="42.99583998092513" lon="11.801091356588888"><ele>589.0</ele><time>2026-05-01T08:40:34.998Z</time></trkpt><trkpt lat="42.99574462208057" lon="11.801185017964395"><ele>591.3333333333334</ele><time>2026-05-01T08:40:35.998Z</time></trkpt><trkpt lat="42.99565661561181" lon="11.801305028969509"><ele>593.6666666666666</ele><time>2026-05-01T08:40:36.998Z</time></trkpt><trkpt lat="42.99555962124766" lon="11.801488228950051"><ele>596.0</ele><time>2026-05-01T08:40:37.998Z</time></trkpt><trkpt lat="42.99547391620095" lon="11.801687989390876"><ele>597.25</ele><time>2026-05-01T08:40:38.998Z</time></trkpt><trkpt lat="42.995408936617764" lon="11.801841687711942"><ele>598.5</ele><time>2026-05-01T08:40:39.998Z</time></trkpt><trkpt lat="42.99535225302613" lon="11.801986072422013"><ele>599.75</ele><time>2026-05-01T08:40:40.998Z</time></trkpt><trkpt lat="42.99530394200353" lon="11.802111151597357"><ele>601.0</ele><time>2026-05-01T08:40:41.998Z</time></trkpt><trkpt lat="42.99525142077857" lon="11.802230123078449"><ele>601.0</ele><time>2026-05-01T08:40:42.998Z</time></trkpt><trkpt lat="42.99518671393173" lon="11.80232972234282"><ele>601.0</ele><time>2026-05-01T08:40:43.998Z</time></trkpt><trkpt lat="42.99510159854988" lon="11.80241103777918"><ele>601.0</ele><time>2026-05-01T08:40:44.998Z</time></trkpt><trkpt lat="42.99499601227542" lon="11.802485259162497"><ele>601.0</ele><time>2026-05-01T08:40:45.998Z</time></trkpt><trkpt lat="42.99486171220682" lon="11.802445865956994"><ele>599.0</ele><time>2026-05-01T08:40:46.998Z</time></trkpt><trkpt lat="42.99471322350055" lon="11.802439518693394"><ele>597.0</ele><time>2026-05-01T08:40:47.998Z</time></trkpt><trkpt lat="42.99454199724288" lon="11.802422350833233"><ele>595.0</ele><time>2026-05-01T08:40:48.998Z</time></trkpt><trkpt lat="42.99438767480523" lon="11.802400054351647"><ele>595.0</ele><time>2026-05-01T08:40:49.998Z</time></trkpt><trkpt lat="42.99424728935008" lon="11.802379771468942"><ele>595.0</ele><time>2026-05-01T08:40:50.998Z</time></trkpt><trkpt lat="42.99412923555224" lon="11.80236772701546"><ele>595.0</ele><time>2026-05-01T08:40:52Z</time></trkpt><trkpt lat="42.99402605493472" lon="11.802375910388669"><ele>595.0</ele><time>2026-05-01T08:40:53Z</time></trkpt><trkpt lat="42.99393078756111" lon="11.80237258676407"><ele>593.8</ele><time>2026-05-01T08:40:54Z</time></trkpt><trkpt lat="42.993845681397694" lon="11.80239430183346"><ele>592.6</ele><time>2026-05-01T08:40:55Z</time></trkpt><trkpt lat="42.993762918432644" lon="11.802418803915847"><ele>591.4</ele><time>2026-05-01T08:40:56Z</time></trkpt><trkpt lat="42.99367876820773" lon="11.802532205676584"><ele>590.2</ele><time>2026-05-01T08:40:57Z</time></trkpt><trkpt lat="42.99357508384416" lon="11.802659020778279"><ele>589.0</ele><time>2026-05-01T08:40:58Z</time></trkpt><trkpt lat="42.99345407316594" lon="11.80278249045346"><ele>585.3333333333334</ele><time>2026-05-01T08:40:59Z</time></trkpt><trkpt lat="42.993331122745694" lon="11.802944795959828"><ele>581.6666666666666</ele><time>2026-05-01T08:41:00Z</time></trkpt><trkpt lat="42.99318507610488" lon="11.803150437859916"><ele>578.0</ele><time>2026-05-01T08:41:01Z</time></trkpt><trkpt lat="42.99304832009946" lon="11.803346861313278"><ele>581.25</ele><time>2026-05-01T08:41:02Z</time></trkpt><trkpt lat="42.992938468860366" lon="11.803515309111036"><ele>584.5</ele><time>2026-05-01T08:41:03Z</time></trkpt><trkpt lat="42.99283982906171" lon="11.803656348038944"><ele>587.75</ele><time>2026-05-01T08:41:04Z</time></trkpt><trkpt lat="42.99275011766755" lon="11.803780391129278"><ele>591.0</ele><time>2026-05-01T08:41:05Z</time></trkpt><trkpt lat="42.99264984223503" lon="11.80385450250161"><ele>591.0</ele><time>2026-05-01T08:41:06Z</time></trkpt><trkpt lat="42.99254440833749" lon="11.80393476782922"><ele>591.0</ele><time>2026-05-01T08:41:07Z</time></trkpt><trkpt lat="42.992413787654165" lon="11.804006929388093"><ele>591.0</ele><time>2026-05-01T08:41:08Z</time></trkpt><trkpt lat="42.99225534871589" lon="11.804069405186418"><ele>591.0</ele><time>2026-05-01T08:41:09Z</time></trkpt><trkpt lat="42.992056670692186" lon="11.804155029127028"><ele>588.0</ele><time>2026-05-01T08:41:10Z</time></trkpt><trkpt lat="42.99187120684084" lon="11.804209138065168"><ele>585.0</ele><time>2026-05-01T08:41:11Z</time></trkpt><trkpt lat="42.991708754524204" lon="11.80426164886691"><ele>582.0</ele><time>2026-05-01T08:41:12Z</time></trkpt><trkpt lat="42.991576524111" lon="11.804311647080075"><ele>581.4</ele><time>2026-05-01T08:41:13Z</time></trkpt><trkpt lat="42.991453446525774" lon="11.804367870389568"><ele>580.8000000000001</ele><time>2026-05-01T08:41:14Z</time></trkpt><trkpt lat="42.99134507560425" lon="11.804400208789128"><ele>580.2</ele><time>2026-05-01T08:41:15Z</time></trkpt><trkpt lat="42.991239883619954" lon="11.80438998451052"><ele>579.6</ele><time>2026-05-01T08:41:16Z</time></trkpt><trkpt lat="42.99115101897291" lon="11.804341451439182"><ele>579.0</ele><time>2026-05-01T08:41:17Z</time></trkpt><trkpt lat="42.99107284346851" lon="11.8042665646909"><ele>579.0</ele><time>2026-05-01T08:41:18Z</time></trkpt><trkpt lat="42.99100741783012" lon="11.804209487703142"><ele>579.0</ele><time>2026-05-01T08:41:19Z</time></trkpt><trkpt lat="42.99088840018294" lon="11.804263369062737"><ele>579.0</ele><time>2026-05-01T08:41:21Z</time></trkpt><trkpt lat="42.990818256997365" lon="11.804356317458758"><ele>579.0</ele><time>2026-05-01T08:41:22Z</time></trkpt><trkpt lat="42.99072008046223" lon="11.804447861684732"><ele>579.0</ele><time>2026-05-01T08:41:23Z</time></trkpt><trkpt lat="42.99061628375593" lon="11.804550631407878"><ele>587.0</ele><time>2026-05-01T08:41:24Z</time></trkpt><trkpt lat="42.99051236590606" lon="11.804657918407939"><ele>595.0</ele><time>2026-05-01T08:41:25Z</time></trkpt><trkpt lat="42.990368351550785" lon="11.804686073960951"><ele>603.0</ele><time>2026-05-01T08:41:26Z</time></trkpt><trkpt lat="42.99025170501024" lon="11.804749783526637"><ele>611.0</ele><time>2026-05-01T08:41:27Z</time></trkpt><trkpt lat="42.99017633284717" lon="11.804850211663947"><ele>611.0</ele><time>2026-05-01T08:41:28Z</time></trkpt><trkpt lat="42.99012008444106" lon="11.804925880234235"><ele>611.0</ele><time>2026-05-01T08:41:29Z</time></trkpt><trkpt lat="42.99007314020409" lon="11.805003024827654"><ele>611.0</ele><time>2026-05-01T08:41:30Z</time></trkpt><trkpt lat="42.990032832034416" lon="11.805078166998898"><ele>611.0</ele><time>2026-05-01T08:41:31Z</time></trkpt><trkpt lat="42.99002959966919" lon="11.805194039266308"><ele>611.0</ele><time>2026-05-01T08:41:32Z</time></trkpt><trkpt lat="42.99008299191582" lon="11.80532860477929"><ele>611.0</ele><time>2026-05-01T08:41:33Z</time></trkpt><trkpt lat="42.99009945961472" lon="11.805489086685856"><ele>615.5</ele><time>2026-05-01T08:41:34Z</time></trkpt><trkpt lat="42.990106029536385" lon="11.805634333377975"><ele>620.0</ele><time>2026-05-01T08:41:34.999Z</time></trkpt><trkpt lat="42.99008690174669" lon="11.805770464137234"><ele>624.5</ele><time>2026-05-01T08:41:35.999Z</time></trkpt><trkpt lat="42.99007470045356" lon="11.805941073769455"><ele>629.0</ele><time>2026-05-01T08:41:36.999Z</time></trkpt><trkpt lat="42.99002272374181" lon="11.806145143448543"><ele>629.6</ele><time>2026-05-01T08:41:37.999Z</time></trkpt><trkpt lat="42.9899976036952" lon="11.806301837920802"><ele>630.2</ele><time>2026-05-01T08:41:38.999Z</time></trkpt><trkpt lat="42.98997264465549" lon="11.806409369967104"><ele>630.8000000000001</ele><time>2026-05-01T08:41:39.999Z</time></trkpt><trkpt lat="42.98992109551387" lon="11.80649085865723"><ele>631.4</ele><time>2026-05-01T08:41:40.999Z</time></trkpt><trkpt lat="42.98984675867044" lon="11.806577807666612"><ele>632.0</ele><time>2026-05-01T08:41:41.999Z</time></trkpt><trkpt lat="42.98974390181131" lon="11.806698705660217"><ele>636.2</ele><time>2026-05-01T08:41:42.999Z</time></trkpt><trkpt lat="42.98965215619193" lon="11.806835692595913"><ele>640.4000000000001</ele><time>2026-05-01T08:41:43.999Z</time></trkpt><trkpt lat="42.989587430849355" lon="11.80694491381159"><ele>644.5999999999999</ele><time>2026-05-01T08:41:44.999Z</time></trkpt><trkpt lat="42.98955990025526" lon="11.807047670232487"><ele>648.8</ele><time>2026-05-01T08:41:45.999Z</time></trkpt><trkpt lat="42.98953298278432" lon="11.807163236844612"><ele>653.0</ele><time>2026-05-01T08:41:46.999Z</time></trkpt><trkpt lat="42.98952845449219" lon="11.80729097721541"><ele>653.0</ele><time>2026-05-01T08:41:47.999Z</time></trkpt><trkpt lat="42.989522518173644" lon="11.807448428113467"><ele>653.0</ele><time>2026-05-01T08:41:48.999Z</time></trkpt><trkpt lat="42.98952321522602" lon="11.807625129603249"><ele>653.0</ele><time>2026-05-01T08:41:49.999Z</time></trkpt><trkpt lat="42.98951186728245" lon="11.807808295472903"><ele>653.0</ele><time>2026-05-01T08:41:50.999Z</time></trkpt><trkpt lat="42.98948505234909" lon="11.80796543921835"><ele>651.8</ele><time>2026-05-01T08:41:51.999Z</time></trkpt><trkpt lat="42.989440019018595" lon="11.808076554130041"><ele>650.5999999999999</ele><time>2026-05-01T08:41:52.999Z</time></trkpt><trkpt lat="42.989372733325524" lon="11.808130263568529"><ele>649.4000000000001</ele><time>2026-05-01T08:41:53.999Z</time></trkpt><trkpt lat="42.98931215715299" lon="11.808181687183723"><ele>648.2</ele><time>2026-05-01T08:41:54.999Z</time></trkpt><trkpt lat="42.98923477836344" lon="11.808273576958554"><ele>647.0</ele><time>2026-05-01T08:41:55.999Z</time></trkpt><trkpt lat="42.989129196209355" lon="11.808353325021676"><ele>647.0</ele><time>2026-05-01T08:41:56.999Z</time></trkpt><trkpt lat="42.989034511077755" lon="11.808456732634507"><ele>647.0</ele><time>2026-05-01T08:41:57.999Z</time></trkpt><trkpt lat="42.98892856774899" lon="11.808544544060629"><ele>647.0</ele><time>2026-05-01T08:41:58.999Z</time></trkpt><trkpt lat="42.98883397515485" lon="11.808680572982182"><ele>647.0</ele><time>2026-05-01T08:41:59.999Z</time></trkpt><trkpt lat="42.9887330884094" lon="11.808826635142834"><ele>648.8</ele><time>2026-05-01T08:42:00.999Z</time></trkpt><trkpt lat="42.98862723215585" lon="11.808928072385273"><ele>650.6</ele><time>2026-05-01T08:42:01.999Z</time></trkpt><trkpt lat="42.98852918577218" lon="11.809003875490818"><ele>652.4</ele><time>2026-05-01T08:42:02.999Z</time></trkpt><trkpt lat="42.98844695061747" lon="11.809097282148487"><ele>654.1999999999999</ele><time>2026-05-01T08:42:03.999Z</time></trkpt><trkpt lat="42.98837965256139" lon="11.80917136007984"><ele>656.0</ele><time>2026-05-01T08:42:04.999Z</time></trkpt><trkpt lat="42.988321639540935" lon="11.809247625986902"><ele>659.0</ele><time>2026-05-01T08:42:05.999Z</time></trkpt><trkpt lat="42.98830926341542" lon="11.809376523455779"><ele>662.0</ele><time>2026-05-01T08:42:06.999Z</time></trkpt><trkpt lat="42.988335588791905" lon="11.809514799931742"><ele>665.0</ele><time>2026-05-01T08:42:07.999Z</time></trkpt><trkpt lat="42.98836313341894" lon="11.809676515664428"><ele>668.0</ele><time>2026-05-01T08:42:08.999Z</time></trkpt><trkpt lat="42.98839385423081" lon="11.809852901411746"><ele>675.0</ele><time>2026-05-01T08:42:09.999Z</time></trkpt><trkpt lat="42.988436441088744" lon="11.810074880746926"><ele>682.0</ele><time>2026-05-01T08:42:10.999Z</time></trkpt><trkpt lat="42.98848614918938" lon="11.810324822900123"><ele>689.0</ele><time>2026-05-01T08:42:11.999Z</time></trkpt><trkpt lat="42.9885489451758" lon="11.810552048259282"><ele>693.0</ele><time>2026-05-01T08:42:12.999Z</time></trkpt><trkpt lat="42.98857924085877" lon="11.81074080373358"><ele>697.0</ele><time>2026-05-01T08:42:13.999Z</time></trkpt><trkpt lat="42.988615587235714" lon="11.810902434500338"><ele>701.0</ele><time>2026-05-01T08:42:14.999Z</time></trkpt><trkpt lat="42.988668790423375" lon="11.811109757239716"><ele>705.0</ele><time>2026-05-01T08:42:15.999Z</time></trkpt><trkpt lat="42.9887541365086" lon="11.81131942098641"><ele>706.0</ele><time>2026-05-01T08:42:16.999Z</time></trkpt><trkpt lat="42.98880631945586" lon="11.81145659440712"><ele>707.0</ele><time>2026-05-01T08:42:17.999Z</time></trkpt><trkpt lat="42.98882345040192" lon="11.811551793392118"><ele>708.0</ele><time>2026-05-01T08:42:18.999Z</time></trkpt><trkpt lat="42.98879336418653" lon="11.811670476684135"><ele>709.0</ele><time>2026-05-01T08:42:20.999Z</time></trkpt><trkpt lat="42.98876732137576" lon="11.811764434862273"><ele>710.0</ele><time>2026-05-01T08:42:21.999Z</time></trkpt><trkpt lat="42.98869666387331" lon="11.811887750054838"><ele>710.75</ele><time>2026-05-01T08:42:22.999Z</time></trkpt><trkpt lat="42.98864385769764" lon="11.81200770158093"><ele>711.5</ele><time>2026-05-01T08:42:23.999Z</time></trkpt><trkpt lat="42.988636637428314" lon="11.812153518097652"><ele>712.25</ele><time>2026-05-01T08:42:24.999Z</time></trkpt><trkpt lat="42.988649572077655" lon="11.812318885907723"><ele>713.0</ele><time>2026-05-01T08:42:25.999Z</time></trkpt><trkpt lat="42.98866627909916" lon="11.812489402785625"><ele>713.0</ele><time>2026-05-01T08:42:26.999Z</time></trkpt><trkpt lat="42.98869015994797" lon="11.812615620177523"><ele>713.0</ele><time>2026-05-01T08:42:27.999Z</time></trkpt><trkpt lat="42.98873903936896" lon="11.812722099989692"><ele>713.0</ele><time>2026-05-01T08:42:28.999Z</time></trkpt><trkpt lat="42.98880979069896" lon="11.812818883352122"><ele>713.0</ele><time>2026-05-01T08:42:29.999Z</time></trkpt><trkpt lat="42.98889148832011" lon="11.812889650606675"><ele>713.0</ele><time>2026-05-01T08:42:30.999Z</time></trkpt><trkpt lat="42.98899037074195" lon="11.812927462257202"><ele>713.2</ele><time>2026-05-01T08:42:31.999Z</time></trkpt><trkpt lat="42.98910116682609" lon="11.812919571378512"><ele>713.4</ele><time>2026-05-01T08:42:32.999Z</time></trkpt><trkpt lat="42.98920933761227" lon="11.81288035552224"><ele>713.6</ele><time>2026-05-01T08:42:33.999Z</time></trkpt><trkpt lat="42.98930148288167" lon="11.812799717472254"><ele>713.8000000000001</ele><time>2026-05-01T08:42:34.999Z</time></trkpt><trkpt lat="42.98936469973505" lon="11.812691000228662"><ele>714.0</ele><time>2026-05-01T08:42:35.998Z</time></trkpt><trkpt lat="42.989403340058715" lon="11.812568974770933"><ele>721.25</ele><time>2026-05-01T08:42:36.998Z</time></trkpt><trkpt lat="42.98943252618508" lon="11.812412726751985"><ele>728.5</ele><time>2026-05-01T08:42:37.998Z</time></trkpt><trkpt lat="42.989469054770446" lon="11.812232174210834"><ele>735.75</ele><time>2026-05-01T08:42:38.998Z</time></trkpt><trkpt lat="42.98953552896417" lon="11.81205530304348"><ele>743.0</ele><time>2026-05-01T08:42:39.998Z</time></trkpt><trkpt lat="42.98958982651876" lon="11.811901808163835"><ele>741.5999999999999</ele><time>2026-05-01T08:42:40.998Z</time></trkpt><trkpt lat="42.98963043406264" lon="11.811759094123293"><ele>740.1999999999999</ele><time>2026-05-01T08:42:41.998Z</time></trkpt><trkpt lat="42.98970253806586" lon="11.811638932421685"><ele>738.8</ele><time>2026-05-01T08:42:42.998Z</time></trkpt><trkpt lat="42.989780841369445" lon="11.811532562395326"><ele>737.4</ele><time>2026-05-01T08:42:43.998Z</time></trkpt><trkpt lat="42.98985223904264" lon="11.811447292262498"><ele>736.0</ele><time>2026-05-01T08:42:44.998Z</time></trkpt><trkpt lat="42.98992224106415" lon="11.811403821702475"><ele>736.0</ele><time>2026-05-01T08:42:45.998Z</time></trkpt><trkpt lat="42.98999319772918" lon="11.811396715637244"><ele>736.0</ele><time>2026-05-01T08:42:46.998Z</time></trkpt><trkpt lat="42.9900735296774" lon="11.811426943391165"><ele>736.0</ele><time>2026-05-01T08:42:47.998Z</time></trkpt><trkpt lat="42.990178221018496" lon="11.811466140840352"><ele>736.0</ele><time>2026-05-01T08:42:48.998Z</time></trkpt><trkpt lat="42.990312513445886" lon="11.81151214491938"><ele>736.0</ele><time>2026-05-01T08:42:49.998Z</time></trkpt><trkpt lat="42.990456365103356" lon="11.811533952645778"><ele>740.0</ele><time>2026-05-01T08:42:50.998Z</time></trkpt><trkpt lat="42.99056049829029" lon="11.811521430447467"><ele>744.0</ele><time>2026-05-01T08:42:51.998Z</time></trkpt><trkpt lat="42.99065568045292" lon="11.811471277102793"><ele>748.0</ele><time>2026-05-01T08:42:52.998Z</time></trkpt><trkpt lat="42.9907323394192" lon="11.811397999039478"><ele>752.0</ele><time>2026-05-01T08:42:53.998Z</time></trkpt><trkpt lat="42.99082295263233" lon="11.811336963425918"><ele>756.0</ele><time>2026-05-01T08:42:54.998Z</time></trkpt><trkpt lat="42.99091262108981" lon="11.811256888858944"><ele>757.6666666666666</ele><time>2026-05-01T08:42:55.998Z</time></trkpt><trkpt lat="42.99100674975817" lon="11.811178040564055"><ele>759.3333333333334</ele><time>2026-05-01T08:42:56.998Z</time></trkpt><trkpt lat="42.99109638663158" lon="11.811126358545128"><ele>761.0</ele><time>2026-05-01T08:42:58Z</time></trkpt><trkpt lat="42.99117549531292" lon="11.811090012013478"><ele>762.6666666666667</ele><time>2026-05-01T08:42:59Z</time></trkpt><trkpt lat="42.99126053063821" lon="11.811069447772402"><ele>764.3333333333334</ele><time>2026-05-01T08:43:00Z</time></trkpt><trkpt lat="42.9913275034831" lon="11.811069495793706"><ele>766.0</ele><time>2026-05-01T08:43:01Z</time></trkpt><trkpt lat="42.991403220231994" lon="11.811085337984093"><ele>766.0</ele><time>2026-05-01T08:43:02Z</time></trkpt><trkpt lat="42.991473719912555" lon="11.81113564745811"><ele>766.0</ele><time>2026-05-01T08:43:03Z</time></trkpt><trkpt lat="42.99154287069843" lon="11.811194377528336"><ele>766.0</ele><time>2026-05-01T08:43:04Z</time></trkpt><trkpt lat="42.991566396221636" lon="11.811303416698177"><ele>766.0</ele><time>2026-05-01T08:43:05Z</time></trkpt><trkpt lat="42.99155633292723" lon="11.811406099867556"><ele>766.0</ele><time>2026-05-01T08:43:06Z</time></trkpt><trkpt lat="42.99156660879805" lon="11.811521054024618"><ele>766.0</ele><time>2026-05-01T08:43:07Z</time></trkpt><trkpt lat="42.99158725381506" lon="11.8116454818312"><ele>766.0</ele><time>2026-05-01T08:43:08Z</time></trkpt><trkpt lat="42.99161217629249" lon="11.811786265491246"><ele>766.0</ele><time>2026-05-01T08:43:09Z</time></trkpt><trkpt lat="42.99166120133395" lon="11.811959079633132"><ele>766.0</ele><time>2026-05-01T08:43:10Z</time></trkpt><trkpt lat="42.99171436491155" lon="11.812148189308306"><ele>766.0</ele><time>2026-05-01T08:43:11Z</time></trkpt><trkpt lat="42.99177201620663" lon="11.812356504790186"><ele>764.0</ele><time>2026-05-01T08:43:12Z</time></trkpt><trkpt lat="42.991852401265916" lon="11.812579018671537"><ele>762.0</ele><time>2026-05-01T08:43:13Z</time></trkpt><trkpt lat="42.99194630480763" lon="11.812789888014391"><ele>760.0</ele><time>2026-05-01T08:43:14Z</time></trkpt><trkpt lat="42.99205835051592" lon="11.813006666503155"><ele>760.0</ele><time>2026-05-01T08:43:15Z</time></trkpt><trkpt lat="42.992182433901306" lon="11.81322691400357"><ele>760.0</ele><time>2026-05-01T08:43:16Z</time></trkpt><trkpt lat="42.99230865957718" lon="11.813443597683408"><ele>760.0</ele><time>2026-05-01T08:43:17Z</time></trkpt><trkpt lat="42.992395517006564" lon="11.813647521180204"><ele>759.25</ele><time>2026-05-01T08:43:18Z</time></trkpt><trkpt lat="42.99247214174883" lon="11.813834935589725"><ele>758.5</ele><time>2026-05-01T08:43:19Z</time></trkpt><trkpt lat="42.992532250128924" lon="11.814016264625145"><ele>757.75</ele><time>2026-05-01T08:43:20Z</time></trkpt><trkpt lat="42.99257538407687" lon="11.814203141850207"><ele>757.0</ele><time>2026-05-01T08:43:21Z</time></trkpt><trkpt lat="42.992586890882926" lon="11.814366284125551"><ele>757.0</ele><time>2026-05-01T08:43:22Z</time></trkpt><trkpt lat="42.99258624924526" lon="11.814533525548994"><ele>757.0</ele><time>2026-05-01T08:43:23Z</time></trkpt><trkpt lat="42.9925709371334" lon="11.814674534356943"><ele>757.0</ele><time>2026-05-01T08:43:24Z</time></trkpt><trkpt lat="42.99256766468969" lon="11.814789529488369"><ele>757.0</ele><time>2026-05-01T08:43:25Z</time></trkpt><trkpt lat="42.992553424394146" lon="11.81490188801025"><ele>757.0</ele><time>2026-05-01T08:43:27Z</time></trkpt><trkpt lat="42.992581625377284" lon="11.815075009461799"><ele>757.0</ele><time>2026-05-01T08:43:29Z</time></trkpt><trkpt lat="42.99265085142767" lon="11.815216853365275"><ele>757.0</ele><time>2026-05-01T08:43:30Z</time></trkpt><trkpt lat="42.99274787955447" lon="11.815379113277606"><ele>757.0</ele><time>2026-05-01T08:43:31Z</time></trkpt><trkpt lat="42.99285302702971" lon="11.815569749450574"><ele>757.0</ele><time>2026-05-01T08:43:32Z</time></trkpt><trkpt lat="42.99294682624427" lon="11.815748795128002"><ele>757.0</ele><time>2026-05-01T08:43:33Z</time></trkpt><trkpt lat="42.993041942201344" lon="11.815931479206611"><ele>757.0</ele><time>2026-05-01T08:43:34Z</time></trkpt><trkpt lat="42.993141734935215" lon="11.816127415051843"><ele>755.6666666666667</ele><time>2026-05-01T08:43:35Z</time></trkpt><trkpt lat="42.993232455235855" lon="11.816307678742458"><ele>754.3333333333334</ele><time>2026-05-01T08:43:36Z</time></trkpt><trkpt lat="42.99332438131615" lon="11.81649525804855"><ele>753.0</ele><time>2026-05-01T08:43:37Z</time></trkpt><trkpt lat="42.99342028220864" lon="11.816680902859027"><ele>753.6666666666666</ele><time>2026-05-01T08:43:38Z</time></trkpt><trkpt lat="42.99350103018763" lon="11.816870845781589"><ele>754.3333333333333</ele><time>2026-05-01T08:43:39Z</time></trkpt><trkpt lat="42.99358649939775" lon="11.817041707816236"><ele>755.0</ele><time>2026-05-01T08:43:39.999Z</time></trkpt><trkpt lat="42.99367002062379" lon="11.817207741363486"><ele>755.0</ele><time>2026-05-01T08:43:40.999Z</time></trkpt><trkpt lat="42.99375239790457" lon="11.817355298284298"><ele>755.0</ele><time>2026-05-01T08:43:41.999Z</time></trkpt><trkpt lat="42.99380209672512" lon="11.817483014683287"><ele>755.0</ele><time>2026-05-01T08:43:42.999Z</time></trkpt><trkpt lat="42.99384524813207" lon="11.817569210108424"><ele>755.0</ele><time>2026-05-01T08:43:43.999Z</time></trkpt><trkpt lat="42.99390527573826" lon="11.817621690548792"><ele>755.0</ele><time>2026-05-01T08:43:44.999Z</time></trkpt><trkpt lat="42.99399938451792" lon="11.817653874511548"><ele>754.4</ele><time>2026-05-01T08:43:45.999Z</time></trkpt><trkpt lat="42.99410411338728" lon="11.817685960803583"><ele>753.8</ele><time>2026-05-01T08:43:46.999Z</time></trkpt><trkpt lat="42.9941736756637" lon="11.817740043353078"><ele>753.2</ele><time>2026-05-01T08:43:47.999Z</time></trkpt><trkpt lat="42.994222472064926" lon="11.817829044207805"><ele>752.6</ele><time>2026-05-01T08:43:48.999Z</time></trkpt><trkpt lat="42.994269664548554" lon="11.81796710427675"><ele>752.0</ele><time>2026-05-01T08:43:49.999Z</time></trkpt><trkpt lat="42.994336154970085" lon="11.818123394245339"><ele>756.5</ele><time>2026-05-01T08:43:50.999Z</time></trkpt><trkpt lat="42.99441319668566" lon="11.818249410415465"><ele>761.0</ele><time>2026-05-01T08:43:51.999Z</time></trkpt><trkpt lat="42.994492225345645" lon="11.818325079642106"><ele>765.5</ele><time>2026-05-01T08:43:52.999Z</time></trkpt><trkpt lat="42.99460319961698" lon="11.81837065772273"><ele>770.0</ele><time>2026-05-01T08:43:53.999Z</time></trkpt><trkpt lat="42.994738409300744" lon="11.81841535468632"><ele>770.0</ele><time>2026-05-01T08:43:54.999Z</time></trkpt><trkpt lat="42.994908197724484" lon="11.818472754338055"><ele>770.0</ele><time>2026-05-01T08:43:55.999Z</time></trkpt><trkpt lat="42.99505345031302" lon="11.818574863512318"><ele>770.0</ele><time>2026-05-01T08:43:56.999Z</time></trkpt><trkpt lat="42.995167312059934" lon="11.81868427081953"><ele>775.0</ele><time>2026-05-01T08:43:57.999Z</time></trkpt><trkpt lat="42.995294716060286" lon="11.818841054865935"><ele>780.0</ele><time>2026-05-01T08:43:58.999Z</time></trkpt><trkpt lat="42.99546231794066" lon="11.8190420156286"><ele>785.0</ele><time>2026-05-01T08:43:59.999Z</time></trkpt><trkpt lat="42.99560463366069" lon="11.819220070795323"><ele>786.25</ele><time>2026-05-01T08:44:00.999Z</time></trkpt><trkpt lat="42.99568781601743" lon="11.819351393280563"><ele>787.5</ele><time>2026-05-01T08:44:01.999Z</time></trkpt><trkpt lat="42.99573356299733" lon="11.819464104001385"><ele>788.75</ele><time>2026-05-01T08:44:02.999Z</time></trkpt><trkpt lat="42.995768351438976" lon="11.819594336872598"><ele>790.0</ele><time>2026-05-01T08:44:03.999Z</time></trkpt><trkpt lat="42.99579094033534" lon="11.819791162045448"><ele>792.6666666666666</ele><time>2026-05-01T08:44:04.999Z</time></trkpt><trkpt lat="42.99583884918669" lon="11.819986198533881"><ele>795.3333333333333</ele><time>2026-05-01T08:44:05.999Z</time></trkpt><trkpt lat="42.99591600291675" lon="11.820203747902431"><ele>798.0</ele><time>2026-05-01T08:44:06.999Z</time></trkpt><trkpt lat="42.99600992981921" lon="11.82044777537226"><ele>798.0</ele><time>2026-05-01T08:44:07.999Z</time></trkpt><trkpt lat="42.996107407865246" lon="11.820698701593965"><ele>798.0</ele><time>2026-05-01T08:44:08.999Z</time></trkpt><trkpt lat="42.99620359128433" lon="11.820912859935078"><ele>798.0</ele><time>2026-05-01T08:44:09.999Z</time></trkpt><trkpt lat="42.99629185611259" lon="11.821115960359066"><ele>797.3333333333333</ele><time>2026-05-01T08:44:10.999Z</time></trkpt><trkpt lat="42.99638257181634" lon="11.821326648214592"><ele>796.6666666666666</ele><time>2026-05-01T08:44:11.999Z</time></trkpt><trkpt lat="42.996473660391594" lon="11.821531140681754"><ele>796.0</ele><time>2026-05-01T08:44:12.999Z</time></trkpt><trkpt lat="42.9965625380528" lon="11.821739344024998"><ele>796.3333333333333</ele><time>2026-05-01T08:44:13.999Z</time></trkpt><trkpt lat="42.99664436684509" lon="11.82193509865551"><ele>796.6666666666667</ele><time>2026-05-01T08:44:14.999Z</time></trkpt><trkpt lat="42.996721338873826" lon="11.822112487382311"><ele>797.0</ele><time>2026-05-01T08:44:15.999Z</time></trkpt><trkpt lat="42.99679639968318" lon="11.822298817469331"><ele>797.0</ele><time>2026-05-01T08:44:16.999Z</time></trkpt><trkpt lat="42.99686360819178" lon="11.82246742504378"><ele>797.0</ele><time>2026-05-01T08:44:17.999Z</time></trkpt><trkpt lat="42.996910031808284" lon="11.822614705369713"><ele>797.0</ele><time>2026-05-01T08:44:18.999Z</time></trkpt><trkpt lat="42.99691410524389" lon="11.822750182698924"><ele>797.0</ele><time>2026-05-01T08:44:19.999Z</time></trkpt><trkpt lat="42.99692530100526" lon="11.822872894491752"><ele>797.0</ele><time>2026-05-01T08:44:20.999Z</time></trkpt><trkpt lat="42.9969382844768" lon="11.823000058883949"><ele>797.5000000000001</ele><time>2026-05-01T08:44:21.999Z</time></trkpt><trkpt lat="42.99696245744009" lon="11.82311911197631"><ele>798.0</ele><time>2026-05-01T08:44:22.999Z</time></trkpt><trkpt lat="42.996962793035244" lon="11.823243687745972"><ele>798.5</ele><time>2026-05-01T08:44:23.999Z</time></trkpt><trkpt lat="42.9969675686389" lon="11.823359984998111"><ele>799.0</ele><time>2026-05-01T08:44:24.999Z</time></trkpt><trkpt lat="42.996977306026636" lon="11.82346476970689"><ele>799.5000000000001</ele><time>2026-05-01T08:44:25.999Z</time></trkpt><trkpt lat="42.99699408527358" lon="11.82355386106426"><ele>800.0</ele><time>2026-05-01T08:44:26.999Z</time></trkpt><trkpt lat="42.997011239419955" lon="11.823642225428532"><ele>800.0000000000001</ele><time>2026-05-01T08:44:27.999Z</time></trkpt><trkpt lat="42.99702480827492" lon="11.823730243807923"><ele>800.0</ele><time>2026-05-01T08:44:28.999Z</time></trkpt><trkpt lat="42.997052530485526" lon="11.823883565879349"><ele>800.0</ele><time>2026-05-01T08:44:30.999Z</time></trkpt><trkpt lat="42.99705442783801" lon="11.823984279318992"><ele>800.0</ele><time>2026-05-01T08:44:31.999Z</time></trkpt><trkpt lat="42.99706040030344" lon="11.824105749061427"><ele>800.0000000000001</ele><time>2026-05-01T08:44:32.999Z</time></trkpt><trkpt lat="42.99704779900962" lon="11.824243377124892"><ele>800.0</ele><time>2026-05-01T08:44:33.999Z</time></trkpt><trkpt lat="42.997001705973304" lon="11.824358077221712"><ele>800.5</ele><time>2026-05-01T08:44:34.999Z</time></trkpt><trkpt lat="42.99692889879339" lon="11.824443920076298"><ele>801.0</ele><time>2026-05-01T08:44:35.999Z</time></trkpt><trkpt lat="42.99683043754138" lon="11.824571816971922"><ele>801.5</ele><time>2026-05-01T08:44:36.999Z</time></trkpt><trkpt lat="42.99671079357895" lon="11.824715217238497"><ele>802.0</ele><time>2026-05-01T08:44:37.999Z</time></trkpt><trkpt lat="42.99654569492949" lon="11.824897114765879"><ele>804.0</ele><time>2026-05-01T08:44:38.999Z</time></trkpt><trkpt lat="42.996333821680295" lon="11.825104526960022"><ele>806.0</ele><time>2026-05-01T08:44:39.998Z</time></trkpt><trkpt lat="42.99612994376511" lon="11.825333403029928"><ele>806.0</ele><time>2026-05-01T08:44:40.998Z</time></trkpt><trkpt lat="42.995923414866624" lon="11.825565255011005"><ele>806.0</ele><time>2026-05-01T08:44:41.998Z</time></trkpt><trkpt lat="42.99572767135114" lon="11.825784495220057"><ele>806.0</ele><time>2026-05-01T08:44:42.998Z</time></trkpt><trkpt lat="42.99555607897073" lon="11.825974455788751"><ele>806.0</ele><time>2026-05-01T08:44:43.998Z</time></trkpt><trkpt lat="42.99539395524013" lon="11.826153934136196"><ele>806.0</ele><time>2026-05-01T08:44:44.998Z</time></trkpt><trkpt lat="42.99523871088958" lon="11.826325796820763"><ele>806.0</ele><time>2026-05-01T08:44:45.998Z</time></trkpt><trkpt lat="42.99510072134502" lon="11.826478729304508"><ele>806.0</ele><time>2026-05-01T08:44:46.998Z</time></trkpt><trkpt lat="42.99496261992746" lon="11.826631944435189"><ele>806.0</ele><time>2026-05-01T08:44:47.998Z</time></trkpt><trkpt lat="42.99480347849055" lon="11.826808586576954"><ele>807.3333333333334</ele><time>2026-05-01T08:44:48.998Z</time></trkpt><trkpt lat="42.99463415324888" lon="11.826996552858093"><ele>808.6666666666667</ele><time>2026-05-01T08:44:49.998Z</time></trkpt><trkpt lat="42.994493146469694" lon="11.827149879925033"><ele>810.0</ele><time>2026-05-01T08:44:50.998Z</time></trkpt><trkpt lat="42.99436792820229" lon="11.827295858824524"><ele>810.0</ele><time>2026-05-01T08:44:51.998Z</time></trkpt><trkpt lat="42.99422756390294" lon="11.827430401840388"><ele>810.0</ele><time>2026-05-01T08:44:52.998Z</time></trkpt><trkpt lat="42.99410069020198" lon="11.827564412432984"><ele>810.0</ele><time>2026-05-01T08:44:53.998Z</time></trkpt><trkpt lat="42.99397955153848" lon="11.827692365129938"><ele>809.75</ele><time>2026-05-01T08:44:54.998Z</time></trkpt><trkpt lat="42.99385425508873" lon="11.827824709567548"><ele>809.5</ele><time>2026-05-01T08:44:55.998Z</time></trkpt><trkpt lat="42.993740983004194" lon="11.827944353382614"><ele>809.25</ele><time>2026-05-01T08:44:56.998Z</time></trkpt><trkpt lat="42.99363446364866" lon="11.82805686457826"><ele>809.0</ele><time>2026-05-01T08:44:57.998Z</time></trkpt><trkpt lat="42.99353092151996" lon="11.828166230917484"><ele>809.0</ele><time>2026-05-01T08:44:58.998Z</time></trkpt><trkpt lat="42.99341847252168" lon="11.828285005260089"><ele>809.0</ele><time>2026-05-01T08:44:59.998Z</time></trkpt><trkpt lat="42.99332020030995" lon="11.828414705254792"><ele>809.0</ele><time>2026-05-01T08:45:00.998Z</time></trkpt><trkpt lat="42.99319899169451" lon="11.828520389378049"><ele>809.0</ele><time>2026-05-01T08:45:01.998Z</time></trkpt><trkpt lat="42.99308939376045" lon="11.828642442219921"><ele>807.6666666666667</ele><time>2026-05-01T08:45:02.998Z</time></trkpt><trkpt lat="42.992982488198294" lon="11.828773871552103"><ele>806.3333333333333</ele><time>2026-05-01T08:45:04Z</time></trkpt><trkpt lat="42.992862626672945" lon="11.82893540516058"><ele>805.0</ele><time>2026-05-01T08:45:05Z</time></trkpt><trkpt lat="42.99275613027055" lon="11.829102478185899"><ele>805.0</ele><time>2026-05-01T08:45:06Z</time></trkpt><trkpt lat="42.99265556630057" lon="11.829233551749832"><ele>805.0</ele><time>2026-05-01T08:45:07Z</time></trkpt><trkpt lat="42.99258550691889" lon="11.829382797073283"><ele>805.0</ele><time>2026-05-01T08:45:08Z</time></trkpt><trkpt lat="42.99251732348984" lon="11.829501469241068"><ele>805.0</ele><time>2026-05-01T08:45:09Z</time></trkpt><trkpt lat="42.99245446056929" lon="11.829632074506813"><ele>800.0</ele><time>2026-05-01T08:45:10Z</time></trkpt><trkpt lat="42.99240339550032" lon="11.829796089787491"><ele>795.0</ele><time>2026-05-01T08:45:11Z</time></trkpt><trkpt lat="42.99233173840269" lon="11.829993032916246"><ele>790.0</ele><time>2026-05-01T08:45:12Z</time></trkpt><trkpt lat="42.9922995424717" lon="11.830213950134928"><ele>790.0</ele><time>2026-05-01T08:45:13Z</time></trkpt><trkpt lat="42.99225139384336" lon="11.830405287208205"><ele>790.0</ele><time>2026-05-01T08:45:14Z</time></trkpt><trkpt lat="42.99217068257155" lon="11.830575295569105"><ele>790.0</ele><time>2026-05-01T08:45:15Z</time></trkpt><trkpt lat="42.99206142775108" lon="11.830746732430528"><ele>790.0</ele><time>2026-05-01T08:45:16Z</time></trkpt><trkpt lat="42.991932952342104" lon="11.830927970670825"><ele>790.0</ele><time>2026-05-01T08:45:17Z</time></trkpt><trkpt lat="42.99177716208711" lon="11.831146315013488"><ele>790.0</ele><time>2026-05-01T08:45:18Z</time></trkpt><trkpt lat="42.991614657972974" lon="11.831367365442146"><ele>789.0</ele><time>2026-05-01T08:45:19Z</time></trkpt><trkpt lat="42.991468806112785" lon="11.831564648797581"><ele>788.0</ele><time>2026-05-01T08:45:20Z</time></trkpt><trkpt lat="42.99134836324414" lon="11.831763545240737"><ele>787.0</ele><time>2026-05-01T08:45:21Z</time></trkpt><trkpt lat="42.99122073143828" lon="11.83194844479882"><ele>787.0</ele><time>2026-05-01T08:45:22Z</time></trkpt><trkpt lat="42.99106691213834" lon="11.832133843996077"><ele>787.0</ele><time>2026-05-01T08:45:23Z</time></trkpt><trkpt lat="42.99092488491933" lon="11.83232956222203"><ele>787.0</ele><time>2026-05-01T08:45:24Z</time></trkpt><trkpt lat="42.99079294665591" lon="11.832493758942045"><ele>783.6666666666666</ele><time>2026-05-01T08:45:25Z</time></trkpt><trkpt lat="42.99065876400441" lon="11.832632756535546"><ele>780.3333333333333</ele><time>2026-05-01T08:45:26Z</time></trkpt><trkpt lat="42.99051939623683" lon="11.832751248174633"><ele>777.0</ele><time>2026-05-01T08:45:27Z</time></trkpt><trkpt lat="42.99039229999182" lon="11.832864805737831"><ele>777.0</ele><time>2026-05-01T08:45:28Z</time></trkpt><trkpt lat="42.99027215533229" lon="11.83300276812648"><ele>777.0</ele><time>2026-05-01T08:45:29Z</time></trkpt><trkpt lat="42.990170532954245" lon="11.833158965318884"><ele>777.0</ele><time>2026-05-01T08:45:30Z</time></trkpt><trkpt lat="42.99005634597942" lon="11.833302472668978"><ele>773.0</ele><time>2026-05-01T08:45:31Z</time></trkpt><trkpt lat="42.98995193547992" lon="11.833444251670269"><ele>769.0</ele><time>2026-05-01T08:45:32Z</time></trkpt><trkpt lat="42.98985139185314" lon="11.833588197526337"><ele>765.0</ele><time>2026-05-01T08:45:33Z</time></trkpt><trkpt lat="42.98975130806037" lon="11.833756721014229"><ele>765.0</ele><time>2026-05-01T08:45:34Z</time></trkpt><trkpt lat="42.98963279726118" lon="11.833916179091952"><ele>765.0</ele><time>2026-05-01T08:45:35Z</time></trkpt><trkpt lat="42.98953287248228" lon="11.834079370408897"><ele>765.0</ele><time>2026-05-01T08:45:36Z</time></trkpt><trkpt lat="42.989446254845966" lon="11.834236326609767"><ele>766.0</ele><time>2026-05-01T08:45:37Z</time></trkpt><trkpt lat="42.98938992125137" lon="11.834389529120761"><ele>767.0</ele><time>2026-05-01T08:45:38Z</time></trkpt><trkpt lat="42.989329895254926" lon="11.83451271670069"><ele>768.0</ele><time>2026-05-01T08:45:39Z</time></trkpt><trkpt lat="42.98929082494083" lon="11.834637618587722"><ele>769.0</ele><time>2026-05-01T08:45:40Z</time></trkpt><trkpt lat="42.98927407476364" lon="11.834754917957609"><ele>770.0</ele><time>2026-05-01T08:45:41Z</time></trkpt><trkpt lat="42.98926840635451" lon="11.834860352039115"><ele>770.0</ele><time>2026-05-01T08:45:42Z</time></trkpt><trkpt lat="42.98925318745061" lon="11.834954952762022"><ele>770.0</ele><time>2026-05-01T08:45:43Z</time></trkpt><trkpt lat="42.98918052597581" lon="11.83504644116279"><ele>770.0</ele><time>2026-05-01T08:45:44.999Z</time></trkpt><trkpt lat="42.98906752696722" lon="11.83502111801579"><ele>770.0</ele><time>2026-05-01T08:45:46.999Z</time></trkpt><trkpt lat="42.98896904993924" lon="11.834979729395338"><ele>770.0</ele><time>2026-05-01T08:45:48.999Z</time></trkpt><trkpt lat="42.98889974858202" lon="11.834961120319523"><ele>765.6666666666667</ele><time>2026-05-01T08:45:50.999Z</time></trkpt><trkpt lat="42.9888783352472" lon="11.835391165794247"><ele>761.3333333333334</ele><time>2026-05-01T08:47:05.998Z</time></trkpt><trkpt lat="42.988847377974004" lon="11.835509710024915"><ele>757.0</ele><time>2026-05-01T08:47:06.998Z</time></trkpt><trkpt lat="42.98885133812219" lon="11.835612312290577"><ele>757.0</ele><time>2026-05-01T08:47:07.998Z</time></trkpt><trkpt lat="42.98874085664519" lon="11.835690385182827"><ele>757.0</ele><time>2026-05-01T08:47:08.998Z</time></trkpt><trkpt lat="42.98867913534745" lon="11.835775892463706"><ele>757.0</ele><time>2026-05-01T08:47:10Z</time></trkpt><trkpt lat="42.9886042543039" lon="11.83586377892982"><ele>757.0</ele><time>2026-05-01T08:47:11Z</time></trkpt><trkpt lat="42.988530230750435" lon="11.835964901765102"><ele>757.0</ele><time>2026-05-01T08:47:12Z</time></trkpt><trkpt lat="42.98846489714163" lon="11.83610303445668"><ele>758.0</ele><time>2026-05-01T08:47:13Z</time></trkpt><trkpt lat="42.98841178416384" lon="11.83630252998875"><ele>759.0</ele><time>2026-05-01T08:47:14Z</time></trkpt><trkpt lat="42.98836560569104" lon="11.836524634076127"><ele>760.0</ele><time>2026-05-01T08:47:15Z</time></trkpt><trkpt lat="42.9883228339448" lon="11.836773241437669"><ele>752.0</ele><time>2026-05-01T08:47:16Z</time></trkpt><trkpt lat="42.98828661982532" lon="11.836986420400136"><ele>744.0</ele><time>2026-05-01T08:47:17Z</time></trkpt><trkpt lat="42.98826601913815" lon="11.837184594450525"><ele>736.0</ele><time>2026-05-01T08:47:18Z</time></trkpt><trkpt lat="42.988258099123065" lon="11.837383010468981"><ele>736.0</ele><time>2026-05-01T08:47:19Z</time></trkpt><trkpt lat="42.98825037908707" lon="11.837568260108327"><ele>736.0</ele><time>2026-05-01T08:47:20Z</time></trkpt><trkpt lat="42.988245498402115" lon="11.837752452689552"><ele>736.0</ele><time>2026-05-01T08:47:21Z</time></trkpt><trkpt lat="42.98825879640218" lon="11.837920200817065"><ele>736.0</ele><time>2026-05-01T08:47:22Z</time></trkpt><trkpt lat="42.98828306514615" lon="11.838063394192119"><ele>735.6666666666667</ele><time>2026-05-01T08:47:23Z</time></trkpt><trkpt lat="42.98830211630677" lon="11.838180027472154"><ele>735.3333333333334</ele><time>2026-05-01T08:47:24Z</time></trkpt><trkpt lat="42.98827673761658" lon="11.838294405205339"><ele>735.0</ele><time>2026-05-01T08:47:25Z</time></trkpt><trkpt lat="42.98820866524296" lon="11.838359821762653"><ele>734.6666666666666</ele><time>2026-05-01T08:47:26Z</time></trkpt><trkpt lat="42.9881481716256" lon="11.838420327052756"><ele>734.3333333333333</ele><time>2026-05-01T08:47:27Z</time></trkpt><trkpt lat="42.988072259009684" lon="11.838458070140666"><ele>734.0</ele><time>2026-05-01T08:47:28Z</time></trkpt><trkpt lat="42.9879672937148" lon="11.838404278772288"><ele>734.0</ele><time>2026-05-01T08:47:29Z</time></trkpt><trkpt lat="42.98789032082113" lon="11.838286157359189"><ele>734.0</ele><time>2026-05-01T08:47:30Z</time></trkpt><trkpt lat="42.98787315988293" lon="11.838115837737625"><ele>734.0</ele><time>2026-05-01T08:47:31Z</time></trkpt><trkpt lat="42.987835297414385" lon="11.837925478948373"><ele>734.0</ele><time>2026-05-01T08:47:32Z</time></trkpt><trkpt lat="42.98782785303331" lon="11.837681309792018"><ele>734.6666666666666</ele><time>2026-05-01T08:47:33Z</time></trkpt><trkpt lat="42.98780486724382" lon="11.83742208719847"><ele>735.3333333333334</ele><time>2026-05-01T08:47:34Z</time></trkpt><trkpt lat="42.98778117314087" lon="11.83721989820681"><ele>736.0</ele><time>2026-05-01T08:47:35Z</time></trkpt><trkpt lat="42.98776224674013" lon="11.837047192688907"><ele>736.0</ele><time>2026-05-01T08:47:36Z</time></trkpt><trkpt lat="42.987757438742605" lon="11.83690450674803"><ele>736.0</ele><time>2026-05-01T08:47:37Z</time></trkpt><trkpt lat="42.987722784463465" lon="11.836772965471667"><ele>736.0</ele><time>2026-05-01T08:47:38Z</time></trkpt><trkpt lat="42.98765921434975" lon="11.836666276195114"><ele>736.0</ele><time>2026-05-01T08:47:39Z</time></trkpt><trkpt lat="42.98757442712509" lon="11.836593645795094"><ele>736.0</ele><time>2026-05-01T08:47:40Z</time></trkpt><trkpt lat="42.987474140211155" lon="11.836550802819056"><ele>732.0</ele><time>2026-05-01T08:47:41Z</time></trkpt><trkpt lat="42.9873779563703" lon="11.836596597660261"><ele>728.0</ele><time>2026-05-01T08:47:42Z</time></trkpt><trkpt lat="42.98729699465638" lon="11.83668058628054"><ele>724.0</ele><time>2026-05-01T08:47:43Z</time></trkpt><trkpt lat="42.98724273635334" lon="11.836793028505769"><ele>720.0</ele><time>2026-05-01T08:47:44Z</time></trkpt><trkpt lat="42.987227700690575" lon="11.836935310160777"><ele>716.0</ele><time>2026-05-01T08:47:45Z</time></trkpt><trkpt lat="42.987245955469625" lon="11.837126708937213"><ele>715.3333333333333</ele><time>2026-05-01T08:47:46Z</time></trkpt><trkpt lat="42.987269250158185" lon="11.837369370890901"><ele>714.6666666666666</ele><time>2026-05-01T08:47:47Z</time></trkpt><trkpt lat="42.98729860524167" lon="11.837625936587711"><ele>714.0</ele><time>2026-05-01T08:47:48Z</time></trkpt><trkpt lat="42.98729697937966" lon="11.837839076854772"><ele>712.75</ele><time>2026-05-01T08:47:49Z</time></trkpt><trkpt lat="42.98730627192266" lon="11.838039816918897"><ele>711.5</ele><time>2026-05-01T08:47:50Z</time></trkpt><trkpt lat="42.98730152058622" lon="11.838236371605449"><ele>710.25</ele><time>2026-05-01T08:47:51Z</time></trkpt><trkpt lat="42.987287709028806" lon="11.838446976324464"><ele>709.0</ele><time>2026-05-01T08:47:51.999Z</time></trkpt><trkpt lat="42.98724095751794" lon="11.83866882929368"><ele>707.0</ele><time>2026-05-01T08:47:52.999Z</time></trkpt><trkpt lat="42.987204792053085" lon="11.838855849124222"><ele>705.0</ele><time>2026-05-01T08:47:53.999Z</time></trkpt><trkpt lat="42.98718622358538" lon="11.839018223942974"><ele>703.0</ele><time>2026-05-01T08:47:54.999Z</time></trkpt><trkpt lat="42.98719322800924" lon="11.839158881062241"><ele>701.0</ele><time>2026-05-01T08:47:55.999Z</time></trkpt><trkpt lat="42.98725646846909" lon="11.839264300314744"><ele>703.25</ele><time>2026-05-01T08:47:56.999Z</time></trkpt><trkpt lat="42.9873209604271" lon="11.839376021666427"><ele>705.5</ele><time>2026-05-01T08:47:57.999Z</time></trkpt><trkpt lat="42.987411129513596" lon="11.839492344184352"><ele>707.75</ele><time>2026-05-01T08:47:58.999Z</time></trkpt><trkpt lat="42.98751608827975" lon="11.839647566955396"><ele>710.0</ele><time>2026-05-01T08:47:59.999Z</time></trkpt><trkpt lat="42.98763590297771" lon="11.839843677888584"><ele>710.0</ele><time>2026-05-01T08:48:00.999Z</time></trkpt><trkpt lat="42.9877247727769" lon="11.840063434233578"><ele>710.0</ele><time>2026-05-01T08:48:01.999Z</time></trkpt><trkpt lat="42.98780350629948" lon="11.84024809315973"><ele>710.0</ele><time>2026-05-01T08:48:02.999Z</time></trkpt><trkpt lat="42.987866407468964" lon="11.840459115939959"><ele>704.6666666666666</ele><time>2026-05-01T08:48:03.999Z</time></trkpt><trkpt lat="42.987939793709465" lon="11.84068093834863"><ele>699.3333333333334</ele><time>2026-05-01T08:48:04.999Z</time></trkpt><trkpt lat="42.98801168664008" lon="11.840920313572123"><ele>694.0</ele><time>2026-05-01T08:48:05.999Z</time></trkpt><trkpt lat="42.988089205565636" lon="11.8411332228495"><ele>690.75</ele><time>2026-05-01T08:48:06.999Z</time></trkpt><trkpt lat="42.98813971083955" lon="11.841329082934084"><ele>687.5</ele><time>2026-05-01T08:48:07.999Z</time></trkpt><trkpt lat="42.988188465279734" lon="11.841500271918461"><ele>684.25</ele><time>2026-05-01T08:48:08.999Z</time></trkpt><trkpt lat="42.98823512480168" lon="11.841629678326226"><ele>681.0</ele><time>2026-05-01T08:48:09.999Z</time></trkpt><trkpt lat="42.9882985296188" lon="11.841713965542567"><ele>680.25</ele><time>2026-05-01T08:48:10.999Z</time></trkpt><trkpt lat="42.988382730113365" lon="11.84173303096239"><ele>679.5</ele><time>2026-05-01T08:48:11.999Z</time></trkpt><trkpt lat="42.98850255294323" lon="11.841704885745905"><ele>678.75</ele><time>2026-05-01T08:48:12.999Z</time></trkpt><trkpt lat="42.98866101540712" lon="11.841659848084964"><ele>678.0</ele><time>2026-05-01T08:48:13.999Z</time></trkpt><trkpt lat="42.98880728034896" lon="11.841679940000658"><ele>678.0</ele><time>2026-05-01T08:48:14.999Z</time></trkpt><trkpt lat="42.9889353619856" lon="11.841698558643884"><ele>678.0</ele><time>2026-05-01T08:48:15.999Z</time></trkpt><trkpt lat="42.9890520224074" lon="11.841723364024373"><ele>678.0</ele><time>2026-05-01T08:48:16.999Z</time></trkpt><trkpt lat="42.9891645652606" lon="11.841755941513187"><ele>678.0</ele><time>2026-05-01T08:48:17.999Z</time></trkpt><trkpt lat="42.98926821946403" lon="11.84178224425316"><ele>681.75</ele><time>2026-05-01T08:48:18.999Z</time></trkpt><trkpt lat="42.9893526414068" lon="11.841866854535482"><ele>685.5</ele><time>2026-05-01T08:48:19.999Z</time></trkpt><trkpt lat="42.98939815164498" lon="11.842024593720872"><ele>689.25</ele><time>2026-05-01T08:48:20.999Z</time></trkpt><trkpt lat="42.989448846279146" lon="11.842188365166484"><ele>693.0</ele><time>2026-05-01T08:48:21.999Z</time></trkpt><trkpt lat="42.9894012780693" lon="11.842381641895269"><ele>693.0</ele><time>2026-05-01T08:48:22.999Z</time></trkpt><trkpt lat="42.989358792913144" lon="11.842579271966777"><ele>693.0</ele><time>2026-05-01T08:48:23.999Z</time></trkpt><trkpt lat="42.9892955513487" lon="11.84281711784825"><ele>693.0</ele><time>2026-05-01T08:48:24.999Z</time></trkpt><trkpt lat="42.98924417670793" lon="11.843041895495421"><ele>691.5</ele><time>2026-05-01T08:48:25.999Z</time></trkpt><trkpt lat="42.98918661126518" lon="11.843243432403646"><ele>690.0</ele><time>2026-05-01T08:48:26.999Z</time></trkpt><trkpt lat="42.98914369550803" lon="11.84341165976875"><ele>688.5</ele><time>2026-05-01T08:48:27.999Z</time></trkpt><trkpt lat="42.989108773530056" lon="11.843571672025067"><ele>687.0</ele><time>2026-05-01T08:48:28.999Z</time></trkpt><trkpt lat="42.9891447457721" lon="11.843756925428147"><ele>686.25</ele><time>2026-05-01T08:48:29.999Z</time></trkpt><trkpt lat="42.989196491908295" lon="11.843958011889857"><ele>685.5</ele><time>2026-05-01T08:48:30.999Z</time></trkpt><trkpt lat="42.989213717683924" lon="11.844132141673844"><ele>684.75</ele><time>2026-05-01T08:48:31.999Z</time></trkpt><trkpt lat="42.9891960530719" lon="11.844286910351087"><ele>684.0</ele><time>2026-05-01T08:48:32.999Z</time></trkpt><trkpt lat="42.989137697527376" lon="11.844458897861605"><ele>676.6666666666666</ele><time>2026-05-01T08:48:33.999Z</time></trkpt><trkpt lat="42.98906544147298" lon="11.844644451529287"><ele>669.3333333333333</ele><time>2026-05-01T08:48:34.999Z</time></trkpt><trkpt lat="42.98903782373597" lon="11.844836899387365"><ele>662.0</ele><time>2026-05-01T08:48:35.999Z</time></trkpt><trkpt lat="42.98902286580147" lon="11.845062746175179"><ele>660.25</ele><time>2026-05-01T08:48:36.999Z</time></trkpt><trkpt lat="42.98903088943069" lon="11.845272638629636"><ele>658.5</ele><time>2026-05-01T08:48:37.999Z</time></trkpt><trkpt lat="42.98904665082222" lon="11.845431589280809"><ele>656.75</ele><time>2026-05-01T08:48:38.999Z</time></trkpt><trkpt lat="42.98908422703961" lon="11.845556435352737"><ele>655.0</ele><time>2026-05-01T08:48:39.999Z</time></trkpt><trkpt lat="42.98917852392485" lon="11.845665276155442"><ele>658.5</ele><time>2026-05-01T08:48:40.999Z</time></trkpt><trkpt lat="42.98930324126481" lon="11.845763176196984"><ele>662.0</ele><time>2026-05-01T08:48:41.999Z</time></trkpt><trkpt lat="42.98941380758717" lon="11.845864616640622"><ele>665.5</ele><time>2026-05-01T08:48:42.999Z</time></trkpt><trkpt lat="42.989451439895824" lon="11.84601481937943"><ele>669.0</ele><time>2026-05-01T08:48:43.999Z</time></trkpt><trkpt lat="42.98945311009603" lon="11.846186553571943"><ele>669.0</ele><time>2026-05-01T08:48:44.999Z</time></trkpt><trkpt lat="42.989459938190244" lon="11.846398347660871"><ele>669.0</ele><time>2026-05-01T08:48:45.999Z</time></trkpt><trkpt lat="42.989477502883524" lon="11.846647592119265"><ele>669.0</ele><time>2026-05-01T08:48:46.999Z</time></trkpt><trkpt lat="42.989526436641874" lon="11.846889364379539"><ele>667.0</ele><time>2026-05-01T08:48:47.999Z</time></trkpt><trkpt lat="42.98955977362021" lon="11.847116832612313"><ele>665.0</ele><time>2026-05-01T08:48:48.999Z</time></trkpt><trkpt lat="42.98960247377762" lon="11.847332298947906"><ele>663.0</ele><time>2026-05-01T08:48:49.999Z</time></trkpt><trkpt lat="42.98963921130322" lon="11.847552668646971"><ele>659.0</ele><time>2026-05-01T08:48:50.999Z</time></trkpt><trkpt lat="42.98968842990008" lon="11.84778169319191"><ele>655.0</ele><time>2026-05-01T08:48:51.999Z</time></trkpt><trkpt lat="42.98975724579103" lon="11.848014293478725"><ele>651.0</ele><time>2026-05-01T08:48:52.999Z</time></trkpt><trkpt lat="42.98981274091063" lon="11.84822372912364"><ele>651.0</ele><time>2026-05-01T08:48:53.999Z</time></trkpt><trkpt lat="42.9898763870129" lon="11.848412665602218"><ele>651.0</ele><time>2026-05-01T08:48:54.999Z</time></trkpt><trkpt lat="42.98995348821187" lon="11.848584084284195"><ele>651.0</ele><time>2026-05-01T08:48:55.998Z</time></trkpt><trkpt lat="42.990025689955345" lon="11.848725367686946"><ele>651.0</ele><time>2026-05-01T08:48:56.998Z</time></trkpt><trkpt lat="42.990051012559725" lon="11.848877165488947"><ele>654.6666666666666</ele><time>2026-05-01T08:48:57.998Z</time></trkpt><trkpt lat="42.99004264569606" lon="11.849041871644031"><ele>658.3333333333333</ele><time>2026-05-01T08:48:58.998Z</time></trkpt><trkpt lat="42.99001288359455" lon="11.849245974510557"><ele>662.0</ele><time>2026-05-01T08:48:59.998Z</time></trkpt><trkpt lat="42.98998925876971" lon="11.84949626364576"><ele>658.25</ele><time>2026-05-01T08:49:00.998Z</time></trkpt><trkpt lat="42.989967464424055" lon="11.849708506226893"><ele>654.5</ele><time>2026-05-01T08:49:01.998Z</time></trkpt><trkpt lat="42.98997419977575" lon="11.849888521002075"><ele>650.75</ele><time>2026-05-01T08:49:02.998Z</time></trkpt><trkpt lat="42.99001553606871" lon="11.850052771757436"><ele>647.0</ele><time>2026-05-01T08:49:03.998Z</time></trkpt><trkpt lat="42.99008019257771" lon="11.85020781295966"><ele>642.0</ele><time>2026-05-01T08:49:04.998Z</time></trkpt><trkpt lat="42.990175544676326" lon="11.850336461103373"><ele>637.0</ele><time>2026-05-01T08:49:05.998Z</time></trkpt><trkpt lat="42.99029118877484" lon="11.850440491320294"><ele>632.0</ele><time>2026-05-01T08:49:06.998Z</time></trkpt><trkpt lat="42.99041351347235" lon="11.850506691821737"><ele>627.0</ele><time>2026-05-01T08:49:07.998Z</time></trkpt><trkpt lat="42.990544786978695" lon="11.850523846970074"><ele>627.0</ele><time>2026-05-01T08:49:08.998Z</time></trkpt><trkpt lat="42.990683039719926" lon="11.850489954011964"><ele>627.0</ele><time>2026-05-01T08:49:09.998Z</time></trkpt><trkpt lat="42.9908044623439" lon="11.850441558665937"><ele>627.0</ele><time>2026-05-01T08:49:10.998Z</time></trkpt><trkpt lat="42.990902919290356" lon="11.85046761953756"><ele>627.0</ele><time>2026-05-01T08:49:11.998Z</time></trkpt><trkpt lat="42.99098718667513" lon="11.850512860807866"><ele>627.25</ele><time>2026-05-01T08:49:12.998Z</time></trkpt><trkpt lat="42.991063026419724" lon="11.850657146924219"><ele>627.5</ele><time>2026-05-01T08:49:13.998Z</time></trkpt><trkpt lat="42.991160686709826" lon="11.850833286079808"><ele>627.75</ele><time>2026-05-01T08:49:14.998Z</time></trkpt><trkpt lat="42.991268726333615" lon="11.850984596954472"><ele>628.0</ele><time>2026-05-01T08:49:16Z</time></trkpt><trkpt lat="42.99140625129663" lon="11.851057103299919"><ele>628.0</ele><time>2026-05-01T08:49:17Z</time></trkpt><trkpt lat="42.991496497305256" lon="11.851173948502009"><ele>628.0</ele><time>2026-05-01T08:49:18Z</time></trkpt><trkpt lat="42.99154451831513" lon="11.851303573191029"><ele>628.0</ele><time>2026-05-01T08:49:19Z</time></trkpt><trkpt lat="42.99156497457758" lon="11.851461646858057"><ele>628.0</ele><time>2026-05-01T08:49:20Z</time></trkpt><trkpt lat="42.991557161321026" lon="11.851664157996947"><ele>625.3333333333334</ele><time>2026-05-01T08:49:21Z</time></trkpt><trkpt lat="42.99154746614866" lon="11.851912940567342"><ele>622.6666666666666</ele><time>2026-05-01T08:49:22Z</time></trkpt><trkpt lat="42.99156087969934" lon="11.85214322652976"><ele>620.0</ele><time>2026-05-01T08:49:23Z</time></trkpt><trkpt lat="42.99159154048225" lon="11.852318545396997"><ele>620.0</ele><time>2026-05-01T08:49:24Z</time></trkpt><trkpt lat="42.991647469012555" lon="11.852453350094143"><ele>620.0</ele><time>2026-05-01T08:49:25Z</time></trkpt><trkpt lat="42.99172510002289" lon="11.852556965954552"><ele>620.0</ele><time>2026-05-01T08:49:26Z</time></trkpt><trkpt lat="42.991840960604605" lon="11.852644125064584"><ele>620.0</ele><time>2026-05-01T08:49:27Z</time></trkpt><trkpt lat="42.99194055019091" lon="11.852765087564904"><ele>620.25</ele><time>2026-05-01T08:49:28Z</time></trkpt><trkpt lat="42.99200830546375" lon="11.852892236587046"><ele>620.5</ele><time>2026-05-01T08:49:29Z</time></trkpt><trkpt lat="42.991983913057325" lon="11.853075791181674"><ele>620.75</ele><time>2026-05-01T08:49:30Z</time></trkpt><trkpt lat="42.99202474933455" lon="11.853293302314844"><ele>621.0</ele><time>2026-05-01T08:49:31Z</time></trkpt><trkpt lat="42.99210158780896" lon="11.853469367365234"><ele>616.25</ele><time>2026-05-01T08:49:32Z</time></trkpt><trkpt lat="42.99216934005818" lon="11.853628720276072"><ele>611.5</ele><time>2026-05-01T08:49:33Z</time></trkpt><trkpt lat="42.992259155834596" lon="11.853786252236553"><ele>606.75</ele><time>2026-05-01T08:49:34Z</time></trkpt><trkpt lat="42.992367130124265" lon="11.853900272515004"><ele>602.0</ele><time>2026-05-01T08:49:35Z</time></trkpt><trkpt lat="42.992487788636154" lon="11.853987213164865"><ele>603.5</ele><time>2026-05-01T08:49:36Z</time></trkpt><trkpt lat="42.992614006426166" lon="11.854042660060006"><ele>605.0</ele><time>2026-05-01T08:49:37Z</time></trkpt><trkpt lat="42.992739715358205" lon="11.854055300346019"><ele>606.5</ele><time>2026-05-01T08:49:38Z</time></trkpt><trkpt lat="42.992851618638646" lon="11.854054175233097"><ele>608.0</ele><time>2026-05-01T08:49:39Z</time></trkpt><trkpt lat="42.99291593559202" lon="11.854152125306559"><ele>608.0</ele><time>2026-05-01T08:49:40Z</time></trkpt><trkpt lat="42.99296687941785" lon="11.854265776926018"><ele>608.0</ele><time>2026-05-01T08:49:41Z</time></trkpt><trkpt lat="42.99297126651406" lon="11.854421590979852"><ele>608.0</ele><time>2026-05-01T08:49:42Z</time></trkpt><trkpt lat="42.992942257441804" lon="11.85457304548861"><ele>608.0</ele><time>2026-05-01T08:49:43Z</time></trkpt><trkpt lat="42.99290430655646" lon="11.854703384252403"><ele>608.0</ele><time>2026-05-01T08:49:44Z</time></trkpt><trkpt lat="42.99284333277458" lon="11.854817044680555"><ele>604.0</ele><time>2026-05-01T08:49:45Z</time></trkpt><trkpt lat="42.99273677329015" lon="11.854928579869636"><ele>600.0</ele><time>2026-05-01T08:49:46Z</time></trkpt><trkpt lat="42.99257052929571" lon="11.85498250325969"><ele>596.0</ele><time>2026-05-01T08:49:47Z</time></trkpt><trkpt lat="42.992377792889144" lon="11.855075389425243"><ele>591.3333333333333</ele><time>2026-05-01T08:49:48Z</time></trkpt><trkpt lat="42.99219517745346" lon="11.85518622780281"><ele>586.6666666666666</ele><time>2026-05-01T08:49:49Z</time></trkpt><trkpt lat="42.99203895436552" lon="11.85524058059018"><ele>582.0</ele><time>2026-05-01T08:49:50Z</time></trkpt><trkpt lat="42.99190329827622" lon="11.855270760681755"><ele>582.0</ele><time>2026-05-01T08:49:51Z</time></trkpt><trkpt lat="42.99181112371623" lon="11.85525843492759"><ele>582.0</ele><time>2026-05-01T08:49:52Z</time></trkpt><trkpt lat="42.99173663231906" lon="11.855241413991234"><ele>582.0</ele><time>2026-05-01T08:49:53Z</time></trkpt><trkpt lat="42.991623056879035" lon="11.855273370340479"><ele>582.0</ele><time>2026-05-01T08:49:55Z</time></trkpt><trkpt lat="42.99155391935966" lon="11.855299522642667"><ele>582.0</ele><time>2026-05-01T08:49:56Z</time></trkpt><trkpt lat="42.99149019979859" lon="11.85535672297638"><ele>582.0</ele><time>2026-05-01T08:49:57Z</time></trkpt><trkpt lat="42.99144361209267" lon="11.855432834298039"><ele>581.5</ele><time>2026-05-01T08:49:58Z</time></trkpt><trkpt lat="42.99139151641169" lon="11.855500568756469"><ele>581.0</ele><time>2026-05-01T08:49:59Z</time></trkpt><trkpt lat="42.991340037270504" lon="11.8555864190576"><ele>580.5</ele><time>2026-05-01T08:50:00Z</time></trkpt><trkpt lat="42.991315166911164" lon="11.855686104093342"><ele>580.0</ele><time>2026-05-01T08:50:01Z</time></trkpt><trkpt lat="42.99130100474338" lon="11.855787838721145"><ele>579.5</ele><time>2026-05-01T08:50:01.999Z</time></trkpt><trkpt lat="42.99128124964368" lon="11.85589477512002"><ele>579.0</ele><time>2026-05-01T08:50:02.999Z</time></trkpt><trkpt lat="42.991267265148515" lon="11.856000082653143"><ele>575.6666666666666</ele><time>2026-05-01T08:50:03.999Z</time></trkpt><trkpt lat="42.991254816294415" lon="11.85610740856956"><ele>572.3333333333334</ele><time>2026-05-01T08:50:04.999Z</time></trkpt><trkpt lat="42.99124215847691" lon="11.856216535178143"><ele>569.0</ele><time>2026-05-01T08:50:05.999Z</time></trkpt><trkpt lat="42.991220740411286" lon="11.856324283758847"><ele>565.6666666666667</ele><time>2026-05-01T08:50:06.999Z</time></trkpt><trkpt lat="42.991186682720745" lon="11.85643089787332"><ele>562.3333333333334</ele><time>2026-05-01T08:50:07.999Z</time></trkpt><trkpt lat="42.991139406479185" lon="11.856529474239776"><ele>559.0</ele><time>2026-05-01T08:50:08.999Z</time></trkpt><trkpt lat="42.99108366930513" lon="11.856616048649142"><ele>559.0</ele><time>2026-05-01T08:50:09.999Z</time></trkpt><trkpt lat="42.99100696730239" lon="11.856689744673027"><ele>559.0</ele><time>2026-05-01T08:50:10.999Z</time></trkpt><trkpt lat="42.99091923592481" lon="11.856741430301945"><ele>559.0</ele><time>2026-05-01T08:50:11.999Z</time></trkpt><trkpt lat="42.99082124679093" lon="11.856798559769926"><ele>559.0</ele><time>2026-05-01T08:50:12.999Z</time></trkpt><trkpt lat="42.99070599320778" lon="11.856881839227741"><ele>559.0</ele><time>2026-05-01T08:50:13.999Z</time></trkpt><trkpt lat="42.99053650200455" lon="11.85695207177863"><ele>555.6666666666667</ele><time>2026-05-01T08:50:14.999Z</time></trkpt><trkpt lat="42.99038928050813" lon="11.85699632715904"><ele>552.3333333333334</ele><time>2026-05-01T08:50:15.999Z</time></trkpt><trkpt lat="42.99025481441723" lon="11.857070306824491"><ele>549.0</ele><time>2026-05-01T08:50:16.999Z</time></trkpt><trkpt lat="42.990119883569605" lon="11.857191249970015"><ele>549.0</ele><time>2026-05-01T08:50:17.999Z</time></trkpt><trkpt lat="42.99001013796357" lon="11.857338503177942"><ele>549.0</ele><time>2026-05-01T08:50:18.999Z</time></trkpt><trkpt lat="42.98991326760208" lon="11.857446454533173"><ele>549.0</ele><time>2026-05-01T08:50:19.999Z</time></trkpt><trkpt lat="42.9898297540529" lon="11.857559756297402"><ele>549.0</ele><time>2026-05-01T08:50:20.999Z</time></trkpt><trkpt lat="42.989725956836516" lon="11.857620252226583"><ele>550.6</ele><time>2026-05-01T08:50:21.999Z</time></trkpt><trkpt lat="42.98960757531494" lon="11.857605965075406"><ele>552.2</ele><time>2026-05-01T08:50:22.999Z</time></trkpt><trkpt lat="42.98949493471581" lon="11.857626566208996"><ele>553.8000000000001</ele><time>2026-05-01T08:50:23.999Z</time></trkpt><trkpt lat="42.98939297949862" lon="11.857614932555435"><ele>555.4</ele><time>2026-05-01T08:50:24.999Z</time></trkpt><trkpt lat="42.98930851304001" lon="11.857632494265944"><ele>557.0</ele><time>2026-05-01T08:50:25.999Z</time></trkpt><trkpt lat="42.989240818541894" lon="11.857682070394654"><ele>553.75</ele><time>2026-05-01T08:50:26.999Z</time></trkpt><trkpt lat="42.989190764589665" lon="11.857771255166648"><ele>550.5</ele><time>2026-05-01T08:50:27.999Z</time></trkpt><trkpt lat="42.98914818801056" lon="11.857856419354723"><ele>547.25</ele><time>2026-05-01T08:50:28.999Z</time></trkpt><trkpt lat="42.98921332093482" lon="11.858053169306249"><ele>544.0</ele><time>2026-05-01T08:50:29.999Z</time></trkpt><trkpt lat="42.98922431828545" lon="11.858239651723187"><ele>543.0</ele><time>2026-05-01T08:50:30.999Z</time></trkpt><trkpt lat="42.98925034754996" lon="11.858433216336337"><ele>542.0</ele><time>2026-05-01T08:50:31.999Z</time></trkpt><trkpt lat="42.98929094932755" lon="11.858649547196578"><ele>541.0</ele><time>2026-05-01T08:50:32.999Z</time></trkpt><trkpt lat="42.98932337448791" lon="11.858894690125409"><ele>540.0</ele><time>2026-05-01T08:50:33.999Z</time></trkpt><trkpt lat="42.98935550138969" lon="11.859151106249406"><ele>539.0</ele><time>2026-05-01T08:50:34.999Z</time></trkpt><trkpt lat="42.98938573707085" lon="11.859405363117448"><ele>538.0</ele><time>2026-05-01T08:50:35.999Z</time></trkpt><trkpt lat="42.98941793528879" lon="11.859647596530381"><ele>538.0</ele><time>2026-05-01T08:50:36.999Z</time></trkpt><trkpt lat="42.98944707252827" lon="11.859856452412167"><ele>538.0</ele><time>2026-05-01T08:50:37.999Z</time></trkpt><trkpt lat="42.989474784170184" lon="11.860060796516573"><ele>538.0</ele><time>2026-05-01T08:50:38.999Z</time></trkpt><trkpt lat="42.98948388718826" lon="11.860256097829286"><ele>537.3333333333334</ele><time>2026-05-01T08:50:39.999Z</time></trkpt><trkpt lat="42.989506977232416" lon="11.860444206958572"><ele>536.6666666666666</ele><time>2026-05-01T08:50:40.999Z</time></trkpt><trkpt lat="42.98955357121549" lon="11.860774506030255"><ele>536.0</ele><time>2026-05-01T08:50:42.999Z</time></trkpt><trkpt lat="42.9895774231071" lon="11.860929748223809"><ele>536.0</ele><time>2026-05-01T08:50:43.999Z</time></trkpt><trkpt lat="42.989616837984336" lon="11.861081623678782"><ele>536.0</ele><time>2026-05-01T08:50:44.999Z</time></trkpt><trkpt lat="42.98962202622229" lon="11.861238001742121"><ele>536.0</ele><time>2026-05-01T08:50:45.999Z</time></trkpt><trkpt lat="42.98964062594685" lon="11.861378615866123"><ele>536.0</ele><time>2026-05-01T08:50:46.999Z</time></trkpt><trkpt lat="42.98966173375456" lon="11.861538191550002"><ele>536.0</ele><time>2026-05-01T08:50:47.999Z</time></trkpt><trkpt lat="42.98968888813017" lon="11.861744972371676"><ele>536.0</ele><time>2026-05-01T08:50:48.999Z</time></trkpt><trkpt lat="42.98971797343345" lon="11.861956603308514"><ele>536.0</ele><time>2026-05-01T08:50:49.999Z</time></trkpt><trkpt lat="42.98974704825712" lon="11.862164868309176"><ele>535.3333333333333</ele><time>2026-05-01T08:50:50.999Z</time></trkpt><trkpt lat="42.98977556071023" lon="11.862369105044243"><ele>534.6666666666666</ele><time>2026-05-01T08:50:51.999Z</time></trkpt><trkpt lat="42.98980689508445" lon="11.862593555382144"><ele>534.0</ele><time>2026-05-01T08:50:52.999Z</time></trkpt><trkpt lat="42.989836875812095" lon="11.862808309724887"><ele>533.75</ele><time>2026-05-01T08:50:53.999Z</time></trkpt><trkpt lat="42.98986461775635" lon="11.863007027100032"><ele>533.5</ele><time>2026-05-01T08:50:54.999Z</time></trkpt><trkpt lat="42.98988930292494" lon="11.863190931993316"><ele>533.25</ele><time>2026-05-01T08:50:55.999Z</time></trkpt><trkpt lat="42.98991515460835" lon="11.863384678002456"><ele>533.0</ele><time>2026-05-01T08:50:56.999Z</time></trkpt><trkpt lat="42.98993925020524" lon="11.863562173517286"><ele>533.0</ele><time>2026-05-01T08:50:57.999Z</time></trkpt><trkpt lat="42.9899737294562" lon="11.863720089391878"><ele>533.0</ele><time>2026-05-01T08:50:58.999Z</time></trkpt><trkpt lat="42.98998117791686" lon="11.863867940819125"><ele>533.0</ele><time>2026-05-01T08:50:59.999Z</time></trkpt><trkpt lat="42.99003219994827" lon="11.864000215671487"><ele>533.0</ele><time>2026-05-01T08:51:00.999Z</time></trkpt><trkpt lat="42.990058819174486" lon="11.8641296177263"><ele>533.0</ele><time>2026-05-01T08:51:01.999Z</time></trkpt><trkpt lat="42.99007450021419" lon="11.864288544768327"><ele>533.6</ele><time>2026-05-01T08:51:02.999Z</time></trkpt><trkpt lat="42.99008927165943" lon="11.864470919746623"><ele>534.1999999999999</ele><time>2026-05-01T08:51:03.999Z</time></trkpt><trkpt lat="42.990084599916266" lon="11.864619379560443"><ele>534.8</ele><time>2026-05-01T08:51:04.998Z</time></trkpt><trkpt lat="42.990099427242995" lon="11.864736114600646"><ele>535.4</ele><time>2026-05-01T08:51:05.998Z</time></trkpt><trkpt lat="42.99010925992244" lon="11.864837330939896"><ele>536.0</ele><time>2026-05-01T08:51:06.998Z</time></trkpt><trkpt lat="42.99012270998934" lon="11.864975785603907"><ele>536.0</ele><time>2026-05-01T08:51:08.998Z</time></trkpt><trkpt lat="42.99013482058855" lon="11.865064692064433"><ele>536.0</ele><time>2026-05-01T08:51:33Z</time></trkpt><trkpt lat="42.99007402690846" lon="11.86509820200248"><ele>536.0</ele><time>2026-05-01T08:51:34Z</time></trkpt><trkpt lat="42.9899981461922" lon="11.865176645831733"><ele>536.0</ele><time>2026-05-01T08:51:35Z</time></trkpt><trkpt lat="42.98991242171133" lon="11.865240528667192"><ele>536.0</ele><time>2026-05-01T08:51:36Z</time></trkpt><trkpt lat="42.989824238570044" lon="11.86531535117389"><ele>536.0</ele><time>2026-05-01T08:51:37Z</time></trkpt><trkpt lat="42.98973146699726" lon="11.86538657628509"><ele>537.3333333333333</ele><time>2026-05-01T08:51:38Z</time></trkpt><trkpt lat="42.98965945518801" lon="11.865480087212676"><ele>538.6666666666666</ele><time>2026-05-01T08:51:39Z</time></trkpt><trkpt lat="42.98960690256036" lon="11.865579417877782"><ele>540.0</ele><time>2026-05-01T08:51:40Z</time></trkpt><trkpt lat="42.98957986895139" lon="11.865690017839176"><ele>541.3333333333334</ele><time>2026-05-01T08:51:41Z</time></trkpt><trkpt lat="42.989526403996244" lon="11.865775606706865"><ele>542.6666666666667</ele><time>2026-05-01T08:51:42Z</time></trkpt><trkpt lat="42.98949084718421" lon="11.865868044984614"><ele>544.0</ele><time>2026-05-01T08:51:43Z</time></trkpt><trkpt lat="42.98946780026371" lon="11.86597409824276"><ele>545.1666666666667</ele><time>2026-05-01T08:51:44Z</time></trkpt><trkpt lat="42.98942873965334" lon="11.866065392763602"><ele>546.3333333333334</ele><time>2026-05-01T08:51:45Z</time></trkpt><trkpt lat="42.98938985913607" lon="11.866154295178792"><ele>547.5</ele><time>2026-05-01T08:51:46Z</time></trkpt><trkpt lat="42.98934226023048" lon="11.866222409693197"><ele>548.6666666666666</ele><time>2026-05-01T08:51:47Z</time></trkpt><trkpt lat="42.989288164367395" lon="11.866345793072425"><ele>549.8333333333333</ele><time>2026-05-01T08:51:49Z</time></trkpt><trkpt lat="42.98918958995412" lon="11.866302634676494"><ele>551.0</ele><time>2026-05-01T08:51:51Z</time></trkpt><trkpt lat="42.98913438626727" lon="11.86610066187893"><ele>547.6</ele><time>2026-05-01T08:51:53Z</time></trkpt><trkpt lat="42.989098785489155" lon="11.865966227531771"><ele>544.2</ele><time>2026-05-01T08:51:54Z</time></trkpt><trkpt lat="42.98905974478859" lon="11.865837071125567"><ele>540.8</ele><time>2026-05-01T08:51:55Z</time></trkpt><trkpt lat="42.98902489562701" lon="11.865715514315308"><ele>537.4</ele><time>2026-05-01T08:51:56Z</time></trkpt><trkpt lat="42.98899554670624" lon="11.865613496610237"><ele>534.0</ele><time>2026-05-01T08:51:57Z</time></trkpt><trkpt lat="42.98897395260381" lon="11.865514223782421"><ele>534.0</ele><time>2026-05-01T08:51:58Z</time></trkpt><trkpt lat="42.98896432608698" lon="11.865416396058215"><ele>534.0</ele><time>2026-05-01T08:51:59Z</time></trkpt><trkpt lat="42.988938598262585" lon="11.86528421761324"><ele>534.0</ele><time>2026-05-01T08:52:01Z</time></trkpt><trkpt lat="42.98881814652469" lon="11.865292210918238"><ele>534.0</ele><time>2026-05-01T08:52:02Z</time></trkpt><trkpt lat="42.98868443309037" lon="11.86526806013614"><ele>534.0</ele><time>2026-05-01T08:52:04Z</time></trkpt><trkpt lat="42.98860174730212" lon="11.865262553509721"><ele>534.0</ele><time>2026-05-01T08:52:05Z</time></trkpt><trkpt lat="42.98851603108587" lon="11.865255205532522"><ele>534.0</ele><time>2026-05-01T08:52:06Z</time></trkpt><trkpt lat="42.988442042413716" lon="11.865243888935124"><ele>534.0</ele><time>2026-05-01T08:52:07Z</time></trkpt><trkpt lat="42.98836994508713" lon="11.865226356693636"><ele>534.0</ele><time>2026-05-01T08:52:08Z</time></trkpt><trkpt lat="42.98829111475843" lon="11.865197414775382"><ele>534.0</ele><time>2026-05-01T08:52:09Z</time></trkpt><trkpt lat="42.988198200199164" lon="11.865203710139328"><ele>534.0</ele><time>2026-05-01T08:52:09.999Z</time></trkpt><trkpt lat="42.988123257491246" lon="11.865173563961871"><ele>533.6</ele><time>2026-05-01T08:52:10.999Z</time></trkpt><trkpt lat="42.98805182680816" lon="11.865117586785269"><ele>533.2</ele><time>2026-05-01T08:52:11.999Z</time></trkpt><trkpt lat="42.98797950703699" lon="11.865064071139646"><ele>532.8000000000001</ele><time>2026-05-01T08:52:12.999Z</time></trkpt><trkpt lat="42.98791910124282" lon="11.865013296192842"><ele>532.4</ele><time>2026-05-01T08:52:13.999Z</time></trkpt><trkpt lat="42.987816295845334" lon="11.864933672406616"><ele>532.0</ele><time>2026-05-01T08:52:15.999Z</time></trkpt><trkpt lat="42.98770247903583" lon="11.864977651258586"><ele>532.0</ele><time>2026-05-01T08:52:17.999Z</time></trkpt><trkpt lat="42.987673386468565" lon="11.865089961494721"><ele>532.0</ele><time>2026-05-01T08:52:18.999Z</time></trkpt><trkpt lat="42.98767455270509" lon="11.865206075506533"><ele>532.0</ele><time>2026-05-01T08:52:19.999Z</time></trkpt><trkpt lat="42.98760435017559" lon="11.865300623383277"><ele>532.0</ele><time>2026-05-01T08:52:20.999Z</time></trkpt><trkpt lat="42.98755584228454" lon="11.865416901355463"><ele>532.0</ele><time>2026-05-01T08:52:21.999Z</time></trkpt><trkpt lat="42.987496016629244" lon="11.865546229729437"><ele>531.3333333333334</ele><time>2026-05-01T08:52:22.999Z</time></trkpt><trkpt lat="42.98743385552046" lon="11.865702870282197"><ele>530.6666666666666</ele><time>2026-05-01T08:52:23.999Z</time></trkpt><trkpt lat="42.98735617476589" lon="11.865923338604548"><ele>530.0</ele><time>2026-05-01T08:52:24.999Z</time></trkpt><trkpt lat="42.98729797806889" lon="11.866117532834448"><ele>529.5</ele><time>2026-05-01T08:52:25.999Z</time></trkpt><trkpt lat="42.9872686939099" lon="11.866293253693119"><ele>529.0</ele><time>2026-05-01T08:52:26.999Z</time></trkpt><trkpt lat="42.987266209514395" lon="11.866464733807074"><ele>528.5</ele><time>2026-05-01T08:52:27.999Z</time></trkpt><trkpt lat="42.98728372212702" lon="11.866631197338565"><ele>528.0</ele><time>2026-05-01T08:52:28.999Z</time></trkpt><trkpt lat="42.98733620778264" lon="11.866794488855325"><ele>527.6</ele><time>2026-05-01T08:52:29.999Z</time></trkpt><trkpt lat="42.987375592805336" lon="11.866944444534381"><ele>527.1999999999999</ele><time>2026-05-01T08:52:30.999Z</time></trkpt><trkpt lat="42.98742416430032" lon="11.86707648596673"><ele>526.8</ele><time>2026-05-01T08:52:31.999Z</time></trkpt><trkpt lat="42.98748194006376" lon="11.867207160583462"><ele>526.4</ele><time>2026-05-01T08:52:32.999Z</time></trkpt><trkpt lat="42.987520120412185" lon="11.867342113998241"><ele>526.0</ele><time>2026-05-01T08:52:33.999Z</time></trkpt><trkpt lat="42.98755596081298" lon="11.867500390389399"><ele>526.4</ele><time>2026-05-01T08:52:34.999Z</time></trkpt><trkpt lat="42.98758063698403" lon="11.867664911923788"><ele>526.8</ele><time>2026-05-01T08:52:35.999Z</time></trkpt><trkpt lat="42.98759749610069" lon="11.867812205252429"><ele>527.1999999999999</ele><time>2026-05-01T08:52:36.999Z</time></trkpt><trkpt lat="42.98760443456434" lon="11.86794716982685"><ele>527.6</ele><time>2026-05-01T08:52:37.999Z</time></trkpt><trkpt lat="42.98761257482852" lon="11.868074275611352"><ele>528.0</ele><time>2026-05-01T08:52:38.999Z</time></trkpt><trkpt lat="42.987622656110226" lon="11.868195402439186"><ele>528.0</ele><time>2026-05-01T08:52:39.999Z</time></trkpt><trkpt lat="42.98763806011272" lon="11.868335850163994"><ele>528.0</ele><time>2026-05-01T08:52:40.999Z</time></trkpt><trkpt lat="42.987658064712136" lon="11.868478912716007"><ele>528.0</ele><time>2026-05-01T08:52:41.999Z</time></trkpt><trkpt lat="42.987671048906954" lon="11.868613551243707"><ele>528.0</ele><time>2026-05-01T08:52:42.999Z</time></trkpt><trkpt lat="42.987679107650976" lon="11.86873956271758"><ele>528.0</ele><time>2026-05-01T08:52:43.999Z</time></trkpt><trkpt lat="42.9876887959033" lon="11.868876075364012"><ele>528.0</ele><time>2026-05-01T08:52:44.999Z</time></trkpt><trkpt lat="42.98770353501005" lon="11.869018937772832"><ele>528.0</ele><time>2026-05-01T08:52:45.999Z</time></trkpt><trkpt lat="42.9877205355785" lon="11.869160042256116"><ele>528.0</ele><time>2026-05-01T08:52:46.999Z</time></trkpt><trkpt lat="42.98772380573647" lon="11.869285344886181"><ele>528.0</ele><time>2026-05-01T08:52:47.999Z</time></trkpt><trkpt lat="42.98772323574846" lon="11.869401356028598"><ele>528.0</ele><time>2026-05-01T08:52:48.999Z</time></trkpt><trkpt lat="42.987742258406456" lon="11.869503969775472"><ele>527.6666666666666</ele><time>2026-05-01T08:52:49.999Z</time></trkpt><trkpt lat="42.98774716869909" lon="11.869601036470716"><ele>527.3333333333334</ele><time>2026-05-01T08:52:50.999Z</time></trkpt><trkpt lat="42.98774623937266" lon="11.869703648754653"><ele>527.0</ele><time>2026-05-01T08:52:52.999Z</time></trkpt><trkpt lat="42.98771500246384" lon="11.869833145473601"><ele>526.6666666666667</ele><time>2026-05-01T08:52:55.999Z</time></trkpt><trkpt lat="42.98767076057831" lon="11.869939234271623"><ele>526.3333333333334</ele><time>2026-05-01T08:52:57.999Z</time></trkpt><trkpt lat="42.987680981333284" lon="11.870049465563147"><ele>526.0</ele><time>2026-05-01T08:52:59.999Z</time></trkpt><trkpt lat="42.9877724435645" lon="11.870113121483348"><ele>526.0</ele><time>2026-05-01T08:53:01.999Z</time></trkpt><trkpt lat="42.98789349752007" lon="11.870090371805604"><ele>526.0</ele><time>2026-05-01T08:53:03.999Z</time></trkpt><trkpt lat="42.98795802725135" lon="11.870079333131322"><ele>526.0</ele><time>2026-05-01T08:53:04.999Z</time></trkpt><trkpt lat="42.988086679037835" lon="11.870088242493313"><ele>526.0</ele><time>2026-05-01T08:53:06.999Z</time></trkpt><trkpt lat="42.988157544730285" lon="11.870090240573136"><ele>526.0</ele><time>2026-05-01T08:53:07.999Z</time></trkpt><trkpt lat="42.98822475170245" lon="11.870082394011028"><ele>526.0</ele><time>2026-05-01T08:53:08.999Z</time></trkpt><trkpt lat="42.988294440489355" lon="11.870071248337474"><ele>526.0</ele><time>2026-05-01T08:53:09.999Z</time></trkpt><trkpt lat="42.98835977344431" lon="11.870053025874448"><ele>526.0</ele><time>2026-05-01T08:53:10.999Z</time></trkpt><trkpt lat="42.988422383552354" lon="11.870036870043336"><ele>526.0</ele><time>2026-05-01T08:53:11.998Z</time></trkpt><trkpt lat="42.98848661777487" lon="11.870023214111729"><ele>526.0</ele><time>2026-05-01T08:53:12.998Z</time></trkpt><trkpt lat="42.98855726142739" lon="11.870022662439164"><ele>526.0</ele><time>2026-05-01T08:53:13.998Z</time></trkpt><trkpt lat="42.988622517287055" lon="11.870030733202283"><ele>526.0</ele><time>2026-05-01T08:53:14.998Z</time></trkpt><trkpt lat="42.9886919712058" lon="11.870037689872355"><ele>527.0</ele><time>2026-05-01T08:53:15.998Z</time></trkpt><trkpt lat="42.988765464707484" lon="11.870043983831712"><ele>528.0</ele><time>2026-05-01T08:53:16.998Z</time></trkpt><trkpt lat="42.98883572442942" lon="11.870037318290798"><ele>529.0</ele><time>2026-05-01T08:53:17.998Z</time></trkpt><trkpt lat="42.988945517416084" lon="11.86999266782251"><ele>530.0</ele><time>2026-05-01T08:53:19.998Z</time></trkpt><trkpt lat="42.9890359966101" lon="11.869968976863772"><ele>531.0</ele><time>2026-05-01T08:53:21.998Z</time></trkpt><trkpt lat="42.989104382230664" lon="11.86997152396217"><ele>532.0</ele><time>2026-05-01T08:53:23.998Z</time></trkpt><trkpt lat="42.98917741909376" lon="11.869968959854075"><ele>533.6666666666667</ele><time>2026-05-01T08:53:26.998Z</time></trkpt><trkpt lat="42.989248570499534" lon="11.869962938653305"><ele>535.3333333333334</ele><time>2026-05-01T08:53:30Z</time></trkpt><trkpt lat="42.98932017578262" lon="11.869963320082043"><ele>537.0</ele><time>2026-05-01T08:53:32Z</time></trkpt><trkpt lat="42.989341819312315" lon="11.869801377745537"><ele>538.6666666666666</ele><time>2026-05-01T08:53:34Z</time></trkpt><trkpt lat="42.98934140820797" lon="11.869689611647475"><ele>540.3333333333333</ele><time>2026-05-01T08:53:37Z</time></trkpt><trkpt lat="42.98935503754938" lon="11.869587411830548"><ele>542.0</ele><time>2026-05-01T08:53:40Z</time></trkpt><trkpt lat="42.989367253567195" lon="11.86946855344521"><ele>542.0</ele><time>2026-05-01T08:53:47Z</time></trkpt><trkpt lat="42.98937269371961" lon="11.86938094442508"><ele>542.0</ele><time>2026-05-01T08:53:57Z</time></trkpt><trkpt lat="42.989372748094375" lon="11.869236317813787"><ele>542.0</ele><time>2026-05-01T08:53:59Z</time></trkpt><trkpt lat="42.989375497800054" lon="11.869124786235844"><ele>542.0</ele><time>2026-05-01T08:54:00Z</time></trkpt><trkpt lat="42.98937794534461" lon="11.869006539685302"><ele>542.0</ele><time>2026-05-01T08:54:01Z</time></trkpt><trkpt lat="42.98936547971656" lon="11.868884768425746"><ele>542.0</ele><time>2026-05-01T08:54:02Z</time></trkpt><trkpt lat="42.98934681625145" lon="11.868762826651482"><ele>542.4</ele><time>2026-05-01T08:54:03Z</time></trkpt><trkpt lat="42.98932969225989" lon="11.868636276982887"><ele>542.8000000000001</ele><time>2026-05-01T08:54:04Z</time></trkpt><trkpt lat="42.989311162031626" lon="11.8685131811918"><ele>543.2</ele><time>2026-05-01T08:54:05Z</time></trkpt><trkpt lat="42.989299064390536" lon="11.868407162722614"><ele>543.6</ele><time>2026-05-01T08:54:06Z</time></trkpt><trkpt lat="42.98928409627356" lon="11.868313024608039"><ele>544.0</ele><time>2026-05-01T08:54:07Z</time></trkpt><trkpt lat="42.98925803894007" lon="11.868148455402858"><ele>545.25</ele><time>2026-05-01T08:54:09Z</time></trkpt><trkpt lat="42.98924238524147" lon="11.867994929221615"><ele>546.5</ele><time>2026-05-01T08:54:11Z</time></trkpt><trkpt lat="42.98922123691489" lon="11.867844335147156"><ele>547.75</ele><time>2026-05-01T08:54:13Z</time></trkpt><trkpt lat="42.989200243635246" lon="11.86765918004866"><ele>549.0</ele><time>2026-05-01T08:54:14.999Z</time></trkpt><trkpt lat="42.98918392203586" lon="11.867542322571655"><ele>546.0</ele><time>2026-05-01T08:54:15.999Z</time></trkpt><trkpt lat="42.98916142400818" lon="11.867422306136797"><ele>543.0</ele><time>2026-05-01T08:54:16.999Z</time></trkpt><trkpt lat="42.98914732923493" lon="11.867320822473687"><ele>540.0</ele><time>2026-05-01T08:54:17.999Z</time></trkpt><trkpt lat="42.9891320876723" lon="11.86723026497396"><ele>537.0</ele><time>2026-05-01T08:54:18.999Z</time></trkpt><trkpt lat="42.989118812009366" lon="11.867138880407328"><ele>534.0</ele><time>2026-05-01T08:54:19.999Z</time></trkpt><trkpt lat="42.989124192694646" lon="11.867025101464119"><ele>531.0</ele><time>2026-05-01T08:54:20.999Z</time></trkpt><trkpt lat="42.98913381843795" lon="11.866918998746009"><ele>531.0</ele><time>2026-05-01T08:54:21.999Z</time></trkpt><trkpt lat="42.98914975035695" lon="11.866820571927445"><ele>531.0</ele><time>2026-05-01T08:54:22.999Z</time></trkpt><trkpt lat="42.9891700217142" lon="11.866735271495847"><ele>531.0</ele><time>2026-05-01T08:54:23.999Z</time></trkpt><trkpt lat="42.98922100214569" lon="11.866603296805387"><ele>531.0</ele><time>2026-05-01T08:54:25.999Z</time></trkpt><trkpt lat="42.98925755871501" lon="11.866473355782679"><ele>531.0</ele><time>2026-05-01T08:54:27.999Z</time></trkpt><trkpt lat="42.98923093085979" lon="11.866353202942143"><ele>531.0</ele><time>2026-05-01T08:54:29.999Z</time></trkpt><trkpt lat="42.98917082927245" lon="11.866239101649462"><ele>531.6</ele><time>2026-05-01T08:54:31.999Z</time></trkpt><trkpt lat="42.98913841578228" lon="11.866105333678286"><ele>532.2</ele><time>2026-05-01T08:54:33.999Z</time></trkpt><trkpt lat="42.98910327383857" lon="11.865975914756929"><ele>532.8</ele><time>2026-05-01T08:54:35.999Z</time></trkpt><trkpt lat="42.98905453324791" lon="11.865821242003028"><ele>533.4</ele><time>2026-05-01T08:54:37.999Z</time></trkpt><trkpt lat="42.989031201596895" lon="11.865735592811705"><ele>534.0</ele><time>2026-05-01T08:54:38.999Z</time></trkpt><trkpt lat="42.98899114059794" lon="11.865598782881467"><ele>534.0</ele><time>2026-05-01T08:54:40.999Z</time></trkpt><trkpt lat="42.98897438998328" lon="11.865511407806675"><ele>534.0</ele><time>2026-05-01T08:54:41.999Z</time></trkpt><trkpt lat="42.98896626433856" lon="11.865425013941866"><ele>534.0</ele><time>2026-05-01T08:54:42.999Z</time></trkpt><trkpt lat="42.98894981114989" lon="11.865339003909092"><ele>534.0</ele><time>2026-05-01T08:54:43.999Z</time></trkpt><trkpt lat="42.98874962814783" lon="11.865278611811455"><ele>534.0</ele><time>2026-05-01T08:54:45.999Z</time></trkpt><trkpt lat="42.988670244473106" lon="11.865264780240047"><ele>534.0</ele><time>2026-05-01T08:54:46.999Z</time></trkpt><trkpt lat="42.9885859375055" lon="11.86525917397537"><ele>534.0</ele><time>2026-05-01T08:54:47.999Z</time></trkpt><trkpt lat="42.98850681035214" lon="11.865240227578402"><ele>534.0</ele><time>2026-05-01T08:54:48.999Z</time></trkpt><trkpt lat="42.98841661885496" lon="11.865228759388227"><ele>534.0</ele><time>2026-05-01T08:54:49.999Z</time></trkpt><trkpt lat="42.98832378072556" lon="11.865212871005365"><ele>534.0</ele><time>2026-05-01T08:54:50.999Z</time></trkpt><trkpt lat="42.98824508251618" lon="11.865193581100652"><ele>534.0</ele><time>2026-05-01T08:54:51.999Z</time></trkpt><trkpt lat="42.988172164016724" lon="11.865164954168664"><ele>533.6666666666666</ele><time>2026-05-01T08:54:52.999Z</time></trkpt><trkpt lat="42.98810518190755" lon="11.865122615892624"><ele>533.3333333333334</ele><time>2026-05-01T08:54:53.999Z</time></trkpt><trkpt lat="42.988044328204516" lon="11.86507912744856"><ele>533.0</ele><time>2026-05-01T08:54:54.999Z</time></trkpt><trkpt lat="42.98797706290441" lon="11.865032909198366"><ele>532.6666666666667</ele><time>2026-05-01T08:54:55.999Z</time></trkpt><trkpt lat="42.98788886686794" lon="11.864952218526765"><ele>532.3333333333334</ele><time>2026-05-01T08:54:57.999Z</time></trkpt><trkpt lat="42.98779286578747" lon="11.864940739018582"><ele>532.0</ele><time>2026-05-01T08:54:59.999Z</time></trkpt><trkpt lat="42.98770065703352" lon="11.865025373637602"><ele>532.0</ele><time>2026-05-01T08:55:01.999Z</time></trkpt><trkpt lat="42.987693707151145" lon="11.865114201722418"><ele>532.0</ele><time>2026-05-01T08:55:02.999Z</time></trkpt><trkpt lat="42.98766194499281" lon="11.8651986815029"><ele>532.0</ele><time>2026-05-01T08:55:03.999Z</time></trkpt><trkpt lat="42.98761985389606" lon="11.86530669206397"><ele>532.0</ele><time>2026-05-01T08:55:04.999Z</time></trkpt><trkpt lat="42.98756942095071" lon="11.865427235816382"><ele>532.0</ele><time>2026-05-01T08:55:05.999Z</time></trkpt><trkpt lat="42.98751282982571" lon="11.865573597065877"><ele>532.0</ele><time>2026-05-01T08:55:06.999Z</time></trkpt><trkpt lat="42.987448977450605" lon="11.865727865954714"><ele>531.6</ele><time>2026-05-01T08:55:07.999Z</time></trkpt><trkpt lat="42.98738889004388" lon="11.865875799958724"><ele>531.2</ele><time>2026-05-01T08:55:08.999Z</time></trkpt><trkpt lat="42.987341892872024" lon="11.866015539456457"><ele>530.8</ele><time>2026-05-01T08:55:09.999Z</time></trkpt><trkpt lat="42.98731312914841" lon="11.866144160691452"><ele>530.4</ele><time>2026-05-01T08:55:10.999Z</time></trkpt><trkpt lat="42.98730088572036" lon="11.866258916249603"><ele>530.0</ele><time>2026-05-01T08:55:11.999Z</time></trkpt><trkpt lat="42.9872953270209" lon="11.866384617194614"><ele>529.6</ele><time>2026-05-01T08:55:12.999Z</time></trkpt><trkpt lat="42.987300862527846" lon="11.866521133924289"><ele>529.2</ele><time>2026-05-01T08:55:13.999Z</time></trkpt><trkpt lat="42.987325927683024" lon="11.866665544373149"><ele>528.8</ele><time>2026-05-01T08:55:14.999Z</time></trkpt><trkpt lat="42.98736476747639" lon="11.866812027352553"><ele>528.4</ele><time>2026-05-01T08:55:15.998Z</time></trkpt><trkpt lat="42.987418208977275" lon="11.866962781944615"><ele>528.0</ele><time>2026-05-01T08:55:16.998Z</time></trkpt><trkpt lat="42.98746758683231" lon="11.867124893422893"><ele>528.0</ele><time>2026-05-01T08:55:17.998Z</time></trkpt><trkpt lat="42.98751716736106" lon="11.867301351973234"><ele>528.0</ele><time>2026-05-01T08:55:18.998Z</time></trkpt><trkpt lat="42.98756254446508" lon="11.867486142067616"><ele>528.0</ele><time>2026-05-01T08:55:19.998Z</time></trkpt><trkpt lat="42.98757712823288" lon="11.867678847143814"><ele>528.0</ele><time>2026-05-01T08:55:20.998Z</time></trkpt><trkpt lat="42.98759017231381" lon="11.867859693798312"><ele>528.0</ele><time>2026-05-01T08:55:21.998Z</time></trkpt><trkpt lat="42.98760925553981" lon="11.868071445577348"><ele>528.0</ele><time>2026-05-01T08:55:22.998Z</time></trkpt><trkpt lat="42.987626933295175" lon="11.868252384182844"><ele>528.0</ele><time>2026-05-01T08:55:23.998Z</time></trkpt><trkpt lat="42.987642590763656" lon="11.868412644329702"><ele>528.0</ele><time>2026-05-01T08:55:24.998Z</time></trkpt><trkpt lat="42.98765699932172" lon="11.868560121493784"><ele>528.0</ele><time>2026-05-01T08:55:25.998Z</time></trkpt><trkpt lat="42.987669202057994" lon="11.868699553188609"><ele>528.0</ele><time>2026-05-01T08:55:26.998Z</time></trkpt><trkpt lat="42.98767992094437" lon="11.868831415630341"><ele>528.0</ele><time>2026-05-01T08:55:27.998Z</time></trkpt><trkpt lat="42.98769118719418" lon="11.868972740716327"><ele>528.0</ele><time>2026-05-01T08:55:28.998Z</time></trkpt><trkpt lat="42.987702341452554" lon="11.869121917186654"><ele>528.0</ele><time>2026-05-01T08:55:29.998Z</time></trkpt><trkpt lat="42.98771398636873" lon="11.869277655418488"><ele>527.6666666666666</ele><time>2026-05-01T08:55:30.998Z</time></trkpt><trkpt lat="42.98772414678455" lon="11.869413346644727"><ele>527.3333333333334</ele><time>2026-05-01T08:55:31.998Z</time></trkpt><trkpt lat="42.987733196886865" lon="11.869532609189832"><ele>527.0</ele><time>2026-05-01T08:55:32.998Z</time></trkpt><trkpt lat="42.98773821055807" lon="11.869640130980839"><ele>526.6666666666667</ele><time>2026-05-01T08:55:34Z</time></trkpt><trkpt lat="42.987745122612445" lon="11.869740976477004"><ele>526.3333333333334</ele><time>2026-05-01T08:55:35Z</time></trkpt><trkpt lat="42.98773153848645" lon="11.869845709392505"><ele>526.0</ele><time>2026-05-01T08:55:36Z</time></trkpt><trkpt lat="42.987707961286695" lon="11.869940433291498"><ele>526.0</ele><time>2026-05-01T08:55:37Z</time></trkpt><trkpt lat="42.98768062687599" lon="11.870077796642075"><ele>526.0</ele><time>2026-05-01T08:55:39Z</time></trkpt><trkpt lat="42.98777410285793" lon="11.870147475325275"><ele>526.0</ele><time>2026-05-01T08:55:41Z</time></trkpt><trkpt lat="42.98782832988514" lon="11.870103100244982"><ele>526.0</ele><time>2026-05-01T08:55:42Z</time></trkpt><trkpt lat="42.98786180243171" lon="11.870025118404305"><ele>526.0</ele><time>2026-05-01T08:55:43Z</time></trkpt><trkpt lat="42.98786356661641" lon="11.869926018766117"><ele>526.0</ele><time>2026-05-01T08:55:44Z</time></trkpt><trkpt lat="42.98781676505347" lon="11.86980385346219"><ele>526.0</ele><time>2026-05-01T08:55:45Z</time></trkpt><trkpt lat="42.98779910342326" lon="11.869711558222068"><ele>526.0</ele><time>2026-05-01T08:55:46Z</time></trkpt><trkpt lat="42.98777548528807" lon="11.869571383501953"><ele>526.0</ele><time>2026-05-01T08:55:47Z</time></trkpt><trkpt lat="42.98776649758979" lon="11.869413517525372"><ele>526.0</ele><time>2026-05-01T08:55:48Z</time></trkpt><trkpt lat="42.9877575922919" lon="11.869230448727938"><ele>526.0</ele><time>2026-05-01T08:55:49Z</time></trkpt><trkpt lat="42.98773866469747" lon="11.869001952405497"><ele>526.6666666666667</ele><time>2026-05-01T08:55:50Z</time></trkpt><trkpt lat="42.98771205359384" lon="11.868726159833228"><ele>527.3333333333334</ele><time>2026-05-01T08:55:51Z</time></trkpt><trkpt lat="42.98768848910901" lon="11.86842493623972"><ele>528.0</ele><time>2026-05-01T08:55:52Z</time></trkpt><trkpt lat="42.98766080762638" lon="11.868076557790395"><ele>528.0</ele><time>2026-05-01T08:55:53Z</time></trkpt><trkpt lat="42.98763172201986" lon="11.867777180531156"><ele>528.0</ele><time>2026-05-01T08:55:54Z</time></trkpt><trkpt lat="42.98759861234314" lon="11.867522501445023"><ele>528.0</ele><time>2026-05-01T08:55:55Z</time></trkpt><trkpt lat="42.98755159498203" lon="11.867296161517524"><ele>528.0</ele><time>2026-05-01T08:55:56Z</time></trkpt><trkpt lat="42.98749700782755" lon="11.867099406587846"><ele>528.0</ele><time>2026-05-01T08:55:57Z</time></trkpt><trkpt lat="42.98744424344703" lon="11.866939107071836"><ele>528.0</ele><time>2026-05-01T08:55:58Z</time></trkpt><trkpt lat="42.98740011335106" lon="11.866803980016252"><ele>528.0</ele><time>2026-05-01T08:55:59Z</time></trkpt><trkpt lat="42.987366154685354" lon="11.866682676897332"><ele>528.0</ele><time>2026-05-01T08:56:00Z</time></trkpt><trkpt lat="42.98734800878081" lon="11.866585766743135"><ele>528.0</ele><time>2026-05-01T08:56:01Z</time></trkpt><trkpt lat="42.9873351980385" lon="11.866493852333276"><ele>528.0</ele><time>2026-05-01T08:56:02Z</time></trkpt><trkpt lat="42.987307369872305" lon="11.866392974236225"><ele>528.0</ele><time>2026-05-01T08:56:04Z</time></trkpt><trkpt lat="42.98719717225138" lon="11.866441956780161"><ele>528.0</ele><time>2026-05-01T08:56:06Z</time></trkpt><trkpt lat="42.98714367582653" lon="11.866507426108964"><ele>528.0</ele><time>2026-05-01T08:56:07Z</time></trkpt><trkpt lat="42.98708625568787" lon="11.866606645681037"><ele>528.0</ele><time>2026-05-01T08:56:08Z</time></trkpt><trkpt lat="42.98703608802135" lon="11.866684876842312"><ele>528.0</ele><time>2026-05-01T08:56:09Z</time></trkpt><trkpt lat="42.9869598693587" lon="11.866783899918035"><ele>528.0</ele><time>2026-05-01T08:56:11Z</time></trkpt><trkpt lat="42.98692427757819" lon="11.866863443238291"><ele>528.0</ele><time>2026-05-01T08:56:31.999Z</time></trkpt><trkpt lat="42.986923729644644" lon="11.867022100727088"><ele>528.0</ele><time>2026-05-01T08:56:33.999Z</time></trkpt><trkpt lat="42.986940326124646" lon="11.867152296202166"><ele>527.6666666666666</ele><time>2026-05-01T08:56:34.999Z</time></trkpt><trkpt lat="42.98695095000156" lon="11.867273555667168"><ele>527.3333333333334</ele><time>2026-05-01T08:56:35.999Z</time></trkpt><trkpt lat="42.98696212358995" lon="11.867403770068481"><ele>527.0</ele><time>2026-05-01T08:56:36.999Z</time></trkpt><trkpt lat="42.986973408694475" lon="11.867509239313383"><ele>526.6666666666667</ele><time>2026-05-01T08:56:37.999Z</time></trkpt><trkpt lat="42.98698448714953" lon="11.867608302636782"><ele>526.3333333333334</ele><time>2026-05-01T08:56:38.999Z</time></trkpt><trkpt lat="42.98698686642581" lon="11.867761281085816"><ele>526.0</ele><time>2026-05-01T08:56:40.999Z</time></trkpt><trkpt lat="42.98698745777368" lon="11.867895901294029"><ele>525.8</ele><time>2026-05-01T08:56:42.999Z</time></trkpt><trkpt lat="42.98698925215973" lon="11.868007645457265"><ele>525.6</ele><time>2026-05-01T08:56:44.999Z</time></trkpt><trkpt lat="42.98697978358205" lon="11.8681161395008"><ele>525.4</ele><time>2026-05-01T08:56:46.999Z</time></trkpt><trkpt lat="42.98700331150679" lon="11.867936474372998"><ele>525.2</ele><time>2026-05-01T08:56:53.999Z</time></trkpt><trkpt lat="42.986992653004606" lon="11.86779852586257"><ele>525.0</ele><time>2026-05-01T08:56:54.999Z</time></trkpt><trkpt lat="42.98699163330114" lon="11.867630804095052"><ele>525.1666666666666</ele><time>2026-05-01T08:56:55.999Z</time></trkpt><trkpt lat="42.98698609727903" lon="11.867498300288375"><ele>525.3333333333334</ele><time>2026-05-01T08:56:56.999Z</time></trkpt><trkpt lat="42.98697383461385" lon="11.867375955685372"><ele>525.5</ele><time>2026-05-01T08:56:57.999Z</time></trkpt><trkpt lat="42.98695843250909" lon="11.867267755074357"><ele>525.6666666666667</ele><time>2026-05-01T08:56:58.999Z</time></trkpt><trkpt lat="42.98694297866033" lon="11.867183769819466"><ele>525.8333333333334</ele><time>2026-05-01T08:56:59.999Z</time></trkpt><trkpt lat="42.98693485180672" lon="11.867096786922144"><ele>526.0</ele><time>2026-05-01T08:57:00.999Z</time></trkpt><trkpt lat="42.98692868160056" lon="11.866942231764714"><ele>526.0</ele><time>2026-05-01T08:57:02.999Z</time></trkpt><trkpt lat="42.98694268795151" lon="11.86680067941046"><ele>526.0</ele><time>2026-05-01T08:57:04.999Z</time></trkpt><trkpt lat="42.987009121023505" lon="11.866721635266428"><ele>526.0</ele><time>2026-05-01T08:57:06.999Z</time></trkpt><trkpt lat="42.98709728142704" lon="11.866630929372297"><ele>526.0</ele><time>2026-05-01T08:57:08.999Z</time></trkpt><trkpt lat="42.98714619891421" lon="11.866538361884597"><ele>526.0</ele><time>2026-05-01T08:57:10.999Z</time></trkpt><trkpt lat="42.98719169170576" lon="11.86644763384386"><ele>526.0</ele><time>2026-05-01T08:57:13.999Z</time></trkpt><trkpt lat="42.987262901964534" lon="11.86642800419754"><ele>526.0</ele><time>2026-05-01T08:57:18.998Z</time></trkpt><trkpt lat="42.98731913151287" lon="11.866508796905247"><ele>526.0</ele><time>2026-05-01T08:58:26.999Z</time></trkpt><trkpt lat="42.98733688448926" lon="11.86662573266658"><ele>526.0</ele><time>2026-05-01T08:58:27.999Z</time></trkpt><trkpt lat="42.987362222057634" lon="11.866775059939402"><ele>526.0</ele><time>2026-05-01T08:58:28.999Z</time></trkpt><trkpt lat="42.98740752394666" lon="11.866936368707464"><ele>526.0</ele><time>2026-05-01T08:58:29.999Z</time></trkpt><trkpt lat="42.98746652870136" lon="11.867115990989943"><ele>526.0</ele><time>2026-05-01T08:58:30.999Z</time></trkpt><trkpt lat="42.98751425298884" lon="11.86732647542907"><ele>526.0</ele><time>2026-05-01T08:58:31.999Z</time></trkpt><trkpt lat="42.987561337297144" lon="11.867547384173267"><ele>526.6666666666667</ele><time>2026-05-01T08:58:32.999Z</time></trkpt><trkpt lat="42.987584345576295" lon="11.867781954432388"><ele>527.3333333333334</ele><time>2026-05-01T08:58:33.999Z</time></trkpt><trkpt lat="42.98760311285754" lon="11.868008572834578"><ele>528.0</ele><time>2026-05-01T08:58:34.999Z</time></trkpt><trkpt lat="42.98761974808704" lon="11.86817884080528"><ele>528.0</ele><time>2026-05-01T08:58:35.999Z</time></trkpt><trkpt lat="42.98763398430058" lon="11.868324553967046"><ele>528.0</ele><time>2026-05-01T08:58:36.999Z</time></trkpt><trkpt lat="42.987647821671" lon="11.868466184669106"><ele>528.0</ele><time>2026-05-01T08:58:37.999Z</time></trkpt><trkpt lat="42.98766072545876" lon="11.868598259927678"><ele>528.0</ele><time>2026-05-01T08:58:38.999Z</time></trkpt><trkpt lat="42.987670491060264" lon="11.868715410212376"><ele>528.0</ele><time>2026-05-01T08:58:39.999Z</time></trkpt><trkpt lat="42.9876826655479" lon="11.868865179321418"><ele>528.0</ele><time>2026-05-01T08:58:40.999Z</time></trkpt><trkpt lat="42.98769373574422" lon="11.869006824788798"><ele>528.0</ele><time>2026-05-01T08:58:41.999Z</time></trkpt><trkpt lat="42.98770304934598" lon="11.869131384313558"><ele>528.0</ele><time>2026-05-01T08:58:42.999Z</time></trkpt><trkpt lat="42.98772700909451" lon="11.869246409558356"><ele>528.0</ele><time>2026-05-01T08:58:43.999Z</time></trkpt><trkpt lat="42.98773190403912" lon="11.869376293118409"><ele>528.0</ele><time>2026-05-01T08:58:44.999Z</time></trkpt><trkpt lat="42.98773110851208" lon="11.869500707420734"><ele>527.6666666666666</ele><time>2026-05-01T08:58:45.999Z</time></trkpt><trkpt lat="42.98773670067266" lon="11.869606724988994"><ele>527.3333333333334</ele><time>2026-05-01T08:58:46.999Z</time></trkpt><trkpt lat="42.98775306191633" lon="11.869703504832625"><ele>527.0</ele><time>2026-05-01T08:58:47.999Z</time></trkpt><trkpt lat="42.98774082913422" lon="11.869794666343"><ele>526.6666666666667</ele><time>2026-05-01T08:58:48.999Z</time></trkpt><trkpt lat="42.987707818902365" lon="11.869884868574102"><ele>526.3333333333334</ele><time>2026-05-01T08:58:49.999Z</time></trkpt><trkpt lat="42.987660853863765" lon="11.869972535170355"><ele>526.0</ele><time>2026-05-01T08:58:50.999Z</time></trkpt><trkpt lat="42.98760373603628" lon="11.870055852348449"><ele>525.3333333333334</ele><time>2026-05-01T08:58:51.999Z</time></trkpt><trkpt lat="42.98753611334193" lon="11.870118338089348"><ele>524.6666666666667</ele><time>2026-05-01T08:58:52.999Z</time></trkpt><trkpt lat="42.98746617772391" lon="11.870144587507884"><ele>524.0</ele><time>2026-05-01T08:58:53.999Z</time></trkpt><trkpt lat="42.9873878161346" lon="11.870163836282854"><ele>523.3333333333334</ele><time>2026-05-01T08:58:54.999Z</time></trkpt><trkpt lat="42.987293906333925" lon="11.870173847148262"><ele>522.6666666666666</ele><time>2026-05-01T08:58:55.999Z</time></trkpt><trkpt lat="42.98719488133659" lon="11.870181000190646"><ele>522.0</ele><time>2026-05-01T08:58:56.999Z</time></trkpt><trkpt lat="42.98709428074617" lon="11.870186244855129"><ele>522.0</ele><time>2026-05-01T08:58:57.999Z</time></trkpt><trkpt lat="42.98699319349662" lon="11.870189320464794"><ele>522.0</ele><time>2026-05-01T08:58:58.999Z</time></trkpt><trkpt lat="42.98689153627431" lon="11.870191919540675"><ele>522.0</ele><time>2026-05-01T08:58:59.999Z</time></trkpt><trkpt lat="42.98679532945408" lon="11.870192272447795"><ele>522.0</ele><time>2026-05-01T08:59:00.999Z</time></trkpt><trkpt lat="42.98669578544033" lon="11.870185742624384"><ele>522.0</ele><time>2026-05-01T08:59:01.999Z</time></trkpt><trkpt lat="42.98659924398701" lon="11.87018261324946"><ele>521.75</ele><time>2026-05-01T08:59:02.999Z</time></trkpt><trkpt lat="42.98647910672087" lon="11.870185466389747"><ele>521.5</ele><time>2026-05-01T08:59:03.999Z</time></trkpt><trkpt lat="42.98635547095378" lon="11.870188623895446"><ele>521.25</ele><time>2026-05-01T08:59:04.999Z</time></trkpt><trkpt lat="42.98622709594801" lon="11.870189392663834"><ele>521.0</ele><time>2026-05-01T08:59:05.999Z</time></trkpt><trkpt lat="42.986099148727895" lon="11.870204333793792"><ele>521.0</ele><time>2026-05-01T08:59:06.999Z</time></trkpt><trkpt lat="42.98598038661251" lon="11.870213560244457"><ele>521.0</ele><time>2026-05-01T08:59:07.999Z</time></trkpt><trkpt lat="42.98587426008638" lon="11.870219392827147"><ele>521.0</ele><time>2026-05-01T08:59:08.999Z</time></trkpt><trkpt lat="42.9857558862559" lon="11.870231574919249"><ele>521.0</ele><time>2026-05-01T08:59:09.999Z</time></trkpt><trkpt lat="42.9856248427033" lon="11.870244435159437"><ele>520.75</ele><time>2026-05-01T08:59:10.999Z</time></trkpt><trkpt lat="42.98548004841705" lon="11.870260043725825"><ele>520.5</ele><time>2026-05-01T08:59:11.999Z</time></trkpt><trkpt lat="42.98533025562646" lon="11.870274841663937"><ele>520.25</ele><time>2026-05-01T08:59:12.999Z</time></trkpt><trkpt lat="42.985193481409944" lon="11.870290159197138"><ele>520.0</ele><time>2026-05-01T08:59:13.999Z</time></trkpt><trkpt lat="42.985048888238616" lon="11.87030674909823"><ele>520.75</ele><time>2026-05-01T08:59:14.999Z</time></trkpt><trkpt lat="42.984915843826315" lon="11.870323410182053"><ele>521.5</ele><time>2026-05-01T08:59:15.999Z</time></trkpt><trkpt lat="42.984785937446496" lon="11.870330479818323"><ele>522.25</ele><time>2026-05-01T08:59:16.999Z</time></trkpt><trkpt lat="42.98464124962558" lon="11.87034576814965"><ele>523.0</ele><time>2026-05-01T08:59:17.999Z</time></trkpt><trkpt lat="42.98449987883366" lon="11.870359242659985"><ele>523.0</ele><time>2026-05-01T08:59:18.999Z</time></trkpt><trkpt lat="42.984354135956224" lon="11.870368648391477"><ele>523.0</ele><time>2026-05-01T08:59:19.999Z</time></trkpt><trkpt lat="42.984215415629556" lon="11.87034725667045"><ele>523.0</ele><time>2026-05-01T08:59:20.999Z</time></trkpt><trkpt lat="42.98407134015208" lon="11.87029831043254"><ele>523.0</ele><time>2026-05-01T08:59:21.999Z</time></trkpt><trkpt lat="42.98391463527679" lon="11.870220631075416"><ele>522.6666666666667</ele><time>2026-05-01T08:59:22.999Z</time></trkpt><trkpt lat="42.98374862981642" lon="11.87012819816894"><ele>522.3333333333334</ele><time>2026-05-01T08:59:23.999Z</time></trkpt><trkpt lat="42.98358531135807" lon="11.870026140096133"><ele>522.0</ele><time>2026-05-01T08:59:24.999Z</time></trkpt><trkpt lat="42.98343524503321" lon="11.86993382851897"><ele>522.6666666666666</ele><time>2026-05-01T08:59:25.998Z</time></trkpt><trkpt lat="42.983303801887715" lon="11.869839196670549"><ele>523.3333333333333</ele><time>2026-05-01T08:59:26.998Z</time></trkpt><trkpt lat="42.983184254226316" lon="11.869735132653236"><ele>524.0</ele><time>2026-05-01T08:59:27.998Z</time></trkpt><trkpt lat="42.98305232393832" lon="11.86959346269659"><ele>524.0</ele><time>2026-05-01T08:59:28.998Z</time></trkpt><trkpt lat="42.98290212403668" lon="11.869415309488566"><ele>524.0</ele><time>2026-05-01T08:59:29.998Z</time></trkpt><trkpt lat="42.982779348342724" lon="11.869251077807435"><ele>524.0</ele><time>2026-05-01T08:59:30.998Z</time></trkpt><trkpt lat="42.98267027413375" lon="11.869088590144584"><ele>523.6666666666666</ele><time>2026-05-01T08:59:31.998Z</time></trkpt><trkpt lat="42.98256772497771" lon="11.86892563151345"><ele>523.3333333333334</ele><time>2026-05-01T08:59:32.998Z</time></trkpt><trkpt lat="42.98246794603314" lon="11.868753840087546"><ele>523.0</ele><time>2026-05-01T08:59:33.998Z</time></trkpt><trkpt lat="42.98238039492652" lon="11.868561188894637"><ele>525.3333333333334</ele><time>2026-05-01T08:59:34.998Z</time></trkpt><trkpt lat="42.98230159665117" lon="11.868371028065347"><ele>527.6666666666666</ele><time>2026-05-01T08:59:35.998Z</time></trkpt><trkpt lat="42.98221526069838" lon="11.868199467300128"><ele>530.0</ele><time>2026-05-01T08:59:36.998Z</time></trkpt><trkpt lat="42.98211335393312" lon="11.868047799712695"><ele>530.0</ele><time>2026-05-01T08:59:37.998Z</time></trkpt><trkpt lat="42.981994602596814" lon="11.867904366841271"><ele>530.0</ele><time>2026-05-01T08:59:38.998Z</time></trkpt><trkpt lat="42.981864860276616" lon="11.867766735047947"><ele>530.0</ele><time>2026-05-01T08:59:39.998Z</time></trkpt><trkpt lat="42.98174800275719" lon="11.867652945096914"><ele>532.0</ele><time>2026-05-01T08:59:40.998Z</time></trkpt><trkpt lat="42.98163120107412" lon="11.867548419117064"><ele>534.0</ele><time>2026-05-01T08:59:41.998Z</time></trkpt><trkpt lat="42.98150072271248" lon="11.867454621444278"><ele>536.0</ele><time>2026-05-01T08:59:42.998Z</time></trkpt><trkpt lat="42.98136111417429" lon="11.867389184802137"><ele>538.0</ele><time>2026-05-01T08:59:43.998Z</time></trkpt><trkpt lat="42.98122772912956" lon="11.867350331777054"><ele>538.0</ele><time>2026-05-01T08:59:44.998Z</time></trkpt><trkpt lat="42.98109288880269" lon="11.86731505864682"><ele>538.0</ele><time>2026-05-01T08:59:46Z</time></trkpt><trkpt lat="42.980965723482065" lon="11.867283400718916"><ele>538.0</ele><time>2026-05-01T08:59:47Z</time></trkpt><trkpt lat="42.98083351083078" lon="11.867246374574934"><ele>538.0</ele><time>2026-05-01T08:59:48Z</time></trkpt><trkpt lat="42.98068916580751" lon="11.867201931311115"><ele>540.25</ele><time>2026-05-01T08:59:49Z</time></trkpt><trkpt lat="42.98055973715939" lon="11.867151395933478"><ele>542.5</ele><time>2026-05-01T08:59:50Z</time></trkpt><trkpt lat="42.98043439132499" lon="11.86709520316913"><ele>544.75</ele><time>2026-05-01T08:59:51Z</time></trkpt><trkpt lat="42.9803200024538" lon="11.867019920679056"><ele>547.0</ele><time>2026-05-01T08:59:52Z</time></trkpt><trkpt lat="42.980212752647965" lon="11.86692986130566"><ele>547.0</ele><time>2026-05-01T08:59:53Z</time></trkpt><trkpt lat="42.98011602758755" lon="11.86682806355378"><ele>547.0</ele><time>2026-05-01T08:59:54Z</time></trkpt><trkpt lat="42.98002261909369" lon="11.866711508115452"><ele>547.0</ele><time>2026-05-01T08:59:55Z</time></trkpt><trkpt lat="42.97993086846378" lon="11.866581263888275"><ele>547.0</ele><time>2026-05-01T08:59:56Z</time></trkpt><trkpt lat="42.979850033948885" lon="11.866436324994313"><ele>546.75</ele><time>2026-05-01T08:59:57Z</time></trkpt><trkpt lat="42.979780836775696" lon="11.866274544575132"><ele>546.5</ele><time>2026-05-01T08:59:58Z</time></trkpt><trkpt lat="42.979717801180094" lon="11.866100897266096"><ele>546.25</ele><time>2026-05-01T08:59:59Z</time></trkpt><trkpt lat="42.9796600947087" lon="11.865919894078154"><ele>546.0</ele><time>2026-05-01T09:00:00Z</time></trkpt><trkpt lat="42.97961721137634" lon="11.865730694760067"><ele>547.0</ele><time>2026-05-01T09:00:01Z</time></trkpt><trkpt lat="42.97957647902785" lon="11.865544401398765"><ele>548.0</ele><time>2026-05-01T09:00:02Z</time></trkpt><trkpt lat="42.97954432459184" lon="11.865369635709213"><ele>549.0</ele><time>2026-05-01T09:00:03Z</time></trkpt><trkpt lat="42.97951395460943" lon="11.86521189094549"><ele>550.0</ele><time>2026-05-01T09:00:04Z</time></trkpt><trkpt lat="42.97947608915383" lon="11.865067097118544"><ele>550.25</ele><time>2026-05-01T09:00:05Z</time></trkpt><trkpt lat="42.97943776221741" lon="11.864914101312216"><ele>550.5</ele><time>2026-05-01T09:00:06Z</time></trkpt><trkpt lat="42.97939986416804" lon="11.86474353204652"><ele>550.75</ele><time>2026-05-01T09:00:07Z</time></trkpt><trkpt lat="42.97937091744438" lon="11.864568929085497"><ele>551.0</ele><time>2026-05-01T09:00:08Z</time></trkpt><trkpt lat="42.97936443934707" lon="11.864384660796256"><ele>550.75</ele><time>2026-05-01T09:00:09Z</time></trkpt><trkpt lat="42.97940044654023" lon="11.864196613490103"><ele>550.5</ele><time>2026-05-01T09:00:10Z</time></trkpt><trkpt lat="42.97947097570307" lon="11.864020350976862"><ele>550.25</ele><time>2026-05-01T09:00:11Z</time></trkpt><trkpt lat="42.979565110112404" lon="11.863870476878763"><ele>550.0</ele><time>2026-05-01T09:00:12Z</time></trkpt><trkpt lat="42.97966984739824" lon="11.863756574005015"><ele>550.0</ele><time>2026-05-01T09:00:13Z</time></trkpt><trkpt lat="42.97975004730512" lon="11.863644333769793"><ele>550.0</ele><time>2026-05-01T09:00:14Z</time></trkpt><trkpt lat="42.9797745455729" lon="11.863529481186657"><ele>550.0</ele><time>2026-05-01T09:00:15Z</time></trkpt><trkpt lat="42.97977263210948" lon="11.863407888790066"><ele>550.0</ele><time>2026-05-01T09:00:16Z</time></trkpt><trkpt lat="42.97974485955448" lon="11.863307264698363"><ele>550.0</ele><time>2026-05-01T09:00:17Z</time></trkpt><trkpt lat="42.9796912786172" lon="11.863220691306541"><ele>551.6</ele><time>2026-05-01T09:00:18Z</time></trkpt><trkpt lat="42.97961688191076" lon="11.863154762154263"><ele>553.2</ele><time>2026-05-01T09:00:19Z</time></trkpt><trkpt lat="42.97952778870843" lon="11.86313266190953"><ele>554.8</ele><time>2026-05-01T09:00:20Z</time></trkpt><trkpt lat="42.97943554087646" lon="11.86316413626135"><ele>556.4</ele><time>2026-05-01T09:00:21Z</time></trkpt><trkpt lat="42.97935564500104" lon="11.86324996020564"><ele>558.0</ele><time>2026-05-01T09:00:22Z</time></trkpt><trkpt lat="42.97927685925484" lon="11.86339496214808"><ele>560.0</ele><time>2026-05-01T09:00:23Z</time></trkpt><trkpt lat="42.97915515379858" lon="11.863543109652781"><ele>562.0</ele><time>2026-05-01T09:00:24Z</time></trkpt><trkpt lat="42.97901461977953" lon="11.863728388078572"><ele>564.0</ele><time>2026-05-01T09:00:25Z</time></trkpt><trkpt lat="42.97886511950233" lon="11.863934562563312"><ele>564.0</ele><time>2026-05-01T09:00:26Z</time></trkpt><trkpt lat="42.97870986595529" lon="11.864109455936937"><ele>564.0</ele><time>2026-05-01T09:00:27Z</time></trkpt><trkpt lat="42.978580518520815" lon="11.864269834447972"><ele>564.0</ele><time>2026-05-01T09:00:28Z</time></trkpt><trkpt lat="42.97847256139229" lon="11.864386855282282"><ele>563.75</ele><time>2026-05-01T09:00:29Z</time></trkpt><trkpt lat="42.97837222273245" lon="11.86445018986796"><ele>563.5</ele><time>2026-05-01T09:00:30Z</time></trkpt><trkpt lat="42.9782581598877" lon="11.864461724630237"><ele>563.25</ele><time>2026-05-01T09:00:30.999Z</time></trkpt><trkpt lat="42.978134962619144" lon="11.864419782052304"><ele>563.0</ele><time>2026-05-01T09:00:31.999Z</time></trkpt><trkpt lat="42.978025405926836" lon="11.864304404399164"><ele>566.0</ele><time>2026-05-01T09:00:32.999Z</time></trkpt><trkpt lat="42.977873879669694" lon="11.86418964875233"><ele>569.0</ele><time>2026-05-01T09:00:33.999Z</time></trkpt><trkpt lat="42.97770679996682" lon="11.864027561233637"><ele>572.0</ele><time>2026-05-01T09:00:34.999Z</time></trkpt><trkpt lat="42.9775410485569" lon="11.863887130445496"><ele>574.0</ele><time>2026-05-01T09:00:35.999Z</time></trkpt><trkpt lat="42.97741437898321" lon="11.863780696993722"><ele>576.0</ele><time>2026-05-01T09:00:36.999Z</time></trkpt><trkpt lat="42.97730334675435" lon="11.86371584266304"><ele>578.0</ele><time>2026-05-01T09:00:37.999Z</time></trkpt><trkpt lat="42.977187996062234" lon="11.86371961337369"><ele>580.0</ele><time>2026-05-01T09:00:38.999Z</time></trkpt><trkpt lat="42.977071250053505" lon="11.863776281549907"><ele>580.0</ele><time>2026-05-01T09:00:39.999Z</time></trkpt><trkpt lat="42.97695965357204" lon="11.863896639279487"><ele>580.0</ele><time>2026-05-01T09:00:40.999Z</time></trkpt><trkpt lat="42.97685356281847" lon="11.864082811825188"><ele>580.0</ele><time>2026-05-01T09:00:41.999Z</time></trkpt><trkpt lat="42.976716164625344" lon="11.864327644579879"><ele>580.3333333333334</ele><time>2026-05-01T09:00:42.999Z</time></trkpt><trkpt lat="42.97659235121743" lon="11.864461691593819"><ele>580.6666666666666</ele><time>2026-05-01T09:00:43.999Z</time></trkpt><trkpt lat="42.97648150991081" lon="11.864574919926552"><ele>581.0</ele><time>2026-05-01T09:00:44.999Z</time></trkpt><trkpt lat="42.9763343877384" lon="11.864634952203465"><ele>581.0</ele><time>2026-05-01T09:00:45.999Z</time></trkpt><trkpt lat="42.976159845773964" lon="11.864662778077125"><ele>581.0</ele><time>2026-05-01T09:00:46.999Z</time></trkpt><trkpt lat="42.97593938282936" lon="11.864663703965268"><ele>581.0</ele><time>2026-05-01T09:00:47.999Z</time></trkpt><trkpt lat="42.97567587926467" lon="11.86467479171773"><ele>583.0</ele><time>2026-05-01T09:00:48.999Z</time></trkpt><trkpt lat="42.97540009534446" lon="11.864701860093051"><ele>585.0</ele><time>2026-05-01T09:00:49.999Z</time></trkpt><trkpt lat="42.975188156362876" lon="11.864712921578931"><ele>587.0</ele><time>2026-05-01T09:00:50.999Z</time></trkpt><trkpt lat="42.97501295572314" lon="11.864722141606615"><ele>589.0</ele><time>2026-05-01T09:00:51.999Z</time></trkpt><trkpt lat="42.974861353197916" lon="11.864723054062056"><ele>591.0</ele><time>2026-05-01T09:00:52.999Z</time></trkpt><trkpt lat="42.97472333971442" lon="11.864683842391466"><ele>591.0</ele><time>2026-05-01T09:00:53.999Z</time></trkpt><trkpt lat="42.974584840936124" lon="11.86457955980568"><ele>591.0</ele><time>2026-05-01T09:00:54.999Z</time></trkpt><trkpt lat="42.974473491904305" lon="11.86438230265594"><ele>591.0</ele><time>2026-05-01T09:00:55.999Z</time></trkpt><trkpt lat="42.97432541252448" lon="11.864162197436933"><ele>598.3333333333334</ele><time>2026-05-01T09:00:56.999Z</time></trkpt><trkpt lat="42.974180650838385" lon="11.863907357879114"><ele>605.6666666666667</ele><time>2026-05-01T09:00:57.999Z</time></trkpt><trkpt lat="42.97403680297975" lon="11.863713206709514"><ele>613.0</ele><time>2026-05-01T09:00:58.999Z</time></trkpt><trkpt lat="42.97386100788231" lon="11.863566816318938"><ele>625.5</ele><time>2026-05-01T09:00:59.999Z</time></trkpt><trkpt lat="42.973635633149286" lon="11.86344304596869"><ele>638.0</ele><time>2026-05-01T09:01:00.999Z</time></trkpt><trkpt lat="42.973380230674394" lon="11.863288996938149"><ele>634.0</ele><time>2026-05-01T09:01:01.999Z</time></trkpt><trkpt lat="42.97312339651426" lon="11.863065112855967"><ele>630.0</ele><time>2026-05-01T09:01:02.999Z</time></trkpt><trkpt lat="42.97289421066056" lon="11.862852845044225"><ele>630.0</ele><time>2026-05-01T09:01:03.999Z</time></trkpt><trkpt lat="42.97270454651839" lon="11.86269765099549"><ele>630.0</ele><time>2026-05-01T09:01:04.999Z</time></trkpt><trkpt lat="42.972524846148325" lon="11.862589716325337"><ele>630.0</ele><time>2026-05-01T09:01:05.999Z</time></trkpt><trkpt lat="42.97232345232329" lon="11.862511224758286"><ele>635.5</ele><time>2026-05-01T09:01:06.999Z</time></trkpt><trkpt lat="42.97210039286866" lon="11.862459777057614"><ele>641.0</ele><time>2026-05-01T09:01:07.999Z</time></trkpt><trkpt lat="42.97187627916963" lon="11.862426459444894"><ele>642.0</ele><time>2026-05-01T09:01:08.999Z</time></trkpt><trkpt lat="42.97166959114836" lon="11.862394045517055"><ele>643.0</ele><time>2026-05-01T09:01:09.999Z</time></trkpt><trkpt lat="42.971485704568735" lon="11.862352745925323"><ele>644.0</ele><time>2026-05-01T09:01:10.999Z</time></trkpt><trkpt lat="42.971312407459656" lon="11.862296952056836"><ele>644.0</ele><time>2026-05-01T09:01:11.999Z</time></trkpt><trkpt lat="42.971132910467524" lon="11.862221341759389"><ele>644.0</ele><time>2026-05-01T09:01:12.999Z</time></trkpt><trkpt lat="42.97095675258818" lon="11.862143088025208"><ele>644.0</ele><time>2026-05-01T09:01:13.999Z</time></trkpt><trkpt lat="42.970803446288265" lon="11.862073636906896"><ele>645.0</ele><time>2026-05-01T09:01:14.999Z</time></trkpt><trkpt lat="42.970674016290104" lon="11.86200255008029"><ele>646.0</ele><time>2026-05-01T09:01:15.999Z</time></trkpt><trkpt lat="42.97057583766565" lon="11.86190006554671"><ele>647.0</ele><time>2026-05-01T09:01:16.999Z</time></trkpt><trkpt lat="42.97053003761989" lon="11.861740214400475"><ele>648.0</ele><time>2026-05-01T09:01:17.999Z</time></trkpt><trkpt lat="42.97054719324894" lon="11.861556742497129"><ele>648.0</ele><time>2026-05-01T09:01:18.999Z</time></trkpt><trkpt lat="42.97058759109759" lon="11.861366655245586"><ele>648.0</ele><time>2026-05-01T09:01:19.999Z</time></trkpt><trkpt lat="42.97064970454699" lon="11.861148842147875"><ele>648.0</ele><time>2026-05-01T09:01:20.999Z</time></trkpt><trkpt lat="42.97073841232128" lon="11.860898504577852"><ele>648.0</ele><time>2026-05-01T09:01:21.999Z</time></trkpt><trkpt lat="42.97082430769358" lon="11.860626648980027"><ele>648.0</ele><time>2026-05-01T09:01:22.999Z</time></trkpt><trkpt lat="42.970905876109455" lon="11.860333272342784"><ele>648.0</ele><time>2026-05-01T09:01:23.999Z</time></trkpt><trkpt lat="42.97098425813637" lon="11.860050481963697"><ele>654.0</ele><time>2026-05-01T09:01:24.999Z</time></trkpt><trkpt lat="42.971040139346194" lon="11.859765539791804"><ele>660.0</ele><time>2026-05-01T09:01:25.999Z</time></trkpt><trkpt lat="42.97105113622461" lon="11.859453329349014"><ele>666.0</ele><time>2026-05-01T09:01:26.999Z</time></trkpt><trkpt lat="42.971028768088836" lon="11.859104043491064"><ele>666.5</ele><time>2026-05-01T09:01:27.999Z</time></trkpt><trkpt lat="42.970997047675795" lon="11.8587456263919"><ele>667.0</ele><time>2026-05-01T09:01:28.999Z</time></trkpt><trkpt lat="42.97098110878214" lon="11.858415478045323"><ele>670.0</ele><time>2026-05-01T09:01:29.999Z</time></trkpt><trkpt lat="42.97097925476342" lon="11.858132344326949"><ele>673.0</ele><time>2026-05-01T09:01:30.998Z</time></trkpt><trkpt lat="42.970955807325296" lon="11.857893625821406"><ele>676.0</ele><time>2026-05-01T09:01:31.998Z</time></trkpt><trkpt lat="42.97090822421945" lon="11.857678367661777"><ele>671.0</ele><time>2026-05-01T09:01:32.998Z</time></trkpt><trkpt lat="42.97082470312467" lon="11.857470940272634"><ele>666.0</ele><time>2026-05-01T09:01:33.998Z</time></trkpt><trkpt lat="42.97070231188916" lon="11.857279720347318"><ele>661.0</ele><time>2026-05-01T09:01:34.998Z</time></trkpt><trkpt lat="42.97053997831252" lon="11.85709559396985"><ele>661.0</ele><time>2026-05-01T09:01:35.998Z</time></trkpt><trkpt lat="42.970337658724745" lon="11.856912840208963"><ele>661.0</ele><time>2026-05-01T09:01:36.998Z</time></trkpt><trkpt lat="42.970155983241945" lon="11.85672036561418"><ele>660.0</ele><time>2026-05-01T09:01:37.998Z</time></trkpt><trkpt lat="42.96997434108173" lon="11.856504910777542"><ele>659.0</ele><time>2026-05-01T09:01:38.998Z</time></trkpt><trkpt lat="42.969779170010625" lon="11.856266071279798"><ele>659.0</ele><time>2026-05-01T09:01:39.998Z</time></trkpt><trkpt lat="42.9696076244132" lon="11.856053932472502"><ele>659.0</ele><time>2026-05-01T09:01:40.998Z</time></trkpt><trkpt lat="42.96943920565663" lon="11.85587621352351"><ele>659.0</ele><time>2026-05-01T09:01:41.998Z</time></trkpt><trkpt lat="42.96926076221859" lon="11.855697650539996"><ele>659.0</ele><time>2026-05-01T09:01:42.998Z</time></trkpt><trkpt lat="42.96904772541413" lon="11.85552816808007"><ele>659.0</ele><time>2026-05-01T09:01:43.998Z</time></trkpt><trkpt lat="42.96880839592618" lon="11.855374925532251"><ele>659.0</ele><time>2026-05-01T09:01:44.998Z</time></trkpt><trkpt lat="42.968572960795726" lon="11.855246970283252"><ele>659.0</ele><time>2026-05-01T09:01:45.998Z</time></trkpt><trkpt lat="42.96836367340032" lon="11.855138703671633"><ele>661.0</ele><time>2026-05-01T09:01:46.998Z</time></trkpt><trkpt lat="42.96814083512106" lon="11.855029545538583"><ele>663.0</ele><time>2026-05-01T09:01:47.998Z</time></trkpt><trkpt lat="42.96792184597157" lon="11.854907080183029"><ele>663.0</ele><time>2026-05-01T09:01:48.998Z</time></trkpt><trkpt lat="42.96767227678256" lon="11.854967400580504"><ele>663.0</ele><time>2026-05-01T09:01:49.998Z</time></trkpt><trkpt lat="42.9674726489673" lon="11.854930501693513"><ele>662.6666666666666</ele><time>2026-05-01T09:01:50.998Z</time></trkpt><trkpt lat="42.967291902808164" lon="11.854894774096259"><ele>662.3333333333333</ele><time>2026-05-01T09:01:52Z</time></trkpt><trkpt lat="42.96711909296436" lon="11.854841451813408"><ele>662.0</ele><time>2026-05-01T09:01:53Z</time></trkpt><trkpt lat="42.96695330228331" lon="11.85473868458849"><ele>662.0</ele><time>2026-05-01T09:01:54Z</time></trkpt><trkpt lat="42.96678158164101" lon="11.854596059139249"><ele>662.0</ele><time>2026-05-01T09:01:55Z</time></trkpt><trkpt lat="42.96660686456739" lon="11.854431789420458"><ele>662.0</ele><time>2026-05-01T09:01:56Z</time></trkpt><trkpt lat="42.9664410590369" lon="11.854272173501801"><ele>661.0</ele><time>2026-05-01T09:01:57Z</time></trkpt><trkpt lat="42.9662972606137" lon="11.854142867520151"><ele>660.0</ele><time>2026-05-01T09:01:58Z</time></trkpt><trkpt lat="42.96618082119893" lon="11.85403137510554"><ele>659.0</ele><time>2026-05-01T09:01:59Z</time></trkpt><trkpt lat="42.96606976200101" lon="11.853954788170668"><ele>658.0</ele><time>2026-05-01T09:02:00Z</time></trkpt><trkpt lat="42.96595495082796" lon="11.853911251951395"><ele>658.3333333333334</ele><time>2026-05-01T09:02:01Z</time></trkpt><trkpt lat="42.965826689839275" lon="11.853921109402076"><ele>658.6666666666666</ele><time>2026-05-01T09:02:02Z</time></trkpt><trkpt lat="42.96568625365488" lon="11.854006823643711"><ele>659.0</ele><time>2026-05-01T09:02:03Z</time></trkpt><trkpt lat="42.9655467158927" lon="11.854141048389891"><ele>659.0</ele><time>2026-05-01T09:02:04Z</time></trkpt><trkpt lat="42.96542797680578" lon="11.85427591568893"><ele>659.0</ele><time>2026-05-01T09:02:05Z</time></trkpt><trkpt lat="42.965302385947105" lon="11.854343715425351"><ele>659.0</ele><time>2026-05-01T09:02:06Z</time></trkpt><trkpt lat="42.96514483309914" lon="11.854321592914749"><ele>659.0</ele><time>2026-05-01T09:02:07Z</time></trkpt><trkpt lat="42.96497478186743" lon="11.854287478826457"><ele>657.0</ele><time>2026-05-01T09:02:08Z</time></trkpt><trkpt lat="42.96480241313598" lon="11.854259582186"><ele>655.0</ele><time>2026-05-01T09:02:09Z</time></trkpt><trkpt lat="42.964644702082175" lon="11.854238260353783"><ele>653.0</ele><time>2026-05-01T09:02:10Z</time></trkpt><trkpt lat="42.96450942662214" lon="11.85417903399991"><ele>653.0</ele><time>2026-05-01T09:02:11Z</time></trkpt><trkpt lat="42.964374950738836" lon="11.854085983978193"><ele>653.0</ele><time>2026-05-01T09:02:12Z</time></trkpt><trkpt lat="42.96423365556955" lon="11.85393305734179"><ele>653.0</ele><time>2026-05-01T09:02:13Z</time></trkpt><trkpt lat="42.96412024813779" lon="11.853767882845101"><ele>653.75</ele><time>2026-05-01T09:02:14Z</time></trkpt><trkpt lat="42.96400516656941" lon="11.853641885965102"><ele>654.5</ele><time>2026-05-01T09:02:15Z</time></trkpt><trkpt lat="42.96387251919123" lon="11.853553865854671"><ele>655.25</ele><time>2026-05-01T09:02:16Z</time></trkpt><trkpt lat="42.963722133247195" lon="11.85350920322437"><ele>656.0</ele><time>2026-05-01T09:02:17Z</time></trkpt><trkpt lat="42.96355218637542" lon="11.853509023450732"><ele>656.0</ele><time>2026-05-01T09:02:18Z</time></trkpt><trkpt lat="42.963399067217" lon="11.853472961371597"><ele>656.0</ele><time>2026-05-01T09:02:19Z</time></trkpt><trkpt lat="42.963258062886595" lon="11.853372602653511"><ele>656.0</ele><time>2026-05-01T09:02:20Z</time></trkpt><trkpt lat="42.96312565698115" lon="11.853207133884101"><ele>653.3333333333333</ele><time>2026-05-01T09:02:21Z</time></trkpt><trkpt lat="42.96299842362396" lon="11.853020055080169"><ele>650.6666666666666</ele><time>2026-05-01T09:02:22Z</time></trkpt><trkpt lat="42.96283332543504" lon="11.852855756491207"><ele>648.0</ele><time>2026-05-01T09:02:23Z</time></trkpt><trkpt lat="42.96262382506731" lon="11.852722256925867"><ele>645.5</ele><time>2026-05-01T09:02:24Z</time></trkpt><trkpt lat="42.96241711001351" lon="11.852568453406484"><ele>643.0</ele><time>2026-05-01T09:02:25Z</time></trkpt><trkpt lat="42.9622225198857" lon="11.852392734414266"><ele>643.0</ele><time>2026-05-01T09:02:26Z</time></trkpt><trkpt lat="42.96205433022872" lon="11.8522270977738"><ele>643.0</ele><time>2026-05-01T09:02:27Z</time></trkpt><trkpt lat="42.9618776118157" lon="11.85204996914089"><ele>643.0</ele><time>2026-05-01T09:02:28Z</time></trkpt><trkpt lat="42.96168499275703" lon="11.851868196251361"><ele>640.6666666666667</ele><time>2026-05-01T09:02:29Z</time></trkpt><trkpt lat="42.961489657825425" lon="11.85168109174167"><ele>638.3333333333334</ele><time>2026-05-01T09:02:30Z</time></trkpt><trkpt lat="42.96132481626494" lon="11.851508367095535"><ele>636.0</ele><time>2026-05-01T09:02:31Z</time></trkpt><trkpt lat="42.96117301206908" lon="11.851369343161416"><ele>636.0</ele><time>2026-05-01T09:02:32Z</time></trkpt><trkpt lat="42.96099736693315" lon="11.851257887551306"><ele>636.0</ele><time>2026-05-01T09:02:33Z</time></trkpt><trkpt lat="42.96079152605032" lon="11.851173196472908"><ele>636.0</ele><time>2026-05-01T09:02:34Z</time></trkpt><trkpt lat="42.96058319024537" lon="11.85110113104352"><ele>634.0</ele><time>2026-05-01T09:02:34.999Z</time></trkpt><trkpt lat="42.96039929300897" lon="11.851032908645543"><ele>632.0</ele><time>2026-05-01T09:02:35.999Z</time></trkpt><trkpt lat="42.960240190456574" lon="11.850960374647498"><ele>630.0</ele><time>2026-05-01T09:02:36.999Z</time></trkpt><trkpt lat="42.960101220645" lon="11.850910849130138"><ele>632.5</ele><time>2026-05-01T09:02:37.999Z</time></trkpt><trkpt lat="42.95995969578739" lon="11.850901434351456"><ele>635.0</ele><time>2026-05-01T09:02:38.999Z</time></trkpt><trkpt lat="42.95982025700741" lon="11.850953376243071"><ele>637.5</ele><time>2026-05-01T09:02:39.999Z</time></trkpt><trkpt lat="42.95968434119513" lon="11.851062738419621"><ele>640.0</ele><time>2026-05-01T09:02:40.999Z</time></trkpt><trkpt lat="42.959537575033664" lon="11.851235472757942"><ele>641.0</ele><time>2026-05-01T09:02:41.999Z</time></trkpt><trkpt lat="42.959387175142474" lon="11.851445487844863"><ele>642.0</ele><time>2026-05-01T09:02:42.999Z</time></trkpt><trkpt lat="42.959248584977544" lon="11.851614512479017"><ele>643.0</ele><time>2026-05-01T09:02:43.999Z</time></trkpt><trkpt lat="42.95909904309694" lon="11.851740562792061"><ele>649.0</ele><time>2026-05-01T09:02:44.999Z</time></trkpt><trkpt lat="42.95891881096377" lon="11.851836171343695"><ele>655.0</ele><time>2026-05-01T09:02:45.999Z</time></trkpt><trkpt lat="42.95874615228893" lon="11.851910380402256"><ele>661.0</ele><time>2026-05-01T09:02:46.999Z</time></trkpt><trkpt lat="42.95858638800756" lon="11.851998454378412"><ele>661.0</ele><time>2026-05-01T09:02:47.999Z</time></trkpt><trkpt lat="42.95842449350455" lon="11.852129404473283"><ele>661.0</ele><time>2026-05-01T09:02:48.999Z</time></trkpt><trkpt lat="42.95826813417934" lon="11.852274888010362"><ele>661.0</ele><time>2026-05-01T09:02:49.999Z</time></trkpt><trkpt lat="42.958130896808555" lon="11.85241184521074"><ele>661.3333333333334</ele><time>2026-05-01T09:02:50.999Z</time></trkpt><trkpt lat="42.958012063198304" lon="11.852540755914069"><ele>661.6666666666666</ele><time>2026-05-01T09:02:51.999Z</time></trkpt><trkpt lat="42.957889808983765" lon="11.852631855957801"><ele>662.0</ele><time>2026-05-01T09:02:52.999Z</time></trkpt><trkpt lat="42.95773232869457" lon="11.852659599270854"><ele>662.0</ele><time>2026-05-01T09:02:53.999Z</time></trkpt><trkpt lat="42.95754963248785" lon="11.852680022500637"><ele>662.0</ele><time>2026-05-01T09:02:54.999Z</time></trkpt><trkpt lat="42.957347938689836" lon="11.852748406340018"><ele>662.0</ele><time>2026-05-01T09:02:55.999Z</time></trkpt><trkpt lat="42.957149913146935" lon="11.852844720423462"><ele>658.6666666666666</ele><time>2026-05-01T09:02:56.999Z</time></trkpt><trkpt lat="42.95698586195876" lon="11.852942694026199"><ele>655.3333333333334</ele><time>2026-05-01T09:02:57.999Z</time></trkpt><trkpt lat="42.95684316708658" lon="11.853039993614132"><ele>652.0</ele><time>2026-05-01T09:02:58.999Z</time></trkpt><trkpt lat="42.956700462359485" lon="11.853122497195217"><ele>649.0</ele><time>2026-05-01T09:02:59.999Z</time></trkpt><trkpt lat="42.956549244266164" lon="11.853156675555383"><ele>646.0</ele><time>2026-05-01T09:03:00.999Z</time></trkpt><trkpt lat="42.95639040215844" lon="11.853146982318025"><ele>643.0</ele><time>2026-05-01T09:03:01.999Z</time></trkpt><trkpt lat="42.956245645976324" lon="11.853076208301783"><ele>643.0</ele><time>2026-05-01T09:03:02.999Z</time></trkpt><trkpt lat="42.95612103855243" lon="11.852984508282583"><ele>643.0</ele><time>2026-05-01T09:03:03.999Z</time></trkpt><trkpt lat="42.95600662689397" lon="11.852895424908235"><ele>643.0</ele><time>2026-05-01T09:03:04.999Z</time></trkpt><trkpt lat="42.95587466776764" lon="11.852846069610546"><ele>643.0</ele><time>2026-05-01T09:03:05.999Z</time></trkpt><trkpt lat="42.955701444105124" lon="11.85285106609836"><ele>643.6666666666667</ele><time>2026-05-01T09:03:06.999Z</time></trkpt><trkpt lat="42.95549264445986" lon="11.852931497626228"><ele>644.3333333333334</ele><time>2026-05-01T09:03:07.999Z</time></trkpt><trkpt lat="42.95530365514698" lon="11.852991649055312"><ele>645.0</ele><time>2026-05-01T09:03:08.999Z</time></trkpt><trkpt lat="42.95513338692804" lon="11.853005866974012"><ele>645.3333333333334</ele><time>2026-05-01T09:03:09.999Z</time></trkpt><trkpt lat="42.954946155169395" lon="11.852987349608506"><ele>645.6666666666667</ele><time>2026-05-01T09:03:10.999Z</time></trkpt><trkpt lat="42.95474979674018" lon="11.852954560654986"><ele>646.0</ele><time>2026-05-01T09:03:11.999Z</time></trkpt><trkpt lat="42.954560889505174" lon="11.852915485486673"><ele>646.0</ele><time>2026-05-01T09:03:12.999Z</time></trkpt><trkpt lat="42.954391185451406" lon="11.852863513412755"><ele>646.0</ele><time>2026-05-01T09:03:13.999Z</time></trkpt><trkpt lat="42.954229795315065" lon="11.852768776388496"><ele>646.0</ele><time>2026-05-01T09:03:14.999Z</time></trkpt><trkpt lat="42.954054498006194" lon="11.852650487386251"><ele>639.6666666666667</ele><time>2026-05-01T09:03:15.999Z</time></trkpt><trkpt lat="42.95385641298972" lon="11.852569293446674"><ele>633.3333333333334</ele><time>2026-05-01T09:03:16.999Z</time></trkpt><trkpt lat="42.95367638309727" lon="11.852519655081968"><ele>627.0</ele><time>2026-05-01T09:03:17.999Z</time></trkpt><trkpt lat="42.95351938677681" lon="11.85249020203853"><ele>627.0</ele><time>2026-05-01T09:03:18.999Z</time></trkpt><trkpt lat="42.953381211891305" lon="11.852471089247855"><ele>627.0</ele><time>2026-05-01T09:03:19.999Z</time></trkpt><trkpt lat="42.95323905928989" lon="11.852477338494937"><ele>627.0</ele><time>2026-05-01T09:03:20.999Z</time></trkpt><trkpt lat="42.95308046021929" lon="11.852533035227053"><ele>627.0</ele><time>2026-05-01T09:03:21.999Z</time></trkpt><trkpt lat="42.952912745789305" lon="11.852606855603074"><ele>626.25</ele><time>2026-05-01T09:03:22.999Z</time></trkpt><trkpt lat="42.952754519923054" lon="11.852602251492721"><ele>625.5</ele><time>2026-05-01T09:03:23.999Z</time></trkpt><trkpt lat="42.952618371631" lon="11.852568649657739"><ele>624.75</ele><time>2026-05-01T09:03:24.999Z</time></trkpt><trkpt lat="42.95249100310008" lon="11.85254166252808"><ele>624.0</ele><time>2026-05-01T09:03:25.999Z</time></trkpt><trkpt lat="42.95238849305324" lon="11.852542321005084"><ele>622.75</ele><time>2026-05-01T09:03:26.999Z</time></trkpt><trkpt lat="42.95228156238635" lon="11.85261208050709"><ele>621.5</ele><time>2026-05-01T09:03:27.999Z</time></trkpt><trkpt lat="42.95218541524128" lon="11.852749252459752"><ele>620.25</ele><time>2026-05-01T09:03:28.999Z</time></trkpt><trkpt lat="42.95210933963441" lon="11.85292278286833"><ele>619.0</ele><time>2026-05-01T09:03:29.999Z</time></trkpt><trkpt lat="42.95202164953486" lon="11.853020115441401"><ele>622.75</ele><time>2026-05-01T09:03:30.999Z</time></trkpt><trkpt lat="42.95192796703429" lon="11.85306802651485"><ele>626.5</ele><time>2026-05-01T09:03:31.999Z</time></trkpt><trkpt lat="42.951818917891345" lon="11.853074878611318"><ele>630.25</ele><time>2026-05-01T09:03:32.999Z</time></trkpt><trkpt lat="42.9517201431531" lon="11.852991462073499"><ele>634.0</ele><time>2026-05-01T09:03:33.999Z</time></trkpt><trkpt lat="42.951637282454215" lon="11.85282676583225"><ele>634.0</ele><time>2026-05-01T09:03:34.998Z</time></trkpt><trkpt lat="42.95154599530831" lon="11.852649600867604"><ele>634.0</ele><time>2026-05-01T09:03:35.998Z</time></trkpt><trkpt lat="42.951422033722025" lon="11.852518244319947"><ele>634.0</ele><time>2026-05-01T09:03:36.998Z</time></trkpt><trkpt lat="42.951266644543054" lon="11.852437566021402"><ele>633.25</ele><time>2026-05-01T09:03:37.998Z</time></trkpt><trkpt lat="42.95111430465341" lon="11.852423207458186"><ele>632.5</ele><time>2026-05-01T09:03:38.998Z</time></trkpt><trkpt lat="42.95097248381927" lon="11.85244557619423"><ele>631.75</ele><time>2026-05-01T09:03:39.998Z</time></trkpt><trkpt lat="42.95083694752336" lon="11.852520762951507"><ele>631.0</ele><time>2026-05-01T09:03:40.998Z</time></trkpt><trkpt lat="42.95069345199067" lon="11.852664409751144"><ele>631.0</ele><time>2026-05-01T09:03:41.998Z</time></trkpt><trkpt lat="42.95054884340326" lon="11.852780079106235"><ele>631.0</ele><time>2026-05-01T09:03:42.998Z</time></trkpt><trkpt lat="42.95041851500032" lon="11.852871911320458"><ele>631.0</ele><time>2026-05-01T09:03:43.998Z</time></trkpt><trkpt lat="42.95026923758303" lon="11.852893494920428"><ele>631.0</ele><time>2026-05-01T09:03:44.998Z</time></trkpt><trkpt lat="42.95012583648076" lon="11.852848547503287"><ele>631.0</ele><time>2026-05-01T09:03:45.998Z</time></trkpt><trkpt lat="42.94996458013566" lon="11.852808379515356"><ele>631.0</ele><time>2026-05-01T09:03:46.998Z</time></trkpt><trkpt lat="42.94979878187771" lon="11.852725726575281"><ele>629.3333333333334</ele><time>2026-05-01T09:03:47.998Z</time></trkpt><trkpt lat="42.94962902013272" lon="11.852656970716033"><ele>627.6666666666666</ele><time>2026-05-01T09:03:48.998Z</time></trkpt><trkpt lat="42.94947097858503" lon="11.852604514133825"><ele>626.0</ele><time>2026-05-01T09:03:49.998Z</time></trkpt><trkpt lat="42.94932704095105" lon="11.852551228286588"><ele>625.3333333333333</ele><time>2026-05-01T09:03:50.998Z</time></trkpt><trkpt lat="42.94919383449199" lon="11.852482385531292"><ele>624.6666666666666</ele><time>2026-05-01T09:03:51.998Z</time></trkpt><trkpt lat="42.949069432913156" lon="11.852364889862923"><ele>624.0</ele><time>2026-05-01T09:03:52.998Z</time></trkpt><trkpt lat="42.94894238796797" lon="11.852190204322937"><ele>624.0</ele><time>2026-05-01T09:03:53.998Z</time></trkpt><trkpt lat="42.948815082093866" lon="11.85200646932028"><ele>624.0</ele><time>2026-05-01T09:03:54.998Z</time></trkpt><trkpt lat="42.948688146643" lon="11.851859358106722"><ele>624.0</ele><time>2026-05-01T09:03:55.998Z</time></trkpt><trkpt lat="42.9485402047821" lon="11.85174659795745"><ele>624.6666666666666</ele><time>2026-05-01T09:03:56.998Z</time></trkpt><trkpt lat="42.9483750824298" lon="11.851678618753395"><ele>625.3333333333333</ele><time>2026-05-01T09:03:58Z</time></trkpt><trkpt lat="42.94819369972348" lon="11.851647449358095"><ele>626.0</ele><time>2026-05-01T09:03:59Z</time></trkpt><trkpt lat="42.948005774539" lon="11.85165750840086"><ele>626.0</ele><time>2026-05-01T09:04:00Z</time></trkpt><trkpt lat="42.94783615514664" lon="11.851668151754685"><ele>626.0</ele><time>2026-05-01T09:04:01Z</time></trkpt><trkpt lat="42.94769271951861" lon="11.851646897872339"><ele>626.0</ele><time>2026-05-01T09:04:02Z</time></trkpt><trkpt lat="42.94756780629355" lon="11.851590261169672"><ele>626.0</ele><time>2026-05-01T09:04:03Z</time></trkpt><trkpt lat="42.94745581088459" lon="11.851472034026495"><ele>626.6666666666666</ele><time>2026-05-01T09:04:04Z</time></trkpt><trkpt lat="42.94735860111251" lon="11.85127708180792"><ele>627.3333333333334</ele><time>2026-05-01T09:04:05Z</time></trkpt><trkpt lat="42.94724196958626" lon="11.851048878725878"><ele>628.0</ele><time>2026-05-01T09:04:06Z</time></trkpt><trkpt lat="42.94709988425283" lon="11.850802276868441"><ele>625.6666666666667</ele><time>2026-05-01T09:04:07Z</time></trkpt><trkpt lat="42.946978585553616" lon="11.850583703678698"><ele>623.3333333333334</ele><time>2026-05-01T09:04:08Z</time></trkpt><trkpt lat="42.946886678587084" lon="11.85041552372481"><ele>621.0</ele><time>2026-05-01T09:04:09Z</time></trkpt><trkpt lat="42.94680160655263" lon="11.850292444774606"><ele>623.0</ele><time>2026-05-01T09:04:10Z</time></trkpt><trkpt lat="42.946705144498104" lon="11.850226756583043"><ele>625.0</ele><time>2026-05-01T09:04:11Z</time></trkpt><trkpt lat="42.94659156770641" lon="11.850225797566138"><ele>627.0</ele><time>2026-05-01T09:04:12Z</time></trkpt><trkpt lat="42.94647293032605" lon="11.850257366110043"><ele>629.0</ele><time>2026-05-01T09:04:13Z</time></trkpt><trkpt lat="42.94635201416484" lon="11.85042693609806"><ele>629.0</ele><time>2026-05-01T09:04:14Z</time></trkpt><trkpt lat="42.94621333481877" lon="11.850589664538447"><ele>629.0</ele><time>2026-05-01T09:04:15Z</time></trkpt><trkpt lat="42.946079195948094" lon="11.85065393873279"><ele>629.0</ele><time>2026-05-01T09:04:16Z</time></trkpt><trkpt lat="42.9459598061869" lon="11.850693605879236"><ele>629.0</ele><time>2026-05-01T09:04:17Z</time></trkpt><trkpt lat="42.9458274811959" lon="11.850644210581923"><ele>632.0</ele><time>2026-05-01T09:04:18Z</time></trkpt><trkpt lat="42.94570839030563" lon="11.85052292414382"><ele>635.0</ele><time>2026-05-01T09:04:19Z</time></trkpt><trkpt lat="42.94559781968019" lon="11.850348120030597"><ele>638.0</ele><time>2026-05-01T09:04:20Z</time></trkpt><trkpt lat="42.94546183215804" lon="11.850134404779523"><ele>634.6666666666666</ele><time>2026-05-01T09:04:21Z</time></trkpt><trkpt lat="42.94530805653257" lon="11.849923824605558"><ele>631.3333333333334</ele><time>2026-05-01T09:04:22Z</time></trkpt><trkpt lat="42.945162144124545" lon="11.849702520944245"><ele>628.0</ele><time>2026-05-01T09:04:23Z</time></trkpt><trkpt lat="42.945048880280844" lon="11.849505513577864"><ele>628.5</ele><time>2026-05-01T09:04:24Z</time></trkpt><trkpt lat="42.944965637870325" lon="11.849313880718329"><ele>629.0</ele><time>2026-05-01T09:04:25Z</time></trkpt><trkpt lat="42.94489925012482" lon="11.849140589150537"><ele>629.5</ele><time>2026-05-01T09:04:26Z</time></trkpt><trkpt lat="42.94480278393619" lon="11.849000526019818"><ele>630.0</ele><time>2026-05-01T09:04:27Z</time></trkpt><trkpt lat="42.94468398386489" lon="11.848905975444493"><ele>630.0</ele><time>2026-05-01T09:04:28Z</time></trkpt><trkpt lat="42.94455182212908" lon="11.84887407570154"><ele>630.0</ele><time>2026-05-01T09:04:29Z</time></trkpt><trkpt lat="42.94441692786144" lon="11.8488948041219"><ele>630.0</ele><time>2026-05-01T09:04:30Z</time></trkpt><trkpt lat="42.94429367879497" lon="11.848978344556741"><ele>630.0</ele><time>2026-05-01T09:04:31Z</time></trkpt><trkpt lat="42.94418867408016" lon="11.849138920090914"><ele>635.0</ele><time>2026-05-01T09:04:32Z</time></trkpt><trkpt lat="42.94409198015004" lon="11.849371605589662"><ele>640.0</ele><time>2026-05-01T09:04:33Z</time></trkpt><trkpt lat="42.94397288717992" lon="11.849548918548352"><ele>645.0</ele><time>2026-05-01T09:04:34Z</time></trkpt><trkpt lat="42.94388266807857" lon="11.849697097721586"><ele>645.0</ele><time>2026-05-01T09:04:35Z</time></trkpt><trkpt lat="42.9437576458822" lon="11.849794060011938"><ele>645.0</ele><time>2026-05-01T09:04:36Z</time></trkpt><trkpt lat="42.943608290677744" lon="11.849843779755783"><ele>645.0</ele><time>2026-05-01T09:04:37Z</time></trkpt><trkpt lat="42.94345667695472" lon="11.849847825958646"><ele>645.0</ele><time>2026-05-01T09:04:38Z</time></trkpt><trkpt lat="42.94329849365011" lon="11.849784471302396"><ele>644.0</ele><time>2026-05-01T09:04:39Z</time></trkpt><trkpt lat="42.9431302568554" lon="11.849678042564511"><ele>643.0</ele><time>2026-05-01T09:04:40Z</time></trkpt><trkpt lat="42.94295610490972" lon="11.849562655199557"><ele>642.0</ele><time>2026-05-01T09:04:41Z</time></trkpt><trkpt lat="42.942795533903926" lon="11.849485407124654"><ele>642.0</ele><time>2026-05-01T09:04:41.999Z</time></trkpt><trkpt lat="42.942642470004266" lon="11.849454705115878"><ele>642.0</ele><time>2026-05-01T09:04:42.999Z</time></trkpt><trkpt lat="42.94248370748404" lon="11.84945374213287"><ele>642.0</ele><time>2026-05-01T09:04:43.999Z</time></trkpt><trkpt lat="42.94231305639118" lon="11.849522200044822"><ele>643.0</ele><time>2026-05-01T09:04:44.999Z</time></trkpt><trkpt lat="42.942128621403036" lon="11.849624895219963"><ele>644.0</ele><time>2026-05-01T09:04:45.999Z</time></trkpt><trkpt lat="42.94191385720169" lon="11.849722669172973"><ele>645.0</ele><time>2026-05-01T09:04:46.999Z</time></trkpt><trkpt lat="42.94169061804291" lon="11.849833241596532"><ele>645.25</ele><time>2026-05-01T09:04:47.999Z</time></trkpt><trkpt lat="42.94151999472198" lon="11.849934777245135"><ele>645.5</ele><time>2026-05-01T09:04:48.999Z</time></trkpt><trkpt lat="42.94139122199346" lon="11.849982200807036"><ele>645.75</ele><time>2026-05-01T09:04:49.999Z</time></trkpt><trkpt lat="42.94128223177756" lon="11.849997724654244"><ele>646.0</ele><time>2026-05-01T09:04:50.999Z</time></trkpt><trkpt lat="42.94117959009535" lon="11.849924673646477"><ele>646.0</ele><time>2026-05-01T09:04:51.999Z</time></trkpt><trkpt lat="42.941045402888356" lon="11.849840034847283"><ele>646.0</ele><time>2026-05-01T09:04:52.999Z</time></trkpt><trkpt lat="42.94089991646344" lon="11.849731812416712"><ele>646.0</ele><time>2026-05-01T09:04:53.999Z</time></trkpt><trkpt lat="42.94072964297395" lon="11.849690129139994"><ele>647.3333333333334</ele><time>2026-05-01T09:04:54.999Z</time></trkpt><trkpt lat="42.94054228988929" lon="11.849698206493734"><ele>648.6666666666666</ele><time>2026-05-01T09:04:55.999Z</time></trkpt><trkpt lat="42.940375438855824" lon="11.849731982128052"><ele>650.0</ele><time>2026-05-01T09:04:56.999Z</time></trkpt><trkpt lat="42.940230768353175" lon="11.8496996322872"><ele>650.0</ele><time>2026-05-01T09:04:57.999Z</time></trkpt><trkpt lat="42.940122726269045" lon="11.849591662155674"><ele>650.0</ele><time>2026-05-01T09:04:58.999Z</time></trkpt><trkpt lat="42.940029846135516" lon="11.849485132233488"><ele>650.0</ele><time>2026-05-01T09:04:59.999Z</time></trkpt><trkpt lat="42.939968251999154" lon="11.849343271829785"><ele>650.0</ele><time>2026-05-01T09:05:00.999Z</time></trkpt><trkpt lat="42.939931541452665" lon="11.849248053486853"><ele>650.0</ele><time>2026-05-01T09:05:01.999Z</time></trkpt><trkpt lat="42.9399051404604" lon="11.849164823144916"><ele>650.0</ele><time>2026-05-01T09:05:03.999Z</time></trkpt><trkpt lat="42.939749112649984" lon="11.84922710128552"><ele>650.0</ele><time>2026-05-01T09:05:04.999Z</time></trkpt><trkpt lat="42.93964062482582" lon="11.84919313608518"><ele>650.0</ele><time>2026-05-01T09:05:05.999Z</time></trkpt><trkpt lat="42.939535630010795" lon="11.849173323997592"><ele>650.0</ele><time>2026-05-01T09:05:06.999Z</time></trkpt><trkpt lat="42.939418091605965" lon="11.849158967050245"><ele>650.0</ele><time>2026-05-01T09:05:07.999Z</time></trkpt><trkpt lat="42.939293875092766" lon="11.849124573459147"><ele>650.0</ele><time>2026-05-01T09:05:08.999Z</time></trkpt><trkpt lat="42.93915276058509" lon="11.849103502441356"><ele>650.0</ele><time>2026-05-01T09:05:09.999Z</time></trkpt><trkpt lat="42.9390107301933" lon="11.849076205409068"><ele>650.0</ele><time>2026-05-01T09:05:10.999Z</time></trkpt><trkpt lat="42.938862306179495" lon="11.849032671542599"><ele>653.3333333333333</ele><time>2026-05-01T09:05:11.999Z</time></trkpt><trkpt lat="42.938707356698394" lon="11.848973332367303"><ele>656.6666666666666</ele><time>2026-05-01T09:05:12.999Z</time></trkpt><trkpt lat="42.93853923908435" lon="11.848914225526787"><ele>660.0</ele><time>2026-05-01T09:05:13.999Z</time></trkpt><trkpt lat="42.93838396243005" lon="11.848873331443679"><ele>661.5</ele><time>2026-05-01T09:05:14.999Z</time></trkpt><trkpt lat="42.93823748594146" lon="11.848843395594434"><ele>663.0</ele><time>2026-05-01T09:05:15.999Z</time></trkpt><trkpt lat="42.938103659443904" lon="11.848823542045814"><ele>664.5</ele><time>2026-05-01T09:05:16.999Z</time></trkpt><trkpt lat="42.937991159484326" lon="11.848813561034989"><ele>666.0</ele><time>2026-05-01T09:05:17.999Z</time></trkpt><trkpt lat="42.937874045219544" lon="11.84883070880996"><ele>666.0</ele><time>2026-05-01T09:05:18.999Z</time></trkpt><trkpt lat="42.93776478983803" lon="11.848868012137372"><ele>666.0</ele><time>2026-05-01T09:05:19.999Z</time></trkpt><trkpt lat="42.9376603917541" lon="11.848913021225053"><ele>666.0</ele><time>2026-05-01T09:05:20.999Z</time></trkpt><trkpt lat="42.93757248663014" lon="11.848971283253874"><ele>666.0</ele><time>2026-05-01T09:05:21.999Z</time></trkpt><trkpt lat="42.93751249548081" lon="11.849034111577035"><ele>666.0</ele><time>2026-05-01T09:05:22.999Z</time></trkpt><trkpt lat="42.93747441674345" lon="11.849125413769267"><ele>667.5999999999999</ele><time>2026-05-01T09:05:23.999Z</time></trkpt><trkpt lat="42.9374826888037" lon="11.849237415283538"><ele>669.2</ele><time>2026-05-01T09:05:24.999Z</time></trkpt><trkpt lat="42.937510859039094" lon="11.849336335475309"><ele>670.8</ele><time>2026-05-01T09:05:25.999Z</time></trkpt><trkpt lat="42.937563714846114" lon="11.849402950810415"><ele>672.4000000000001</ele><time>2026-05-01T09:05:26.999Z</time></trkpt><trkpt lat="42.937663779346465" lon="11.849439390409671"><ele>674.0</ele><time>2026-05-01T09:05:27.999Z</time></trkpt><trkpt lat="42.93778037115407" lon="11.849458146805318"><ele>675.6</ele><time>2026-05-01T09:05:28.999Z</time></trkpt><trkpt lat="42.93788127516084" lon="11.849529163915662"><ele>677.2</ele><time>2026-05-01T09:05:29.999Z</time></trkpt><trkpt lat="42.93796730624208" lon="11.84960836405908"><ele>678.8000000000001</ele><time>2026-05-01T09:05:30.999Z</time></trkpt><trkpt lat="42.93803780240578" lon="11.84968564843639"><ele>680.4000000000001</ele><time>2026-05-01T09:05:31.999Z</time></trkpt><trkpt lat="42.93804213953713" lon="11.849796298956948"><ele>682.0</ele><time>2026-05-01T09:05:32.999Z</time></trkpt><trkpt lat="42.938022403956474" lon="11.849937263846984"><ele>682.0</ele><time>2026-05-01T09:05:34.999Z</time></trkpt><trkpt lat="42.93796521265286" lon="11.849978079484066"><ele>682.0</ele><time>2026-05-01T09:05:35.999Z</time></trkpt><trkpt lat="42.93786067121347" lon="11.849942997788899"><ele>682.0</ele><time>2026-05-01T09:05:37.999Z</time></trkpt><trkpt lat="42.93781687664549" lon="11.849880006947252"><ele>682.0</ele><time>2026-05-01T09:05:38.999Z</time></trkpt><trkpt lat="42.937767888152564" lon="11.849792849976758"><ele>682.0</ele><time>2026-05-01T09:05:39.999Z</time></trkpt><trkpt lat="42.937712257068966" lon="11.849708333493608"><ele>682.0</ele><time>2026-05-01T09:05:40.999Z</time></trkpt><trkpt lat="42.93765643101003" lon="11.84965317557088"><ele>682.0</ele><time>2026-05-01T09:05:41.998Z</time></trkpt><trkpt lat="42.937580288739134" lon="11.849620968334653"><ele>682.0</ele><time>2026-05-01T09:05:42.998Z</time></trkpt><trkpt lat="42.937492278744564" lon="11.849622325984312"><ele>682.0</ele><time>2026-05-01T09:05:43.998Z</time></trkpt><trkpt lat="42.93738484884219" lon="11.849649441372948"><ele>682.0</ele><time>2026-05-01T09:05:44.998Z</time></trkpt><trkpt lat="42.93727059077814" lon="11.849688073340113"><ele>682.0</ele><time>2026-05-01T09:05:45.998Z</time></trkpt><trkpt lat="42.93715670795205" lon="11.849749445011406"><ele>685.3333333333334</ele><time>2026-05-01T09:05:46.998Z</time></trkpt><trkpt lat="42.937025995625696" lon="11.849828234565537"><ele>688.6666666666666</ele><time>2026-05-01T09:05:47.998Z</time></trkpt><trkpt lat="42.93687528988488" lon="11.849918697053262"><ele>692.0</ele><time>2026-05-01T09:05:48.998Z</time></trkpt><trkpt lat="42.93671457973086" lon="11.850007886427425"><ele>692.5</ele><time>2026-05-01T09:05:49.998Z</time></trkpt><trkpt lat="42.936575425682314" lon="11.850069132120836"><ele>693.0</ele><time>2026-05-01T09:05:50.998Z</time></trkpt><trkpt lat="42.93645127277459" lon="11.850126786136624"><ele>693.5</ele><time>2026-05-01T09:05:51.998Z</time></trkpt><trkpt lat="42.936341785847624" lon="11.850166923751384"><ele>694.0</ele><time>2026-05-01T09:05:52.998Z</time></trkpt><trkpt lat="42.93622513116823" lon="11.850174980101828"><ele>694.0</ele><time>2026-05-01T09:05:53.998Z</time></trkpt><trkpt lat="42.93609970843153" lon="11.850147037181245"><ele>694.0</ele><time>2026-05-01T09:05:54.998Z</time></trkpt><trkpt lat="42.935953059038845" lon="11.850069485859455"><ele>694.0</ele><time>2026-05-01T09:05:55.998Z</time></trkpt><trkpt lat="42.935826121025904" lon="11.850000320512805"><ele>694.0</ele><time>2026-05-01T09:05:56.998Z</time></trkpt><trkpt lat="42.93574230568573" lon="11.849957550364046"><ele>695.8000000000001</ele><time>2026-05-01T09:05:57.998Z</time></trkpt><trkpt lat="42.93567304642413" lon="11.849950519308628"><ele>697.6</ele><time>2026-05-01T09:05:58.998Z</time></trkpt><trkpt lat="42.935604473625666" lon="11.849969614861285"><ele>699.4</ele><time>2026-05-01T09:05:59.998Z</time></trkpt><trkpt lat="42.93552029611576" lon="11.850029194457834"><ele>701.2</ele><time>2026-05-01T09:06:00.998Z</time></trkpt><trkpt lat="42.93542388383774" lon="11.850109632204648"><ele>703.0</ele><time>2026-05-01T09:06:01.998Z</time></trkpt><trkpt lat="42.93529479020456" lon="11.850196945563004"><ele>710.0</ele><time>2026-05-01T09:06:02.998Z</time></trkpt><trkpt lat="42.93514894486591" lon="11.850294505806245"><ele>717.0</ele><time>2026-05-01T09:06:04Z</time></trkpt><trkpt lat="42.93500501388973" lon="11.850374103472467"><ele>724.0</ele><time>2026-05-01T09:06:05Z</time></trkpt><trkpt lat="42.93487133777773" lon="11.850384728282435"><ele>725.0</ele><time>2026-05-01T09:06:06Z</time></trkpt><trkpt lat="42.93474374254526" lon="11.850416702714682"><ele>726.0</ele><time>2026-05-01T09:06:07Z</time></trkpt><trkpt lat="42.934613235000455" lon="11.850430492338782"><ele>727.0</ele><time>2026-05-01T09:06:08Z</time></trkpt><trkpt lat="42.93447279571905" lon="11.850495734458475"><ele>728.0</ele><time>2026-05-01T09:06:09Z</time></trkpt><trkpt lat="42.93431331113211" lon="11.850598966357879"><ele>725.6666666666666</ele><time>2026-05-01T09:06:10Z</time></trkpt><trkpt lat="42.9341484610893" lon="11.850694973277049"><ele>723.3333333333334</ele><time>2026-05-01T09:06:11Z</time></trkpt><trkpt lat="42.93399951733744" lon="11.850762829157782"><ele>721.0</ele><time>2026-05-01T09:06:12Z</time></trkpt><trkpt lat="42.933853380046024" lon="11.850801349220815"><ele>721.0</ele><time>2026-05-01T09:06:13Z</time></trkpt><trkpt lat="42.93370931630859" lon="11.850811090850097"><ele>721.0</ele><time>2026-05-01T09:06:14Z</time></trkpt><trkpt lat="42.93358535755224" lon="11.850799567951222"><ele>721.0</ele><time>2026-05-01T09:06:15Z</time></trkpt><trkpt lat="42.9334859958557" lon="11.850769857030949"><ele>721.0</ele><time>2026-05-01T09:06:16Z</time></trkpt><trkpt lat="42.93339210696831" lon="11.850802438442004"><ele>721.0</ele><time>2026-05-01T09:06:17Z</time></trkpt><trkpt lat="42.93329308848643" lon="11.850838809398107"><ele>721.0</ele><time>2026-05-01T09:06:18Z</time></trkpt><trkpt lat="42.93318918248956" lon="11.850935526255071"><ele>721.0</ele><time>2026-05-01T09:06:19Z</time></trkpt><trkpt lat="42.93306436124829" lon="11.851039143032457"><ele>721.0</ele><time>2026-05-01T09:06:20Z</time></trkpt><trkpt lat="42.932920126606405" lon="11.851152303586968"><ele>724.3333333333334</ele><time>2026-05-01T09:06:21Z</time></trkpt><trkpt lat="42.93277251872334" lon="11.851294628493028"><ele>727.6666666666666</ele><time>2026-05-01T09:06:22Z</time></trkpt><trkpt lat="42.93261757816327" lon="11.851430069770233"><ele>731.0</ele><time>2026-05-01T09:06:23Z</time></trkpt><trkpt lat="42.93248028338782" lon="11.851556004140699"><ele>731.0</ele><time>2026-05-01T09:06:24Z</time></trkpt><trkpt lat="42.9323502765873" lon="11.851665896616797"><ele>731.0</ele><time>2026-05-01T09:06:25Z</time></trkpt><trkpt lat="42.93224155589342" lon="11.851774531878181"><ele>731.0</ele><time>2026-05-01T09:06:26Z</time></trkpt><trkpt lat="42.93213747112733" lon="11.851877871578889"><ele>731.0</ele><time>2026-05-01T09:06:27Z</time></trkpt><trkpt lat="42.93203875132251" lon="11.851978638953891"><ele>732.0</ele><time>2026-05-01T09:06:28Z</time></trkpt><trkpt lat="42.93192565300848" lon="11.85208554041263"><ele>733.0</ele><time>2026-05-01T09:06:29Z</time></trkpt><trkpt lat="42.93180321181155" lon="11.85220113518673"><ele>734.0</ele><time>2026-05-01T09:06:30Z</time></trkpt><trkpt lat="42.93169149428619" lon="11.852308370104586"><ele>735.0</ele><time>2026-05-01T09:06:31Z</time></trkpt><trkpt lat="42.93159134720666" lon="11.852411491523236"><ele>735.0</ele><time>2026-05-01T09:06:32Z</time></trkpt><trkpt lat="42.93150996166389" lon="11.85250898191754"><ele>735.0</ele><time>2026-05-01T09:06:33Z</time></trkpt><trkpt lat="42.931424792983705" lon="11.852592987796548"><ele>735.0</ele><time>2026-05-01T09:06:34Z</time></trkpt><trkpt lat="42.93135246195583" lon="11.852661687584517"><ele>735.0</ele><time>2026-05-01T09:06:35Z</time></trkpt><trkpt lat="42.931268725014554" lon="11.852771277746367"><ele>735.0</ele><time>2026-05-01T09:06:37Z</time></trkpt><trkpt lat="42.93121294916372" lon="11.852838481081076"><ele>733.5</ele><time>2026-05-01T09:06:38Z</time></trkpt><trkpt lat="42.93113520502787" lon="11.852949890677365"><ele>732.0</ele><time>2026-05-01T09:06:39Z</time></trkpt><trkpt lat="42.931041282416494" lon="11.853082140324858"><ele>730.5</ele><time>2026-05-01T09:06:40Z</time></trkpt><trkpt lat="42.930938133937055" lon="11.853230872162689"><ele>729.0</ele><time>2026-05-01T09:06:41Z</time></trkpt><trkpt lat="42.9308504387043" lon="11.853388739829994"><ele>729.2</ele><time>2026-05-01T09:06:42Z</time></trkpt><trkpt lat="42.93076609062156" lon="11.853530248233321"><ele>729.4000000000001</ele><time>2026-05-01T09:06:43Z</time></trkpt><trkpt lat="42.930686728486435" lon="11.853658358323749"><ele>729.6</ele><time>2026-05-01T09:06:44Z</time></trkpt><trkpt lat="42.930601464613154" lon="11.853753627282654"><ele>729.8</ele><time>2026-05-01T09:06:45Z</time></trkpt><trkpt lat="42.93056299205441" lon="11.853850866976483"><ele>730.0</ele><time>2026-05-01T09:06:45.999Z</time></trkpt><trkpt lat="42.93050938870368" lon="11.853961317229057"><ele>730.0</ele><time>2026-05-01T09:06:47.999Z</time></trkpt><trkpt lat="42.9304722905184" lon="11.854048325873782"><ele>730.0</ele><time>2026-05-01T09:06:50.999Z</time></trkpt><trkpt lat="42.930427523197615" lon="11.854114168760072"><ele>730.0</ele><time>2026-05-01T09:06:52.999Z</time></trkpt><trkpt lat="42.93038852278536" lon="11.854220176092939"><ele>730.0</ele><time>2026-05-01T09:06:54.999Z</time></trkpt><trkpt lat="42.93038145453897" lon="11.854313522611644"><ele>730.0</ele><time>2026-05-01T09:06:55.999Z</time></trkpt><trkpt lat="42.93036256314681" lon="11.854430430854045"><ele>730.0</ele><time>2026-05-01T09:06:56.999Z</time></trkpt><trkpt lat="42.93037017836758" lon="11.854585730098364"><ele>729.4</ele><time>2026-05-01T09:06:57.999Z</time></trkpt><trkpt lat="42.93037402125337" lon="11.854753908621372"><ele>728.8</ele><time>2026-05-01T09:06:58.999Z</time></trkpt><trkpt lat="42.93038240256767" lon="11.85489908591356"><ele>728.2</ele><time>2026-05-01T09:06:59.999Z</time></trkpt><trkpt lat="42.9303871725845" lon="11.855028372313516"><ele>727.6</ele><time>2026-05-01T09:07:00.999Z</time></trkpt><trkpt lat="42.93039181987796" lon="11.85514832376766"><ele>727.0</ele><time>2026-05-01T09:07:01.999Z</time></trkpt><trkpt lat="42.93039267871206" lon="11.85526018570029"><ele>726.4000000000001</ele><time>2026-05-01T09:07:02.999Z</time></trkpt><trkpt lat="42.93038122045731" lon="11.855374190228796"><ele>725.8000000000001</ele><time>2026-05-01T09:07:03.999Z</time></trkpt><trkpt lat="42.93032714061528" lon="11.855493684598628"><ele>725.2</ele><time>2026-05-01T09:07:04.999Z</time></trkpt><trkpt lat="42.93027506720479" lon="11.855611767763287"><ele>724.6</ele><time>2026-05-01T09:07:05.999Z</time></trkpt><trkpt lat="42.93022267630105" lon="11.855700509920737"><ele>724.0</ele><time>2026-05-01T09:07:06.999Z</time></trkpt><trkpt lat="42.930104945849855" lon="11.855752458214585"><ele>723.75</ele><time>2026-05-01T09:07:08.999Z</time></trkpt><trkpt lat="42.930023911798635" lon="11.855675159878745"><ele>723.5</ele><time>2026-05-01T09:07:09.999Z</time></trkpt><trkpt lat="42.92990795396797" lon="11.855631802610318"><ele>723.25</ele><time>2026-05-01T09:07:10.999Z</time></trkpt><trkpt lat="42.929775286366784" lon="11.855572616541403"><ele>723.0</ele><time>2026-05-01T09:07:11.999Z</time></trkpt><trkpt lat="42.929619482669615" lon="11.85551460131607"><ele>723.0</ele><time>2026-05-01T09:07:12.999Z</time></trkpt><trkpt lat="42.92948357796012" lon="11.855462897245589"><ele>723.0</ele><time>2026-05-01T09:07:13.999Z</time></trkpt><trkpt lat="42.929342672815714" lon="11.855439026646959"><ele>723.0</ele><time>2026-05-01T09:07:14.999Z</time></trkpt><trkpt lat="42.929195431465686" lon="11.855419770906254"><ele>723.0</ele><time>2026-05-01T09:07:15.999Z</time></trkpt><trkpt lat="42.92907814035907" lon="11.855412358821242"><ele>724.2</ele><time>2026-05-01T09:07:16.999Z</time></trkpt><trkpt lat="42.92898074653305" lon="11.855427292310567"><ele>725.4</ele><time>2026-05-01T09:07:17.999Z</time></trkpt><trkpt lat="42.92888660426879" lon="11.855460903408778"><ele>726.6</ele><time>2026-05-01T09:07:18.999Z</time></trkpt><trkpt lat="42.928767992288556" lon="11.855504933519887"><ele>727.8000000000001</ele><time>2026-05-01T09:07:19.999Z</time></trkpt><trkpt lat="42.928639628769766" lon="11.855522675347109"><ele>729.0</ele><time>2026-05-01T09:07:20.999Z</time></trkpt><trkpt lat="42.92852190848185" lon="11.855508488309269"><ele>729.0</ele><time>2026-05-01T09:07:21.999Z</time></trkpt><trkpt lat="42.928410975284734" lon="11.855463869355697"><ele>729.0</ele><time>2026-05-01T09:07:22.999Z</time></trkpt><trkpt lat="42.92827521208769" lon="11.855396129634643"><ele>729.0</ele><time>2026-05-01T09:07:23.999Z</time></trkpt><trkpt lat="42.92812740989665" lon="11.855316806119292"><ele>729.0</ele><time>2026-05-01T09:07:24.999Z</time></trkpt><trkpt lat="42.928007983269595" lon="11.855250927960121"><ele>729.4000000000001</ele><time>2026-05-01T09:07:25.999Z</time></trkpt><trkpt lat="42.927908261808334" lon="11.855213350528583"><ele>729.8</ele><time>2026-05-01T09:07:26.999Z</time></trkpt><trkpt lat="42.927808743801826" lon="11.855192976787066"><ele>730.2</ele><time>2026-05-01T09:07:27.999Z</time></trkpt><trkpt lat="42.92771764290743" lon="11.8551968689895"><ele>730.5999999999999</ele><time>2026-05-01T09:07:28.999Z</time></trkpt><trkpt lat="42.92762453742377" lon="11.855213652925285"><ele>731.0</ele><time>2026-05-01T09:07:29.999Z</time></trkpt><trkpt lat="42.92752883757934" lon="11.855266345236956"><ele>732.25</ele><time>2026-05-01T09:07:30.999Z</time></trkpt><trkpt lat="42.92741598583107" lon="11.85533554182814"><ele>733.5</ele><time>2026-05-01T09:07:31.999Z</time></trkpt><trkpt lat="42.92729911599896" lon="11.855423143985009"><ele>734.75</ele><time>2026-05-01T09:07:32.999Z</time></trkpt><trkpt lat="42.92718838317682" lon="11.855506732289982"><ele>736.0</ele><time>2026-05-01T09:07:33.999Z</time></trkpt><trkpt lat="42.92708474652298" lon="11.855573750780623"><ele>736.0</ele><time>2026-05-01T09:07:34.999Z</time></trkpt><trkpt lat="42.9269747438738" lon="11.855584082650134"><ele>736.0</ele><time>2026-05-01T09:07:35.999Z</time></trkpt><trkpt lat="42.92690402904738" lon="11.855624990269373"><ele>736.0</ele><time>2026-05-01T09:07:36.999Z</time></trkpt><trkpt lat="42.926833017664904" lon="11.855634681963112"><ele>736.0</ele><time>2026-05-01T09:07:37.999Z</time></trkpt><trkpt lat="42.92673395870148" lon="11.855692562976516"><ele>736.0</ele><time>2026-05-01T09:07:39.999Z</time></trkpt><trkpt lat="42.926661101088385" lon="11.855752399422517"><ele>734.8333333333334</ele><time>2026-05-01T09:07:41.999Z</time></trkpt><trkpt lat="42.9266040001472" lon="11.855809345140036"><ele>733.6666666666667</ele><time>2026-05-01T09:07:43.999Z</time></trkpt><trkpt lat="42.92655168855186" lon="11.855905712593117"><ele>732.5</ele><time>2026-05-01T09:07:46.998Z</time></trkpt><trkpt lat="42.92654022326366" lon="11.855992801943552"><ele>731.3333333333334</ele><time>2026-05-01T09:07:47.998Z</time></trkpt><trkpt lat="42.92652987063005" lon="11.856106572644862"><ele>730.1666666666666</ele><time>2026-05-01T09:07:48.998Z</time></trkpt><trkpt lat="42.926521080766236" lon="11.85625312496515"><ele>729.0</ele><time>2026-05-01T09:07:49.998Z</time></trkpt><trkpt lat="42.92651623074857" lon="11.856408761608465"><ele>729.0</ele><time>2026-05-01T09:07:50.998Z</time></trkpt><trkpt lat="42.92649026120762" lon="11.856555818916036"><ele>729.0</ele><time>2026-05-01T09:07:51.998Z</time></trkpt><trkpt lat="42.926439540311016" lon="11.856670644192587"><ele>729.0</ele><time>2026-05-01T09:07:52.998Z</time></trkpt><trkpt lat="42.926384151682214" lon="11.856755436241976"><ele>729.0</ele><time>2026-05-01T09:07:53.998Z</time></trkpt><trkpt lat="42.926330090904145" lon="11.856813701967727"><ele>729.0</ele><time>2026-05-01T09:07:54.998Z</time></trkpt><trkpt lat="42.92626589525747" lon="11.856864579220915"><ele>729.0</ele><time>2026-05-01T09:07:55.998Z</time></trkpt><trkpt lat="42.92618773425779" lon="11.856880431342848"><ele>729.0</ele><time>2026-05-01T09:07:56.998Z</time></trkpt><trkpt lat="42.926101707257935" lon="11.856869872857526"><ele>729.0</ele><time>2026-05-01T09:07:57.998Z</time></trkpt><trkpt lat="42.926016105619944" lon="11.856799885785568"><ele>729.0</ele><time>2026-05-01T09:07:58.998Z</time></trkpt><trkpt lat="42.92590708101925" lon="11.856758787065534"><ele>729.0</ele><time>2026-05-01T09:07:59.998Z</time></trkpt><trkpt lat="42.925815786025105" lon="11.856687142912708"><ele>729.0</ele><time>2026-05-01T09:08:00.998Z</time></trkpt><trkpt lat="42.92572869094017" lon="11.85666497554905"><ele>728.1666666666666</ele><time>2026-05-01T09:08:01.998Z</time></trkpt><trkpt lat="42.925658819592826" lon="11.856669393941448"><ele>727.3333333333334</ele><time>2026-05-01T09:08:02.998Z</time></trkpt><trkpt lat="42.925579771288966" lon="11.856691913362685"><ele>726.5</ele><time>2026-05-01T09:08:04.998Z</time></trkpt><trkpt lat="42.92550414415931" lon="11.856726274621963"><ele>725.6666666666667</ele><time>2026-05-01T09:08:08.998Z</time></trkpt><trkpt lat="42.925426829313096" lon="11.85676261661267"><ele>724.8333333333334</ele><time>2026-05-01T09:08:11Z</time></trkpt><trkpt lat="42.925351775447496" lon="11.856803708105074"><ele>724.0</ele><time>2026-05-01T09:08:12Z</time></trkpt><trkpt lat="42.9252510442255" lon="11.856864638902364"><ele>726.25</ele><time>2026-05-01T09:08:13Z</time></trkpt><trkpt lat="42.92511775158997" lon="11.856909704506192"><ele>728.5</ele><time>2026-05-01T09:08:14Z</time></trkpt><trkpt lat="42.924973228882386" lon="11.85698742794441"><ele>730.75</ele><time>2026-05-01T09:08:15Z</time></trkpt><trkpt lat="42.92486915835527" lon="11.857032681946809"><ele>733.0</ele><time>2026-05-01T09:08:16Z</time></trkpt><trkpt lat="42.924783442154585" lon="11.857084934599806"><ele>733.0</ele><time>2026-05-01T09:08:17Z</time></trkpt><trkpt lat="42.92469676916907" lon="11.85714746691365"><ele>733.0</ele><time>2026-05-01T09:08:18Z</time></trkpt><trkpt lat="42.92460239035059" lon="11.857258083486746"><ele>733.0</ele><time>2026-05-01T09:08:19Z</time></trkpt><trkpt lat="42.92449210728488" lon="11.85738189856297"><ele>733.0</ele><time>2026-05-01T09:08:20Z</time></trkpt><trkpt lat="42.9243647845089" lon="11.8575040620553"><ele>734.25</ele><time>2026-05-01T09:08:21Z</time></trkpt><trkpt lat="42.92423131789516" lon="11.857622135537097"><ele>735.5</ele><time>2026-05-01T09:08:22Z</time></trkpt><trkpt lat="42.92411338347209" lon="11.857708366472181"><ele>736.75</ele><time>2026-05-01T09:08:23Z</time></trkpt><trkpt lat="42.924010322226735" lon="11.857790614754457"><ele>738.0</ele><time>2026-05-01T09:08:24Z</time></trkpt><trkpt lat="42.92390343646149" lon="11.857863222337222"><ele>738.0</ele><time>2026-05-01T09:08:25Z</time></trkpt><trkpt lat="42.92380351803622" lon="11.857935342632631"><ele>738.0</ele><time>2026-05-01T09:08:26Z</time></trkpt><trkpt lat="42.92370546059307" lon="11.857972368400896"><ele>738.0</ele><time>2026-05-01T09:08:27Z</time></trkpt><trkpt lat="42.92362917742431" lon="11.858053984360268"><ele>738.0</ele><time>2026-05-01T09:08:28Z</time></trkpt><trkpt lat="42.92355054646424" lon="11.858129246186213"><ele>738.0</ele><time>2026-05-01T09:08:29Z</time></trkpt><trkpt lat="42.923478726471785" lon="11.858246224009841"><ele>738.0</ele><time>2026-05-01T09:08:30Z</time></trkpt><trkpt lat="42.923404174827574" lon="11.858404176670485"><ele>738.0</ele><time>2026-05-01T09:08:31Z</time></trkpt><trkpt lat="42.923320957306785" lon="11.858558448771976"><ele>738.0</ele><time>2026-05-01T09:08:32Z</time></trkpt><trkpt lat="42.92326061497136" lon="11.858706498669733"><ele>738.0</ele><time>2026-05-01T09:08:33Z</time></trkpt><trkpt lat="42.92319675467989" lon="11.858825328225281"><ele>735.75</ele><time>2026-05-01T09:08:34Z</time></trkpt><trkpt lat="42.92312495737943" lon="11.858961072696834"><ele>733.5</ele><time>2026-05-01T09:08:35Z</time></trkpt><trkpt lat="42.92304572820797" lon="11.859097302305614"><ele>731.25</ele><time>2026-05-01T09:08:36Z</time></trkpt><trkpt lat="42.92297188701945" lon="11.859227987875919"><ele>729.0</ele><time>2026-05-01T09:08:37Z</time></trkpt><trkpt lat="42.922901164853805" lon="11.859366839963599"><ele>729.0</ele><time>2026-05-01T09:08:38Z</time></trkpt><trkpt lat="42.922832215707885" lon="11.859478327124382"><ele>729.0</ele><time>2026-05-01T09:08:39Z</time></trkpt><trkpt lat="42.922760711404024" lon="11.85954590752242"><ele>729.0</ele><time>2026-05-01T09:08:40Z</time></trkpt><trkpt lat="42.92266983404148" lon="11.859565269100768"><ele>729.0</ele><time>2026-05-01T09:08:41Z</time></trkpt><trkpt lat="42.922553356668594" lon="11.859515463063193"><ele>729.0</ele><time>2026-05-01T09:08:42Z</time></trkpt><trkpt lat="42.9224070683419" lon="11.859481066855585"><ele>729.6666666666666</ele><time>2026-05-01T09:08:43Z</time></trkpt><trkpt lat="42.92223738715434" lon="11.859455946580379"><ele>730.3333333333333</ele><time>2026-05-01T09:08:44Z</time></trkpt><trkpt lat="42.922072678319516" lon="11.859436033254106"><ele>731.0</ele><time>2026-05-01T09:08:45Z</time></trkpt><trkpt lat="42.92193799768758" lon="11.859414879637333"><ele>731.0</ele><time>2026-05-01T09:08:46Z</time></trkpt><trkpt lat="42.921807353623926" lon="11.859399668462071"><ele>731.0</ele><time>2026-05-01T09:08:47Z</time></trkpt><trkpt lat="42.92169150817544" lon="11.859380747162067"><ele>731.0</ele><time>2026-05-01T09:08:48Z</time></trkpt><trkpt lat="42.92159094027572" lon="11.8593672323966"><ele>731.0</ele><time>2026-05-01T09:08:49Z</time></trkpt><trkpt lat="42.921499496811165" lon="11.859370498345639"><ele>731.0</ele><time>2026-05-01T09:08:50Z</time></trkpt><trkpt lat="42.9214376360165" lon="11.859409142277938"><ele>729.25</ele><time>2026-05-01T09:08:51Z</time></trkpt><trkpt lat="42.921382961618455" lon="11.859473846032785"><ele>727.5</ele><time>2026-05-01T09:08:52Z</time></trkpt><trkpt lat="42.92129834956563" lon="11.859581733327811"><ele>725.75</ele><time>2026-05-01T09:08:53Z</time></trkpt><trkpt lat="42.921190163892675" lon="11.859698050374686"><ele>724.0</ele><time>2026-05-01T09:08:53.999Z</time></trkpt><trkpt lat="42.92107328597573" lon="11.859781983885973"><ele>724.0</ele><time>2026-05-01T09:08:54.999Z</time></trkpt><trkpt lat="42.92097550463141" lon="11.859889819876628"><ele>724.0</ele><time>2026-05-01T09:08:55.999Z</time></trkpt><trkpt lat="42.92085915603198" lon="11.859992060138895"><ele>724.0</ele><time>2026-05-01T09:08:56.999Z</time></trkpt><trkpt lat="42.92071002904847" lon="11.860102756690766"><ele>724.0</ele><time>2026-05-01T09:08:57.999Z</time></trkpt><trkpt lat="42.92055727474227" lon="11.860224295703953"><ele>722.25</ele><time>2026-05-01T09:08:58.999Z</time></trkpt><trkpt lat="42.92042480695257" lon="11.860321683468962"><ele>720.5</ele><time>2026-05-01T09:08:59.999Z</time></trkpt><trkpt lat="42.920314114079716" lon="11.860397297905159"><ele>718.75</ele><time>2026-05-01T09:09:00.999Z</time></trkpt><trkpt lat="42.92021618748166" lon="11.860447879854648"><ele>717.0</ele><time>2026-05-01T09:09:01.999Z</time></trkpt><trkpt lat="42.920130232348974" lon="11.860459891312752"><ele>717.2</ele><time>2026-05-01T09:09:02.999Z</time></trkpt><trkpt lat="42.920050885019286" lon="11.86041440713416"><ele>717.4000000000001</ele><time>2026-05-01T09:09:03.999Z</time></trkpt><trkpt lat="42.919980444277726" lon="11.860306522335728"><ele>717.5999999999999</ele><time>2026-05-01T09:09:04.999Z</time></trkpt><trkpt lat="42.91990408645327" lon="11.860207244600641"><ele>717.8</ele><time>2026-05-01T09:09:05.999Z</time></trkpt><trkpt lat="42.919838066254336" lon="11.86007579582306"><ele>718.0</ele><time>2026-05-01T09:09:06.999Z</time></trkpt><trkpt lat="42.91976510570459" lon="11.859970916503121"><ele>715.5</ele><time>2026-05-01T09:09:07.999Z</time></trkpt><trkpt lat="42.91967336583592" lon="11.859855286933257"><ele>713.0</ele><time>2026-05-01T09:09:08.999Z</time></trkpt><trkpt lat="42.91958552385101" lon="11.8597444010552"><ele>710.5</ele><time>2026-05-01T09:09:09.999Z</time></trkpt><trkpt lat="42.9195146012869" lon="11.859622348903692"><ele>708.0</ele><time>2026-05-01T09:09:10.999Z</time></trkpt><trkpt lat="42.91943918038202" lon="11.859505225078104"><ele>708.0</ele><time>2026-05-01T09:09:11.999Z</time></trkpt><trkpt lat="42.91936214391717" lon="11.859402790141498"><ele>708.0</ele><time>2026-05-01T09:09:12.999Z</time></trkpt><trkpt lat="42.9193030995184" lon="11.859280484634347"><ele>708.0</ele><time>2026-05-01T09:09:13.999Z</time></trkpt><trkpt lat="42.91925000476947" lon="11.859155796684039"><ele>708.0</ele><time>2026-05-01T09:09:14.999Z</time></trkpt><trkpt lat="42.91922043950691" lon="11.859022745136114"><ele>708.0</ele><time>2026-05-01T09:09:15.999Z</time></trkpt><trkpt lat="42.919165283665095" lon="11.858903936593498"><ele>707.75</ele><time>2026-05-01T09:09:16.999Z</time></trkpt><trkpt lat="42.91912525955367" lon="11.858767123761327"><ele>707.5</ele><time>2026-05-01T09:09:17.999Z</time></trkpt><trkpt lat="42.9190794660892" lon="11.858629233429147"><ele>707.25</ele><time>2026-05-01T09:09:18.999Z</time></trkpt><trkpt lat="42.9190204498035" lon="11.858465951897454"><ele>707.0</ele><time>2026-05-01T09:09:19.999Z</time></trkpt><trkpt lat="42.918953815558304" lon="11.858285544229135"><ele>706.25</ele><time>2026-05-01T09:09:20.999Z</time></trkpt><trkpt lat="42.918882541912545" lon="11.858095867171704"><ele>705.5</ele><time>2026-05-01T09:09:21.999Z</time></trkpt><trkpt lat="42.91881411628204" lon="11.857905983875629"><ele>704.75</ele><time>2026-05-01T09:09:22.999Z</time></trkpt><trkpt lat="42.91874812657012" lon="11.857740686219174"><ele>704.0</ele><time>2026-05-01T09:09:23.999Z</time></trkpt><trkpt lat="42.91867168689325" lon="11.85758832017252"><ele>702.75</ele><time>2026-05-01T09:09:24.999Z</time></trkpt><trkpt lat="42.91859804796022" lon="11.85744499963658"><ele>701.5</ele><time>2026-05-01T09:09:25.999Z</time></trkpt><trkpt lat="42.918504908193185" lon="11.857293870809412"><ele>700.25</ele><time>2026-05-01T09:09:26.999Z</time></trkpt><trkpt lat="42.9184132230478" lon="11.857120657764503"><ele>699.0</ele><time>2026-05-01T09:09:27.999Z</time></trkpt><trkpt lat="42.918317687183716" lon="11.856987614976722"><ele>698.6666666666666</ele><time>2026-05-01T09:09:28.999Z</time></trkpt><trkpt lat="42.91822649426571" lon="11.856898586402616"><ele>698.3333333333334</ele><time>2026-05-01T09:09:29.999Z</time></trkpt><trkpt lat="42.91815964857321" lon="11.856802841581391"><ele>698.0</ele><time>2026-05-01T09:09:30.999Z</time></trkpt><trkpt lat="42.91810306874711" lon="11.856730481814397"><ele>697.6666666666667</ele><time>2026-05-01T09:09:31.999Z</time></trkpt><trkpt lat="42.9180418078029" lon="11.85667115639516"><ele>697.3333333333334</ele><time>2026-05-01T09:09:32.999Z</time></trkpt><trkpt lat="42.9179743969882" lon="11.856638793494492"><ele>697.0</ele><time>2026-05-01T09:09:33.999Z</time></trkpt><trkpt lat="42.91789041803716" lon="11.85664391339187"><ele>695.0</ele><time>2026-05-01T09:09:34.999Z</time></trkpt><trkpt lat="42.91778848509981" lon="11.85663662861624"><ele>693.0</ele><time>2026-05-01T09:09:35.999Z</time></trkpt><trkpt lat="42.91765531942219" lon="11.856688704361227"><ele>691.0</ele><time>2026-05-01T09:09:36.999Z</time></trkpt><trkpt lat="42.917511375125756" lon="11.85671338844543"><ele>689.0</ele><time>2026-05-01T09:09:37.999Z</time></trkpt><trkpt lat="42.91739841544982" lon="11.856735333420804"><ele>688.25</ele><time>2026-05-01T09:09:38.999Z</time></trkpt><trkpt lat="42.91729163644249" lon="11.856749590170239"><ele>687.5</ele><time>2026-05-01T09:09:39.999Z</time></trkpt><trkpt lat="42.91719452180822" lon="11.856771107444095"><ele>686.75</ele><time>2026-05-01T09:09:40.999Z</time></trkpt><trkpt lat="42.91708315379814" lon="11.856823965022615"><ele>686.0</ele><time>2026-05-01T09:09:41.999Z</time></trkpt><trkpt lat="42.916966257974245" lon="11.856918255389925"><ele>688.0</ele><time>2026-05-01T09:09:42.999Z</time></trkpt><trkpt lat="42.91685594991995" lon="11.857013638263016"><ele>690.0</ele><time>2026-05-01T09:09:43.999Z</time></trkpt><trkpt lat="42.91674556774758" lon="11.857070714949188"><ele>692.0</ele><time>2026-05-01T09:09:44.999Z</time></trkpt><trkpt lat="42.91662891170836" lon="11.857092297827986"><ele>694.0</ele><time>2026-05-01T09:09:45.999Z</time></trkpt><trkpt lat="42.916503313274966" lon="11.85708114878228"><ele>694.0</ele><time>2026-05-01T09:09:46.999Z</time></trkpt><trkpt lat="42.916361230507505" lon="11.85704930246644"><ele>694.0</ele><time>2026-05-01T09:09:47.999Z</time></trkpt><trkpt lat="42.91623397848535" lon="11.857011555130523"><ele>694.0</ele><time>2026-05-01T09:09:48.999Z</time></trkpt><trkpt lat="42.91611372074897" lon="11.856977198184637"><ele>694.0</ele><time>2026-05-01T09:09:49.999Z</time></trkpt><trkpt lat="42.91600119264062" lon="11.85693304992614"><ele>692.5</ele><time>2026-05-01T09:09:50.999Z</time></trkpt><trkpt lat="42.91589373138393" lon="11.856871567439217"><ele>691.0</ele><time>2026-05-01T09:09:51.999Z</time></trkpt><trkpt lat="42.91579479256972" lon="11.856811673142731"><ele>689.5</ele><time>2026-05-01T09:09:52.999Z</time></trkpt><trkpt lat="42.915718781742314" lon="11.856760775991072"><ele>688.0</ele><time>2026-05-01T09:09:53.999Z</time></trkpt><trkpt lat="42.915658915738845" lon="11.856713511745935"><ele>686.5</ele><time>2026-05-01T09:09:54.998Z</time></trkpt><trkpt lat="42.91560277515531" lon="11.85666219381758"><ele>685.0</ele><time>2026-05-01T09:09:55.998Z</time></trkpt><trkpt lat="42.91555272869736" lon="11.856592584523938"><ele>680.5</ele><time>2026-05-01T09:09:56.998Z</time></trkpt><trkpt lat="42.9155035279005" lon="11.856494499527496"><ele>676.0</ele><time>2026-05-01T09:09:57.998Z</time></trkpt><trkpt lat="42.91545464935353" lon="11.856346782301353"><ele>671.5</ele><time>2026-05-01T09:09:58.998Z</time></trkpt><trkpt lat="42.9153969901329" lon="11.856174382593212"><ele>667.0</ele><time>2026-05-01T09:09:59.998Z</time></trkpt><trkpt lat="42.915328204399636" lon="11.855990703700332"><ele>664.0</ele><time>2026-05-01T09:10:00.998Z</time></trkpt><trkpt lat="42.91525889770774" lon="11.855801604966747"><ele>661.0</ele><time>2026-05-01T09:10:01.998Z</time></trkpt><trkpt lat="42.91519564477846" lon="11.855620947935389"><ele>658.0</ele><time>2026-05-01T09:10:02.998Z</time></trkpt><trkpt lat="42.91513006700479" lon="11.855441877782454"><ele>655.0</ele><time>2026-05-01T09:10:03.998Z</time></trkpt><trkpt lat="42.91506881707982" lon="11.855264615886343"><ele>652.75</ele><time>2026-05-01T09:10:04.998Z</time></trkpt><trkpt lat="42.91501404178923" lon="11.855099137267706"><ele>650.5</ele><time>2026-05-01T09:10:05.998Z</time></trkpt><trkpt lat="42.91496773884376" lon="11.854952222817293"><ele>648.25</ele><time>2026-05-01T09:10:06.998Z</time></trkpt><trkpt lat="42.91492320975283" lon="11.854818127953521"><ele>646.0</ele><time>2026-05-01T09:10:07.998Z</time></trkpt><trkpt lat="42.91487500344896" lon="11.85469009790054"><ele>646.0</ele><time>2026-05-01T09:10:08.998Z</time></trkpt><trkpt lat="42.91481899863801" lon="11.854590058474543"><ele>646.0</ele><time>2026-05-01T09:10:09.998Z</time></trkpt><trkpt lat="42.9147488395586" lon="11.854492008642389"><ele>646.0</ele><time>2026-05-01T09:10:10.998Z</time></trkpt><trkpt lat="42.91466680557939" lon="11.854381878311557"><ele>646.0</ele><time>2026-05-01T09:10:11.998Z</time></trkpt><trkpt lat="42.91458052559247" lon="11.854251516699051"><ele>646.0</ele><time>2026-05-01T09:10:12.998Z</time></trkpt><trkpt lat="42.91450345875826" lon="11.854114745668303"><ele>645.4</ele><time>2026-05-01T09:10:13.998Z</time></trkpt><trkpt lat="42.91444196675592" lon="11.853994230006421"><ele>644.8</ele><time>2026-05-01T09:10:14.998Z</time></trkpt><trkpt lat="42.91439157780637" lon="11.853898254139589"><ele>644.1999999999999</ele><time>2026-05-01T09:10:16Z</time></trkpt><trkpt lat="42.91434504370957" lon="11.85382109202162"><ele>643.5999999999999</ele><time>2026-05-01T09:10:17Z</time></trkpt><trkpt lat="42.91424703490768" lon="11.853739684031083"><ele>643.0</ele><time>2026-05-01T09:10:19Z</time></trkpt><trkpt lat="42.91418297097236" lon="11.853709708576922"><ele>643.0</ele><time>2026-05-01T09:10:21Z</time></trkpt><trkpt lat="42.91411973479149" lon="11.853663036284967"><ele>643.0</ele><time>2026-05-01T09:10:27Z</time></trkpt><trkpt lat="42.914175642629544" lon="11.853777565348055"><ele>643.0</ele><time>2026-05-01T09:10:41Z</time></trkpt><trkpt lat="42.914183973414595" lon="11.853878647101268"><ele>643.0</ele><time>2026-05-01T09:10:43Z</time></trkpt><trkpt lat="42.914107559125746" lon="11.854032701563119"><ele>643.0</ele><time>2026-05-01T09:10:45Z</time></trkpt><trkpt lat="42.914044540773126" lon="11.854141994104875"><ele>643.0</ele><time>2026-05-01T09:10:46Z</time></trkpt><trkpt lat="42.91398022055057" lon="11.8542678003974"><ele>643.0</ele><time>2026-05-01T09:10:47Z</time></trkpt><trkpt lat="42.91392303939961" lon="11.854374523757924"><ele>643.0</ele><time>2026-05-01T09:10:48Z</time></trkpt><trkpt lat="42.9138714915419" lon="11.854454303746678"><ele>643.0</ele><time>2026-05-01T09:10:49Z</time></trkpt><trkpt lat="42.91381216451744" lon="11.854532141269411"><ele>643.0</ele><time>2026-05-01T09:10:50Z</time></trkpt><trkpt lat="42.9137488258771" lon="11.854597632571798"><ele>643.0</ele><time>2026-05-01T09:10:51Z</time></trkpt><trkpt lat="42.913683309017266" lon="11.854659698730694"><ele>642.5</ele><time>2026-05-01T09:10:52Z</time></trkpt><trkpt lat="42.91360193470352" lon="11.854723391779306"><ele>642.0</ele><time>2026-05-01T09:10:53Z</time></trkpt><trkpt lat="42.91350238583255" lon="11.85479464444211"><ele>641.5</ele><time>2026-05-01T09:10:54Z</time></trkpt><trkpt lat="42.91337515544138" lon="11.854873557742593"><ele>641.0</ele><time>2026-05-01T09:10:55Z</time></trkpt><trkpt lat="42.91324543013215" lon="11.854955247721398"><ele>640.0</ele><time>2026-05-01T09:10:56Z</time></trkpt><trkpt lat="42.913123669710956" lon="11.855042425292087"><ele>639.0</ele><time>2026-05-01T09:10:57Z</time></trkpt><trkpt lat="42.91300798504718" lon="11.855131369046203"><ele>638.0</ele><time>2026-05-01T09:10:58Z</time></trkpt><trkpt lat="42.91289647343868" lon="11.85521435692667"><ele>637.0</ele><time>2026-05-01T09:10:59Z</time></trkpt><trkpt lat="42.91278203170458" lon="11.855296574116528"><ele>637.0</ele><time>2026-05-01T09:10:59.999Z</time></trkpt><trkpt lat="42.91266998229691" lon="11.855379806646205"><ele>637.0</ele><time>2026-05-01T09:11:00.999Z</time></trkpt><trkpt lat="42.912562019959324" lon="11.855454152912346"><ele>637.0</ele><time>2026-05-01T09:11:01.999Z</time></trkpt><trkpt lat="42.912448886012584" lon="11.85551926914595"><ele>637.0</ele><time>2026-05-01T09:11:02.999Z</time></trkpt><trkpt lat="42.912339708254954" lon="11.855596391806893"><ele>633.5</ele><time>2026-05-01T09:11:03.999Z</time></trkpt><trkpt lat="42.91221545937758" lon="11.855674306954597"><ele>630.0</ele><time>2026-05-01T09:11:04.999Z</time></trkpt><trkpt lat="42.912098672106566" lon="11.855749762688363"><ele>626.5</ele><time>2026-05-01T09:11:05.999Z</time></trkpt><trkpt lat="42.911991644734975" lon="11.855805749291603"><ele>623.0</ele><time>2026-05-01T09:11:06.999Z</time></trkpt><trkpt lat="42.9118965708336" lon="11.855860933910567"><ele>623.0</ele><time>2026-05-01T09:11:07.999Z</time></trkpt><trkpt lat="42.911804458323" lon="11.855907360394358"><ele>623.0</ele><time>2026-05-01T09:11:08.999Z</time></trkpt><trkpt lat="42.91172343715563" lon="11.855940121223016"><ele>623.0</ele><time>2026-05-01T09:11:09.999Z</time></trkpt><trkpt lat="42.91165313164157" lon="11.855929711543787"><ele>623.0</ele><time>2026-05-01T09:11:10.999Z</time></trkpt><trkpt lat="42.91156040922936" lon="11.85594865015148"><ele>623.0</ele><time>2026-05-01T09:11:11.999Z</time></trkpt><trkpt lat="42.9114611756898" lon="11.855923466963912"><ele>623.0</ele><time>2026-05-01T09:11:12.999Z</time></trkpt><trkpt lat="42.91137027747402" lon="11.855907889780665"><ele>622.1999999999999</ele><time>2026-05-01T09:11:13.999Z</time></trkpt><trkpt lat="42.91127206138181" lon="11.855896975214371"><ele>621.4</ele><time>2026-05-01T09:11:14.999Z</time></trkpt><trkpt lat="42.91118094122443" lon="11.855889437293275"><ele>620.5999999999999</ele><time>2026-05-01T09:11:15.999Z</time></trkpt><trkpt lat="42.9110859417153" lon="11.855885585777395"><ele>619.8</ele><time>2026-05-01T09:11:16.999Z</time></trkpt><trkpt lat="42.9109982856646" lon="11.855902557754218"><ele>619.0</ele><time>2026-05-01T09:11:17.999Z</time></trkpt><trkpt lat="42.910901974420725" lon="11.855942804196607"><ele>618.25</ele><time>2026-05-01T09:11:18.999Z</time></trkpt><trkpt lat="42.9108011711258" lon="11.85600174550305"><ele>617.5</ele><time>2026-05-01T09:11:19.999Z</time></trkpt><trkpt lat="42.91066779375476" lon="11.856094764503007"><ele>616.75</ele><time>2026-05-01T09:11:20.999Z</time></trkpt><trkpt lat="42.91052092192979" lon="11.856215297429356"><ele>616.0</ele><time>2026-05-01T09:11:21.999Z</time></trkpt><trkpt lat="42.91038730856432" lon="11.856316085946732"><ele>616.0</ele><time>2026-05-01T09:11:22.999Z</time></trkpt><trkpt lat="42.91027018964079" lon="11.85639422709268"><ele>616.0</ele><time>2026-05-01T09:11:23.999Z</time></trkpt><trkpt lat="42.91016704831105" lon="11.856454349119906"><ele>616.0</ele><time>2026-05-01T09:11:24.999Z</time></trkpt><trkpt lat="42.91006829764842" lon="11.856535346828462"><ele>616.0</ele><time>2026-05-01T09:11:25.999Z</time></trkpt><trkpt lat="42.90996977402838" lon="11.856636970938215"><ele>616.0</ele><time>2026-05-01T09:11:26.999Z</time></trkpt><trkpt lat="42.90986243625141" lon="11.856760809272505"><ele>616.0</ele><time>2026-05-01T09:11:27.999Z</time></trkpt><trkpt lat="42.90975244896941" lon="11.856906403110974"><ele>616.0</ele><time>2026-05-01T09:11:28.999Z</time></trkpt><trkpt lat="42.90964967552414" lon="11.857058341643226"><ele>616.0</ele><time>2026-05-01T09:11:29.999Z</time></trkpt><trkpt lat="42.90955757898575" lon="11.857195676083359"><ele>615.75</ele><time>2026-05-01T09:11:30.999Z</time></trkpt><trkpt lat="42.90946466627479" lon="11.857272386192006"><ele>615.5</ele><time>2026-05-01T09:11:31.999Z</time></trkpt><trkpt lat="42.909364464818104" lon="11.857387285778264"><ele>615.25</ele><time>2026-05-01T09:11:32.999Z</time></trkpt><trkpt lat="42.90924734402877" lon="11.857468330240044"><ele>615.0</ele><time>2026-05-01T09:11:33.999Z</time></trkpt><trkpt lat="42.90913085564269" lon="11.857541603625775"><ele>615.0</ele><time>2026-05-01T09:11:34.999Z</time></trkpt><trkpt lat="42.909029695331434" lon="11.857594900167093"><ele>615.0</ele><time>2026-05-01T09:11:35.999Z</time></trkpt><trkpt lat="42.90892428279958" lon="11.85763265225799"><ele>615.0</ele><time>2026-05-01T09:11:36.999Z</time></trkpt><trkpt lat="42.90879810408834" lon="11.857656962809292"><ele>615.0</ele><time>2026-05-01T09:11:37.999Z</time></trkpt><trkpt lat="42.908650646437984" lon="11.857690773519286"><ele>616.0</ele><time>2026-05-01T09:11:38.999Z</time></trkpt><trkpt lat="42.90848288164499" lon="11.85773839729308"><ele>617.0</ele><time>2026-05-01T09:11:39.999Z</time></trkpt><trkpt lat="42.9082993920573" lon="11.85777786243093"><ele>618.0</ele><time>2026-05-01T09:11:40.999Z</time></trkpt><trkpt lat="42.908140242932724" lon="11.857814571478258"><ele>618.0</ele><time>2026-05-01T09:11:41.999Z</time></trkpt><trkpt lat="42.907991942975485" lon="11.857847592450318"><ele>618.0</ele><time>2026-05-01T09:11:42.999Z</time></trkpt><trkpt lat="42.90784966541502" lon="11.85786970532363"><ele>618.0</ele><time>2026-05-01T09:11:43.999Z</time></trkpt><trkpt lat="42.907723708893904" lon="11.85789001947685"><ele>618.0</ele><time>2026-05-01T09:11:44.999Z</time></trkpt><trkpt lat="42.90760083857393" lon="11.85791616298244"><ele>614.75</ele><time>2026-05-01T09:11:45.999Z</time></trkpt><trkpt lat="42.90749003863207" lon="11.857942454059291"><ele>611.5</ele><time>2026-05-01T09:11:46.999Z</time></trkpt><trkpt lat="42.90737754759469" lon="11.857970075595656"><ele>608.25</ele><time>2026-05-01T09:11:47.999Z</time></trkpt><trkpt lat="42.90726274220713" lon="11.857993893281364"><ele>605.0</ele><time>2026-05-01T09:11:48.999Z</time></trkpt><trkpt lat="42.907152614572894" lon="11.858018738142237"><ele>605.0</ele><time>2026-05-01T09:11:49.999Z</time></trkpt><trkpt lat="42.90704539675134" lon="11.858032130612893"><ele>605.0</ele><time>2026-05-01T09:11:50.999Z</time></trkpt><trkpt lat="42.906942046546675" lon="11.858053020127644"><ele>605.0</ele><time>2026-05-01T09:11:51.999Z</time></trkpt><trkpt lat="42.906840598493915" lon="11.858056957884859"><ele>605.0</ele><time>2026-05-01T09:11:52.999Z</time></trkpt><trkpt lat="42.9067433525165" lon="11.858072416446603"><ele>605.0</ele><time>2026-05-01T09:11:53.999Z</time></trkpt><trkpt lat="42.90664941557908" lon="11.858099903014484"><ele>601.25</ele><time>2026-05-01T09:11:54.999Z</time></trkpt><trkpt lat="42.90655330519958" lon="11.858137612556202"><ele>597.5</ele><time>2026-05-01T09:11:55.999Z</time></trkpt><trkpt lat="42.906434598256155" lon="11.858185998519556"><ele>593.75</ele><time>2026-05-01T09:11:56.999Z</time></trkpt><trkpt lat="42.9062921350825" lon="11.858250845757729"><ele>590.0</ele><time>2026-05-01T09:11:57.999Z</time></trkpt><trkpt lat="42.906149230385495" lon="11.85830959265733"><ele>590.0</ele><time>2026-05-01T09:11:58.999Z</time></trkpt><trkpt lat="42.90602174903791" lon="11.858355784757658"><ele>590.0</ele><time>2026-05-01T09:11:59.998Z</time></trkpt><trkpt lat="42.905894863564846" lon="11.858403277614336"><ele>590.0</ele><time>2026-05-01T09:12:00.998Z</time></trkpt><trkpt lat="42.90577745473431" lon="11.858444548244703"><ele>590.0</ele><time>2026-05-01T09:12:01.998Z</time></trkpt><trkpt lat="42.905665114842265" lon="11.858486626521689"><ele>591.0</ele><time>2026-05-01T09:12:02.998Z</time></trkpt><trkpt lat="42.90555524414201" lon="11.858526481668232"><ele>592.0</ele><time>2026-05-01T09:12:03.998Z</time></trkpt><trkpt lat="42.90545478063899" lon="11.858579234597194"><ele>593.0</ele><time>2026-05-01T09:12:04.998Z</time></trkpt><trkpt lat="42.90535374139367" lon="11.858639060334296"><ele>594.0</ele><time>2026-05-01T09:12:05.998Z</time></trkpt><trkpt lat="42.905249314866836" lon="11.858693979487999"><ele>595.0</ele><time>2026-05-01T09:12:06.998Z</time></trkpt><trkpt lat="42.90513976282814" lon="11.858777112465887"><ele>591.0</ele><time>2026-05-01T09:12:07.998Z</time></trkpt><trkpt lat="42.90502432360509" lon="11.858894525337838"><ele>587.0</ele><time>2026-05-01T09:12:08.998Z</time></trkpt><trkpt lat="42.90491496663578" lon="11.859040017324185"><ele>583.0</ele><time>2026-05-01T09:12:09.998Z</time></trkpt><trkpt lat="42.90478399636823" lon="11.859222027438898"><ele>587.0</ele><time>2026-05-01T09:12:10.998Z</time></trkpt><trkpt lat="42.904645842222045" lon="11.85945441032935"><ele>591.0</ele><time>2026-05-01T09:12:11.998Z</time></trkpt><trkpt lat="42.90451376115063" lon="11.859652140625153"><ele>595.0</ele><time>2026-05-01T09:12:12.998Z</time></trkpt><trkpt lat="42.904380949848445" lon="11.859847065467747"><ele>595.0</ele><time>2026-05-01T09:12:13.998Z</time></trkpt><trkpt lat="42.9042569201089" lon="11.86001681576707"><ele>595.0</ele><time>2026-05-01T09:12:14.998Z</time></trkpt><trkpt lat="42.90414442699472" lon="11.860169289869823"><ele>595.0</ele><time>2026-05-01T09:12:15.998Z</time></trkpt><trkpt lat="42.904046286113115" lon="11.860318743180784"><ele>597.6666666666667</ele><time>2026-05-01T09:12:16.998Z</time></trkpt><trkpt lat="42.90393966291662" lon="11.86046436356683"><ele>600.3333333333334</ele><time>2026-05-01T09:12:17.998Z</time></trkpt><trkpt lat="42.90383184624289" lon="11.860618476126099"><ele>603.0</ele><time>2026-05-01T09:12:18.998Z</time></trkpt><trkpt lat="42.903715507866764" lon="11.860774305231049"><ele>603.0</ele><time>2026-05-01T09:12:19.998Z</time></trkpt><trkpt lat="42.90361865485393" lon="11.860920249516667"><ele>603.0</ele><time>2026-05-01T09:12:20.998Z</time></trkpt><trkpt lat="42.90354349306333" lon="11.861028294735242"><ele>603.0</ele><time>2026-05-01T09:12:22Z</time></trkpt><trkpt lat="42.903493571254245" lon="11.861136860390824"><ele>603.0</ele><time>2026-05-01T09:12:23Z</time></trkpt><trkpt lat="42.903451190625496" lon="11.861280820266854"><ele>603.8</ele><time>2026-05-01T09:12:24Z</time></trkpt><trkpt lat="42.903423373486895" lon="11.861414853464577"><ele>604.5999999999999</ele><time>2026-05-01T09:12:25Z</time></trkpt><trkpt lat="42.90339907285728" lon="11.861535856046764"><ele>605.4000000000001</ele><time>2026-05-01T09:12:26Z</time></trkpt><trkpt lat="42.90333454163391" lon="11.861590691419133"><ele>606.2</ele><time>2026-05-01T09:12:27Z</time></trkpt><trkpt lat="42.90325846239411" lon="11.861645265177323"><ele>607.0</ele><time>2026-05-01T09:12:28Z</time></trkpt><trkpt lat="42.90316344317557" lon="11.861740116412978"><ele>612.5</ele><time>2026-05-01T09:12:29Z</time></trkpt><trkpt lat="42.90302034601244" lon="11.86181103386882"><ele>618.0</ele><time>2026-05-01T09:12:30Z</time></trkpt><trkpt lat="42.90288190270781" lon="11.861889033842111"><ele>623.5</ele><time>2026-05-01T09:12:31Z</time></trkpt><trkpt lat="42.902780203119306" lon="11.861956994553765"><ele>629.0</ele><time>2026-05-01T09:12:32Z</time></trkpt><trkpt lat="42.90267561948258" lon="11.861991108387969"><ele>629.0</ele><time>2026-05-01T09:12:33Z</time></trkpt><trkpt lat="42.90258132031649" lon="11.862039890497886"><ele>629.0</ele><time>2026-05-01T09:12:34Z</time></trkpt><trkpt lat="42.90246651848593" lon="11.862038221925564"><ele>629.0</ele><time>2026-05-01T09:12:35Z</time></trkpt><trkpt lat="42.90231325488342" lon="11.862028518640248"><ele>629.0</ele><time>2026-05-01T09:12:36Z</time></trkpt><trkpt lat="42.90214409186797" lon="11.861997904357743"><ele>624.0</ele><time>2026-05-01T09:12:37Z</time></trkpt><trkpt lat="42.90198716563287" lon="11.861976641684489"><ele>619.0</ele><time>2026-05-01T09:12:38Z</time></trkpt><trkpt lat="42.90181276392612" lon="11.861965540447653"><ele>614.0</ele><time>2026-05-01T09:12:39Z</time></trkpt><trkpt lat="42.90163932531437" lon="11.861948507905714"><ele>612.3333333333333</ele><time>2026-05-01T09:12:40Z</time></trkpt><trkpt lat="42.90147972646637" lon="11.861928899712467"><ele>610.6666666666666</ele><time>2026-05-01T09:12:41Z</time></trkpt><trkpt lat="42.90130934398626" lon="11.861903357656175"><ele>609.0</ele><time>2026-05-01T09:12:42Z</time></trkpt><trkpt lat="42.90112470511384" lon="11.861874064408344"><ele>609.0</ele><time>2026-05-01T09:12:43Z</time></trkpt><trkpt lat="42.90092710361319" lon="11.86185249232407"><ele>609.0</ele><time>2026-05-01T09:12:44Z</time></trkpt><trkpt lat="42.90074513700301" lon="11.861849382685751"><ele>609.0</ele><time>2026-05-01T09:12:45Z</time></trkpt><trkpt lat="42.90057550773378" lon="11.861809742295161"><ele>606.3333333333334</ele><time>2026-05-01T09:12:46Z</time></trkpt><trkpt lat="42.9004097714775" lon="11.861787392043153"><ele>603.6666666666667</ele><time>2026-05-01T09:12:47Z</time></trkpt><trkpt lat="42.900239062428895" lon="11.861780286702283"><ele>601.0</ele><time>2026-05-01T09:12:48Z</time></trkpt><trkpt lat="42.900078481258596" lon="11.861757150686822"><ele>595.3333333333334</ele><time>2026-05-01T09:12:49Z</time></trkpt><trkpt lat="42.89990520801217" lon="11.861740801281815"><ele>589.6666666666666</ele><time>2026-05-01T09:12:50Z</time></trkpt><trkpt lat="42.89972566788708" lon="11.861718315951327"><ele>584.0</ele><time>2026-05-01T09:12:51Z</time></trkpt><trkpt lat="42.89956299180993" lon="11.861699209912594"><ele>584.0</ele><time>2026-05-01T09:12:52Z</time></trkpt><trkpt lat="42.8994180747006" lon="11.861679786397067"><ele>584.0</ele><time>2026-05-01T09:12:53Z</time></trkpt><trkpt lat="42.899265104514015" lon="11.86166590442758"><ele>584.0</ele><time>2026-05-01T09:12:54Z</time></trkpt><trkpt lat="42.89910541573623" lon="11.861649454486493"><ele>583.75</ele><time>2026-05-01T09:12:55Z</time></trkpt><trkpt lat="42.89896081639317" lon="11.861632750993216"><ele>583.5</ele><time>2026-05-01T09:12:56Z</time></trkpt><trkpt lat="42.89882627563498" lon="11.861620718034994"><ele>583.25</ele><time>2026-05-01T09:12:57Z</time></trkpt><trkpt lat="42.89869238974364" lon="11.861609702493418"><ele>583.0</ele><time>2026-05-01T09:12:58Z</time></trkpt><trkpt lat="42.89855686304305" lon="11.861594810869873"><ele>583.0</ele><time>2026-05-01T09:12:59Z</time></trkpt><trkpt lat="42.8984260197357" lon="11.861577215719574"><ele>583.0</ele><time>2026-05-01T09:13:00Z</time></trkpt><trkpt lat="42.8982972236877" lon="11.861561951606378"><ele>583.0</ele><time>2026-05-01T09:13:01Z</time></trkpt><trkpt lat="42.898171744649815" lon="11.861550215347393"><ele>583.0</ele><time>2026-05-01T09:13:02Z</time></trkpt><trkpt lat="42.89805437029455" lon="11.861519464657201"><ele>581.8</ele><time>2026-05-01T09:13:03Z</time></trkpt><trkpt lat="42.89793984300359" lon="11.861520053095568"><ele>580.5999999999999</ele><time>2026-05-01T09:13:04Z</time></trkpt><trkpt lat="42.89783379626232" lon="11.861508106809783"><ele>579.4000000000001</ele><time>2026-05-01T09:13:04.999Z</time></trkpt><trkpt lat="42.89773757847512" lon="11.861497705496074"><ele>578.2</ele><time>2026-05-01T09:13:05.999Z</time></trkpt><trkpt lat="42.897641599311854" lon="11.861507219813221"><ele>577.0</ele><time>2026-05-01T09:13:06.999Z</time></trkpt><trkpt lat="42.89754058232853" lon="11.861513271921647"><ele>577.0</ele><time>2026-05-01T09:13:07.999Z</time></trkpt><trkpt lat="42.89742563177449" lon="11.861595709858285"><ele>577.0</ele><time>2026-05-01T09:13:08.999Z</time></trkpt><trkpt lat="42.897283760248655" lon="11.861686269904293"><ele>577.0</ele><time>2026-05-01T09:13:09.999Z</time></trkpt><trkpt lat="42.897145599431596" lon="11.861759032335318"><ele>577.0</ele><time>2026-05-01T09:13:10.999Z</time></trkpt><trkpt lat="42.89702390486143" lon="11.861856280307736"><ele>577.0</ele><time>2026-05-01T09:13:11.999Z</time></trkpt><trkpt lat="42.896912710460484" lon="11.861965441827548"><ele>577.0</ele><time>2026-05-01T09:13:12.999Z</time></trkpt><trkpt lat="42.896818443665175" lon="11.862089536715798"><ele>577.0</ele><time>2026-05-01T09:13:13.999Z</time></trkpt><trkpt lat="42.896758552231006" lon="11.862220791595961"><ele>577.0</ele><time>2026-05-01T09:13:14.999Z</time></trkpt><trkpt lat="42.89667265273852" lon="11.86235179834036"><ele>575.75</ele><time>2026-05-01T09:13:15.999Z</time></trkpt><trkpt lat="42.896603058953275" lon="11.862514717695234"><ele>574.5</ele><time>2026-05-01T09:13:16.999Z</time></trkpt><trkpt lat="42.896552262002764" lon="11.862658529754269"><ele>573.25</ele><time>2026-05-01T09:13:17.999Z</time></trkpt><trkpt lat="42.89647262908859" lon="11.8627818344018"><ele>572.0</ele><time>2026-05-01T09:13:18.999Z</time></trkpt><trkpt lat="42.89635000736545" lon="11.862879340865797"><ele>572.0</ele><time>2026-05-01T09:13:19.999Z</time></trkpt><trkpt lat="42.896206771448014" lon="11.862988613703976"><ele>572.0</ele><time>2026-05-01T09:13:20.999Z</time></trkpt><trkpt lat="42.89606895382014" lon="11.863067510082786"><ele>572.0</ele><time>2026-05-01T09:13:21.999Z</time></trkpt><trkpt lat="42.8959691030969" lon="11.863160897168015"><ele>572.0</ele><time>2026-05-01T09:13:22.999Z</time></trkpt><trkpt lat="42.89589572119053" lon="11.86327733257184"><ele>571.25</ele><time>2026-05-01T09:13:23.999Z</time></trkpt><trkpt lat="42.89580347413663" lon="11.863414087174624"><ele>570.5</ele><time>2026-05-01T09:13:24.999Z</time></trkpt><trkpt lat="42.895700935476505" lon="11.86355796215475"><ele>569.75</ele><time>2026-05-01T09:13:25.999Z</time></trkpt><trkpt lat="42.89561514019148" lon="11.863705834258989"><ele>569.0</ele><time>2026-05-01T09:13:26.999Z</time></trkpt><trkpt lat="42.895545327050414" lon="11.863819834910005"><ele>569.0</ele><time>2026-05-01T09:13:27.999Z</time></trkpt><trkpt lat="42.89548901014409" lon="11.86391087146145"><ele>569.0</ele><time>2026-05-01T09:13:28.999Z</time></trkpt><trkpt lat="42.8954520654159" lon="11.864009881292722"><ele>569.0</ele><time>2026-05-01T09:13:29.999Z</time></trkpt><trkpt lat="42.89541766366416" lon="11.864136410227706"><ele>569.0</ele><time>2026-05-01T09:13:30.999Z</time></trkpt><trkpt lat="42.89539445019828" lon="11.86428025921458"><ele>569.0</ele><time>2026-05-01T09:13:31.999Z</time></trkpt><trkpt lat="42.89537195030783" lon="11.864393377159715"><ele>571.1666666666666</ele><time>2026-05-01T09:13:32.999Z</time></trkpt><trkpt lat="42.895327982426146" lon="11.86448602576056"><ele>573.3333333333333</ele><time>2026-05-01T09:13:33.999Z</time></trkpt><trkpt lat="42.89526779449907" lon="11.86454071663274"><ele>575.5</ele><time>2026-05-01T09:13:34.999Z</time></trkpt><trkpt lat="42.89519444329918" lon="11.86456708698794"><ele>577.6666666666666</ele><time>2026-05-01T09:13:35.999Z</time></trkpt><trkpt lat="42.89512301382439" lon="11.86454216642021"><ele>579.8333333333334</ele><time>2026-05-01T09:13:36.999Z</time></trkpt><trkpt lat="42.895033840324594" lon="11.864539479813898"><ele>582.0</ele><time>2026-05-01T09:13:37.999Z</time></trkpt><trkpt lat="42.89492787200591" lon="11.86447770576964"><ele>582.0</ele><time>2026-05-01T09:13:38.999Z</time></trkpt><trkpt lat="42.89480943753077" lon="11.864428282762995"><ele>582.0</ele><time>2026-05-01T09:13:39.999Z</time></trkpt><trkpt lat="42.894708063128434" lon="11.864401512724388"><ele>582.0</ele><time>2026-05-01T09:13:40.999Z</time></trkpt><trkpt lat="42.89462933317574" lon="11.864417958613645"><ele>582.0</ele><time>2026-05-01T09:13:41.999Z</time></trkpt><trkpt lat="42.89454999673053" lon="11.864473240803314"><ele>582.0</ele><time>2026-05-01T09:13:42.999Z</time></trkpt><trkpt lat="42.894432498799354" lon="11.864544235062361"><ele>582.0</ele><time>2026-05-01T09:13:43.999Z</time></trkpt><trkpt lat="42.89431422545272" lon="11.864665265673775"><ele>582.0</ele><time>2026-05-01T09:13:44.999Z</time></trkpt><trkpt lat="42.8942004054937" lon="11.864796313707812"><ele>582.0</ele><time>2026-05-01T09:13:45.999Z</time></trkpt><trkpt lat="42.894094354214126" lon="11.864893408979803"><ele>582.0</ele><time>2026-05-01T09:13:46.999Z</time></trkpt><trkpt lat="42.893990621905914" lon="11.864951232430005"><ele>579.6</ele><time>2026-05-01T09:13:47.999Z</time></trkpt><trkpt lat="42.89388705348489" lon="11.864975554441326"><ele>577.2</ele><time>2026-05-01T09:13:48.999Z</time></trkpt><trkpt lat="42.89377007681532" lon="11.864997294330372"><ele>574.8</ele><time>2026-05-01T09:13:49.999Z</time></trkpt><trkpt lat="42.89364765754987" lon="11.864985965638606"><ele>572.4</ele><time>2026-05-01T09:13:50.999Z</time></trkpt><trkpt lat="42.89355039482785" lon="11.864985217741435"><ele>570.0</ele><time>2026-05-01T09:13:51.999Z</time></trkpt><trkpt lat="42.89342649075898" lon="11.864965673156746"><ele>569.0</ele><time>2026-05-01T09:13:52.999Z</time></trkpt><trkpt lat="42.893295130928884" lon="11.864971681303025"><ele>568.0</ele><time>2026-05-01T09:13:53.999Z</time></trkpt><trkpt lat="42.89318809569301" lon="11.864987447385507"><ele>567.0</ele><time>2026-05-01T09:13:54.999Z</time></trkpt><trkpt lat="42.893075433587505" lon="11.865021880888667"><ele>566.0</ele><time>2026-05-01T09:13:55.999Z</time></trkpt><trkpt lat="42.89297246316225" lon="11.865094739982059"><ele>568.6</ele><time>2026-05-01T09:13:56.999Z</time></trkpt><trkpt lat="42.892907870579414" lon="11.86520918270273"><ele>571.2</ele><time>2026-05-01T09:13:57.999Z</time></trkpt><trkpt lat="42.89284653657267" lon="11.865292005380388"><ele>573.8</ele><time>2026-05-01T09:13:58.999Z</time></trkpt><trkpt lat="42.89279433583541" lon="11.865409878177278"><ele>576.4</ele><time>2026-05-01T09:13:59.999Z</time></trkpt><trkpt lat="42.89275820051494" lon="11.86552507892135"><ele>579.0</ele><time>2026-05-01T09:14:00.999Z</time></trkpt><trkpt lat="42.892737756132306" lon="11.865649695107878"><ele>579.0</ele><time>2026-05-01T09:14:01.999Z</time></trkpt><trkpt lat="42.892764703715905" lon="11.865782507510508"><ele>579.0</ele><time>2026-05-01T09:14:02.999Z</time></trkpt><trkpt lat="42.892793543281435" lon="11.865925768074321"><ele>579.0</ele><time>2026-05-01T09:14:03.999Z</time></trkpt><trkpt lat="42.89283990789116" lon="11.866091968272949"><ele>579.0</ele><time>2026-05-01T09:14:04.999Z</time></trkpt><trkpt lat="42.89289024896554" lon="11.866252021768066"><ele>582.6</ele><time>2026-05-01T09:14:05.998Z</time></trkpt><trkpt lat="42.89292776742534" lon="11.866399945080612"><ele>586.2</ele><time>2026-05-01T09:14:06.998Z</time></trkpt><trkpt lat="42.892942046423514" lon="11.866527086436015"><ele>589.8000000000001</ele><time>2026-05-01T09:14:07.998Z</time></trkpt><trkpt lat="42.8929298778559" lon="11.866664911440324"><ele>593.4</ele><time>2026-05-01T09:14:08.998Z</time></trkpt><trkpt lat="42.89288929230133" lon="11.866783423848872"><ele>597.0</ele><time>2026-05-01T09:14:09.998Z</time></trkpt><trkpt lat="42.892831069199154" lon="11.866907977165079"><ele>598.2</ele><time>2026-05-01T09:14:10.998Z</time></trkpt><trkpt lat="42.89275608043156" lon="11.867015091595068"><ele>599.4000000000001</ele><time>2026-05-01T09:14:11.998Z</time></trkpt><trkpt lat="42.892668924703365" lon="11.867053171424788"><ele>600.5999999999999</ele><time>2026-05-01T09:14:12.998Z</time></trkpt><trkpt lat="42.89258729280715" lon="11.867033524085333"><ele>601.8</ele><time>2026-05-01T09:14:13.998Z</time></trkpt><trkpt lat="42.89251609010472" lon="11.8669833167353"><ele>603.0</ele><time>2026-05-01T09:14:14.998Z</time></trkpt><trkpt lat="42.89244724840629" lon="11.866908127780189"><ele>603.0</ele><time>2026-05-01T09:14:15.998Z</time></trkpt><trkpt lat="42.89238632043729" lon="11.866813456461134"><ele>603.0</ele><time>2026-05-01T09:14:16.998Z</time></trkpt><trkpt lat="42.892321210926596" lon="11.866748535898907"><ele>603.0</ele><time>2026-05-01T09:14:17.998Z</time></trkpt><trkpt lat="42.89224200469013" lon="11.866738496468557"><ele>603.0</ele><time>2026-05-01T09:14:18.998Z</time></trkpt><trkpt lat="42.892135155158826" lon="11.866774667104798"><ele>603.0</ele><time>2026-05-01T09:14:19.998Z</time></trkpt><trkpt lat="42.892003593394726" lon="11.866841163948152"><ele>603.0</ele><time>2026-05-01T09:14:20.998Z</time></trkpt><trkpt lat="42.8918482218682" lon="11.866921054086529"><ele>603.0</ele><time>2026-05-01T09:14:21.998Z</time></trkpt><trkpt lat="42.891717329989945" lon="11.867006899289585"><ele>603.0</ele><time>2026-05-01T09:14:22.998Z</time></trkpt><trkpt lat="42.891591593450926" lon="11.867114734740488"><ele>602.25</ele><time>2026-05-01T09:14:23.998Z</time></trkpt><trkpt lat="42.89144493484668" lon="11.867198579345725"><ele>601.5</ele><time>2026-05-01T09:14:24.998Z</time></trkpt><trkpt lat="42.89132458592527" lon="11.86729674845609"><ele>600.75</ele><time>2026-05-01T09:14:25.998Z</time></trkpt><trkpt lat="42.89122731486621" lon="11.867428811619847"><ele>600.0</ele><time>2026-05-01T09:14:26.998Z</time></trkpt><trkpt lat="42.891144069435995" lon="11.867502850690038"><ele>600.0</ele><time>2026-05-01T09:14:28Z</time></trkpt><trkpt lat="42.8910625466739" lon="11.86753320262308"><ele>600.0</ele><time>2026-05-01T09:14:29Z</time></trkpt><trkpt lat="42.89096191434281" lon="11.867510935307967"><ele>600.0</ele><time>2026-05-01T09:14:30Z</time></trkpt><trkpt lat="42.890834789086355" lon="11.86744913484371"><ele>600.0</ele><time>2026-05-01T09:14:31Z</time></trkpt><trkpt lat="42.89068365052837" lon="11.867389453380742"><ele>600.0</ele><time>2026-05-01T09:14:32Z</time></trkpt><trkpt lat="42.89051309632969" lon="11.867349608171894"><ele>600.0</ele><time>2026-05-01T09:14:33Z</time></trkpt><trkpt lat="42.89036601296044" lon="11.867326920946459"><ele>600.0</ele><time>2026-05-01T09:14:34Z</time></trkpt><trkpt lat="42.89023752490941" lon="11.867312240393725"><ele>600.0</ele><time>2026-05-01T09:14:35Z</time></trkpt><trkpt lat="42.89011544715883" lon="11.867330879715785"><ele>600.0</ele><time>2026-05-01T09:14:36Z</time></trkpt><trkpt lat="42.88999508421417" lon="11.867368217774398"><ele>600.0</ele><time>2026-05-01T09:14:37Z</time></trkpt><trkpt lat="42.889892207260736" lon="11.867420645735383"><ele>600.0</ele><time>2026-05-01T09:14:38Z</time></trkpt><trkpt lat="42.88979817692199" lon="11.867475468065289"><ele>601.5</ele><time>2026-05-01T09:14:39Z</time></trkpt><trkpt lat="42.88969887816328" lon="11.867566142514034"><ele>603.0</ele><time>2026-05-01T09:14:40Z</time></trkpt><trkpt lat="42.88957380353342" lon="11.867670366985749"><ele>604.5</ele><time>2026-05-01T09:14:41Z</time></trkpt><trkpt lat="42.889441138228364" lon="11.867796765370956"><ele>606.0</ele><time>2026-05-01T09:14:42Z</time></trkpt><trkpt lat="42.889312444943386" lon="11.86789982715043"><ele>606.6</ele><time>2026-05-01T09:14:43Z</time></trkpt><trkpt lat="42.88919221190604" lon="11.867955105706285"><ele>607.2</ele><time>2026-05-01T09:14:44Z</time></trkpt><trkpt lat="42.88909418567364" lon="11.86799649889883"><ele>607.8</ele><time>2026-05-01T09:14:45Z</time></trkpt><trkpt lat="42.889016914239114" lon="11.868045568688922"><ele>608.4</ele><time>2026-05-01T09:14:46Z</time></trkpt><trkpt lat="42.88895784433687" lon="11.868129953644182"><ele>609.0</ele><time>2026-05-01T09:14:47Z</time></trkpt><trkpt lat="42.8889096698646" lon="11.868235463963634"><ele>609.0</ele><time>2026-05-01T09:14:48Z</time></trkpt><trkpt lat="42.88889671883164" lon="11.868411016598198"><ele>609.0</ele><time>2026-05-01T09:14:49Z</time></trkpt><trkpt lat="42.88887080083918" lon="11.868589617128945"><ele>609.0</ele><time>2026-05-01T09:14:50Z</time></trkpt><trkpt lat="42.88883286783032" lon="11.868740877268444"><ele>609.0</ele><time>2026-05-01T09:14:51Z</time></trkpt><trkpt lat="42.88878277236567" lon="11.86889152388121"><ele>610.0</ele><time>2026-05-01T09:14:52Z</time></trkpt><trkpt lat="42.88873704545351" lon="11.869011392208522"><ele>611.0</ele><time>2026-05-01T09:14:53Z</time></trkpt><trkpt lat="42.88869361421947" lon="11.869108247186768"><ele>612.0</ele><time>2026-05-01T09:14:54Z</time></trkpt><trkpt lat="42.88864652019152" lon="11.869187118089338"><ele>613.0</ele><time>2026-05-01T09:14:55Z</time></trkpt><trkpt lat="42.88859036498286" lon="11.869277583593117"><ele>614.0</ele><time>2026-05-01T09:14:56Z</time></trkpt><trkpt lat="42.888510253279414" lon="11.869378158342201"><ele>614.8</ele><time>2026-05-01T09:14:57Z</time></trkpt><trkpt lat="42.88843721823844" lon="11.869480805134703"><ele>615.5999999999999</ele><time>2026-05-01T09:14:58Z</time></trkpt><trkpt lat="42.88837484892779" lon="11.869575687391226"><ele>616.4</ele><time>2026-05-01T09:14:59Z</time></trkpt><trkpt lat="42.88830219606747" lon="11.869667703339287"><ele>617.1999999999999</ele><time>2026-05-01T09:15:00Z</time></trkpt><trkpt lat="42.88819604295665" lon="11.869721804213121"><ele>618.0</ele><time>2026-05-01T09:15:01Z</time></trkpt><trkpt lat="42.888061569666895" lon="11.869761401710665"><ele>618.0</ele><time>2026-05-01T09:15:02Z</time></trkpt><trkpt lat="42.88791257514239" lon="11.869878674569726"><ele>618.0</ele><time>2026-05-01T09:15:03Z</time></trkpt><trkpt lat="42.88775850072567" lon="11.870017535064365"><ele>618.0</ele><time>2026-05-01T09:15:04Z</time></trkpt><trkpt lat="42.88762692810955" lon="11.870134713450701"><ele>620.75</ele><time>2026-05-01T09:15:05Z</time></trkpt><trkpt lat="42.88751313631197" lon="11.870215297961147"><ele>623.5</ele><time>2026-05-01T09:15:06Z</time></trkpt><trkpt lat="42.88740623939231" lon="11.87027674964538"><ele>626.25</ele><time>2026-05-01T09:15:07Z</time></trkpt><trkpt lat="42.88729813272332" lon="11.87033419575422"><ele>629.0</ele><time>2026-05-01T09:15:08Z</time></trkpt><trkpt lat="42.887180767200114" lon="11.870389044940735"><ele>629.0</ele><time>2026-05-01T09:15:09Z</time></trkpt><trkpt lat="42.88705695438191" lon="11.87044328491038"><ele>629.0</ele><time>2026-05-01T09:15:10Z</time></trkpt><trkpt lat="42.886944783701445" lon="11.870526465210284"><ele>629.0</ele><time>2026-05-01T09:15:10.999Z</time></trkpt><trkpt lat="42.88684044114781" lon="11.870615370384428"><ele>629.0</ele><time>2026-05-01T09:15:11.999Z</time></trkpt><trkpt lat="42.88675110625901" lon="11.870700050745992"><ele>628.2</ele><time>2026-05-01T09:15:12.999Z</time></trkpt><trkpt lat="42.88665141838421" lon="11.870776217933198"><ele>627.4</ele><time>2026-05-01T09:15:13.999Z</time></trkpt><trkpt lat="42.88658173794423" lon="11.870886988171733"><ele>626.6</ele><time>2026-05-01T09:15:14.999Z</time></trkpt><trkpt lat="42.886513870130116" lon="11.870998842385463"><ele>625.8</ele><time>2026-05-01T09:15:15.999Z</time></trkpt><trkpt lat="42.88643804837405" lon="11.871093973175718"><ele>625.0</ele><time>2026-05-01T09:15:16.999Z</time></trkpt><trkpt lat="42.88638021272679" lon="11.871209053194013"><ele>625.0</ele><time>2026-05-01T09:15:17.999Z</time></trkpt><trkpt lat="42.8863359332498" lon="11.87135845108812"><ele>625.0</ele><time>2026-05-01T09:15:18.999Z</time></trkpt><trkpt lat="42.886320264153106" lon="11.871536051361046"><ele>625.0</ele><time>2026-05-01T09:15:19.999Z</time></trkpt><trkpt lat="42.886280228459796" lon="11.871676750451503"><ele>625.0</ele><time>2026-05-01T09:15:20.999Z</time></trkpt><trkpt lat="42.88625650248992" lon="11.871798701848006"><ele>626.0</ele><time>2026-05-01T09:15:21.999Z</time></trkpt><trkpt lat="42.88621530501409" lon="11.871883634057468"><ele>627.0</ele><time>2026-05-01T09:15:22.999Z</time></trkpt><trkpt lat="42.886156963055065" lon="11.871931317807736"><ele>628.0</ele><time>2026-05-01T09:15:23.999Z</time></trkpt><trkpt lat="42.88608183894701" lon="11.871901265808546"><ele>629.0</ele><time>2026-05-01T09:15:24.999Z</time></trkpt><trkpt lat="42.88598095774056" lon="11.871894467869069"><ele>630.0</ele><time>2026-05-01T09:15:25.999Z</time></trkpt><trkpt lat="42.88585766070675" lon="11.87188464498746"><ele>631.0</ele><time>2026-05-01T09:15:26.999Z</time></trkpt><trkpt lat="42.885718219850645" lon="11.871884958857052"><ele>631.0</ele><time>2026-05-01T09:15:27.999Z</time></trkpt><trkpt lat="42.88556012561991" lon="11.871901648611773"><ele>631.0</ele><time>2026-05-01T09:15:28.999Z</time></trkpt><trkpt lat="42.885417535526" lon="11.8719533843772"><ele>631.0</ele><time>2026-05-01T09:15:29.999Z</time></trkpt><trkpt lat="42.885257905475456" lon="11.871978065748422"><ele>631.0</ele><time>2026-05-01T09:15:30.999Z</time></trkpt><trkpt lat="42.885113130499455" lon="11.872028701569437"><ele>631.0</ele><time>2026-05-01T09:15:31.999Z</time></trkpt><trkpt lat="42.8849981664379" lon="11.87207187729132"><ele>631.0</ele><time>2026-05-01T09:15:32.999Z</time></trkpt><trkpt lat="42.88488532088214" lon="11.872117459395428"><ele>631.0</ele><time>2026-05-01T09:15:33.999Z</time></trkpt><trkpt lat="42.88478494969984" lon="11.872181366364856"><ele>630.8333333333334</ele><time>2026-05-01T09:15:34.999Z</time></trkpt><trkpt lat="42.884700397242575" lon="11.872288514023165"><ele>630.6666666666667</ele><time>2026-05-01T09:15:35.999Z</time></trkpt><trkpt lat="42.88464576676647" lon="11.872391511575595"><ele>630.5</ele><time>2026-05-01T09:15:36.999Z</time></trkpt><trkpt lat="42.884578075961706" lon="11.87247489636432"><ele>630.3333333333334</ele><time>2026-05-01T09:15:37.999Z</time></trkpt><trkpt lat="42.88452574036311" lon="11.87253891160154"><ele>630.1666666666666</ele><time>2026-05-01T09:15:38.999Z</time></trkpt><trkpt lat="42.884460747735965" lon="11.872588590598006"><ele>630.0</ele><time>2026-05-01T09:15:39.999Z</time></trkpt><trkpt lat="42.88436818252645" lon="11.872598669361075"><ele>629.4</ele><time>2026-05-01T09:15:40.999Z</time></trkpt><trkpt lat="42.88425029640741" lon="11.872578339229834"><ele>628.8</ele><time>2026-05-01T09:15:41.999Z</time></trkpt><trkpt lat="42.88412422207855" lon="11.872586730381547"><ele>628.2</ele><time>2026-05-01T09:15:42.999Z</time></trkpt><trkpt lat="42.88403336732795" lon="11.872618365099507"><ele>627.6</ele><time>2026-05-01T09:15:43.999Z</time></trkpt><trkpt lat="42.88396626107876" lon="11.872628731956514"><ele>627.0</ele><time>2026-05-01T09:15:44.999Z</time></trkpt><trkpt lat="42.88385195923576" lon="11.872658794573985"><ele>628.2</ele><time>2026-05-01T09:15:46.999Z</time></trkpt><trkpt lat="42.883789314368066" lon="11.872698997469495"><ele>629.4000000000001</ele><time>2026-05-01T09:15:47.999Z</time></trkpt><trkpt lat="42.883706360050795" lon="11.872765419969737"><ele>630.5999999999999</ele><time>2026-05-01T09:15:48.999Z</time></trkpt><trkpt lat="42.883618397570764" lon="11.872885079081616"><ele>631.8</ele><time>2026-05-01T09:15:49.999Z</time></trkpt><trkpt lat="42.88352333866781" lon="11.872985452517408"><ele>633.0</ele><time>2026-05-01T09:15:50.999Z</time></trkpt><trkpt lat="42.88344177136709" lon="11.873114691072926"><ele>631.6</ele><time>2026-05-01T09:15:51.999Z</time></trkpt><trkpt lat="42.883355626275765" lon="11.873211900247554"><ele>630.1999999999999</ele><time>2026-05-01T09:15:52.999Z</time></trkpt><trkpt lat="42.8832774380724" lon="11.873279882972005"><ele>628.8</ele><time>2026-05-01T09:15:53.999Z</time></trkpt><trkpt lat="42.883189344377435" lon="11.873319061750788"><ele>627.4</ele><time>2026-05-01T09:15:54.999Z</time></trkpt><trkpt lat="42.88307624717572" lon="11.87332235634386"><ele>626.0</ele><time>2026-05-01T09:15:55.999Z</time></trkpt><trkpt lat="42.88291601219822" lon="11.873309352721359"><ele>626.0</ele><time>2026-05-01T09:15:56.999Z</time></trkpt><trkpt lat="42.88276942762587" lon="11.873267180335853"><ele>626.0</ele><time>2026-05-01T09:15:57.999Z</time></trkpt><trkpt lat="42.88265011003289" lon="11.873234885355815"><ele>626.0</ele><time>2026-05-01T09:15:58.999Z</time></trkpt><trkpt lat="42.88253237867083" lon="11.87322581180092"><ele>626.0</ele><time>2026-05-01T09:15:59.999Z</time></trkpt><trkpt lat="42.882400504007094" lon="11.873255616394056"><ele>624.6666666666666</ele><time>2026-05-01T09:16:00.999Z</time></trkpt><trkpt lat="42.88224741803053" lon="11.873310141110334"><ele>623.3333333333334</ele><time>2026-05-01T09:16:01.999Z</time></trkpt><trkpt lat="42.88210276072775" lon="11.873370634941905"><ele>622.0</ele><time>2026-05-01T09:16:02.999Z</time></trkpt><trkpt lat="42.88193740240345" lon="11.873390547098241"><ele>622.0</ele><time>2026-05-01T09:16:03.999Z</time></trkpt><trkpt lat="42.88176891552255" lon="11.873413476306867"><ele>622.0</ele><time>2026-05-01T09:16:04.999Z</time></trkpt><trkpt lat="42.88161739464067" lon="11.87344399256067"><ele>622.0</ele><time>2026-05-01T09:16:05.999Z</time></trkpt><trkpt lat="42.88148135152945" lon="11.87349261414601"><ele>626.25</ele><time>2026-05-01T09:16:06.999Z</time></trkpt><trkpt lat="42.881345138907975" lon="11.873535872594225"><ele>630.5</ele><time>2026-05-01T09:16:07.999Z</time></trkpt><trkpt lat="42.88121335346241" lon="11.873567866898833"><ele>634.75</ele><time>2026-05-01T09:16:08.999Z</time></trkpt><trkpt lat="42.881089747524484" lon="11.873626771581705"><ele>639.0</ele><time>2026-05-01T09:16:09.998Z</time></trkpt><trkpt lat="42.88095978152156" lon="11.873725500654215"><ele>636.5</ele><time>2026-05-01T09:16:10.998Z</time></trkpt><trkpt lat="42.880837495202215" lon="11.873839096191398"><ele>634.0</ele><time>2026-05-01T09:16:11.998Z</time></trkpt><trkpt lat="42.880730317359664" lon="11.873957643485527"><ele>631.5</ele><time>2026-05-01T09:16:12.998Z</time></trkpt><trkpt lat="42.88063370114804" lon="11.87403282179318"><ele>629.0</ele><time>2026-05-01T09:16:13.998Z</time></trkpt><trkpt lat="42.88056498256712" lon="11.874092271445905"><ele>629.0</ele><time>2026-05-01T09:16:14.998Z</time></trkpt><trkpt lat="42.880504488344336" lon="11.874126527213496"><ele>629.0</ele><time>2026-05-01T09:16:15.998Z</time></trkpt><trkpt lat="42.880398801376685" lon="11.87403853461703"><ele>629.0</ele><time>2026-05-01T09:16:17.998Z</time></trkpt><trkpt lat="42.88035983714199" lon="11.873885974949264"><ele>629.0</ele><time>2026-05-01T09:16:18.998Z</time></trkpt><trkpt lat="42.88028441980531" lon="11.873745504573105"><ele>629.0</ele><time>2026-05-01T09:16:19.998Z</time></trkpt><trkpt lat="42.88023030086976" lon="11.873637678768846"><ele>629.0</ele><time>2026-05-01T09:16:20.998Z</time></trkpt><trkpt lat="42.880160653918544" lon="11.873562895548103"><ele>629.0</ele><time>2026-05-01T09:16:21.998Z</time></trkpt><trkpt lat="42.8800693726568" lon="11.873509686863073"><ele>629.0</ele><time>2026-05-01T09:16:22.998Z</time></trkpt><trkpt lat="42.87995558793651" lon="11.873471850306526"><ele>629.0</ele><time>2026-05-01T09:16:23.998Z</time></trkpt><trkpt lat="42.87982447554593" lon="11.87346960379799"><ele>629.0</ele><time>2026-05-01T09:16:24.998Z</time></trkpt><trkpt lat="42.87967829794414" lon="11.873502580869802"><ele>628.25</ele><time>2026-05-01T09:16:25.998Z</time></trkpt><trkpt lat="42.879521618783755" lon="11.87354585718907"><ele>627.5</ele><time>2026-05-01T09:16:26.998Z</time></trkpt><trkpt lat="42.87937955875678" lon="11.873569946354733"><ele>626.75</ele><time>2026-05-01T09:16:27.998Z</time></trkpt><trkpt lat="42.879253399010274" lon="11.873610558113304"><ele>626.0</ele><time>2026-05-01T09:16:28.998Z</time></trkpt><trkpt lat="42.87914156848625" lon="11.873648831000311"><ele>624.8</ele><time>2026-05-01T09:16:29.998Z</time></trkpt><trkpt lat="42.879039715123504" lon="11.873688409381712"><ele>623.6</ele><time>2026-05-01T09:16:30.998Z</time></trkpt><trkpt lat="42.87893169267363" lon="11.873705442576558"><ele>622.4</ele><time>2026-05-01T09:16:31.998Z</time></trkpt><trkpt lat="42.87885149592343" lon="11.873747897372603"><ele>621.2</ele><time>2026-05-01T09:16:32.998Z</time></trkpt><trkpt lat="42.878781509496534" lon="11.873789438798603"><ele>620.0</ele><time>2026-05-01T09:16:34Z</time></trkpt><trkpt lat="42.878684107969256" lon="11.873877691629547"><ele>620.0</ele><time>2026-05-01T09:16:36Z</time></trkpt><trkpt lat="42.87861615094302" lon="11.873955309904895"><ele>620.0</ele><time>2026-05-01T09:16:38Z</time></trkpt><trkpt lat="42.878546249319974" lon="11.874042837555118"><ele>620.0</ele><time>2026-05-01T09:16:40Z</time></trkpt><trkpt lat="42.878472245099616" lon="11.874139376949447"><ele>620.0</ele><time>2026-05-01T09:16:42Z</time></trkpt><trkpt lat="42.878384459893105" lon="11.874254791736643"><ele>620.0</ele><time>2026-05-01T09:16:44Z</time></trkpt><trkpt lat="42.878346922692124" lon="11.874333976378857"><ele>618.0</ele><time>2026-05-01T09:16:45Z</time></trkpt><trkpt lat="42.87826522569493" lon="11.874445176774199"><ele>616.0</ele><time>2026-05-01T09:16:47Z</time></trkpt><trkpt lat="42.87819832372332" lon="11.874551661600735"><ele>614.0</ele><time>2026-05-01T09:16:49Z</time></trkpt><trkpt lat="42.878134157923824" lon="11.874619369396106"><ele>612.0</ele><time>2026-05-01T09:16:51Z</time></trkpt><trkpt lat="42.878062943422044" lon="11.87465150029207"><ele>610.0</ele><time>2026-05-01T09:16:52Z</time></trkpt><trkpt lat="42.87794682622514" lon="11.87468661108396"><ele>610.0</ele><time>2026-05-01T09:16:53Z</time></trkpt><trkpt lat="42.877828181452664" lon="11.874763989233285"><ele>610.0</ele><time>2026-05-01T09:16:54Z</time></trkpt><trkpt lat="42.87770546393166" lon="11.87489167293584"><ele>610.0</ele><time>2026-05-01T09:16:55Z</time></trkpt><trkpt lat="42.877578329831806" lon="11.875042445144647"><ele>606.6666666666667</ele><time>2026-05-01T09:16:56Z</time></trkpt><trkpt lat="42.87744949543366" lon="11.875224160079462"><ele>603.3333333333334</ele><time>2026-05-01T09:16:57Z</time></trkpt><trkpt lat="42.877332435428244" lon="11.875398666979383"><ele>600.0</ele><time>2026-05-01T09:16:58Z</time></trkpt><trkpt lat="42.877216837957015" lon="11.875527357373885"><ele>600.0</ele><time>2026-05-01T09:16:59Z</time></trkpt><trkpt lat="42.87713643842989" lon="11.87564717139475"><ele>600.0</ele><time>2026-05-01T09:17:00Z</time></trkpt><trkpt lat="42.87703450005464" lon="11.875709266536497"><ele>600.0</ele><time>2026-05-01T09:17:01Z</time></trkpt><trkpt lat="42.87691365234839" lon="11.875722344050459"><ele>600.0</ele><time>2026-05-01T09:17:02Z</time></trkpt><trkpt lat="42.876782072834025" lon="11.87565204465468"><ele>598.3333333333334</ele><time>2026-05-01T09:17:03Z</time></trkpt><trkpt lat="42.87661946718606" lon="11.875610335397322"><ele>596.6666666666667</ele><time>2026-05-01T09:17:04Z</time></trkpt><trkpt lat="42.8764478339942" lon="11.875541713376101"><ele>595.0</ele><time>2026-05-01T09:17:05Z</time></trkpt><trkpt lat="42.87628425494264" lon="11.875491605616551"><ele>595.0</ele><time>2026-05-01T09:17:06Z</time></trkpt><trkpt lat="42.87613465230784" lon="11.875446443850516"><ele>595.0</ele><time>2026-05-01T09:17:07Z</time></trkpt><trkpt lat="42.87598946346001" lon="11.875401851036797"><ele>595.0</ele><time>2026-05-01T09:17:08Z</time></trkpt><trkpt lat="42.875840519790664" lon="11.875365170437993"><ele>593.0</ele><time>2026-05-01T09:17:09Z</time></trkpt><trkpt lat="42.87568750176559" lon="11.875340550939828"><ele>591.0</ele><time>2026-05-01T09:17:10Z</time></trkpt><trkpt lat="42.87552897140782" lon="11.875338787488454"><ele>589.0</ele><time>2026-05-01T09:17:11Z</time></trkpt><trkpt lat="42.87538318479252" lon="11.875353175312215"><ele>589.0</ele><time>2026-05-01T09:17:12Z</time></trkpt><trkpt lat="42.875246437025126" lon="11.875374429721411"><ele>589.0</ele><time>2026-05-01T09:17:13Z</time></trkpt><trkpt lat="42.87512201951073" lon="11.875406368719641"><ele>589.0</ele><time>2026-05-01T09:17:14Z</time></trkpt><trkpt lat="42.87500757132132" lon="11.875436109305204"><ele>589.0</ele><time>2026-05-01T09:17:15Z</time></trkpt><trkpt lat="42.87490105208992" lon="11.875483059315158"><ele>588.2</ele><time>2026-05-01T09:17:15.999Z</time></trkpt><trkpt lat="42.87480312030146" lon="11.875558368258508"><ele>587.4</ele><time>2026-05-01T09:17:16.999Z</time></trkpt><trkpt lat="42.87471221703518" lon="11.875662120389114"><ele>586.6</ele><time>2026-05-01T09:17:17.999Z</time></trkpt><trkpt lat="42.87463727445023" lon="11.87576749949435"><ele>585.8</ele><time>2026-05-01T09:17:18.999Z</time></trkpt><trkpt lat="42.8745719256991" lon="11.875849547263236"><ele>585.0</ele><time>2026-05-01T09:17:19.999Z</time></trkpt><trkpt lat="42.87449417969922" lon="11.875905168940077"><ele>585.0</ele><time>2026-05-01T09:17:20.999Z</time></trkpt><trkpt lat="42.87440205790305" lon="11.87592587062056"><ele>585.0</ele><time>2026-05-01T09:17:21.999Z</time></trkpt><trkpt lat="42.874286862933275" lon="11.875909758464216"><ele>585.0</ele><time>2026-05-01T09:17:22.999Z</time></trkpt><trkpt lat="42.874144498175895" lon="11.875864811502947"><ele>585.0</ele><time>2026-05-01T09:17:23.999Z</time></trkpt><trkpt lat="42.874008133174435" lon="11.875818310540158"><ele>583.8</ele><time>2026-05-01T09:17:24.999Z</time></trkpt><trkpt lat="42.87390115474765" lon="11.87578819650456"><ele>582.6</ele><time>2026-05-01T09:17:25.999Z</time></trkpt><trkpt lat="42.87381331135762" lon="11.875766162918294"><ele>581.4</ele><time>2026-05-01T09:17:26.999Z</time></trkpt><trkpt lat="42.873736671668986" lon="11.875753423702601"><ele>580.2</ele><time>2026-05-01T09:17:27.999Z</time></trkpt><trkpt lat="42.87364722716834" lon="11.875726132398517"><ele>579.0</ele><time>2026-05-01T09:17:29.999Z</time></trkpt><trkpt lat="42.87356009302013" lon="11.875698339816198"><ele>579.0</ele><time>2026-05-01T09:17:33.999Z</time></trkpt><trkpt lat="42.87350036093331" lon="11.87582674728427"><ele>579.0</ele><time>2026-05-01T09:17:34.999Z</time></trkpt><trkpt lat="42.8734660871374" lon="11.875952522621963"><ele>579.0</ele><time>2026-05-01T09:17:35.999Z</time></trkpt><trkpt lat="42.87339487863166" lon="11.876070030418491"><ele>579.0</ele><time>2026-05-01T09:17:36.999Z</time></trkpt><trkpt lat="42.873330167773" lon="11.876239539843386"><ele>577.0</ele><time>2026-05-01T09:17:37.999Z</time></trkpt><trkpt lat="42.87323834265803" lon="11.876406998945628"><ele>575.0</ele><time>2026-05-01T09:17:38.999Z</time></trkpt><trkpt lat="42.87313542495605" lon="11.876506658474005"><ele>573.0</ele><time>2026-05-01T09:17:39.999Z</time></trkpt><trkpt lat="42.87304846972608" lon="11.876614380099404"><ele>571.0</ele><time>2026-05-01T09:17:40.999Z</time></trkpt><trkpt lat="42.872969656545905" lon="11.87671465101235"><ele>571.2</ele><time>2026-05-01T09:17:41.999Z</time></trkpt><trkpt lat="42.87291345051893" lon="11.876813273263563"><ele>571.4000000000001</ele><time>2026-05-01T09:17:42.999Z</time></trkpt><trkpt lat="42.87285206087428" lon="11.876874145709364"><ele>571.6</ele><time>2026-05-01T09:17:43.999Z</time></trkpt><trkpt lat="42.87279601251729" lon="11.876929502548295"><ele>571.8000000000001</ele><time>2026-05-01T09:17:44.999Z</time></trkpt><trkpt lat="42.87263302627454" lon="11.87691091316272"><ele>572.0</ele><time>2026-05-01T09:17:46.999Z</time></trkpt><trkpt lat="42.87254333480993" lon="11.876847679498493"><ele>573.75</ele><time>2026-05-01T09:17:47.999Z</time></trkpt><trkpt lat="42.872432829608584" lon="11.876791867541257"><ele>575.5</ele><time>2026-05-01T09:17:48.999Z</time></trkpt><trkpt lat="42.87230893758264" lon="11.876769621289503"><ele>577.25</ele><time>2026-05-01T09:17:49.999Z</time></trkpt><trkpt lat="42.8721822579842" lon="11.87677364823702"><ele>579.0</ele><time>2026-05-01T09:17:50.999Z</time></trkpt><trkpt lat="42.872059928339795" lon="11.876797074951815"><ele>579.0</ele><time>2026-05-01T09:17:51.999Z</time></trkpt><trkpt lat="42.87193912565487" lon="11.876796476301365"><ele>579.0</ele><time>2026-05-01T09:17:52.999Z</time></trkpt><trkpt lat="42.871827648245976" lon="11.87678059053504"><ele>579.0</ele><time>2026-05-01T09:17:53.999Z</time></trkpt><trkpt lat="42.8717039076048" lon="11.876766291808094"><ele>579.0</ele><time>2026-05-01T09:17:54.999Z</time></trkpt><trkpt lat="42.87156222778553" lon="11.87677105637035"><ele>579.75</ele><time>2026-05-01T09:17:55.999Z</time></trkpt><trkpt lat="42.871424471051654" lon="11.87681408975378"><ele>580.5</ele><time>2026-05-01T09:17:56.999Z</time></trkpt><trkpt lat="42.871290323646015" lon="11.876876625793274"><ele>581.25</ele><time>2026-05-01T09:17:57.999Z</time></trkpt><trkpt lat="42.87116504731654" lon="11.87694381463648"><ele>582.0</ele><time>2026-05-01T09:17:58.999Z</time></trkpt><trkpt lat="42.871059618247585" lon="11.876998375386624"><ele>582.0</ele><time>2026-05-01T09:17:59.999Z</time></trkpt><trkpt lat="42.870949139815586" lon="11.877052800935344"><ele>582.0</ele><time>2026-05-01T09:18:00.999Z</time></trkpt><trkpt lat="42.87085126917595" lon="11.877094754405073"><ele>582.0</ele><time>2026-05-01T09:18:01.999Z</time></trkpt><trkpt lat="42.87075201790788" lon="11.87714116309833"><ele>582.0</ele><time>2026-05-01T09:18:02.999Z</time></trkpt><trkpt lat="42.87066412624019" lon="11.877186000733774"><ele>582.0</ele><time>2026-05-01T09:18:03.999Z</time></trkpt><trkpt lat="42.87057961751229" lon="11.877225653459401"><ele>581.5</ele><time>2026-05-01T09:18:04.999Z</time></trkpt><trkpt lat="42.870507880449495" lon="11.877248013091236"><ele>581.0</ele><time>2026-05-01T09:18:05.999Z</time></trkpt><trkpt lat="42.870418350709635" lon="11.877232934098254"><ele>580.5</ele><time>2026-05-01T09:18:07.999Z</time></trkpt><trkpt lat="42.870346191393025" lon="11.877253455861197"><ele>580.0</ele><time>2026-05-01T09:18:09.999Z</time></trkpt><trkpt lat="42.87030554232662" lon="11.877329371427695"><ele>579.5</ele><time>2026-05-01T09:18:11.999Z</time></trkpt><trkpt lat="42.87020972474" lon="11.87729242587333"><ele>579.0</ele><time>2026-05-01T09:18:12.999Z</time></trkpt><trkpt lat="42.87014728914063" lon="11.877394208900355"><ele>579.0</ele><time>2026-05-01T09:18:14.999Z</time></trkpt><trkpt lat="42.870115528077754" lon="11.877469088440503"><ele>579.0</ele><time>2026-05-01T09:18:17.998Z</time></trkpt><trkpt lat="42.87008695782104" lon="11.877545791734711"><ele>579.0</ele><time>2026-05-01T09:18:32.998Z</time></trkpt><trkpt lat="42.870104184303024" lon="11.87773030379499"><ele>579.0</ele><time>2026-05-01T09:18:36.998Z</time></trkpt><trkpt lat="42.87003609965169" lon="11.877856768363468"><ele>579.0</ele><time>2026-05-01T09:18:38.998Z</time></trkpt><trkpt lat="42.869982804252714" lon="11.877955758369753"><ele>579.1666666666666</ele><time>2026-05-01T09:18:41Z</time></trkpt><trkpt lat="42.869880071842225" lon="11.877911739982201"><ele>579.3333333333334</ele><time>2026-05-01T09:18:42Z</time></trkpt><trkpt lat="42.86988953327059" lon="11.878020251944251"><ele>579.5</ele><time>2026-05-01T09:18:45Z</time></trkpt><trkpt lat="42.86996014474986" lon="11.878062260789347"><ele>579.6666666666667</ele><time>2026-05-01T09:18:46Z</time></trkpt><trkpt lat="42.87001286367827" lon="11.877999531718629"><ele>579.8333333333334</ele><time>2026-05-01T09:18:48Z</time></trkpt><trkpt lat="42.87002917445643" lon="11.87791168497933"><ele>580.0</ele><time>2026-05-01T09:18:51Z</time></trkpt><trkpt lat="42.86995230723788" lon="11.87784855796165"><ele>580.0</ele><time>2026-05-01T09:18:53Z</time></trkpt><trkpt lat="42.86989614889368" lon="11.877893973752379"><ele>580.0</ele><time>2026-05-01T09:18:55Z</time></trkpt></trkseg></trk></gpx>